<?xml version="1.0" encoding="UTF-8" standalone="no" ?>
<gpx xmlns="http://www.topografix.com/GPX/1/1" xmlns:xsi="http://www.w3.org/2001/XMLSchema-instance" xsi:schemaLocation="http://www.topografix.com/GPX/1/1 http://www.topografix.com/GPX/1/1/gpx.xsd" version="1.1" creator="VisuGPX - https://www.visugpx.com">
  <metadata>
    <name>ski Moucherotte 1901m</name>
  </metadata>
  <trk>
    <name><![CDATA[ski Moucherotte 1901m]]></name>
    <trkseg>
      <trkpt lat="45.16483" lon="5.63038">
        <ele>1220.4000244141</ele>
        <time>2019-12-15T07:36:27.000Z</time>
      </trkpt>
      <trkpt lat="45.16479" lon="5.63043">
        <ele>1221</ele>
        <time>2019-12-15T07:36:42.000Z</time>
      </trkpt>
      <trkpt lat="45.16476" lon="5.63045">
        <ele>1221.4000244141</ele>
        <time>2019-12-15T07:36:46.000Z</time>
      </trkpt>
      <trkpt lat="45.16473" lon="5.63047">
        <ele>1221.5999755859</ele>
        <time>2019-12-15T07:36:49.000Z</time>
      </trkpt>
      <trkpt lat="45.16471" lon="5.63049">
        <ele>1221.8000488281</ele>
        <time>2019-12-15T07:36:52.000Z</time>
      </trkpt>
      <trkpt lat="45.1647" lon="5.6305">
        <ele>1222</ele>
        <time>2019-12-15T07:36:53.000Z</time>
      </trkpt>
      <trkpt lat="45.1647" lon="5.6305">
        <ele>1222.1999511719</ele>
        <time>2019-12-15T07:36:54.000Z</time>
      </trkpt>
      <trkpt lat="45.16468" lon="5.63051">
        <ele>1222.5999755859</ele>
        <time>2019-12-15T07:36:56.000Z</time>
      </trkpt>
      <trkpt lat="45.16465" lon="5.63053">
        <ele>1223</ele>
        <time>2019-12-15T07:36:59.000Z</time>
      </trkpt>
      <trkpt lat="45.16461" lon="5.63059">
        <ele>1223.5999755859</ele>
        <time>2019-12-15T07:37:06.000Z</time>
      </trkpt>
      <trkpt lat="45.16461" lon="5.63059">
        <ele>1223.8000488281</ele>
        <time>2019-12-15T07:37:07.000Z</time>
      </trkpt>
      <trkpt lat="45.16457" lon="5.63063">
        <ele>1224.4000244141</ele>
        <time>2019-12-15T07:37:12.000Z</time>
      </trkpt>
      <trkpt lat="45.16453" lon="5.63067">
        <ele>1224.8000488281</ele>
        <time>2019-12-15T07:37:19.000Z</time>
      </trkpt>
      <trkpt lat="45.16453" lon="5.63067">
        <ele>1224.8000488281</ele>
        <time>2019-12-15T07:37:20.000Z</time>
      </trkpt>
      <trkpt lat="45.16451" lon="5.63069">
        <ele>1225.4000244141</ele>
        <time>2019-12-15T07:37:24.000Z</time>
      </trkpt>
      <trkpt lat="45.16449" lon="5.6307">
        <ele>1226</ele>
        <time>2019-12-15T07:37:27.000Z</time>
      </trkpt>
      <trkpt lat="45.16447" lon="5.63072">
        <ele>1226.8000488281</ele>
        <time>2019-12-15T07:37:30.000Z</time>
      </trkpt>
      <trkpt lat="45.16447" lon="5.63073">
        <ele>1227</ele>
        <time>2019-12-15T07:37:31.000Z</time>
      </trkpt>
      <trkpt lat="45.16445" lon="5.63076">
        <ele>1227.8000488281</ele>
        <time>2019-12-15T07:37:35.000Z</time>
      </trkpt>
      <trkpt lat="45.16444" lon="5.63079">
        <ele>1228</ele>
        <time>2019-12-15T07:37:37.000Z</time>
      </trkpt>
      <trkpt lat="45.16442" lon="5.63082">
        <ele>1228.8000488281</ele>
        <time>2019-12-15T07:37:41.000Z</time>
      </trkpt>
      <trkpt lat="45.16442" lon="5.63083">
        <ele>1229.1999511719</ele>
        <time>2019-12-15T07:37:42.000Z</time>
      </trkpt>
      <trkpt lat="45.1644" lon="5.63086">
        <ele>1230.1999511719</ele>
        <time>2019-12-15T07:37:46.000Z</time>
      </trkpt>
      <trkpt lat="45.1644" lon="5.63087">
        <ele>1230.4000244141</ele>
        <time>2019-12-15T07:37:47.000Z</time>
      </trkpt>
      <trkpt lat="45.16437" lon="5.63091">
        <ele>1231.1999511719</ele>
        <time>2019-12-15T07:37:53.000Z</time>
      </trkpt>
      <trkpt lat="45.16435" lon="5.63095">
        <ele>1232.4000244141</ele>
        <time>2019-12-15T07:37:59.000Z</time>
      </trkpt>
      <trkpt lat="45.16434" lon="5.63096">
        <ele>1233.1999511719</ele>
        <time>2019-12-15T07:38:04.000Z</time>
      </trkpt>
      <trkpt lat="45.16434" lon="5.63096">
        <ele>1233.5999755859</ele>
        <time>2019-12-15T07:38:07.000Z</time>
      </trkpt>
      <trkpt lat="45.16433" lon="5.63098">
        <ele>1234</ele>
        <time>2019-12-15T07:38:10.000Z</time>
      </trkpt>
      <trkpt lat="45.1643" lon="5.63103">
        <ele>1234.1999511719</ele>
        <time>2019-12-15T07:38:15.000Z</time>
      </trkpt>
      <trkpt lat="45.16429" lon="5.63105">
        <ele>1234.5999755859</ele>
        <time>2019-12-15T07:38:17.000Z</time>
      </trkpt>
      <trkpt lat="45.16427" lon="5.63108">
        <ele>1235.8000488281</ele>
        <time>2019-12-15T07:38:21.000Z</time>
      </trkpt>
      <trkpt lat="45.16425" lon="5.63112">
        <ele>1236.5999755859</ele>
        <time>2019-12-15T07:38:26.000Z</time>
      </trkpt>
      <trkpt lat="45.16424" lon="5.63113">
        <ele>1237</ele>
        <time>2019-12-15T07:38:28.000Z</time>
      </trkpt>
      <trkpt lat="45.16423" lon="5.63115">
        <ele>1238.1999511719</ele>
        <time>2019-12-15T07:38:32.000Z</time>
      </trkpt>
      <trkpt lat="45.16423" lon="5.63116">
        <ele>1238.4000244141</ele>
        <time>2019-12-15T07:38:33.000Z</time>
      </trkpt>
      <trkpt lat="45.16421" lon="5.6312">
        <ele>1239.1999511719</ele>
        <time>2019-12-15T07:38:38.000Z</time>
      </trkpt>
      <trkpt lat="45.16421" lon="5.63121">
        <ele>1239.8000488281</ele>
        <time>2019-12-15T07:38:40.000Z</time>
      </trkpt>
      <trkpt lat="45.1642" lon="5.63123">
        <ele>1240.4000244141</ele>
        <time>2019-12-15T07:38:43.000Z</time>
      </trkpt>
      <trkpt lat="45.16419" lon="5.63125">
        <ele>1240.8000488281</ele>
        <time>2019-12-15T07:38:46.000Z</time>
      </trkpt>
      <trkpt lat="45.16418" lon="5.63128">
        <ele>1241.5999755859</ele>
        <time>2019-12-15T07:38:49.000Z</time>
      </trkpt>
      <trkpt lat="45.16417" lon="5.63129">
        <ele>1241.8000488281</ele>
        <time>2019-12-15T07:38:51.000Z</time>
      </trkpt>
      <trkpt lat="45.16416" lon="5.63131">
        <ele>1242.8000488281</ele>
        <time>2019-12-15T07:38:55.000Z</time>
      </trkpt>
      <trkpt lat="45.16415" lon="5.63133">
        <ele>1243.5999755859</ele>
        <time>2019-12-15T07:38:57.000Z</time>
      </trkpt>
      <trkpt lat="45.16414" lon="5.63133">
        <ele>1243.8000488281</ele>
        <time>2019-12-15T07:38:58.000Z</time>
      </trkpt>
      <trkpt lat="45.16413" lon="5.63134">
        <ele>1244.4000244141</ele>
        <time>2019-12-15T07:39:02.000Z</time>
      </trkpt>
      <trkpt lat="45.16413" lon="5.63134">
        <ele>1245</ele>
        <time>2019-12-15T07:39:05.000Z</time>
      </trkpt>
      <trkpt lat="45.1641" lon="5.63134">
        <ele>1245.1999511719</ele>
        <time>2019-12-15T07:39:08.000Z</time>
      </trkpt>
      <trkpt lat="45.16407" lon="5.63134">
        <ele>1245.8000488281</ele>
        <time>2019-12-15T07:39:13.000Z</time>
      </trkpt>
      <trkpt lat="45.16405" lon="5.63135">
        <ele>1246.1999511719</ele>
        <time>2019-12-15T07:39:15.000Z</time>
      </trkpt>
      <trkpt lat="45.16404" lon="5.63135">
        <ele>1246.8000488281</ele>
        <time>2019-12-15T07:39:18.000Z</time>
      </trkpt>
      <trkpt lat="45.16402" lon="5.63136">
        <ele>1247.1999511719</ele>
        <time>2019-12-15T07:39:21.000Z</time>
      </trkpt>
      <trkpt lat="45.164" lon="5.63136">
        <ele>1247.8000488281</ele>
        <time>2019-12-15T07:39:24.000Z</time>
      </trkpt>
      <trkpt lat="45.16399" lon="5.63136">
        <ele>1248.4000244141</ele>
        <time>2019-12-15T07:39:27.000Z</time>
      </trkpt>
      <trkpt lat="45.16398" lon="5.63136">
        <ele>1248.5999755859</ele>
        <time>2019-12-15T07:39:28.000Z</time>
      </trkpt>
      <trkpt lat="45.16394" lon="5.63136">
        <ele>1249.5999755859</ele>
        <time>2019-12-15T07:39:33.000Z</time>
      </trkpt>
      <trkpt lat="45.16394" lon="5.63136">
        <ele>1249.8000488281</ele>
        <time>2019-12-15T07:39:34.000Z</time>
      </trkpt>
      <trkpt lat="45.16391" lon="5.63136">
        <ele>1250.4000244141</ele>
        <time>2019-12-15T07:39:38.000Z</time>
      </trkpt>
      <trkpt lat="45.1639" lon="5.63136">
        <ele>1250.5999755859</ele>
        <time>2019-12-15T07:39:39.000Z</time>
      </trkpt>
      <trkpt lat="45.16387" lon="5.63135">
        <ele>1251</ele>
        <time>2019-12-15T07:39:43.000Z</time>
      </trkpt>
      <trkpt lat="45.16385" lon="5.63134">
        <ele>1251.5999755859</ele>
        <time>2019-12-15T07:39:46.000Z</time>
      </trkpt>
      <trkpt lat="45.16383" lon="5.63134">
        <ele>1252</ele>
        <time>2019-12-15T07:39:49.000Z</time>
      </trkpt>
      <trkpt lat="45.16381" lon="5.63134">
        <ele>1252.8000488281</ele>
        <time>2019-12-15T07:39:55.000Z</time>
      </trkpt>
      <trkpt lat="45.16377" lon="5.63135">
        <ele>1253.8000488281</ele>
        <time>2019-12-15T07:40:00.000Z</time>
      </trkpt>
      <trkpt lat="45.16377" lon="5.63136">
        <ele>1254.4000244141</ele>
        <time>2019-12-15T07:40:02.000Z</time>
      </trkpt>
      <trkpt lat="45.16376" lon="5.63136">
        <ele>1254.5999755859</ele>
        <time>2019-12-15T07:40:03.000Z</time>
      </trkpt>
      <trkpt lat="45.16376" lon="5.63136">
        <ele>1255</ele>
        <time>2019-12-15T07:40:05.000Z</time>
      </trkpt>
      <trkpt lat="45.16376" lon="5.63136">
        <ele>1255.1999511719</ele>
        <time>2019-12-15T07:40:06.000Z</time>
      </trkpt>
      <trkpt lat="45.16376" lon="5.63136">
        <ele>1256.1999511719</ele>
        <time>2019-12-15T07:40:08.000Z</time>
      </trkpt>
      <trkpt lat="45.16376" lon="5.63136">
        <ele>1256.5999755859</ele>
        <time>2019-12-15T07:40:15.000Z</time>
      </trkpt>
      <trkpt lat="45.16376" lon="5.63136">
        <ele>1256.8000488281</ele>
        <time>2019-12-15T07:40:28.000Z</time>
      </trkpt>
      <trkpt lat="45.16376" lon="5.63136">
        <ele>1256.8000488281</ele>
        <time>2019-12-15T07:40:34.000Z</time>
      </trkpt>
      <trkpt lat="45.16376" lon="5.63136">
        <ele>1257</ele>
        <time>2019-12-15T07:40:41.000Z</time>
      </trkpt>
      <trkpt lat="45.16376" lon="5.63137">
        <ele>1257</ele>
        <time>2019-12-15T07:40:47.000Z</time>
      </trkpt>
      <trkpt lat="45.16376" lon="5.63137">
        <ele>1257</ele>
        <time>2019-12-15T07:40:48.000Z</time>
      </trkpt>
      <trkpt lat="45.16376" lon="5.63137">
        <ele>1257.1999511719</ele>
        <time>2019-12-15T07:40:53.000Z</time>
      </trkpt>
      <trkpt lat="45.16376" lon="5.63137">
        <ele>1257.1999511719</ele>
        <time>2019-12-15T07:40:59.000Z</time>
      </trkpt>
      <trkpt lat="45.16375" lon="5.63136">
        <ele>1256.1999511719</ele>
        <time>2019-12-15T07:41:05.000Z</time>
      </trkpt>
      <trkpt lat="45.16373" lon="5.63134">
        <ele>1256</ele>
        <time>2019-12-15T07:41:07.000Z</time>
      </trkpt>
      <trkpt lat="45.16371" lon="5.63132">
        <ele>1256.4000244141</ele>
        <time>2019-12-15T07:41:09.000Z</time>
      </trkpt>
      <trkpt lat="45.16367" lon="5.63129">
        <ele>1257.1999511719</ele>
        <time>2019-12-15T07:41:13.000Z</time>
      </trkpt>
      <trkpt lat="45.16358" lon="5.63124">
        <ele>1257.1999511719</ele>
        <time>2019-12-15T07:41:22.000Z</time>
      </trkpt>
      <trkpt lat="45.1635" lon="5.63115">
        <ele>1258.1999511719</ele>
        <time>2019-12-15T07:41:29.000Z</time>
      </trkpt>
      <trkpt lat="45.16346" lon="5.63112">
        <ele>1258.8000488281</ele>
        <time>2019-12-15T07:41:34.000Z</time>
      </trkpt>
      <trkpt lat="45.16341" lon="5.6311">
        <ele>1259.1999511719</ele>
        <time>2019-12-15T07:41:39.000Z</time>
      </trkpt>
      <trkpt lat="45.16337" lon="5.63106">
        <ele>1260.4000244141</ele>
        <time>2019-12-15T07:41:44.000Z</time>
      </trkpt>
      <trkpt lat="45.16336" lon="5.63106">
        <ele>1260.5999755859</ele>
        <time>2019-12-15T07:41:45.000Z</time>
      </trkpt>
      <trkpt lat="45.16331" lon="5.63104">
        <ele>1261.4000244141</ele>
        <time>2019-12-15T07:41:52.000Z</time>
      </trkpt>
      <trkpt lat="45.16331" lon="5.63104">
        <ele>1261.5999755859</ele>
        <time>2019-12-15T07:41:53.000Z</time>
      </trkpt>
      <trkpt lat="45.16332" lon="5.63104">
        <ele>1261.5999755859</ele>
        <time>2019-12-15T07:41:57.000Z</time>
      </trkpt>
      <trkpt lat="45.1633" lon="5.63103">
        <ele>1261.8000488281</ele>
        <time>2019-12-15T07:42:07.000Z</time>
      </trkpt>
      <trkpt lat="45.16325" lon="5.631">
        <ele>1262.4000244141</ele>
        <time>2019-12-15T07:42:12.000Z</time>
      </trkpt>
      <trkpt lat="45.16323" lon="5.63098">
        <ele>1262.5999755859</ele>
        <time>2019-12-15T07:42:14.000Z</time>
      </trkpt>
      <trkpt lat="45.16321" lon="5.63097">
        <ele>1262.8000488281</ele>
        <time>2019-12-15T07:42:16.000Z</time>
      </trkpt>
      <trkpt lat="45.16315" lon="5.63092">
        <ele>1263.4000244141</ele>
        <time>2019-12-15T07:42:22.000Z</time>
      </trkpt>
      <trkpt lat="45.16313" lon="5.63091">
        <ele>1263.5999755859</ele>
        <time>2019-12-15T07:42:24.000Z</time>
      </trkpt>
      <trkpt lat="45.1631" lon="5.63091">
        <ele>1264.1999511719</ele>
        <time>2019-12-15T07:42:28.000Z</time>
      </trkpt>
      <trkpt lat="45.16306" lon="5.63088">
        <ele>1264.8000488281</ele>
        <time>2019-12-15T07:42:33.000Z</time>
      </trkpt>
      <trkpt lat="45.16305" lon="5.63088">
        <ele>1264.8000488281</ele>
        <time>2019-12-15T07:42:34.000Z</time>
      </trkpt>
      <trkpt lat="45.163" lon="5.63087">
        <ele>1265.4000244141</ele>
        <time>2019-12-15T07:42:39.000Z</time>
      </trkpt>
      <trkpt lat="45.16296" lon="5.63088">
        <ele>1265.8000488281</ele>
        <time>2019-12-15T07:42:45.000Z</time>
      </trkpt>
      <trkpt lat="45.16296" lon="5.63088">
        <ele>1265.8000488281</ele>
        <time>2019-12-15T07:42:46.000Z</time>
      </trkpt>
      <trkpt lat="45.16296" lon="5.63088">
        <ele>1266.1999511719</ele>
        <time>2019-12-15T07:42:57.000Z</time>
      </trkpt>
      <trkpt lat="45.16292" lon="5.63086">
        <ele>1265.5999755859</ele>
        <time>2019-12-15T07:43:03.000Z</time>
      </trkpt>
      <trkpt lat="45.16287" lon="5.63081">
        <ele>1265.8000488281</ele>
        <time>2019-12-15T07:43:12.000Z</time>
      </trkpt>
      <trkpt lat="45.1628" lon="5.63077">
        <ele>1265.8000488281</ele>
        <time>2019-12-15T07:43:18.000Z</time>
      </trkpt>
      <trkpt lat="45.16273" lon="5.63074">
        <ele>1265.8000488281</ele>
        <time>2019-12-15T07:43:25.000Z</time>
      </trkpt>
      <trkpt lat="45.16267" lon="5.63073">
        <ele>1265.5999755859</ele>
        <time>2019-12-15T07:43:31.000Z</time>
      </trkpt>
      <trkpt lat="45.1626" lon="5.63071">
        <ele>1265.5999755859</ele>
        <time>2019-12-15T07:43:37.000Z</time>
      </trkpt>
      <trkpt lat="45.16254" lon="5.63069">
        <ele>1265.4000244141</ele>
        <time>2019-12-15T07:43:42.000Z</time>
      </trkpt>
      <trkpt lat="45.16246" lon="5.63067">
        <ele>1265.4000244141</ele>
        <time>2019-12-15T07:43:47.000Z</time>
      </trkpt>
      <trkpt lat="45.16241" lon="5.63065">
        <ele>1265.5999755859</ele>
        <time>2019-12-15T07:43:51.000Z</time>
      </trkpt>
      <trkpt lat="45.1624" lon="5.63064">
        <ele>1265.5999755859</ele>
        <time>2019-12-15T07:43:52.000Z</time>
      </trkpt>
      <trkpt lat="45.16231" lon="5.6306">
        <ele>1265.1999511719</ele>
        <time>2019-12-15T07:43:59.000Z</time>
      </trkpt>
      <trkpt lat="45.16222" lon="5.63055">
        <ele>1265</ele>
        <time>2019-12-15T07:44:06.000Z</time>
      </trkpt>
      <trkpt lat="45.16217" lon="5.63053">
        <ele>1265</ele>
        <time>2019-12-15T07:44:11.000Z</time>
      </trkpt>
      <trkpt lat="45.1621" lon="5.63052">
        <ele>1265</ele>
        <time>2019-12-15T07:44:16.000Z</time>
      </trkpt>
      <trkpt lat="45.16205" lon="5.63048">
        <ele>1265.1999511719</ele>
        <time>2019-12-15T07:44:21.000Z</time>
      </trkpt>
      <trkpt lat="45.16197" lon="5.63045">
        <ele>1265.1999511719</ele>
        <time>2019-12-15T07:44:27.000Z</time>
      </trkpt>
      <trkpt lat="45.16193" lon="5.63043">
        <ele>1264.8000488281</ele>
        <time>2019-12-15T07:44:30.000Z</time>
      </trkpt>
      <trkpt lat="45.1619" lon="5.63042">
        <ele>1264.5999755859</ele>
        <time>2019-12-15T07:44:33.000Z</time>
      </trkpt>
      <trkpt lat="45.16184" lon="5.63039">
        <ele>1264.1999511719</ele>
        <time>2019-12-15T07:44:39.000Z</time>
      </trkpt>
      <trkpt lat="45.16178" lon="5.63036">
        <ele>1264</ele>
        <time>2019-12-15T07:44:44.000Z</time>
      </trkpt>
      <trkpt lat="45.16173" lon="5.63033">
        <ele>1264.1999511719</ele>
        <time>2019-12-15T07:44:49.000Z</time>
      </trkpt>
      <trkpt lat="45.16164" lon="5.6303">
        <ele>1263.8000488281</ele>
        <time>2019-12-15T07:44:57.000Z</time>
      </trkpt>
      <trkpt lat="45.1616" lon="5.63032">
        <ele>1263.5999755859</ele>
        <time>2019-12-15T07:45:02.000Z</time>
      </trkpt>
      <trkpt lat="45.16159" lon="5.63032">
        <ele>1264</ele>
        <time>2019-12-15T07:45:10.000Z</time>
      </trkpt>
      <trkpt lat="45.16159" lon="5.63032">
        <ele>1264</ele>
        <time>2019-12-15T07:45:20.000Z</time>
      </trkpt>
      <trkpt lat="45.16157" lon="5.63033">
        <ele>1263.8000488281</ele>
        <time>2019-12-15T07:45:30.000Z</time>
      </trkpt>
      <trkpt lat="45.16153" lon="5.63034">
        <ele>1264</ele>
        <time>2019-12-15T07:45:36.000Z</time>
      </trkpt>
      <trkpt lat="45.16148" lon="5.63034">
        <ele>1264.5999755859</ele>
        <time>2019-12-15T07:45:42.000Z</time>
      </trkpt>
      <trkpt lat="45.16147" lon="5.63034">
        <ele>1264.8000488281</ele>
        <time>2019-12-15T07:45:43.000Z</time>
      </trkpt>
      <trkpt lat="45.16147" lon="5.63034">
        <ele>1265.5999755859</ele>
        <time>2019-12-15T07:45:49.000Z</time>
      </trkpt>
      <trkpt lat="45.16146" lon="5.63034">
        <ele>1265.8000488281</ele>
        <time>2019-12-15T07:45:52.000Z</time>
      </trkpt>
      <trkpt lat="45.16146" lon="5.63034">
        <ele>1266</ele>
        <time>2019-12-15T07:45:56.000Z</time>
      </trkpt>
      <trkpt lat="45.16146" lon="5.63034">
        <ele>1266</ele>
        <time>2019-12-15T07:46:05.000Z</time>
      </trkpt>
      <trkpt lat="45.1614" lon="5.63034">
        <ele>1266.4000244141</ele>
        <time>2019-12-15T07:46:11.000Z</time>
      </trkpt>
      <trkpt lat="45.16138" lon="5.63032">
        <ele>1266.8000488281</ele>
        <time>2019-12-15T07:46:13.000Z</time>
      </trkpt>
      <trkpt lat="45.16134" lon="5.63031">
        <ele>1267.5999755859</ele>
        <time>2019-12-15T07:46:16.000Z</time>
      </trkpt>
      <trkpt lat="45.16132" lon="5.63031">
        <ele>1268</ele>
        <time>2019-12-15T07:46:18.000Z</time>
      </trkpt>
      <trkpt lat="45.16128" lon="5.6303">
        <ele>1268.5999755859</ele>
        <time>2019-12-15T07:46:22.000Z</time>
      </trkpt>
      <trkpt lat="45.16127" lon="5.6303">
        <ele>1269.1999511719</ele>
        <time>2019-12-15T07:46:24.000Z</time>
      </trkpt>
      <trkpt lat="45.16123" lon="5.6303">
        <ele>1269.8000488281</ele>
        <time>2019-12-15T07:46:28.000Z</time>
      </trkpt>
      <trkpt lat="45.16121" lon="5.63031">
        <ele>1270.1999511719</ele>
        <time>2019-12-15T07:46:31.000Z</time>
      </trkpt>
      <trkpt lat="45.16117" lon="5.63032">
        <ele>1271</ele>
        <time>2019-12-15T07:46:35.000Z</time>
      </trkpt>
      <trkpt lat="45.16115" lon="5.63032">
        <ele>1271.4000244141</ele>
        <time>2019-12-15T07:46:37.000Z</time>
      </trkpt>
      <trkpt lat="45.16111" lon="5.63032">
        <ele>1272.4000244141</ele>
        <time>2019-12-15T07:46:42.000Z</time>
      </trkpt>
      <trkpt lat="45.1611" lon="5.63031">
        <ele>1272.5999755859</ele>
        <time>2019-12-15T07:46:43.000Z</time>
      </trkpt>
      <trkpt lat="45.16107" lon="5.63032">
        <ele>1273.8000488281</ele>
        <time>2019-12-15T07:46:47.000Z</time>
      </trkpt>
      <trkpt lat="45.16106" lon="5.63032">
        <ele>1274.1999511719</ele>
        <time>2019-12-15T07:46:49.000Z</time>
      </trkpt>
      <trkpt lat="45.16103" lon="5.63032">
        <ele>1274.8000488281</ele>
        <time>2019-12-15T07:46:53.000Z</time>
      </trkpt>
      <trkpt lat="45.16102" lon="5.63033">
        <ele>1275.5999755859</ele>
        <time>2019-12-15T07:46:56.000Z</time>
      </trkpt>
      <trkpt lat="45.16101" lon="5.63034">
        <ele>1276</ele>
        <time>2019-12-15T07:46:57.000Z</time>
      </trkpt>
      <trkpt lat="45.16097" lon="5.63034">
        <ele>1277</ele>
        <time>2019-12-15T07:47:03.000Z</time>
      </trkpt>
      <trkpt lat="45.16096" lon="5.63034">
        <ele>1277.1999511719</ele>
        <time>2019-12-15T07:47:05.000Z</time>
      </trkpt>
      <trkpt lat="45.16093" lon="5.63034">
        <ele>1278.1999511719</ele>
        <time>2019-12-15T07:47:09.000Z</time>
      </trkpt>
      <trkpt lat="45.16093" lon="5.63034">
        <ele>1278.4000244141</ele>
        <time>2019-12-15T07:47:10.000Z</time>
      </trkpt>
      <trkpt lat="45.1609" lon="5.63033">
        <ele>1279.1999511719</ele>
        <time>2019-12-15T07:47:14.000Z</time>
      </trkpt>
      <trkpt lat="45.16089" lon="5.63033">
        <ele>1279.5999755859</ele>
        <time>2019-12-15T07:47:16.000Z</time>
      </trkpt>
      <trkpt lat="45.16086" lon="5.63034">
        <ele>1280.4000244141</ele>
        <time>2019-12-15T07:47:21.000Z</time>
      </trkpt>
      <trkpt lat="45.16085" lon="5.63035">
        <ele>1281</ele>
        <time>2019-12-15T07:47:24.000Z</time>
      </trkpt>
      <trkpt lat="45.16083" lon="5.63035">
        <ele>1281.5999755859</ele>
        <time>2019-12-15T07:47:27.000Z</time>
      </trkpt>
      <trkpt lat="45.1608" lon="5.63035">
        <ele>1282.4000244141</ele>
        <time>2019-12-15T07:47:32.000Z</time>
      </trkpt>
      <trkpt lat="45.1608" lon="5.63036">
        <ele>1282.5999755859</ele>
        <time>2019-12-15T07:47:33.000Z</time>
      </trkpt>
      <trkpt lat="45.16076" lon="5.63036">
        <ele>1283.8000488281</ele>
        <time>2019-12-15T07:47:39.000Z</time>
      </trkpt>
      <trkpt lat="45.16073" lon="5.63036">
        <ele>1284.8000488281</ele>
        <time>2019-12-15T07:47:45.000Z</time>
      </trkpt>
      <trkpt lat="45.16071" lon="5.63035">
        <ele>1286</ele>
        <time>2019-12-15T07:47:50.000Z</time>
      </trkpt>
      <trkpt lat="45.1607" lon="5.63035">
        <ele>1286.4000244141</ele>
        <time>2019-12-15T07:47:51.000Z</time>
      </trkpt>
      <trkpt lat="45.16067" lon="5.63034">
        <ele>1287.1999511719</ele>
        <time>2019-12-15T07:47:55.000Z</time>
      </trkpt>
      <trkpt lat="45.16064" lon="5.63034">
        <ele>1288.1999511719</ele>
        <time>2019-12-15T07:48:00.000Z</time>
      </trkpt>
      <trkpt lat="45.16061" lon="5.63032">
        <ele>1289.4000244141</ele>
        <time>2019-12-15T07:48:05.000Z</time>
      </trkpt>
      <trkpt lat="45.16061" lon="5.63032">
        <ele>1289.5999755859</ele>
        <time>2019-12-15T07:48:06.000Z</time>
      </trkpt>
      <trkpt lat="45.16059" lon="5.63032">
        <ele>1290.4000244141</ele>
        <time>2019-12-15T07:48:10.000Z</time>
      </trkpt>
      <trkpt lat="45.16057" lon="5.63031">
        <ele>1290.8000488281</ele>
        <time>2019-12-15T07:48:13.000Z</time>
      </trkpt>
      <trkpt lat="45.16052" lon="5.6303">
        <ele>1291.5999755859</ele>
        <time>2019-12-15T07:48:19.000Z</time>
      </trkpt>
      <trkpt lat="45.16053" lon="5.63032">
        <ele>1292</ele>
        <time>2019-12-15T07:48:21.000Z</time>
      </trkpt>
      <trkpt lat="45.16053" lon="5.63033">
        <ele>1292.8000488281</ele>
        <time>2019-12-15T07:48:24.000Z</time>
      </trkpt>
      <trkpt lat="45.16053" lon="5.63038">
        <ele>1293.4000244141</ele>
        <time>2019-12-15T07:48:27.000Z</time>
      </trkpt>
      <trkpt lat="45.16053" lon="5.63042">
        <ele>1293.8000488281</ele>
        <time>2019-12-15T07:48:30.000Z</time>
      </trkpt>
      <trkpt lat="45.16053" lon="5.63044">
        <ele>1294.1999511719</ele>
        <time>2019-12-15T07:48:32.000Z</time>
      </trkpt>
      <trkpt lat="45.16053" lon="5.63045">
        <ele>1295</ele>
        <time>2019-12-15T07:48:35.000Z</time>
      </trkpt>
      <trkpt lat="45.16051" lon="5.63049">
        <ele>1295.4000244141</ele>
        <time>2019-12-15T07:48:40.000Z</time>
      </trkpt>
      <trkpt lat="45.16051" lon="5.63054">
        <ele>1296</ele>
        <time>2019-12-15T07:48:45.000Z</time>
      </trkpt>
      <trkpt lat="45.16051" lon="5.63054">
        <ele>1296.4000244141</ele>
        <time>2019-12-15T07:48:46.000Z</time>
      </trkpt>
      <trkpt lat="45.1605" lon="5.63056">
        <ele>1297.1999511719</ele>
        <time>2019-12-15T07:48:50.000Z</time>
      </trkpt>
      <trkpt lat="45.16051" lon="5.63057">
        <ele>1297.4000244141</ele>
        <time>2019-12-15T07:48:51.000Z</time>
      </trkpt>
      <trkpt lat="45.1605" lon="5.63061">
        <ele>1298.1999511719</ele>
        <time>2019-12-15T07:48:55.000Z</time>
      </trkpt>
      <trkpt lat="45.1605" lon="5.63061">
        <ele>1298.5999755859</ele>
        <time>2019-12-15T07:48:56.000Z</time>
      </trkpt>
      <trkpt lat="45.16049" lon="5.63062">
        <ele>1299.4000244141</ele>
        <time>2019-12-15T07:48:59.000Z</time>
      </trkpt>
      <trkpt lat="45.16048" lon="5.63062">
        <ele>1300.4000244141</ele>
        <time>2019-12-15T07:49:03.000Z</time>
      </trkpt>
      <trkpt lat="45.16045" lon="5.6306">
        <ele>1301.4000244141</ele>
        <time>2019-12-15T07:49:07.000Z</time>
      </trkpt>
      <trkpt lat="45.16043" lon="5.63059">
        <ele>1301.8000488281</ele>
        <time>2019-12-15T07:49:10.000Z</time>
      </trkpt>
      <trkpt lat="45.16038" lon="5.63058">
        <ele>1302.5999755859</ele>
        <time>2019-12-15T07:49:18.000Z</time>
      </trkpt>
      <trkpt lat="45.16037" lon="5.63059">
        <ele>1302.8000488281</ele>
        <time>2019-12-15T07:49:19.000Z</time>
      </trkpt>
      <trkpt lat="45.16035" lon="5.6306">
        <ele>1303.5999755859</ele>
        <time>2019-12-15T07:49:22.000Z</time>
      </trkpt>
      <trkpt lat="45.16035" lon="5.6306">
        <ele>1304.1999511719</ele>
        <time>2019-12-15T07:49:24.000Z</time>
      </trkpt>
      <trkpt lat="45.16033" lon="5.63061">
        <ele>1304.8000488281</ele>
        <time>2019-12-15T07:49:27.000Z</time>
      </trkpt>
      <trkpt lat="45.1603" lon="5.6306">
        <ele>1305.5999755859</ele>
        <time>2019-12-15T07:49:31.000Z</time>
      </trkpt>
      <trkpt lat="45.16028" lon="5.63062">
        <ele>1306</ele>
        <time>2019-12-15T07:49:34.000Z</time>
      </trkpt>
      <trkpt lat="45.16027" lon="5.63064">
        <ele>1307</ele>
        <time>2019-12-15T07:49:38.000Z</time>
      </trkpt>
      <trkpt lat="45.16026" lon="5.63065">
        <ele>1307.5999755859</ele>
        <time>2019-12-15T07:49:40.000Z</time>
      </trkpt>
      <trkpt lat="45.16025" lon="5.63065">
        <ele>1308</ele>
        <time>2019-12-15T07:49:42.000Z</time>
      </trkpt>
      <trkpt lat="45.16025" lon="5.63067">
        <ele>1309</ele>
        <time>2019-12-15T07:49:47.000Z</time>
      </trkpt>
      <trkpt lat="45.16025" lon="5.63068">
        <ele>1309.1999511719</ele>
        <time>2019-12-15T07:49:48.000Z</time>
      </trkpt>
      <trkpt lat="45.16023" lon="5.63071">
        <ele>1310.1999511719</ele>
        <time>2019-12-15T07:49:53.000Z</time>
      </trkpt>
      <trkpt lat="45.16023" lon="5.63076">
        <ele>1310.8000488281</ele>
        <time>2019-12-15T07:49:56.000Z</time>
      </trkpt>
      <trkpt lat="45.16023" lon="5.63078">
        <ele>1311.1999511719</ele>
        <time>2019-12-15T07:49:58.000Z</time>
      </trkpt>
      <trkpt lat="45.16022" lon="5.63082">
        <ele>1312.4000244141</ele>
        <time>2019-12-15T07:50:04.000Z</time>
      </trkpt>
      <trkpt lat="45.16022" lon="5.63083">
        <ele>1312.5999755859</ele>
        <time>2019-12-15T07:50:05.000Z</time>
      </trkpt>
      <trkpt lat="45.16021" lon="5.63084">
        <ele>1313.8000488281</ele>
        <time>2019-12-15T07:50:09.000Z</time>
      </trkpt>
      <trkpt lat="45.1602" lon="5.63085">
        <ele>1314.4000244141</ele>
        <time>2019-12-15T07:50:12.000Z</time>
      </trkpt>
      <trkpt lat="45.1602" lon="5.63087">
        <ele>1314.8000488281</ele>
        <time>2019-12-15T07:50:14.000Z</time>
      </trkpt>
      <trkpt lat="45.1602" lon="5.63087">
        <ele>1315.8000488281</ele>
        <time>2019-12-15T07:50:21.000Z</time>
      </trkpt>
      <trkpt lat="45.1602" lon="5.63087">
        <ele>1316</ele>
        <time>2019-12-15T07:50:22.000Z</time>
      </trkpt>
      <trkpt lat="45.1602" lon="5.63089">
        <ele>1316.8000488281</ele>
        <time>2019-12-15T07:50:27.000Z</time>
      </trkpt>
      <trkpt lat="45.16018" lon="5.6309">
        <ele>1317.1999511719</ele>
        <time>2019-12-15T07:50:30.000Z</time>
      </trkpt>
      <trkpt lat="45.16015" lon="5.63091">
        <ele>1318.4000244141</ele>
        <time>2019-12-15T07:50:33.000Z</time>
      </trkpt>
      <trkpt lat="45.16012" lon="5.63092">
        <ele>1319.4000244141</ele>
        <time>2019-12-15T07:50:37.000Z</time>
      </trkpt>
      <trkpt lat="45.16011" lon="5.63092">
        <ele>1319.8000488281</ele>
        <time>2019-12-15T07:50:39.000Z</time>
      </trkpt>
      <trkpt lat="45.16009" lon="5.63092">
        <ele>1320.4000244141</ele>
        <time>2019-12-15T07:50:44.000Z</time>
      </trkpt>
      <trkpt lat="45.16008" lon="5.63092">
        <ele>1320.5999755859</ele>
        <time>2019-12-15T07:50:45.000Z</time>
      </trkpt>
      <trkpt lat="45.16006" lon="5.63091">
        <ele>1321.4000244141</ele>
        <time>2019-12-15T07:50:49.000Z</time>
      </trkpt>
      <trkpt lat="45.16006" lon="5.63091">
        <ele>1321.5999755859</ele>
        <time>2019-12-15T07:50:50.000Z</time>
      </trkpt>
      <trkpt lat="45.16004" lon="5.63093">
        <ele>1322.4000244141</ele>
        <time>2019-12-15T07:50:56.000Z</time>
      </trkpt>
      <trkpt lat="45.16004" lon="5.63094">
        <ele>1322.8000488281</ele>
        <time>2019-12-15T07:50:57.000Z</time>
      </trkpt>
      <trkpt lat="45.16003" lon="5.63094">
        <ele>1324</ele>
        <time>2019-12-15T07:51:01.000Z</time>
      </trkpt>
      <trkpt lat="45.16003" lon="5.63094">
        <ele>1324.5999755859</ele>
        <time>2019-12-15T07:51:05.000Z</time>
      </trkpt>
      <trkpt lat="45.16003" lon="5.63094">
        <ele>1325</ele>
        <time>2019-12-15T07:51:08.000Z</time>
      </trkpt>
      <trkpt lat="45.16002" lon="5.63099">
        <ele>1325.8000488281</ele>
        <time>2019-12-15T07:51:13.000Z</time>
      </trkpt>
      <trkpt lat="45.16002" lon="5.63101">
        <ele>1326.1999511719</ele>
        <time>2019-12-15T07:51:15.000Z</time>
      </trkpt>
      <trkpt lat="45.16002" lon="5.63104">
        <ele>1326.5999755859</ele>
        <time>2019-12-15T07:51:19.000Z</time>
      </trkpt>
      <trkpt lat="45.16" lon="5.63108">
        <ele>1327.1999511719</ele>
        <time>2019-12-15T07:51:24.000Z</time>
      </trkpt>
      <trkpt lat="45.16" lon="5.63109">
        <ele>1327.4000244141</ele>
        <time>2019-12-15T07:51:26.000Z</time>
      </trkpt>
      <trkpt lat="45.16" lon="5.63109">
        <ele>1328.1999511719</ele>
        <time>2019-12-15T07:51:29.000Z</time>
      </trkpt>
      <trkpt lat="45.15999" lon="5.63113">
        <ele>1328.1999511719</ele>
        <time>2019-12-15T07:51:34.000Z</time>
      </trkpt>
      <trkpt lat="45.15998" lon="5.63114">
        <ele>1329.4000244141</ele>
        <time>2019-12-15T07:51:38.000Z</time>
      </trkpt>
      <trkpt lat="45.15998" lon="5.63114">
        <ele>1330.1999511719</ele>
        <time>2019-12-15T07:51:40.000Z</time>
      </trkpt>
      <trkpt lat="45.15998" lon="5.63114">
        <ele>1330.4000244141</ele>
        <time>2019-12-15T07:51:41.000Z</time>
      </trkpt>
      <trkpt lat="45.15996" lon="5.63115">
        <ele>1331.1999511719</ele>
        <time>2019-12-15T07:51:46.000Z</time>
      </trkpt>
      <trkpt lat="45.15996" lon="5.63115">
        <ele>1331.5999755859</ele>
        <time>2019-12-15T07:51:48.000Z</time>
      </trkpt>
      <trkpt lat="45.15995" lon="5.63117">
        <ele>1332.8000488281</ele>
        <time>2019-12-15T07:51:52.000Z</time>
      </trkpt>
      <trkpt lat="45.15994" lon="5.63118">
        <ele>1333.8000488281</ele>
        <time>2019-12-15T07:51:57.000Z</time>
      </trkpt>
      <trkpt lat="45.15994" lon="5.63119">
        <ele>1334</ele>
        <time>2019-12-15T07:51:58.000Z</time>
      </trkpt>
      <trkpt lat="45.15992" lon="5.63123">
        <ele>1335</ele>
        <time>2019-12-15T07:52:02.000Z</time>
      </trkpt>
      <trkpt lat="45.15991" lon="5.63124">
        <ele>1335.8000488281</ele>
        <time>2019-12-15T07:52:05.000Z</time>
      </trkpt>
      <trkpt lat="45.1599" lon="5.63125">
        <ele>1336.1999511719</ele>
        <time>2019-12-15T07:52:07.000Z</time>
      </trkpt>
      <trkpt lat="45.15986" lon="5.63127">
        <ele>1337.1999511719</ele>
        <time>2019-12-15T07:52:11.000Z</time>
      </trkpt>
      <trkpt lat="45.15982" lon="5.63127">
        <ele>1337.8000488281</ele>
        <time>2019-12-15T07:52:16.000Z</time>
      </trkpt>
      <trkpt lat="45.1598" lon="5.63127">
        <ele>1338.1999511719</ele>
        <time>2019-12-15T07:52:19.000Z</time>
      </trkpt>
      <trkpt lat="45.15978" lon="5.63129">
        <ele>1339</ele>
        <time>2019-12-15T07:52:23.000Z</time>
      </trkpt>
      <trkpt lat="45.15978" lon="5.63129">
        <ele>1339.1999511719</ele>
        <time>2019-12-15T07:52:24.000Z</time>
      </trkpt>
      <trkpt lat="45.15978" lon="5.63133">
        <ele>1340.4000244141</ele>
        <time>2019-12-15T07:52:30.000Z</time>
      </trkpt>
      <trkpt lat="45.15978" lon="5.63133">
        <ele>1340.8000488281</ele>
        <time>2019-12-15T07:52:31.000Z</time>
      </trkpt>
      <trkpt lat="45.15978" lon="5.63135">
        <ele>1341.5999755859</ele>
        <time>2019-12-15T07:52:33.000Z</time>
      </trkpt>
      <trkpt lat="45.15977" lon="5.63137">
        <ele>1342.4000244141</ele>
        <time>2019-12-15T07:52:37.000Z</time>
      </trkpt>
      <trkpt lat="45.15977" lon="5.63138">
        <ele>1342.5999755859</ele>
        <time>2019-12-15T07:52:38.000Z</time>
      </trkpt>
      <trkpt lat="45.15976" lon="5.6314">
        <ele>1343.8000488281</ele>
        <time>2019-12-15T07:52:44.000Z</time>
      </trkpt>
      <trkpt lat="45.15976" lon="5.6314">
        <ele>1343.8000488281</ele>
        <time>2019-12-15T07:52:45.000Z</time>
      </trkpt>
      <trkpt lat="45.15975" lon="5.63142">
        <ele>1345</ele>
        <time>2019-12-15T07:52:49.000Z</time>
      </trkpt>
      <trkpt lat="45.15974" lon="5.63143">
        <ele>1345.4000244141</ele>
        <time>2019-12-15T07:52:51.000Z</time>
      </trkpt>
      <trkpt lat="45.15972" lon="5.63143">
        <ele>1346</ele>
        <time>2019-12-15T07:52:55.000Z</time>
      </trkpt>
      <trkpt lat="45.1597" lon="5.63144">
        <ele>1346.5999755859</ele>
        <time>2019-12-15T07:52:58.000Z</time>
      </trkpt>
      <trkpt lat="45.1597" lon="5.63144">
        <ele>1347.1999511719</ele>
        <time>2019-12-15T07:53:03.000Z</time>
      </trkpt>
      <trkpt lat="45.1597" lon="5.63144">
        <ele>1347.5999755859</ele>
        <time>2019-12-15T07:53:05.000Z</time>
      </trkpt>
      <trkpt lat="45.15969" lon="5.63147">
        <ele>1348.1999511719</ele>
        <time>2019-12-15T07:53:12.000Z</time>
      </trkpt>
      <trkpt lat="45.15969" lon="5.63147">
        <ele>1349.1999511719</ele>
        <time>2019-12-15T07:53:16.000Z</time>
      </trkpt>
      <trkpt lat="45.15969" lon="5.63147">
        <ele>1349.8000488281</ele>
        <time>2019-12-15T07:53:19.000Z</time>
      </trkpt>
      <trkpt lat="45.15969" lon="5.63147">
        <ele>1350.4000244141</ele>
        <time>2019-12-15T07:53:22.000Z</time>
      </trkpt>
      <trkpt lat="45.15968" lon="5.63149">
        <ele>1350.5999755859</ele>
        <time>2019-12-15T07:53:25.000Z</time>
      </trkpt>
      <trkpt lat="45.15966" lon="5.6315">
        <ele>1351.5999755859</ele>
        <time>2019-12-15T07:53:28.000Z</time>
      </trkpt>
      <trkpt lat="45.15963" lon="5.63152">
        <ele>1352.5999755859</ele>
        <time>2019-12-15T07:53:31.000Z</time>
      </trkpt>
      <trkpt lat="45.15962" lon="5.63153">
        <ele>1352.8000488281</ele>
        <time>2019-12-15T07:53:32.000Z</time>
      </trkpt>
      <trkpt lat="45.15959" lon="5.63157">
        <ele>1353.4000244141</ele>
        <time>2019-12-15T07:53:38.000Z</time>
      </trkpt>
      <trkpt lat="45.15957" lon="5.6316">
        <ele>1354</ele>
        <time>2019-12-15T07:53:42.000Z</time>
      </trkpt>
      <trkpt lat="45.15956" lon="5.63161">
        <ele>1354.1999511719</ele>
        <time>2019-12-15T07:53:44.000Z</time>
      </trkpt>
      <trkpt lat="45.15956" lon="5.63161">
        <ele>1355</ele>
        <time>2019-12-15T07:53:46.000Z</time>
      </trkpt>
      <trkpt lat="45.15956" lon="5.63165">
        <ele>1355.5999755859</ele>
        <time>2019-12-15T07:53:52.000Z</time>
      </trkpt>
      <trkpt lat="45.15956" lon="5.63165">
        <ele>1356</ele>
        <time>2019-12-15T07:53:54.000Z</time>
      </trkpt>
      <trkpt lat="45.15956" lon="5.63165">
        <ele>1357.1999511719</ele>
        <time>2019-12-15T07:54:01.000Z</time>
      </trkpt>
      <trkpt lat="45.15956" lon="5.63173">
        <ele>1358.1999511719</ele>
        <time>2019-12-15T07:54:06.000Z</time>
      </trkpt>
      <trkpt lat="45.15955" lon="5.63179">
        <ele>1358.5999755859</ele>
        <time>2019-12-15T07:54:10.000Z</time>
      </trkpt>
      <trkpt lat="45.15955" lon="5.63182">
        <ele>1359.4000244141</ele>
        <time>2019-12-15T07:54:14.000Z</time>
      </trkpt>
      <trkpt lat="45.15954" lon="5.63186">
        <ele>1360.4000244141</ele>
        <time>2019-12-15T07:54:18.000Z</time>
      </trkpt>
      <trkpt lat="45.15954" lon="5.63188">
        <ele>1361</ele>
        <time>2019-12-15T07:54:20.000Z</time>
      </trkpt>
      <trkpt lat="45.15954" lon="5.6319">
        <ele>1361.4000244141</ele>
        <time>2019-12-15T07:54:22.000Z</time>
      </trkpt>
      <trkpt lat="45.15953" lon="5.63191">
        <ele>1361.8000488281</ele>
        <time>2019-12-15T07:54:25.000Z</time>
      </trkpt>
      <trkpt lat="45.15952" lon="5.63192">
        <ele>1362.5999755859</ele>
        <time>2019-12-15T07:54:29.000Z</time>
      </trkpt>
      <trkpt lat="45.15951" lon="5.63192">
        <ele>1363</ele>
        <time>2019-12-15T07:54:30.000Z</time>
      </trkpt>
      <trkpt lat="45.1595" lon="5.63192">
        <ele>1363.5999755859</ele>
        <time>2019-12-15T07:54:33.000Z</time>
      </trkpt>
      <trkpt lat="45.15947" lon="5.63192">
        <ele>1364.5999755859</ele>
        <time>2019-12-15T07:54:37.000Z</time>
      </trkpt>
      <trkpt lat="45.15946" lon="5.63192">
        <ele>1364.8000488281</ele>
        <time>2019-12-15T07:54:38.000Z</time>
      </trkpt>
      <trkpt lat="45.15945" lon="5.63193">
        <ele>1365.4000244141</ele>
        <time>2019-12-15T07:54:42.000Z</time>
      </trkpt>
      <trkpt lat="45.15944" lon="5.63194">
        <ele>1365.8000488281</ele>
        <time>2019-12-15T07:54:44.000Z</time>
      </trkpt>
      <trkpt lat="45.15942" lon="5.63194">
        <ele>1366.5999755859</ele>
        <time>2019-12-15T07:54:48.000Z</time>
      </trkpt>
      <trkpt lat="45.15942" lon="5.63194">
        <ele>1366.8000488281</ele>
        <time>2019-12-15T07:54:49.000Z</time>
      </trkpt>
      <trkpt lat="45.15941" lon="5.63195">
        <ele>1367.8000488281</ele>
        <time>2019-12-15T07:54:56.000Z</time>
      </trkpt>
      <trkpt lat="45.1594" lon="5.63195">
        <ele>1367.8000488281</ele>
        <time>2019-12-15T07:54:57.000Z</time>
      </trkpt>
      <trkpt lat="45.15938" lon="5.63196">
        <ele>1369</ele>
        <time>2019-12-15T07:55:02.000Z</time>
      </trkpt>
      <trkpt lat="45.15938" lon="5.63196">
        <ele>1369.8000488281</ele>
        <time>2019-12-15T07:55:06.000Z</time>
      </trkpt>
      <trkpt lat="45.15938" lon="5.63196">
        <ele>1369.5999755859</ele>
        <time>2019-12-15T07:55:18.000Z</time>
      </trkpt>
      <trkpt lat="45.15938" lon="5.63196">
        <ele>1370.1999511719</ele>
        <time>2019-12-15T07:55:27.000Z</time>
      </trkpt>
      <trkpt lat="45.15938" lon="5.63196">
        <ele>1369.8000488281</ele>
        <time>2019-12-15T07:55:36.000Z</time>
      </trkpt>
      <trkpt lat="45.15938" lon="5.63196">
        <ele>1369.8000488281</ele>
        <time>2019-12-15T07:55:49.000Z</time>
      </trkpt>
      <trkpt lat="45.15938" lon="5.63196">
        <ele>1369.4000244141</ele>
        <time>2019-12-15T07:56:08.000Z</time>
      </trkpt>
      <trkpt lat="45.15938" lon="5.63196">
        <ele>1370</ele>
        <time>2019-12-15T07:56:21.000Z</time>
      </trkpt>
      <trkpt lat="45.15938" lon="5.63196">
        <ele>1369.8000488281</ele>
        <time>2019-12-15T07:56:42.000Z</time>
      </trkpt>
      <trkpt lat="45.15938" lon="5.63196">
        <ele>1370</ele>
        <time>2019-12-15T07:56:53.000Z</time>
      </trkpt>
      <trkpt lat="45.15938" lon="5.63196">
        <ele>1369.8000488281</ele>
        <time>2019-12-15T07:57:08.000Z</time>
      </trkpt>
      <trkpt lat="45.15938" lon="5.63196">
        <ele>1369.8000488281</ele>
        <time>2019-12-15T07:57:27.000Z</time>
      </trkpt>
      <trkpt lat="45.15939" lon="5.63201">
        <ele>1369.8000488281</ele>
        <time>2019-12-15T07:57:39.000Z</time>
      </trkpt>
      <trkpt lat="45.15939" lon="5.63209">
        <ele>1370.4000244141</ele>
        <time>2019-12-15T07:57:44.000Z</time>
      </trkpt>
      <trkpt lat="45.15939" lon="5.63212">
        <ele>1371.4000244141</ele>
        <time>2019-12-15T07:57:47.000Z</time>
      </trkpt>
      <trkpt lat="45.1594" lon="5.63214">
        <ele>1372</ele>
        <time>2019-12-15T07:57:50.000Z</time>
      </trkpt>
      <trkpt lat="45.1594" lon="5.63217">
        <ele>1372.5999755859</ele>
        <time>2019-12-15T07:57:52.000Z</time>
      </trkpt>
      <trkpt lat="45.1594" lon="5.63219">
        <ele>1373.4000244141</ele>
        <time>2019-12-15T07:57:55.000Z</time>
      </trkpt>
      <trkpt lat="45.15939" lon="5.63221">
        <ele>1373.8000488281</ele>
        <time>2019-12-15T07:57:56.000Z</time>
      </trkpt>
      <trkpt lat="45.15939" lon="5.63224">
        <ele>1374.4000244141</ele>
        <time>2019-12-15T07:58:00.000Z</time>
      </trkpt>
      <trkpt lat="45.15938" lon="5.63224">
        <ele>1374.8000488281</ele>
        <time>2019-12-15T07:58:02.000Z</time>
      </trkpt>
      <trkpt lat="45.15936" lon="5.63225">
        <ele>1375.5999755859</ele>
        <time>2019-12-15T07:58:05.000Z</time>
      </trkpt>
      <trkpt lat="45.15935" lon="5.63225">
        <ele>1376</ele>
        <time>2019-12-15T07:58:07.000Z</time>
      </trkpt>
      <trkpt lat="45.15935" lon="5.63225">
        <ele>1377</ele>
        <time>2019-12-15T07:58:10.000Z</time>
      </trkpt>
      <trkpt lat="45.15935" lon="5.63225">
        <ele>1378.1999511719</ele>
        <time>2019-12-15T07:58:13.000Z</time>
      </trkpt>
      <trkpt lat="45.15935" lon="5.63225">
        <ele>1378.4000244141</ele>
        <time>2019-12-15T07:58:17.000Z</time>
      </trkpt>
      <trkpt lat="45.15931" lon="5.63226">
        <ele>1379.1999511719</ele>
        <time>2019-12-15T07:58:22.000Z</time>
      </trkpt>
      <trkpt lat="45.15927" lon="5.63227">
        <ele>1380.1999511719</ele>
        <time>2019-12-15T07:58:28.000Z</time>
      </trkpt>
      <trkpt lat="45.15927" lon="5.63227">
        <ele>1380.4000244141</ele>
        <time>2019-12-15T07:58:29.000Z</time>
      </trkpt>
      <trkpt lat="45.15924" lon="5.63227">
        <ele>1381.4000244141</ele>
        <time>2019-12-15T07:58:34.000Z</time>
      </trkpt>
      <trkpt lat="45.15923" lon="5.63227">
        <ele>1382.1999511719</ele>
        <time>2019-12-15T07:58:37.000Z</time>
      </trkpt>
      <trkpt lat="45.15921" lon="5.63229">
        <ele>1382.5999755859</ele>
        <time>2019-12-15T07:58:40.000Z</time>
      </trkpt>
      <trkpt lat="45.1592" lon="5.63233">
        <ele>1383.5999755859</ele>
        <time>2019-12-15T07:58:44.000Z</time>
      </trkpt>
      <trkpt lat="45.1592" lon="5.63234">
        <ele>1383.8000488281</ele>
        <time>2019-12-15T07:58:45.000Z</time>
      </trkpt>
      <trkpt lat="45.15919" lon="5.63238">
        <ele>1384.8000488281</ele>
        <time>2019-12-15T07:58:49.000Z</time>
      </trkpt>
      <trkpt lat="45.15919" lon="5.6324">
        <ele>1385.1999511719</ele>
        <time>2019-12-15T07:58:52.000Z</time>
      </trkpt>
      <trkpt lat="45.15919" lon="5.63243">
        <ele>1386</ele>
        <time>2019-12-15T07:58:55.000Z</time>
      </trkpt>
      <trkpt lat="45.15919" lon="5.63245">
        <ele>1386.5999755859</ele>
        <time>2019-12-15T07:58:57.000Z</time>
      </trkpt>
      <trkpt lat="45.15919" lon="5.63245">
        <ele>1387.1999511719</ele>
        <time>2019-12-15T07:58:58.000Z</time>
      </trkpt>
      <trkpt lat="45.15919" lon="5.6325">
        <ele>1388</ele>
        <time>2019-12-15T07:59:04.000Z</time>
      </trkpt>
      <trkpt lat="45.15919" lon="5.63251">
        <ele>1388.1999511719</ele>
        <time>2019-12-15T07:59:05.000Z</time>
      </trkpt>
      <trkpt lat="45.15919" lon="5.63254">
        <ele>1388.8000488281</ele>
        <time>2019-12-15T07:59:09.000Z</time>
      </trkpt>
      <trkpt lat="45.15919" lon="5.63255">
        <ele>1389.4000244141</ele>
        <time>2019-12-15T07:59:11.000Z</time>
      </trkpt>
      <trkpt lat="45.15918" lon="5.63257">
        <ele>1390</ele>
        <time>2019-12-15T07:59:13.000Z</time>
      </trkpt>
      <trkpt lat="45.15918" lon="5.63256">
        <ele>1390.1999511719</ele>
        <time>2019-12-15T07:59:14.000Z</time>
      </trkpt>
      <trkpt lat="45.15917" lon="5.63256">
        <ele>1390.4000244141</ele>
        <time>2019-12-15T07:59:15.000Z</time>
      </trkpt>
      <trkpt lat="45.15917" lon="5.63256">
        <ele>1391.1999511719</ele>
        <time>2019-12-15T07:59:18.000Z</time>
      </trkpt>
      <trkpt lat="45.15916" lon="5.63255">
        <ele>1391.5999755859</ele>
        <time>2019-12-15T07:59:20.000Z</time>
      </trkpt>
      <trkpt lat="45.15914" lon="5.63254">
        <ele>1392.1999511719</ele>
        <time>2019-12-15T07:59:25.000Z</time>
      </trkpt>
      <trkpt lat="45.15913" lon="5.63254">
        <ele>1392.5999755859</ele>
        <time>2019-12-15T07:59:27.000Z</time>
      </trkpt>
      <trkpt lat="45.15913" lon="5.63254">
        <ele>1393.4000244141</ele>
        <time>2019-12-15T07:59:30.000Z</time>
      </trkpt>
      <trkpt lat="45.15912" lon="5.63254">
        <ele>1393.8000488281</ele>
        <time>2019-12-15T07:59:33.000Z</time>
      </trkpt>
      <trkpt lat="45.15911" lon="5.63255">
        <ele>1394.5999755859</ele>
        <time>2019-12-15T07:59:38.000Z</time>
      </trkpt>
      <trkpt lat="45.15909" lon="5.63257">
        <ele>1395</ele>
        <time>2019-12-15T07:59:44.000Z</time>
      </trkpt>
      <trkpt lat="45.15908" lon="5.63256">
        <ele>1395.5999755859</ele>
        <time>2019-12-15T07:59:46.000Z</time>
      </trkpt>
      <trkpt lat="45.15907" lon="5.63256">
        <ele>1396</ele>
        <time>2019-12-15T07:59:48.000Z</time>
      </trkpt>
      <trkpt lat="45.15906" lon="5.63256">
        <ele>1397.1999511719</ele>
        <time>2019-12-15T07:59:54.000Z</time>
      </trkpt>
      <trkpt lat="45.15905" lon="5.63255">
        <ele>1397.4000244141</ele>
        <time>2019-12-15T07:59:56.000Z</time>
      </trkpt>
      <trkpt lat="45.15903" lon="5.63255">
        <ele>1398.1999511719</ele>
        <time>2019-12-15T08:00:00.000Z</time>
      </trkpt>
      <trkpt lat="45.15903" lon="5.63255">
        <ele>1399.4000244141</ele>
        <time>2019-12-15T08:00:05.000Z</time>
      </trkpt>
      <trkpt lat="45.15903" lon="5.63255">
        <ele>1399.5999755859</ele>
        <time>2019-12-15T08:00:06.000Z</time>
      </trkpt>
      <trkpt lat="45.15903" lon="5.63265">
        <ele>1400.1999511719</ele>
        <time>2019-12-15T08:00:14.000Z</time>
      </trkpt>
      <trkpt lat="45.15903" lon="5.63267">
        <ele>1400.4000244141</ele>
        <time>2019-12-15T08:00:15.000Z</time>
      </trkpt>
      <trkpt lat="45.15902" lon="5.63271">
        <ele>1401.4000244141</ele>
        <time>2019-12-15T08:00:19.000Z</time>
      </trkpt>
      <trkpt lat="45.159" lon="5.63276">
        <ele>1402.1999511719</ele>
        <time>2019-12-15T08:00:23.000Z</time>
      </trkpt>
      <trkpt lat="45.159" lon="5.63278">
        <ele>1402.5999755859</ele>
        <time>2019-12-15T08:00:25.000Z</time>
      </trkpt>
      <trkpt lat="45.159" lon="5.63284">
        <ele>1403.8000488281</ele>
        <time>2019-12-15T08:00:31.000Z</time>
      </trkpt>
      <trkpt lat="45.159" lon="5.63289">
        <ele>1404.8000488281</ele>
        <time>2019-12-15T08:00:35.000Z</time>
      </trkpt>
      <trkpt lat="45.15901" lon="5.63293">
        <ele>1405.8000488281</ele>
        <time>2019-12-15T08:00:39.000Z</time>
      </trkpt>
      <trkpt lat="45.15901" lon="5.63294">
        <ele>1405.8000488281</ele>
        <time>2019-12-15T08:00:40.000Z</time>
      </trkpt>
      <trkpt lat="45.15904" lon="5.63297">
        <ele>1406.5999755859</ele>
        <time>2019-12-15T08:00:45.000Z</time>
      </trkpt>
      <trkpt lat="45.15905" lon="5.63297">
        <ele>1407</ele>
        <time>2019-12-15T08:00:48.000Z</time>
      </trkpt>
      <trkpt lat="45.15907" lon="5.633">
        <ele>1407.4000244141</ele>
        <time>2019-12-15T08:00:52.000Z</time>
      </trkpt>
      <trkpt lat="45.15909" lon="5.63304">
        <ele>1408</ele>
        <time>2019-12-15T08:00:56.000Z</time>
      </trkpt>
      <trkpt lat="45.15912" lon="5.63306">
        <ele>1408.8000488281</ele>
        <time>2019-12-15T08:01:00.000Z</time>
      </trkpt>
      <trkpt lat="45.15913" lon="5.63308">
        <ele>1409.1999511719</ele>
        <time>2019-12-15T08:01:03.000Z</time>
      </trkpt>
      <trkpt lat="45.15915" lon="5.63311">
        <ele>1409.5999755859</ele>
        <time>2019-12-15T08:01:06.000Z</time>
      </trkpt>
      <trkpt lat="45.15919" lon="5.63313">
        <ele>1410.1999511719</ele>
        <time>2019-12-15T08:01:11.000Z</time>
      </trkpt>
      <trkpt lat="45.15919" lon="5.63313">
        <ele>1410.1999511719</ele>
        <time>2019-12-15T08:01:12.000Z</time>
      </trkpt>
      <trkpt lat="45.15924" lon="5.63317">
        <ele>1411.1999511719</ele>
        <time>2019-12-15T08:01:19.000Z</time>
      </trkpt>
      <trkpt lat="45.15925" lon="5.63318">
        <ele>1411.1999511719</ele>
        <time>2019-12-15T08:01:20.000Z</time>
      </trkpt>
      <trkpt lat="45.15929" lon="5.6332">
        <ele>1412.4000244141</ele>
        <time>2019-12-15T08:01:25.000Z</time>
      </trkpt>
      <trkpt lat="45.15934" lon="5.63322">
        <ele>1413.4000244141</ele>
        <time>2019-12-15T08:01:33.000Z</time>
      </trkpt>
      <trkpt lat="45.15942" lon="5.63323">
        <ele>1414.4000244141</ele>
        <time>2019-12-15T08:01:41.000Z</time>
      </trkpt>
      <trkpt lat="45.15945" lon="5.63324">
        <ele>1414.4000244141</ele>
        <time>2019-12-15T08:01:43.000Z</time>
      </trkpt>
      <trkpt lat="45.1595" lon="5.63324">
        <ele>1415</ele>
        <time>2019-12-15T08:01:48.000Z</time>
      </trkpt>
      <trkpt lat="45.15952" lon="5.63324">
        <ele>1415.5999755859</ele>
        <time>2019-12-15T08:01:53.000Z</time>
      </trkpt>
      <trkpt lat="45.15953" lon="5.63324">
        <ele>1415.5999755859</ele>
        <time>2019-12-15T08:01:55.000Z</time>
      </trkpt>
      <trkpt lat="45.15959" lon="5.63326">
        <ele>1416.5999755859</ele>
        <time>2019-12-15T08:02:00.000Z</time>
      </trkpt>
      <trkpt lat="45.15961" lon="5.63327">
        <ele>1417</ele>
        <time>2019-12-15T08:02:02.000Z</time>
      </trkpt>
      <trkpt lat="45.15965" lon="5.63329">
        <ele>1417.8000488281</ele>
        <time>2019-12-15T08:02:08.000Z</time>
      </trkpt>
      <trkpt lat="45.15967" lon="5.6333">
        <ele>1418.4000244141</ele>
        <time>2019-12-15T08:02:11.000Z</time>
      </trkpt>
      <trkpt lat="45.15968" lon="5.6333">
        <ele>1418.8000488281</ele>
        <time>2019-12-15T08:02:13.000Z</time>
      </trkpt>
      <trkpt lat="45.1597" lon="5.63332">
        <ele>1419.5999755859</ele>
        <time>2019-12-15T08:02:17.000Z</time>
      </trkpt>
      <trkpt lat="45.15971" lon="5.63333">
        <ele>1419.8000488281</ele>
        <time>2019-12-15T08:02:19.000Z</time>
      </trkpt>
      <trkpt lat="45.15974" lon="5.63334">
        <ele>1420.4000244141</ele>
        <time>2019-12-15T08:02:23.000Z</time>
      </trkpt>
      <trkpt lat="45.15976" lon="5.63336">
        <ele>1420.8000488281</ele>
        <time>2019-12-15T08:02:26.000Z</time>
      </trkpt>
      <trkpt lat="45.1598" lon="5.63337">
        <ele>1421.8000488281</ele>
        <time>2019-12-15T08:02:31.000Z</time>
      </trkpt>
      <trkpt lat="45.15981" lon="5.63338">
        <ele>1422</ele>
        <time>2019-12-15T08:02:32.000Z</time>
      </trkpt>
      <trkpt lat="45.15984" lon="5.6334">
        <ele>1422.8000488281</ele>
        <time>2019-12-15T08:02:37.000Z</time>
      </trkpt>
      <trkpt lat="45.15985" lon="5.6334">
        <ele>1423</ele>
        <time>2019-12-15T08:02:38.000Z</time>
      </trkpt>
      <trkpt lat="45.15988" lon="5.63343">
        <ele>1423.8000488281</ele>
        <time>2019-12-15T08:02:43.000Z</time>
      </trkpt>
      <trkpt lat="45.15989" lon="5.63343">
        <ele>1424.1999511719</ele>
        <time>2019-12-15T08:02:45.000Z</time>
      </trkpt>
      <trkpt lat="45.15991" lon="5.63346">
        <ele>1425</ele>
        <time>2019-12-15T08:02:50.000Z</time>
      </trkpt>
      <trkpt lat="45.15993" lon="5.63346">
        <ele>1425.1999511719</ele>
        <time>2019-12-15T08:02:52.000Z</time>
      </trkpt>
      <trkpt lat="45.15996" lon="5.63349">
        <ele>1426.1999511719</ele>
        <time>2019-12-15T08:02:57.000Z</time>
      </trkpt>
      <trkpt lat="45.15996" lon="5.6335">
        <ele>1426.5999755859</ele>
        <time>2019-12-15T08:02:58.000Z</time>
      </trkpt>
      <trkpt lat="45.16001" lon="5.63352">
        <ele>1427.5999755859</ele>
        <time>2019-12-15T08:03:05.000Z</time>
      </trkpt>
      <trkpt lat="45.16003" lon="5.63355">
        <ele>1428.8000488281</ele>
        <time>2019-12-15T08:03:11.000Z</time>
      </trkpt>
      <trkpt lat="45.16004" lon="5.63356">
        <ele>1429.1999511719</ele>
        <time>2019-12-15T08:03:13.000Z</time>
      </trkpt>
      <trkpt lat="45.16007" lon="5.63358">
        <ele>1429.8000488281</ele>
        <time>2019-12-15T08:03:17.000Z</time>
      </trkpt>
      <trkpt lat="45.16007" lon="5.6336">
        <ele>1430.4000244141</ele>
        <time>2019-12-15T08:03:20.000Z</time>
      </trkpt>
      <trkpt lat="45.16008" lon="5.63362">
        <ele>1431</ele>
        <time>2019-12-15T08:03:22.000Z</time>
      </trkpt>
      <trkpt lat="45.16011" lon="5.63366">
        <ele>1431.8000488281</ele>
        <time>2019-12-15T08:03:26.000Z</time>
      </trkpt>
      <trkpt lat="45.16012" lon="5.63368">
        <ele>1432.1999511719</ele>
        <time>2019-12-15T08:03:28.000Z</time>
      </trkpt>
      <trkpt lat="45.16012" lon="5.63371">
        <ele>1433</ele>
        <time>2019-12-15T08:03:31.000Z</time>
      </trkpt>
      <trkpt lat="45.16012" lon="5.6337">
        <ele>1433.1999511719</ele>
        <time>2019-12-15T08:03:32.000Z</time>
      </trkpt>
      <trkpt lat="45.16012" lon="5.63373">
        <ele>1433.5999755859</ele>
        <time>2019-12-15T08:03:35.000Z</time>
      </trkpt>
      <trkpt lat="45.16012" lon="5.63376">
        <ele>1434.1999511719</ele>
        <time>2019-12-15T08:03:39.000Z</time>
      </trkpt>
      <trkpt lat="45.16011" lon="5.63378">
        <ele>1435</ele>
        <time>2019-12-15T08:03:42.000Z</time>
      </trkpt>
      <trkpt lat="45.16011" lon="5.63378">
        <ele>1435.4000244141</ele>
        <time>2019-12-15T08:03:44.000Z</time>
      </trkpt>
      <trkpt lat="45.16011" lon="5.63379">
        <ele>1436.1999511719</ele>
        <time>2019-12-15T08:03:47.000Z</time>
      </trkpt>
      <trkpt lat="45.1601" lon="5.6338">
        <ele>1436.5999755859</ele>
        <time>2019-12-15T08:03:49.000Z</time>
      </trkpt>
      <trkpt lat="45.16009" lon="5.63382">
        <ele>1437.1999511719</ele>
        <time>2019-12-15T08:03:53.000Z</time>
      </trkpt>
      <trkpt lat="45.16008" lon="5.63383">
        <ele>1437.5999755859</ele>
        <time>2019-12-15T08:03:55.000Z</time>
      </trkpt>
      <trkpt lat="45.16008" lon="5.63383">
        <ele>1437.8000488281</ele>
        <time>2019-12-15T08:03:56.000Z</time>
      </trkpt>
      <trkpt lat="45.16007" lon="5.63384">
        <ele>1438</ele>
        <time>2019-12-15T08:03:58.000Z</time>
      </trkpt>
      <trkpt lat="45.16004" lon="5.63386">
        <ele>1438.8000488281</ele>
        <time>2019-12-15T08:04:03.000Z</time>
      </trkpt>
      <trkpt lat="45.16001" lon="5.63388">
        <ele>1439.5999755859</ele>
        <time>2019-12-15T08:04:09.000Z</time>
      </trkpt>
      <trkpt lat="45.16" lon="5.63389">
        <ele>1439.8000488281</ele>
        <time>2019-12-15T08:04:10.000Z</time>
      </trkpt>
      <trkpt lat="45.15997" lon="5.63391">
        <ele>1440.5999755859</ele>
        <time>2019-12-15T08:04:15.000Z</time>
      </trkpt>
      <trkpt lat="45.15996" lon="5.63391">
        <ele>1441</ele>
        <time>2019-12-15T08:04:17.000Z</time>
      </trkpt>
      <trkpt lat="45.15994" lon="5.63393">
        <ele>1441.8000488281</ele>
        <time>2019-12-15T08:04:22.000Z</time>
      </trkpt>
      <trkpt lat="45.15993" lon="5.63393">
        <ele>1442</ele>
        <time>2019-12-15T08:04:24.000Z</time>
      </trkpt>
      <trkpt lat="45.1599" lon="5.63396">
        <ele>1443</ele>
        <time>2019-12-15T08:04:30.000Z</time>
      </trkpt>
      <trkpt lat="45.15989" lon="5.63396">
        <ele>1443.1999511719</ele>
        <time>2019-12-15T08:04:31.000Z</time>
      </trkpt>
      <trkpt lat="45.15986" lon="5.63398">
        <ele>1444.4000244141</ele>
        <time>2019-12-15T08:04:36.000Z</time>
      </trkpt>
      <trkpt lat="45.15985" lon="5.634">
        <ele>1445</ele>
        <time>2019-12-15T08:04:39.000Z</time>
      </trkpt>
      <trkpt lat="45.15985" lon="5.63402">
        <ele>1445.5999755859</ele>
        <time>2019-12-15T08:04:42.000Z</time>
      </trkpt>
      <trkpt lat="45.15984" lon="5.63404">
        <ele>1446.1999511719</ele>
        <time>2019-12-15T08:04:46.000Z</time>
      </trkpt>
      <trkpt lat="45.15984" lon="5.63406">
        <ele>1446.5999755859</ele>
        <time>2019-12-15T08:04:48.000Z</time>
      </trkpt>
      <trkpt lat="45.15983" lon="5.63407">
        <ele>1447.8000488281</ele>
        <time>2019-12-15T08:04:53.000Z</time>
      </trkpt>
      <trkpt lat="45.15983" lon="5.63408">
        <ele>1448.1999511719</ele>
        <time>2019-12-15T08:04:54.000Z</time>
      </trkpt>
      <trkpt lat="45.15981" lon="5.63411">
        <ele>1449.1999511719</ele>
        <time>2019-12-15T08:04:58.000Z</time>
      </trkpt>
      <trkpt lat="45.15979" lon="5.63415">
        <ele>1450.1999511719</ele>
        <time>2019-12-15T08:05:04.000Z</time>
      </trkpt>
      <trkpt lat="45.15978" lon="5.63416">
        <ele>1450.4000244141</ele>
        <time>2019-12-15T08:05:05.000Z</time>
      </trkpt>
      <trkpt lat="45.15977" lon="5.6342">
        <ele>1451.5999755859</ele>
        <time>2019-12-15T08:05:11.000Z</time>
      </trkpt>
      <trkpt lat="45.15976" lon="5.63421">
        <ele>1451.8000488281</ele>
        <time>2019-12-15T08:05:13.000Z</time>
      </trkpt>
      <trkpt lat="45.15975" lon="5.63423">
        <ele>1452.8000488281</ele>
        <time>2019-12-15T08:05:17.000Z</time>
      </trkpt>
      <trkpt lat="45.15974" lon="5.63426">
        <ele>1453.8000488281</ele>
        <time>2019-12-15T08:05:21.000Z</time>
      </trkpt>
      <trkpt lat="45.15974" lon="5.63428">
        <ele>1454.4000244141</ele>
        <time>2019-12-15T08:05:22.000Z</time>
      </trkpt>
      <trkpt lat="45.15973" lon="5.63431">
        <ele>1454.8000488281</ele>
        <time>2019-12-15T08:05:24.000Z</time>
      </trkpt>
      <trkpt lat="45.15971" lon="5.63438">
        <ele>1456</ele>
        <time>2019-12-15T08:05:30.000Z</time>
      </trkpt>
      <trkpt lat="45.15971" lon="5.6344">
        <ele>1456.1999511719</ele>
        <time>2019-12-15T08:05:32.000Z</time>
      </trkpt>
      <trkpt lat="45.1597" lon="5.63443">
        <ele>1457</ele>
        <time>2019-12-15T08:05:36.000Z</time>
      </trkpt>
      <trkpt lat="45.1597" lon="5.63448">
        <ele>1458</ele>
        <time>2019-12-15T08:05:41.000Z</time>
      </trkpt>
      <trkpt lat="45.1597" lon="5.63451">
        <ele>1459.4000244141</ele>
        <time>2019-12-15T08:05:46.000Z</time>
      </trkpt>
      <trkpt lat="45.15969" lon="5.63453">
        <ele>1460</ele>
        <time>2019-12-15T08:05:49.000Z</time>
      </trkpt>
      <trkpt lat="45.15969" lon="5.63457">
        <ele>1460.5999755859</ele>
        <time>2019-12-15T08:05:52.000Z</time>
      </trkpt>
      <trkpt lat="45.15969" lon="5.6346">
        <ele>1461.4000244141</ele>
        <time>2019-12-15T08:05:56.000Z</time>
      </trkpt>
      <trkpt lat="45.15969" lon="5.63462">
        <ele>1461.8000488281</ele>
        <time>2019-12-15T08:05:58.000Z</time>
      </trkpt>
      <trkpt lat="45.15968" lon="5.63466">
        <ele>1462.8000488281</ele>
        <time>2019-12-15T08:06:03.000Z</time>
      </trkpt>
      <trkpt lat="45.15968" lon="5.6347">
        <ele>1463.8000488281</ele>
        <time>2019-12-15T08:06:09.000Z</time>
      </trkpt>
      <trkpt lat="45.15968" lon="5.6347">
        <ele>1464.1999511719</ele>
        <time>2019-12-15T08:06:10.000Z</time>
      </trkpt>
      <trkpt lat="45.15967" lon="5.63474">
        <ele>1464.8000488281</ele>
        <time>2019-12-15T08:06:14.000Z</time>
      </trkpt>
      <trkpt lat="45.15967" lon="5.63477">
        <ele>1465.4000244141</ele>
        <time>2019-12-15T08:06:17.000Z</time>
      </trkpt>
      <trkpt lat="45.15967" lon="5.6348">
        <ele>1466</ele>
        <time>2019-12-15T08:06:21.000Z</time>
      </trkpt>
      <trkpt lat="45.15967" lon="5.63482">
        <ele>1466.1999511719</ele>
        <time>2019-12-15T08:06:23.000Z</time>
      </trkpt>
      <trkpt lat="45.15967" lon="5.63486">
        <ele>1467</ele>
        <time>2019-12-15T08:06:27.000Z</time>
      </trkpt>
      <trkpt lat="45.15967" lon="5.63488">
        <ele>1467.5999755859</ele>
        <time>2019-12-15T08:06:30.000Z</time>
      </trkpt>
      <trkpt lat="45.15967" lon="5.63492">
        <ele>1468.1999511719</ele>
        <time>2019-12-15T08:06:32.000Z</time>
      </trkpt>
      <trkpt lat="45.15966" lon="5.63495">
        <ele>1469</ele>
        <time>2019-12-15T08:06:36.000Z</time>
      </trkpt>
      <trkpt lat="45.15967" lon="5.63496">
        <ele>1469.1999511719</ele>
        <time>2019-12-15T08:06:37.000Z</time>
      </trkpt>
      <trkpt lat="45.15967" lon="5.63502">
        <ele>1470</ele>
        <time>2019-12-15T08:06:43.000Z</time>
      </trkpt>
      <trkpt lat="45.15967" lon="5.63503">
        <ele>1470.1999511719</ele>
        <time>2019-12-15T08:06:44.000Z</time>
      </trkpt>
      <trkpt lat="45.15967" lon="5.63508">
        <ele>1471.1999511719</ele>
        <time>2019-12-15T08:06:50.000Z</time>
      </trkpt>
      <trkpt lat="45.15967" lon="5.63509">
        <ele>1471.4000244141</ele>
        <time>2019-12-15T08:06:51.000Z</time>
      </trkpt>
      <trkpt lat="45.15968" lon="5.63514">
        <ele>1472.4000244141</ele>
        <time>2019-12-15T08:06:56.000Z</time>
      </trkpt>
      <trkpt lat="45.15968" lon="5.63515">
        <ele>1472.4000244141</ele>
        <time>2019-12-15T08:06:57.000Z</time>
      </trkpt>
      <trkpt lat="45.15968" lon="5.6352">
        <ele>1473.5999755859</ele>
        <time>2019-12-15T08:07:02.000Z</time>
      </trkpt>
      <trkpt lat="45.15969" lon="5.63521">
        <ele>1473.8000488281</ele>
        <time>2019-12-15T08:07:03.000Z</time>
      </trkpt>
      <trkpt lat="45.15969" lon="5.63528">
        <ele>1474.5999755859</ele>
        <time>2019-12-15T08:07:09.000Z</time>
      </trkpt>
      <trkpt lat="45.15969" lon="5.6353">
        <ele>1475</ele>
        <time>2019-12-15T08:07:10.000Z</time>
      </trkpt>
      <trkpt lat="45.1597" lon="5.63533">
        <ele>1475.8000488281</ele>
        <time>2019-12-15T08:07:15.000Z</time>
      </trkpt>
      <trkpt lat="45.1597" lon="5.63534">
        <ele>1476</ele>
        <time>2019-12-15T08:07:16.000Z</time>
      </trkpt>
      <trkpt lat="45.15969" lon="5.6354">
        <ele>1476.8000488281</ele>
        <time>2019-12-15T08:07:21.000Z</time>
      </trkpt>
      <trkpt lat="45.1597" lon="5.63543">
        <ele>1477.4000244141</ele>
        <time>2019-12-15T08:07:24.000Z</time>
      </trkpt>
      <trkpt lat="45.1597" lon="5.63549">
        <ele>1478</ele>
        <time>2019-12-15T08:07:29.000Z</time>
      </trkpt>
      <trkpt lat="45.15969" lon="5.63551">
        <ele>1478.1999511719</ele>
        <time>2019-12-15T08:07:32.000Z</time>
      </trkpt>
      <trkpt lat="45.15969" lon="5.6356">
        <ele>1479.1999511719</ele>
        <time>2019-12-15T08:07:38.000Z</time>
      </trkpt>
      <trkpt lat="45.15969" lon="5.63561">
        <ele>1479.5999755859</ele>
        <time>2019-12-15T08:07:40.000Z</time>
      </trkpt>
      <trkpt lat="45.1597" lon="5.63564">
        <ele>1480.1999511719</ele>
        <time>2019-12-15T08:07:44.000Z</time>
      </trkpt>
      <trkpt lat="45.15972" lon="5.63569">
        <ele>1481.1999511719</ele>
        <time>2019-12-15T08:07:49.000Z</time>
      </trkpt>
      <trkpt lat="45.15973" lon="5.63574">
        <ele>1482.4000244141</ele>
        <time>2019-12-15T08:07:54.000Z</time>
      </trkpt>
      <trkpt lat="45.15973" lon="5.63576">
        <ele>1482.8000488281</ele>
        <time>2019-12-15T08:07:56.000Z</time>
      </trkpt>
      <trkpt lat="45.15974" lon="5.6358">
        <ele>1483.4000244141</ele>
        <time>2019-12-15T08:08:01.000Z</time>
      </trkpt>
      <trkpt lat="45.15973" lon="5.63585">
        <ele>1484</ele>
        <time>2019-12-15T08:08:05.000Z</time>
      </trkpt>
      <trkpt lat="45.15973" lon="5.63589">
        <ele>1484.5999755859</ele>
        <time>2019-12-15T08:08:09.000Z</time>
      </trkpt>
      <trkpt lat="45.15973" lon="5.63593">
        <ele>1485.4000244141</ele>
        <time>2019-12-15T08:08:13.000Z</time>
      </trkpt>
      <trkpt lat="45.15973" lon="5.63595">
        <ele>1485.8000488281</ele>
        <time>2019-12-15T08:08:15.000Z</time>
      </trkpt>
      <trkpt lat="45.15974" lon="5.63601">
        <ele>1486.8000488281</ele>
        <time>2019-12-15T08:08:22.000Z</time>
      </trkpt>
      <trkpt lat="45.15974" lon="5.63606">
        <ele>1487.8000488281</ele>
        <time>2019-12-15T08:08:27.000Z</time>
      </trkpt>
      <trkpt lat="45.15974" lon="5.6361">
        <ele>1488.1999511719</ele>
        <time>2019-12-15T08:08:29.000Z</time>
      </trkpt>
      <trkpt lat="45.15973" lon="5.63613">
        <ele>1489</ele>
        <time>2019-12-15T08:08:33.000Z</time>
      </trkpt>
      <trkpt lat="45.15973" lon="5.63614">
        <ele>1489.1999511719</ele>
        <time>2019-12-15T08:08:34.000Z</time>
      </trkpt>
      <trkpt lat="45.15973" lon="5.63616">
        <ele>1490.1999511719</ele>
        <time>2019-12-15T08:08:38.000Z</time>
      </trkpt>
      <trkpt lat="45.15973" lon="5.63618">
        <ele>1490.5999755859</ele>
        <time>2019-12-15T08:08:40.000Z</time>
      </trkpt>
      <trkpt lat="45.15973" lon="5.63621">
        <ele>1491.1999511719</ele>
        <time>2019-12-15T08:08:43.000Z</time>
      </trkpt>
      <trkpt lat="45.15974" lon="5.63624">
        <ele>1491.5999755859</ele>
        <time>2019-12-15T08:08:46.000Z</time>
      </trkpt>
      <trkpt lat="45.15975" lon="5.63628">
        <ele>1492</ele>
        <time>2019-12-15T08:08:50.000Z</time>
      </trkpt>
      <trkpt lat="45.15975" lon="5.6363">
        <ele>1492.4000244141</ele>
        <time>2019-12-15T08:08:52.000Z</time>
      </trkpt>
      <trkpt lat="45.15977" lon="5.63634">
        <ele>1493.1999511719</ele>
        <time>2019-12-15T08:08:56.000Z</time>
      </trkpt>
      <trkpt lat="45.15977" lon="5.63636">
        <ele>1493.5999755859</ele>
        <time>2019-12-15T08:08:58.000Z</time>
      </trkpt>
      <trkpt lat="45.15979" lon="5.6364">
        <ele>1494.5999755859</ele>
        <time>2019-12-15T08:09:03.000Z</time>
      </trkpt>
      <trkpt lat="45.1598" lon="5.63641">
        <ele>1494.8000488281</ele>
        <time>2019-12-15T08:09:04.000Z</time>
      </trkpt>
      <trkpt lat="45.15981" lon="5.63645">
        <ele>1495.8000488281</ele>
        <time>2019-12-15T08:09:09.000Z</time>
      </trkpt>
      <trkpt lat="45.15982" lon="5.63647">
        <ele>1496.1999511719</ele>
        <time>2019-12-15T08:09:11.000Z</time>
      </trkpt>
      <trkpt lat="45.15981" lon="5.63652">
        <ele>1497</ele>
        <time>2019-12-15T08:09:16.000Z</time>
      </trkpt>
      <trkpt lat="45.15981" lon="5.63655">
        <ele>1497</ele>
        <time>2019-12-15T08:09:17.000Z</time>
      </trkpt>
      <trkpt lat="45.1598" lon="5.6366">
        <ele>1498.1999511719</ele>
        <time>2019-12-15T08:09:23.000Z</time>
      </trkpt>
      <trkpt lat="45.15981" lon="5.63665">
        <ele>1499.1999511719</ele>
        <time>2019-12-15T08:09:28.000Z</time>
      </trkpt>
      <trkpt lat="45.15981" lon="5.63666">
        <ele>1499.4000244141</ele>
        <time>2019-12-15T08:09:29.000Z</time>
      </trkpt>
      <trkpt lat="45.15981" lon="5.63671">
        <ele>1500.4000244141</ele>
        <time>2019-12-15T08:09:34.000Z</time>
      </trkpt>
      <trkpt lat="45.15981" lon="5.63679">
        <ele>1501.4000244141</ele>
        <time>2019-12-15T08:09:40.000Z</time>
      </trkpt>
      <trkpt lat="45.15982" lon="5.63686">
        <ele>1502.4000244141</ele>
        <time>2019-12-15T08:09:46.000Z</time>
      </trkpt>
      <trkpt lat="45.15983" lon="5.63688">
        <ele>1502.8000488281</ele>
        <time>2019-12-15T08:09:47.000Z</time>
      </trkpt>
      <trkpt lat="45.15984" lon="5.63694">
        <ele>1503.5999755859</ele>
        <time>2019-12-15T08:09:53.000Z</time>
      </trkpt>
      <trkpt lat="45.15986" lon="5.63697">
        <ele>1503.8000488281</ele>
        <time>2019-12-15T08:09:55.000Z</time>
      </trkpt>
      <trkpt lat="45.15987" lon="5.63701">
        <ele>1504.4000244141</ele>
        <time>2019-12-15T08:09:59.000Z</time>
      </trkpt>
      <trkpt lat="45.15988" lon="5.63705">
        <ele>1505</ele>
        <time>2019-12-15T08:10:02.000Z</time>
      </trkpt>
      <trkpt lat="45.15989" lon="5.63707">
        <ele>1505</ele>
        <time>2019-12-15T08:10:04.000Z</time>
      </trkpt>
      <trkpt lat="45.15989" lon="5.63711">
        <ele>1505.4000244141</ele>
        <time>2019-12-15T08:10:07.000Z</time>
      </trkpt>
      <trkpt lat="45.15988" lon="5.63713">
        <ele>1505.8000488281</ele>
        <time>2019-12-15T08:10:09.000Z</time>
      </trkpt>
      <trkpt lat="45.15988" lon="5.63713">
        <ele>1506</ele>
        <time>2019-12-15T08:10:10.000Z</time>
      </trkpt>
      <trkpt lat="45.15986" lon="5.63718">
        <ele>1506.5999755859</ele>
        <time>2019-12-15T08:10:14.000Z</time>
      </trkpt>
      <trkpt lat="45.15982" lon="5.63721">
        <ele>1506.8000488281</ele>
        <time>2019-12-15T08:10:19.000Z</time>
      </trkpt>
      <trkpt lat="45.1598" lon="5.63722">
        <ele>1507</ele>
        <time>2019-12-15T08:10:22.000Z</time>
      </trkpt>
      <trkpt lat="45.1598" lon="5.63722">
        <ele>1507</ele>
        <time>2019-12-15T08:10:23.000Z</time>
      </trkpt>
      <trkpt lat="45.15973" lon="5.63723">
        <ele>1507</ele>
        <time>2019-12-15T08:10:29.000Z</time>
      </trkpt>
      <trkpt lat="45.15969" lon="5.63723">
        <ele>1506.8000488281</ele>
        <time>2019-12-15T08:10:34.000Z</time>
      </trkpt>
      <trkpt lat="45.15963" lon="5.63722">
        <ele>1506.1999511719</ele>
        <time>2019-12-15T08:10:41.000Z</time>
      </trkpt>
      <trkpt lat="45.15961" lon="5.63722">
        <ele>1506</ele>
        <time>2019-12-15T08:10:43.000Z</time>
      </trkpt>
      <trkpt lat="45.15955" lon="5.6372">
        <ele>1505.8000488281</ele>
        <time>2019-12-15T08:10:48.000Z</time>
      </trkpt>
      <trkpt lat="45.15949" lon="5.63717">
        <ele>1505.8000488281</ele>
        <time>2019-12-15T08:10:54.000Z</time>
      </trkpt>
      <trkpt lat="45.15943" lon="5.63716">
        <ele>1506</ele>
        <time>2019-12-15T08:11:01.000Z</time>
      </trkpt>
      <trkpt lat="45.15937" lon="5.63714">
        <ele>1506.1999511719</ele>
        <time>2019-12-15T08:11:07.000Z</time>
      </trkpt>
      <trkpt lat="45.15931" lon="5.63712">
        <ele>1506.8000488281</ele>
        <time>2019-12-15T08:11:15.000Z</time>
      </trkpt>
      <trkpt lat="45.1593" lon="5.63712">
        <ele>1507</ele>
        <time>2019-12-15T08:11:17.000Z</time>
      </trkpt>
      <trkpt lat="45.15927" lon="5.63712">
        <ele>1507.1999511719</ele>
        <time>2019-12-15T08:11:21.000Z</time>
      </trkpt>
      <trkpt lat="45.1592" lon="5.63709">
        <ele>1507.8000488281</ele>
        <time>2019-12-15T08:11:28.000Z</time>
      </trkpt>
      <trkpt lat="45.15919" lon="5.63709">
        <ele>1508</ele>
        <time>2019-12-15T08:11:29.000Z</time>
      </trkpt>
      <trkpt lat="45.15914" lon="5.63705">
        <ele>1508.5999755859</ele>
        <time>2019-12-15T08:11:36.000Z</time>
      </trkpt>
      <trkpt lat="45.15912" lon="5.63703">
        <ele>1509</ele>
        <time>2019-12-15T08:11:39.000Z</time>
      </trkpt>
      <trkpt lat="45.15909" lon="5.63702">
        <ele>1509.5999755859</ele>
        <time>2019-12-15T08:11:42.000Z</time>
      </trkpt>
      <trkpt lat="45.15904" lon="5.63703">
        <ele>1510.1999511719</ele>
        <time>2019-12-15T08:11:47.000Z</time>
      </trkpt>
      <trkpt lat="45.15903" lon="5.63702">
        <ele>1510.1999511719</ele>
        <time>2019-12-15T08:11:48.000Z</time>
      </trkpt>
      <trkpt lat="45.15898" lon="5.63702">
        <ele>1511.1999511719</ele>
        <time>2019-12-15T08:11:54.000Z</time>
      </trkpt>
      <trkpt lat="45.15893" lon="5.63701">
        <ele>1512</ele>
        <time>2019-12-15T08:12:00.000Z</time>
      </trkpt>
      <trkpt lat="45.15893" lon="5.63701">
        <ele>1512.4000244141</ele>
        <time>2019-12-15T08:12:02.000Z</time>
      </trkpt>
      <trkpt lat="45.15889" lon="5.63699">
        <ele>1513</ele>
        <time>2019-12-15T08:12:06.000Z</time>
      </trkpt>
      <trkpt lat="45.15887" lon="5.63697">
        <ele>1513.5999755859</ele>
        <time>2019-12-15T08:12:09.000Z</time>
      </trkpt>
      <trkpt lat="45.15885" lon="5.63696">
        <ele>1514.1999511719</ele>
        <time>2019-12-15T08:12:12.000Z</time>
      </trkpt>
      <trkpt lat="45.15882" lon="5.63696">
        <ele>1514.5999755859</ele>
        <time>2019-12-15T08:12:15.000Z</time>
      </trkpt>
      <trkpt lat="45.15878" lon="5.63696">
        <ele>1515</ele>
        <time>2019-12-15T08:12:18.000Z</time>
      </trkpt>
      <trkpt lat="45.15874" lon="5.63696">
        <ele>1515.8000488281</ele>
        <time>2019-12-15T08:12:24.000Z</time>
      </trkpt>
      <trkpt lat="45.15874" lon="5.63695">
        <ele>1516</ele>
        <time>2019-12-15T08:12:25.000Z</time>
      </trkpt>
      <trkpt lat="45.1587" lon="5.63693">
        <ele>1516.8000488281</ele>
        <time>2019-12-15T08:12:30.000Z</time>
      </trkpt>
      <trkpt lat="45.15867" lon="5.63692">
        <ele>1517.4000244141</ele>
        <time>2019-12-15T08:12:33.000Z</time>
      </trkpt>
      <trkpt lat="45.15865" lon="5.63692">
        <ele>1517.8000488281</ele>
        <time>2019-12-15T08:12:35.000Z</time>
      </trkpt>
      <trkpt lat="45.15861" lon="5.63691">
        <ele>1518.4000244141</ele>
        <time>2019-12-15T08:12:40.000Z</time>
      </trkpt>
      <trkpt lat="45.15859" lon="5.63691">
        <ele>1519</ele>
        <time>2019-12-15T08:12:43.000Z</time>
      </trkpt>
      <trkpt lat="45.15856" lon="5.63691">
        <ele>1519.1999511719</ele>
        <time>2019-12-15T08:12:46.000Z</time>
      </trkpt>
      <trkpt lat="45.15854" lon="5.63688">
        <ele>1520</ele>
        <time>2019-12-15T08:12:51.000Z</time>
      </trkpt>
      <trkpt lat="45.1585" lon="5.63689">
        <ele>1520.8000488281</ele>
        <time>2019-12-15T08:12:55.000Z</time>
      </trkpt>
      <trkpt lat="45.15848" lon="5.6369">
        <ele>1521.1999511719</ele>
        <time>2019-12-15T08:12:58.000Z</time>
      </trkpt>
      <trkpt lat="45.15845" lon="5.6369">
        <ele>1521.5999755859</ele>
        <time>2019-12-15T08:13:02.000Z</time>
      </trkpt>
      <trkpt lat="45.15841" lon="5.6369">
        <ele>1522.1999511719</ele>
        <time>2019-12-15T08:13:06.000Z</time>
      </trkpt>
      <trkpt lat="45.1584" lon="5.6369">
        <ele>1522.4000244141</ele>
        <time>2019-12-15T08:13:08.000Z</time>
      </trkpt>
      <trkpt lat="45.15836" lon="5.6369">
        <ele>1523.1999511719</ele>
        <time>2019-12-15T08:13:13.000Z</time>
      </trkpt>
      <trkpt lat="45.15836" lon="5.6369">
        <ele>1523.1999511719</ele>
        <time>2019-12-15T08:13:14.000Z</time>
      </trkpt>
      <trkpt lat="45.15832" lon="5.6369">
        <ele>1524</ele>
        <time>2019-12-15T08:13:19.000Z</time>
      </trkpt>
      <trkpt lat="45.15831" lon="5.6369">
        <ele>1524.1999511719</ele>
        <time>2019-12-15T08:13:21.000Z</time>
      </trkpt>
      <trkpt lat="45.15827" lon="5.63689">
        <ele>1525</ele>
        <time>2019-12-15T08:13:25.000Z</time>
      </trkpt>
      <trkpt lat="45.15826" lon="5.63689">
        <ele>1525.4000244141</ele>
        <time>2019-12-15T08:13:27.000Z</time>
      </trkpt>
      <trkpt lat="45.15824" lon="5.6369">
        <ele>1526</ele>
        <time>2019-12-15T08:13:30.000Z</time>
      </trkpt>
      <trkpt lat="45.15823" lon="5.6369">
        <ele>1526.5999755859</ele>
        <time>2019-12-15T08:13:32.000Z</time>
      </trkpt>
      <trkpt lat="45.15819" lon="5.6369">
        <ele>1527.5999755859</ele>
        <time>2019-12-15T08:13:37.000Z</time>
      </trkpt>
      <trkpt lat="45.15816" lon="5.6369">
        <ele>1528.5999755859</ele>
        <time>2019-12-15T08:13:42.000Z</time>
      </trkpt>
      <trkpt lat="45.15815" lon="5.6369">
        <ele>1529.1999511719</ele>
        <time>2019-12-15T08:13:44.000Z</time>
      </trkpt>
      <trkpt lat="45.15813" lon="5.6369">
        <ele>1530</ele>
        <time>2019-12-15T08:13:47.000Z</time>
      </trkpt>
      <trkpt lat="45.15811" lon="5.6369">
        <ele>1531</ele>
        <time>2019-12-15T08:13:51.000Z</time>
      </trkpt>
      <trkpt lat="45.15811" lon="5.6369">
        <ele>1531.1999511719</ele>
        <time>2019-12-15T08:13:52.000Z</time>
      </trkpt>
      <trkpt lat="45.15808" lon="5.63689">
        <ele>1532.4000244141</ele>
        <time>2019-12-15T08:13:56.000Z</time>
      </trkpt>
      <trkpt lat="45.15807" lon="5.6369">
        <ele>1532.8000488281</ele>
        <time>2019-12-15T08:13:59.000Z</time>
      </trkpt>
      <trkpt lat="45.15807" lon="5.6369">
        <ele>1533.4000244141</ele>
        <time>2019-12-15T08:14:02.000Z</time>
      </trkpt>
      <trkpt lat="45.15803" lon="5.63691">
        <ele>1533.8000488281</ele>
        <time>2019-12-15T08:14:09.000Z</time>
      </trkpt>
      <trkpt lat="45.15801" lon="5.63691">
        <ele>1534.4000244141</ele>
        <time>2019-12-15T08:14:12.000Z</time>
      </trkpt>
      <trkpt lat="45.15797" lon="5.63691">
        <ele>1535.4000244141</ele>
        <time>2019-12-15T08:14:18.000Z</time>
      </trkpt>
      <trkpt lat="45.15797" lon="5.63691">
        <ele>1536</ele>
        <time>2019-12-15T08:14:20.000Z</time>
      </trkpt>
      <trkpt lat="45.15794" lon="5.6369">
        <ele>1536.5999755859</ele>
        <time>2019-12-15T08:14:23.000Z</time>
      </trkpt>
      <trkpt lat="45.15791" lon="5.63688">
        <ele>1537.1999511719</ele>
        <time>2019-12-15T08:14:25.000Z</time>
      </trkpt>
      <trkpt lat="45.15787" lon="5.63686">
        <ele>1537.8000488281</ele>
        <time>2019-12-15T08:14:30.000Z</time>
      </trkpt>
      <trkpt lat="45.15785" lon="5.63685">
        <ele>1538</ele>
        <time>2019-12-15T08:14:32.000Z</time>
      </trkpt>
      <trkpt lat="45.15778" lon="5.63681">
        <ele>1538</ele>
        <time>2019-12-15T08:14:40.000Z</time>
      </trkpt>
      <trkpt lat="45.15771" lon="5.63679">
        <ele>1538.1999511719</ele>
        <time>2019-12-15T08:14:46.000Z</time>
      </trkpt>
      <trkpt lat="45.15769" lon="5.63679">
        <ele>1538.8000488281</ele>
        <time>2019-12-15T08:14:48.000Z</time>
      </trkpt>
      <trkpt lat="45.15765" lon="5.63677">
        <ele>1539.4000244141</ele>
        <time>2019-12-15T08:14:52.000Z</time>
      </trkpt>
      <trkpt lat="45.1576" lon="5.63677">
        <ele>1539.8000488281</ele>
        <time>2019-12-15T08:14:58.000Z</time>
      </trkpt>
      <trkpt lat="45.15758" lon="5.63677">
        <ele>1540.1999511719</ele>
        <time>2019-12-15T08:15:00.000Z</time>
      </trkpt>
      <trkpt lat="45.15754" lon="5.63679">
        <ele>1540.8000488281</ele>
        <time>2019-12-15T08:15:05.000Z</time>
      </trkpt>
      <trkpt lat="45.15753" lon="5.63679">
        <ele>1541.1999511719</ele>
        <time>2019-12-15T08:15:07.000Z</time>
      </trkpt>
      <trkpt lat="45.15748" lon="5.63678">
        <ele>1542</ele>
        <time>2019-12-15T08:15:14.000Z</time>
      </trkpt>
      <trkpt lat="45.15744" lon="5.63677">
        <ele>1543</ele>
        <time>2019-12-15T08:15:20.000Z</time>
      </trkpt>
      <trkpt lat="45.15742" lon="5.63676">
        <ele>1544.1999511719</ele>
        <time>2019-12-15T08:15:24.000Z</time>
      </trkpt>
      <trkpt lat="45.15738" lon="5.63675">
        <ele>1545.1999511719</ele>
        <time>2019-12-15T08:15:29.000Z</time>
      </trkpt>
      <trkpt lat="45.15738" lon="5.63675">
        <ele>1545.4000244141</ele>
        <time>2019-12-15T08:15:30.000Z</time>
      </trkpt>
      <trkpt lat="45.15736" lon="5.63676">
        <ele>1546.4000244141</ele>
        <time>2019-12-15T08:15:34.000Z</time>
      </trkpt>
      <trkpt lat="45.15733" lon="5.63674">
        <ele>1547.4000244141</ele>
        <time>2019-12-15T08:15:39.000Z</time>
      </trkpt>
      <trkpt lat="45.15732" lon="5.63674">
        <ele>1547.5999755859</ele>
        <time>2019-12-15T08:15:40.000Z</time>
      </trkpt>
      <trkpt lat="45.1573" lon="5.63674">
        <ele>1548.4000244141</ele>
        <time>2019-12-15T08:15:44.000Z</time>
      </trkpt>
      <trkpt lat="45.15726" lon="5.63674">
        <ele>1549.5999755859</ele>
        <time>2019-12-15T08:15:50.000Z</time>
      </trkpt>
      <trkpt lat="45.15722" lon="5.63674">
        <ele>1550.5999755859</ele>
        <time>2019-12-15T08:15:56.000Z</time>
      </trkpt>
      <trkpt lat="45.15722" lon="5.63674">
        <ele>1550.8000488281</ele>
        <time>2019-12-15T08:15:57.000Z</time>
      </trkpt>
      <trkpt lat="45.15718" lon="5.63672">
        <ele>1551.8000488281</ele>
        <time>2019-12-15T08:16:03.000Z</time>
      </trkpt>
      <trkpt lat="45.15714" lon="5.63669">
        <ele>1553</ele>
        <time>2019-12-15T08:16:09.000Z</time>
      </trkpt>
      <trkpt lat="45.15713" lon="5.63669">
        <ele>1553.1999511719</ele>
        <time>2019-12-15T08:16:11.000Z</time>
      </trkpt>
      <trkpt lat="45.15713" lon="5.63669">
        <ele>1554</ele>
        <time>2019-12-15T08:16:14.000Z</time>
      </trkpt>
      <trkpt lat="45.15713" lon="5.63669">
        <ele>1553.1999511719</ele>
        <time>2019-12-15T08:16:24.000Z</time>
      </trkpt>
      <trkpt lat="45.15713" lon="5.63669">
        <ele>1554</ele>
        <time>2019-12-15T08:16:40.000Z</time>
      </trkpt>
      <trkpt lat="45.15713" lon="5.63668">
        <ele>1554.1999511719</ele>
        <time>2019-12-15T08:16:52.000Z</time>
      </trkpt>
      <trkpt lat="45.15711" lon="5.63665">
        <ele>1554.1999511719</ele>
        <time>2019-12-15T08:16:57.000Z</time>
      </trkpt>
      <trkpt lat="45.15711" lon="5.63663">
        <ele>1554.4000244141</ele>
        <time>2019-12-15T08:16:58.000Z</time>
      </trkpt>
      <trkpt lat="45.1571" lon="5.63661">
        <ele>1555</ele>
        <time>2019-12-15T08:17:00.000Z</time>
      </trkpt>
      <trkpt lat="45.1571" lon="5.6366">
        <ele>1555.1999511719</ele>
        <time>2019-12-15T08:17:01.000Z</time>
      </trkpt>
      <trkpt lat="45.15709" lon="5.63657">
        <ele>1556</ele>
        <time>2019-12-15T08:17:05.000Z</time>
      </trkpt>
      <trkpt lat="45.15709" lon="5.63656">
        <ele>1556.4000244141</ele>
        <time>2019-12-15T08:17:06.000Z</time>
      </trkpt>
      <trkpt lat="45.15708" lon="5.63655">
        <ele>1557.1999511719</ele>
        <time>2019-12-15T08:17:13.000Z</time>
      </trkpt>
      <trkpt lat="45.15706" lon="5.6365">
        <ele>1557.8000488281</ele>
        <time>2019-12-15T08:17:19.000Z</time>
      </trkpt>
      <trkpt lat="45.15706" lon="5.63648">
        <ele>1558.4000244141</ele>
        <time>2019-12-15T08:17:23.000Z</time>
      </trkpt>
      <trkpt lat="45.15706" lon="5.63648">
        <ele>1558.8000488281</ele>
        <time>2019-12-15T08:17:35.000Z</time>
      </trkpt>
      <trkpt lat="45.15706" lon="5.63648">
        <ele>1558.8000488281</ele>
        <time>2019-12-15T08:17:46.000Z</time>
      </trkpt>
      <trkpt lat="45.15706" lon="5.63648">
        <ele>1558.5999755859</ele>
        <time>2019-12-15T08:17:56.000Z</time>
      </trkpt>
      <trkpt lat="45.15706" lon="5.63648">
        <ele>1558.5999755859</ele>
        <time>2019-12-15T08:18:11.000Z</time>
      </trkpt>
      <trkpt lat="45.15706" lon="5.63648">
        <ele>1558.4000244141</ele>
        <time>2019-12-15T08:18:24.000Z</time>
      </trkpt>
      <trkpt lat="45.15706" lon="5.63648">
        <ele>1558.4000244141</ele>
        <time>2019-12-15T08:18:40.000Z</time>
      </trkpt>
      <trkpt lat="45.15704" lon="5.63646">
        <ele>1558.4000244141</ele>
        <time>2019-12-15T08:18:43.000Z</time>
      </trkpt>
      <trkpt lat="45.15702" lon="5.63642">
        <ele>1558.4000244141</ele>
        <time>2019-12-15T08:18:45.000Z</time>
      </trkpt>
      <trkpt lat="45.15699" lon="5.63639">
        <ele>1558.8000488281</ele>
        <time>2019-12-15T08:18:51.000Z</time>
      </trkpt>
      <trkpt lat="45.15699" lon="5.63639">
        <ele>1559.4000244141</ele>
        <time>2019-12-15T08:19:08.000Z</time>
      </trkpt>
      <trkpt lat="45.15699" lon="5.63639">
        <ele>1559.4000244141</ele>
        <time>2019-12-15T08:19:16.000Z</time>
      </trkpt>
      <trkpt lat="45.15699" lon="5.63639">
        <ele>1559.4000244141</ele>
        <time>2019-12-15T08:19:23.000Z</time>
      </trkpt>
      <trkpt lat="45.15699" lon="5.63639">
        <ele>1559.4000244141</ele>
        <time>2019-12-15T08:19:28.000Z</time>
      </trkpt>
      <trkpt lat="45.15698" lon="5.63637">
        <ele>1559.4000244141</ele>
        <time>2019-12-15T08:19:37.000Z</time>
      </trkpt>
      <trkpt lat="45.15696" lon="5.63636">
        <ele>1559.5999755859</ele>
        <time>2019-12-15T08:19:39.000Z</time>
      </trkpt>
      <trkpt lat="45.15693" lon="5.63635">
        <ele>1560</ele>
        <time>2019-12-15T08:19:43.000Z</time>
      </trkpt>
      <trkpt lat="45.1569" lon="5.63632">
        <ele>1560.5999755859</ele>
        <time>2019-12-15T08:19:47.000Z</time>
      </trkpt>
      <trkpt lat="45.1569" lon="5.63632">
        <ele>1560.5999755859</ele>
        <time>2019-12-15T08:19:49.000Z</time>
      </trkpt>
      <trkpt lat="45.15687" lon="5.63633">
        <ele>1560.8000488281</ele>
        <time>2019-12-15T08:19:58.000Z</time>
      </trkpt>
      <trkpt lat="45.15685" lon="5.63634">
        <ele>1561</ele>
        <time>2019-12-15T08:20:00.000Z</time>
      </trkpt>
      <trkpt lat="45.15682" lon="5.63636">
        <ele>1561.1999511719</ele>
        <time>2019-12-15T08:20:03.000Z</time>
      </trkpt>
      <trkpt lat="45.15679" lon="5.63637">
        <ele>1561.5999755859</ele>
        <time>2019-12-15T08:20:06.000Z</time>
      </trkpt>
      <trkpt lat="45.15676" lon="5.63638">
        <ele>1562</ele>
        <time>2019-12-15T08:20:08.000Z</time>
      </trkpt>
      <trkpt lat="45.15674" lon="5.63638">
        <ele>1563</ele>
        <time>2019-12-15T08:20:12.000Z</time>
      </trkpt>
      <trkpt lat="45.15673" lon="5.63637">
        <ele>1563.1999511719</ele>
        <time>2019-12-15T08:20:13.000Z</time>
      </trkpt>
      <trkpt lat="45.1567" lon="5.63635">
        <ele>1563.8000488281</ele>
        <time>2019-12-15T08:20:16.000Z</time>
      </trkpt>
      <trkpt lat="45.15669" lon="5.63635">
        <ele>1564</ele>
        <time>2019-12-15T08:20:17.000Z</time>
      </trkpt>
      <trkpt lat="45.15668" lon="5.63634">
        <ele>1564.1999511719</ele>
        <time>2019-12-15T08:20:18.000Z</time>
      </trkpt>
      <trkpt lat="45.15665" lon="5.63632">
        <ele>1565</ele>
        <time>2019-12-15T08:20:21.000Z</time>
      </trkpt>
      <trkpt lat="45.15663" lon="5.63631">
        <ele>1565.5999755859</ele>
        <time>2019-12-15T08:20:23.000Z</time>
      </trkpt>
      <trkpt lat="45.15662" lon="5.63631">
        <ele>1566.1999511719</ele>
        <time>2019-12-15T08:20:25.000Z</time>
      </trkpt>
      <trkpt lat="45.15659" lon="5.6363">
        <ele>1567.1999511719</ele>
        <time>2019-12-15T08:20:29.000Z</time>
      </trkpt>
      <trkpt lat="45.15659" lon="5.63629">
        <ele>1567.5999755859</ele>
        <time>2019-12-15T08:20:30.000Z</time>
      </trkpt>
      <trkpt lat="45.15657" lon="5.63627">
        <ele>1568.1999511719</ele>
        <time>2019-12-15T08:20:33.000Z</time>
      </trkpt>
      <trkpt lat="45.15655" lon="5.63627">
        <ele>1568.8000488281</ele>
        <time>2019-12-15T08:20:36.000Z</time>
      </trkpt>
      <trkpt lat="45.15654" lon="5.63627">
        <ele>1569.5999755859</ele>
        <time>2019-12-15T08:20:38.000Z</time>
      </trkpt>
      <trkpt lat="45.15652" lon="5.63632">
        <ele>1570.5999755859</ele>
        <time>2019-12-15T08:20:42.000Z</time>
      </trkpt>
      <trkpt lat="45.15651" lon="5.63635">
        <ele>1571.1999511719</ele>
        <time>2019-12-15T08:20:44.000Z</time>
      </trkpt>
      <trkpt lat="45.1565" lon="5.63638">
        <ele>1571.8000488281</ele>
        <time>2019-12-15T08:20:46.000Z</time>
      </trkpt>
      <trkpt lat="45.15648" lon="5.63645">
        <ele>1573</ele>
        <time>2019-12-15T08:20:53.000Z</time>
      </trkpt>
      <trkpt lat="45.15646" lon="5.63648">
        <ele>1574.1999511719</ele>
        <time>2019-12-15T08:20:58.000Z</time>
      </trkpt>
      <trkpt lat="45.15645" lon="5.63649">
        <ele>1575.1999511719</ele>
        <time>2019-12-15T08:21:01.000Z</time>
      </trkpt>
      <trkpt lat="45.15644" lon="5.63649">
        <ele>1575.4000244141</ele>
        <time>2019-12-15T08:21:02.000Z</time>
      </trkpt>
      <trkpt lat="45.15641" lon="5.63647">
        <ele>1576.4000244141</ele>
        <time>2019-12-15T08:21:07.000Z</time>
      </trkpt>
      <trkpt lat="45.1564" lon="5.63647">
        <ele>1576.5999755859</ele>
        <time>2019-12-15T08:21:08.000Z</time>
      </trkpt>
      <trkpt lat="45.15638" lon="5.63647">
        <ele>1577.5999755859</ele>
        <time>2019-12-15T08:21:13.000Z</time>
      </trkpt>
      <trkpt lat="45.15637" lon="5.63647">
        <ele>1578</ele>
        <time>2019-12-15T08:21:17.000Z</time>
      </trkpt>
      <trkpt lat="45.15634" lon="5.63645">
        <ele>1578.5999755859</ele>
        <time>2019-12-15T08:21:21.000Z</time>
      </trkpt>
      <trkpt lat="45.15632" lon="5.63645">
        <ele>1579.1999511719</ele>
        <time>2019-12-15T08:21:23.000Z</time>
      </trkpt>
      <trkpt lat="45.15632" lon="5.63644">
        <ele>1579.8000488281</ele>
        <time>2019-12-15T08:21:24.000Z</time>
      </trkpt>
      <trkpt lat="45.15631" lon="5.63644">
        <ele>1580.1999511719</ele>
        <time>2019-12-15T08:21:27.000Z</time>
      </trkpt>
      <trkpt lat="45.15627" lon="5.63644">
        <ele>1580.8000488281</ele>
        <time>2019-12-15T08:21:31.000Z</time>
      </trkpt>
      <trkpt lat="45.15626" lon="5.63642">
        <ele>1581.1999511719</ele>
        <time>2019-12-15T08:21:33.000Z</time>
      </trkpt>
      <trkpt lat="45.15623" lon="5.6364">
        <ele>1582</ele>
        <time>2019-12-15T08:21:38.000Z</time>
      </trkpt>
      <trkpt lat="45.15623" lon="5.6364">
        <ele>1583</ele>
        <time>2019-12-15T08:21:43.000Z</time>
      </trkpt>
      <trkpt lat="45.15622" lon="5.6364">
        <ele>1583.1999511719</ele>
        <time>2019-12-15T08:21:44.000Z</time>
      </trkpt>
      <trkpt lat="45.1562" lon="5.63637">
        <ele>1584.1999511719</ele>
        <time>2019-12-15T08:21:49.000Z</time>
      </trkpt>
      <trkpt lat="45.1562" lon="5.63637">
        <ele>1584.4000244141</ele>
        <time>2019-12-15T08:21:50.000Z</time>
      </trkpt>
      <trkpt lat="45.15618" lon="5.63635">
        <ele>1585.4000244141</ele>
        <time>2019-12-15T08:21:55.000Z</time>
      </trkpt>
      <trkpt lat="45.15618" lon="5.63634">
        <ele>1585.5999755859</ele>
        <time>2019-12-15T08:21:56.000Z</time>
      </trkpt>
      <trkpt lat="45.15617" lon="5.6363">
        <ele>1586.5999755859</ele>
        <time>2019-12-15T08:22:00.000Z</time>
      </trkpt>
      <trkpt lat="45.15617" lon="5.63627">
        <ele>1587.1999511719</ele>
        <time>2019-12-15T08:22:03.000Z</time>
      </trkpt>
      <trkpt lat="45.15616" lon="5.63625">
        <ele>1587.5999755859</ele>
        <time>2019-12-15T08:22:07.000Z</time>
      </trkpt>
      <trkpt lat="45.15616" lon="5.63625">
        <ele>1587.8000488281</ele>
        <time>2019-12-15T08:22:08.000Z</time>
      </trkpt>
      <trkpt lat="45.15616" lon="5.63621">
        <ele>1588.8000488281</ele>
        <time>2019-12-15T08:22:13.000Z</time>
      </trkpt>
      <trkpt lat="45.15616" lon="5.6362">
        <ele>1588.8000488281</ele>
        <time>2019-12-15T08:22:14.000Z</time>
      </trkpt>
      <trkpt lat="45.15615" lon="5.63614">
        <ele>1589.8000488281</ele>
        <time>2019-12-15T08:22:19.000Z</time>
      </trkpt>
      <trkpt lat="45.15615" lon="5.63613">
        <ele>1590</ele>
        <time>2019-12-15T08:22:20.000Z</time>
      </trkpt>
      <trkpt lat="45.15614" lon="5.63609">
        <ele>1590.8000488281</ele>
        <time>2019-12-15T08:22:24.000Z</time>
      </trkpt>
      <trkpt lat="45.15614" lon="5.63606">
        <ele>1591.4000244141</ele>
        <time>2019-12-15T08:22:27.000Z</time>
      </trkpt>
      <trkpt lat="45.15613" lon="5.63604">
        <ele>1591.5999755859</ele>
        <time>2019-12-15T08:22:29.000Z</time>
      </trkpt>
      <trkpt lat="45.15613" lon="5.636">
        <ele>1592</ele>
        <time>2019-12-15T08:22:32.000Z</time>
      </trkpt>
      <trkpt lat="45.15612" lon="5.63599">
        <ele>1592</ele>
        <time>2019-12-15T08:22:33.000Z</time>
      </trkpt>
      <trkpt lat="45.15611" lon="5.63595">
        <ele>1593</ele>
        <time>2019-12-15T08:22:37.000Z</time>
      </trkpt>
      <trkpt lat="45.15611" lon="5.63595">
        <ele>1593.1999511719</ele>
        <time>2019-12-15T08:22:38.000Z</time>
      </trkpt>
      <trkpt lat="45.1561" lon="5.63593">
        <ele>1593.4000244141</ele>
        <time>2019-12-15T08:22:39.000Z</time>
      </trkpt>
      <trkpt lat="45.1561" lon="5.63591">
        <ele>1593.5999755859</ele>
        <time>2019-12-15T08:22:41.000Z</time>
      </trkpt>
      <trkpt lat="45.1561" lon="5.63591">
        <ele>1593.8000488281</ele>
        <time>2019-12-15T08:22:42.000Z</time>
      </trkpt>
      <trkpt lat="45.1561" lon="5.6359">
        <ele>1594</ele>
        <time>2019-12-15T08:22:43.000Z</time>
      </trkpt>
      <trkpt lat="45.15609" lon="5.63584">
        <ele>1595</ele>
        <time>2019-12-15T08:22:48.000Z</time>
      </trkpt>
      <trkpt lat="45.15608" lon="5.63578">
        <ele>1595.8000488281</ele>
        <time>2019-12-15T08:22:53.000Z</time>
      </trkpt>
      <trkpt lat="45.15608" lon="5.63574">
        <ele>1596.1999511719</ele>
        <time>2019-12-15T08:22:55.000Z</time>
      </trkpt>
      <trkpt lat="45.15607" lon="5.6357">
        <ele>1596.8000488281</ele>
        <time>2019-12-15T08:22:58.000Z</time>
      </trkpt>
      <trkpt lat="45.15607" lon="5.63565">
        <ele>1597.1999511719</ele>
        <time>2019-12-15T08:23:02.000Z</time>
      </trkpt>
      <trkpt lat="45.15607" lon="5.63564">
        <ele>1597.4000244141</ele>
        <time>2019-12-15T08:23:03.000Z</time>
      </trkpt>
      <trkpt lat="45.15605" lon="5.63556">
        <ele>1597.5999755859</ele>
        <time>2019-12-15T08:23:09.000Z</time>
      </trkpt>
      <trkpt lat="45.15602" lon="5.63548">
        <ele>1597.4000244141</ele>
        <time>2019-12-15T08:23:15.000Z</time>
      </trkpt>
      <trkpt lat="45.15599" lon="5.63543">
        <ele>1597.5999755859</ele>
        <time>2019-12-15T08:23:21.000Z</time>
      </trkpt>
      <trkpt lat="45.15595" lon="5.63538">
        <ele>1598.4000244141</ele>
        <time>2019-12-15T08:23:27.000Z</time>
      </trkpt>
      <trkpt lat="45.15594" lon="5.63537">
        <ele>1598.8000488281</ele>
        <time>2019-12-15T08:23:29.000Z</time>
      </trkpt>
      <trkpt lat="45.15591" lon="5.63533">
        <ele>1599.4000244141</ele>
        <time>2019-12-15T08:23:35.000Z</time>
      </trkpt>
      <trkpt lat="45.1559" lon="5.63533">
        <ele>1599.5999755859</ele>
        <time>2019-12-15T08:23:37.000Z</time>
      </trkpt>
      <trkpt lat="45.15588" lon="5.63533">
        <ele>1600.8000488281</ele>
        <time>2019-12-15T08:23:42.000Z</time>
      </trkpt>
      <trkpt lat="45.15586" lon="5.63533">
        <ele>1601.4000244141</ele>
        <time>2019-12-15T08:23:45.000Z</time>
      </trkpt>
      <trkpt lat="45.15585" lon="5.63533">
        <ele>1601.8000488281</ele>
        <time>2019-12-15T08:23:47.000Z</time>
      </trkpt>
      <trkpt lat="45.15583" lon="5.63533">
        <ele>1603</ele>
        <time>2019-12-15T08:23:51.000Z</time>
      </trkpt>
      <trkpt lat="45.15583" lon="5.63532">
        <ele>1603.4000244141</ele>
        <time>2019-12-15T08:23:53.000Z</time>
      </trkpt>
      <trkpt lat="45.15581" lon="5.63529">
        <ele>1604.1999511719</ele>
        <time>2019-12-15T08:23:59.000Z</time>
      </trkpt>
      <trkpt lat="45.15581" lon="5.63529">
        <ele>1604.1999511719</ele>
        <time>2019-12-15T08:24:00.000Z</time>
      </trkpt>
      <trkpt lat="45.15581" lon="5.63529">
        <ele>1605.4000244141</ele>
        <time>2019-12-15T08:24:05.000Z</time>
      </trkpt>
      <trkpt lat="45.15581" lon="5.63529">
        <ele>1606</ele>
        <time>2019-12-15T08:24:07.000Z</time>
      </trkpt>
      <trkpt lat="45.15582" lon="5.63528">
        <ele>1606.5999755859</ele>
        <time>2019-12-15T08:24:09.000Z</time>
      </trkpt>
      <trkpt lat="45.15585" lon="5.63525">
        <ele>1607.4000244141</ele>
        <time>2019-12-15T08:24:14.000Z</time>
      </trkpt>
      <trkpt lat="45.15585" lon="5.63524">
        <ele>1607.5999755859</ele>
        <time>2019-12-15T08:24:15.000Z</time>
      </trkpt>
      <trkpt lat="45.15588" lon="5.63523">
        <ele>1608.5999755859</ele>
        <time>2019-12-15T08:24:21.000Z</time>
      </trkpt>
      <trkpt lat="45.15588" lon="5.63523">
        <ele>1608.5999755859</ele>
        <time>2019-12-15T08:24:22.000Z</time>
      </trkpt>
      <trkpt lat="45.15589" lon="5.63522">
        <ele>1609.4000244141</ele>
        <time>2019-12-15T08:24:27.000Z</time>
      </trkpt>
      <trkpt lat="45.15591" lon="5.63521">
        <ele>1609.8000488281</ele>
        <time>2019-12-15T08:24:30.000Z</time>
      </trkpt>
      <trkpt lat="45.15592" lon="5.6352">
        <ele>1610.5999755859</ele>
        <time>2019-12-15T08:24:33.000Z</time>
      </trkpt>
      <trkpt lat="45.15593" lon="5.6352">
        <ele>1610.8000488281</ele>
        <time>2019-12-15T08:24:34.000Z</time>
      </trkpt>
      <trkpt lat="45.15595" lon="5.6352">
        <ele>1611.5999755859</ele>
        <time>2019-12-15T08:24:38.000Z</time>
      </trkpt>
      <trkpt lat="45.15596" lon="5.63519">
        <ele>1611.8000488281</ele>
        <time>2019-12-15T08:24:39.000Z</time>
      </trkpt>
      <trkpt lat="45.15597" lon="5.63519">
        <ele>1612.5999755859</ele>
        <time>2019-12-15T08:24:44.000Z</time>
      </trkpt>
      <trkpt lat="45.15597" lon="5.63519">
        <ele>1613</ele>
        <time>2019-12-15T08:24:46.000Z</time>
      </trkpt>
      <trkpt lat="45.15597" lon="5.63519">
        <ele>1611.8000488281</ele>
        <time>2019-12-15T08:24:52.000Z</time>
      </trkpt>
      <trkpt lat="45.15597" lon="5.63519">
        <ele>1611.5999755859</ele>
        <time>2019-12-15T08:24:54.000Z</time>
      </trkpt>
      <trkpt lat="45.15597" lon="5.63519">
        <ele>1612.8000488281</ele>
        <time>2019-12-15T08:24:56.000Z</time>
      </trkpt>
      <trkpt lat="45.15597" lon="5.63519">
        <ele>1612.5999755859</ele>
        <time>2019-12-15T08:25:05.000Z</time>
      </trkpt>
      <trkpt lat="45.15597" lon="5.63519">
        <ele>1613.5999755859</ele>
        <time>2019-12-15T08:25:14.000Z</time>
      </trkpt>
      <trkpt lat="45.15597" lon="5.63519">
        <ele>1612.5999755859</ele>
        <time>2019-12-15T08:25:23.000Z</time>
      </trkpt>
      <trkpt lat="45.15597" lon="5.63519">
        <ele>1613.1999511719</ele>
        <time>2019-12-15T08:25:33.000Z</time>
      </trkpt>
      <trkpt lat="45.15597" lon="5.63519">
        <ele>1613</ele>
        <time>2019-12-15T08:25:42.000Z</time>
      </trkpt>
      <trkpt lat="45.15598" lon="5.63518">
        <ele>1612.8000488281</ele>
        <time>2019-12-15T08:25:52.000Z</time>
      </trkpt>
      <trkpt lat="45.15598" lon="5.63518">
        <ele>1613.1999511719</ele>
        <time>2019-12-15T08:26:00.000Z</time>
      </trkpt>
      <trkpt lat="45.15598" lon="5.63518">
        <ele>1613</ele>
        <time>2019-12-15T08:26:15.000Z</time>
      </trkpt>
      <trkpt lat="45.15598" lon="5.63518">
        <ele>1612.5999755859</ele>
        <time>2019-12-15T08:26:25.000Z</time>
      </trkpt>
      <trkpt lat="45.15598" lon="5.63518">
        <ele>1613.4000244141</ele>
        <time>2019-12-15T08:26:35.000Z</time>
      </trkpt>
      <trkpt lat="45.15598" lon="5.63518">
        <ele>1613.1999511719</ele>
        <time>2019-12-15T08:26:45.000Z</time>
      </trkpt>
      <trkpt lat="45.15598" lon="5.63518">
        <ele>1612.8000488281</ele>
        <time>2019-12-15T08:26:59.000Z</time>
      </trkpt>
      <trkpt lat="45.15599" lon="5.63518">
        <ele>1613</ele>
        <time>2019-12-15T08:27:13.000Z</time>
      </trkpt>
      <trkpt lat="45.15599" lon="5.63518">
        <ele>1613.1999511719</ele>
        <time>2019-12-15T08:27:24.000Z</time>
      </trkpt>
      <trkpt lat="45.15599" lon="5.63518">
        <ele>1613.1999511719</ele>
        <time>2019-12-15T08:27:35.000Z</time>
      </trkpt>
      <trkpt lat="45.15599" lon="5.63518">
        <ele>1613.1999511719</ele>
        <time>2019-12-15T08:27:42.000Z</time>
      </trkpt>
      <trkpt lat="45.15599" lon="5.63518">
        <ele>1613</ele>
        <time>2019-12-15T08:27:52.000Z</time>
      </trkpt>
      <trkpt lat="45.15599" lon="5.63518">
        <ele>1612.8000488281</ele>
        <time>2019-12-15T08:28:10.000Z</time>
      </trkpt>
      <trkpt lat="45.15599" lon="5.63518">
        <ele>1612.8000488281</ele>
        <time>2019-12-15T08:28:23.000Z</time>
      </trkpt>
      <trkpt lat="45.15599" lon="5.63518">
        <ele>1613</ele>
        <time>2019-12-15T08:28:35.000Z</time>
      </trkpt>
      <trkpt lat="45.15599" lon="5.63518">
        <ele>1613</ele>
        <time>2019-12-15T08:28:37.000Z</time>
      </trkpt>
      <trkpt lat="45.15599" lon="5.63518">
        <ele>1612.8000488281</ele>
        <time>2019-12-15T08:28:51.000Z</time>
      </trkpt>
      <trkpt lat="45.15599" lon="5.63518">
        <ele>1613</ele>
        <time>2019-12-15T08:29:07.000Z</time>
      </trkpt>
      <trkpt lat="45.15599" lon="5.63518">
        <ele>1613.1999511719</ele>
        <time>2019-12-15T08:29:17.000Z</time>
      </trkpt>
      <trkpt lat="45.15599" lon="5.63518">
        <ele>1612.5999755859</ele>
        <time>2019-12-15T08:29:28.000Z</time>
      </trkpt>
      <trkpt lat="45.156" lon="5.63516">
        <ele>1613.1999511719</ele>
        <time>2019-12-15T08:29:33.000Z</time>
      </trkpt>
      <trkpt lat="45.156" lon="5.63516">
        <ele>1613</ele>
        <time>2019-12-15T08:29:42.000Z</time>
      </trkpt>
      <trkpt lat="45.156" lon="5.63516">
        <ele>1612.8000488281</ele>
        <time>2019-12-15T08:30:00.000Z</time>
      </trkpt>
      <trkpt lat="45.156" lon="5.63516">
        <ele>1613.4000244141</ele>
        <time>2019-12-15T08:30:16.000Z</time>
      </trkpt>
      <trkpt lat="45.156" lon="5.63516">
        <ele>1613.1999511719</ele>
        <time>2019-12-15T08:30:27.000Z</time>
      </trkpt>
      <trkpt lat="45.156" lon="5.63516">
        <ele>1613.4000244141</ele>
        <time>2019-12-15T08:30:42.000Z</time>
      </trkpt>
      <trkpt lat="45.156" lon="5.63516">
        <ele>1613</ele>
        <time>2019-12-15T08:30:54.000Z</time>
      </trkpt>
      <trkpt lat="45.156" lon="5.63516">
        <ele>1613</ele>
        <time>2019-12-15T08:31:09.000Z</time>
      </trkpt>
      <trkpt lat="45.15601" lon="5.63516">
        <ele>1613</ele>
        <time>2019-12-15T08:31:19.000Z</time>
      </trkpt>
      <trkpt lat="45.15603" lon="5.63515">
        <ele>1613</ele>
        <time>2019-12-15T08:31:24.000Z</time>
      </trkpt>
      <trkpt lat="45.15604" lon="5.63516">
        <ele>1613.8000488281</ele>
        <time>2019-12-15T08:31:28.000Z</time>
      </trkpt>
      <trkpt lat="45.15604" lon="5.63516">
        <ele>1614.1999511719</ele>
        <time>2019-12-15T08:31:30.000Z</time>
      </trkpt>
      <trkpt lat="45.15604" lon="5.63518">
        <ele>1614.4000244141</ele>
        <time>2019-12-15T08:31:35.000Z</time>
      </trkpt>
      <trkpt lat="45.15606" lon="5.63519">
        <ele>1614.4000244141</ele>
        <time>2019-12-15T08:31:39.000Z</time>
      </trkpt>
      <trkpt lat="45.15608" lon="5.63519">
        <ele>1614.4000244141</ele>
        <time>2019-12-15T08:31:40.000Z</time>
      </trkpt>
      <trkpt lat="45.15611" lon="5.6352">
        <ele>1614.8000488281</ele>
        <time>2019-12-15T08:31:44.000Z</time>
      </trkpt>
      <trkpt lat="45.15615" lon="5.6352">
        <ele>1615.8000488281</ele>
        <time>2019-12-15T08:31:49.000Z</time>
      </trkpt>
      <trkpt lat="45.15618" lon="5.63522">
        <ele>1617</ele>
        <time>2019-12-15T08:31:54.000Z</time>
      </trkpt>
      <trkpt lat="45.15621" lon="5.63521">
        <ele>1617.5999755859</ele>
        <time>2019-12-15T08:31:58.000Z</time>
      </trkpt>
      <trkpt lat="45.15624" lon="5.63518">
        <ele>1618</ele>
        <time>2019-12-15T08:32:00.000Z</time>
      </trkpt>
      <trkpt lat="45.15627" lon="5.63516">
        <ele>1618.5999755859</ele>
        <time>2019-12-15T08:32:03.000Z</time>
      </trkpt>
      <trkpt lat="45.1563" lon="5.63514">
        <ele>1619.1999511719</ele>
        <time>2019-12-15T08:32:06.000Z</time>
      </trkpt>
      <trkpt lat="45.15631" lon="5.63513">
        <ele>1619.5999755859</ele>
        <time>2019-12-15T08:32:08.000Z</time>
      </trkpt>
      <trkpt lat="45.15632" lon="5.63511">
        <ele>1620</ele>
        <time>2019-12-15T08:32:09.000Z</time>
      </trkpt>
      <trkpt lat="45.15634" lon="5.63508">
        <ele>1620.4000244141</ele>
        <time>2019-12-15T08:32:11.000Z</time>
      </trkpt>
      <trkpt lat="45.15635" lon="5.63506">
        <ele>1620.5999755859</ele>
        <time>2019-12-15T08:32:12.000Z</time>
      </trkpt>
      <trkpt lat="45.15635" lon="5.63505">
        <ele>1621</ele>
        <time>2019-12-15T08:32:13.000Z</time>
      </trkpt>
      <trkpt lat="45.15638" lon="5.63502">
        <ele>1621.4000244141</ele>
        <time>2019-12-15T08:32:15.000Z</time>
      </trkpt>
      <trkpt lat="45.15639" lon="5.635">
        <ele>1622.1999511719</ele>
        <time>2019-12-15T08:32:18.000Z</time>
      </trkpt>
      <trkpt lat="45.15639" lon="5.63498">
        <ele>1622.4000244141</ele>
        <time>2019-12-15T08:32:19.000Z</time>
      </trkpt>
      <trkpt lat="45.1564" lon="5.63493">
        <ele>1623</ele>
        <time>2019-12-15T08:32:23.000Z</time>
      </trkpt>
      <trkpt lat="45.15638" lon="5.63488">
        <ele>1623.5999755859</ele>
        <time>2019-12-15T08:32:27.000Z</time>
      </trkpt>
      <trkpt lat="45.15638" lon="5.63486">
        <ele>1623.8000488281</ele>
        <time>2019-12-15T08:32:29.000Z</time>
      </trkpt>
      <trkpt lat="45.15635" lon="5.63482">
        <ele>1624.5999755859</ele>
        <time>2019-12-15T08:32:34.000Z</time>
      </trkpt>
      <trkpt lat="45.15631" lon="5.63476">
        <ele>1625.5999755859</ele>
        <time>2019-12-15T08:32:39.000Z</time>
      </trkpt>
      <trkpt lat="45.1563" lon="5.63475">
        <ele>1625.8000488281</ele>
        <time>2019-12-15T08:32:41.000Z</time>
      </trkpt>
      <trkpt lat="45.15628" lon="5.63473">
        <ele>1626.1999511719</ele>
        <time>2019-12-15T08:32:44.000Z</time>
      </trkpt>
      <trkpt lat="45.15626" lon="5.63471">
        <ele>1626.8000488281</ele>
        <time>2019-12-15T08:32:48.000Z</time>
      </trkpt>
      <trkpt lat="45.15625" lon="5.6347">
        <ele>1626.8000488281</ele>
        <time>2019-12-15T08:32:49.000Z</time>
      </trkpt>
      <trkpt lat="45.15622" lon="5.63466">
        <ele>1627.8000488281</ele>
        <time>2019-12-15T08:32:54.000Z</time>
      </trkpt>
      <trkpt lat="45.15617" lon="5.63465">
        <ele>1628.4000244141</ele>
        <time>2019-12-15T08:32:59.000Z</time>
      </trkpt>
      <trkpt lat="45.15615" lon="5.63464">
        <ele>1628.8000488281</ele>
        <time>2019-12-15T08:33:01.000Z</time>
      </trkpt>
      <trkpt lat="45.15613" lon="5.63463">
        <ele>1629.1999511719</ele>
        <time>2019-12-15T08:33:04.000Z</time>
      </trkpt>
      <trkpt lat="45.15608" lon="5.63461">
        <ele>1630</ele>
        <time>2019-12-15T08:33:09.000Z</time>
      </trkpt>
      <trkpt lat="45.15606" lon="5.6346">
        <ele>1630.5999755859</ele>
        <time>2019-12-15T08:33:13.000Z</time>
      </trkpt>
      <trkpt lat="45.15604" lon="5.63458">
        <ele>1630.8000488281</ele>
        <time>2019-12-15T08:33:17.000Z</time>
      </trkpt>
      <trkpt lat="45.15599" lon="5.63458">
        <ele>1630.8000488281</ele>
        <time>2019-12-15T08:33:23.000Z</time>
      </trkpt>
      <trkpt lat="45.15598" lon="5.63458">
        <ele>1631.4000244141</ele>
        <time>2019-12-15T08:33:24.000Z</time>
      </trkpt>
      <trkpt lat="45.15597" lon="5.63458">
        <ele>1632.1999511719</ele>
        <time>2019-12-15T08:33:27.000Z</time>
      </trkpt>
      <trkpt lat="45.15594" lon="5.63455">
        <ele>1632.4000244141</ele>
        <time>2019-12-15T08:33:32.000Z</time>
      </trkpt>
      <trkpt lat="45.15594" lon="5.63455">
        <ele>1632.5999755859</ele>
        <time>2019-12-15T08:33:33.000Z</time>
      </trkpt>
      <trkpt lat="45.15594" lon="5.63455">
        <ele>1633.5999755859</ele>
        <time>2019-12-15T08:33:38.000Z</time>
      </trkpt>
      <trkpt lat="45.15593" lon="5.63455">
        <ele>1633.8000488281</ele>
        <time>2019-12-15T08:33:40.000Z</time>
      </trkpt>
      <trkpt lat="45.15588" lon="5.63455">
        <ele>1634</ele>
        <time>2019-12-15T08:33:46.000Z</time>
      </trkpt>
      <trkpt lat="45.15585" lon="5.63455">
        <ele>1634.1999511719</ele>
        <time>2019-12-15T08:33:48.000Z</time>
      </trkpt>
      <trkpt lat="45.15583" lon="5.63455">
        <ele>1634.4000244141</ele>
        <time>2019-12-15T08:33:50.000Z</time>
      </trkpt>
      <trkpt lat="45.15579" lon="5.63454">
        <ele>1634.8000488281</ele>
        <time>2019-12-15T08:33:54.000Z</time>
      </trkpt>
      <trkpt lat="45.15578" lon="5.63454">
        <ele>1634.8000488281</ele>
        <time>2019-12-15T08:33:55.000Z</time>
      </trkpt>
      <trkpt lat="45.15573" lon="5.63455">
        <ele>1635.8000488281</ele>
        <time>2019-12-15T08:33:59.000Z</time>
      </trkpt>
      <trkpt lat="45.15567" lon="5.63457">
        <ele>1636.8000488281</ele>
        <time>2019-12-15T08:34:04.000Z</time>
      </trkpt>
      <trkpt lat="45.15564" lon="5.63458">
        <ele>1637.8000488281</ele>
        <time>2019-12-15T08:34:08.000Z</time>
      </trkpt>
      <trkpt lat="45.1556" lon="5.63459">
        <ele>1638.8000488281</ele>
        <time>2019-12-15T08:34:12.000Z</time>
      </trkpt>
      <trkpt lat="45.15559" lon="5.63459">
        <ele>1639.1999511719</ele>
        <time>2019-12-15T08:34:13.000Z</time>
      </trkpt>
      <trkpt lat="45.15556" lon="5.63459">
        <ele>1640</ele>
        <time>2019-12-15T08:34:17.000Z</time>
      </trkpt>
      <trkpt lat="45.15555" lon="5.63459">
        <ele>1640.1999511719</ele>
        <time>2019-12-15T08:34:18.000Z</time>
      </trkpt>
      <trkpt lat="45.15551" lon="5.63457">
        <ele>1641.4000244141</ele>
        <time>2019-12-15T08:34:22.000Z</time>
      </trkpt>
      <trkpt lat="45.15549" lon="5.63455">
        <ele>1642</ele>
        <time>2019-12-15T08:34:26.000Z</time>
      </trkpt>
      <trkpt lat="45.15546" lon="5.63454">
        <ele>1642.4000244141</ele>
        <time>2019-12-15T08:34:28.000Z</time>
      </trkpt>
      <trkpt lat="45.15544" lon="5.63453">
        <ele>1643</ele>
        <time>2019-12-15T08:34:31.000Z</time>
      </trkpt>
      <trkpt lat="45.15542" lon="5.63452">
        <ele>1643.4000244141</ele>
        <time>2019-12-15T08:34:33.000Z</time>
      </trkpt>
      <trkpt lat="45.15541" lon="5.63452">
        <ele>1643.8000488281</ele>
        <time>2019-12-15T08:34:35.000Z</time>
      </trkpt>
      <trkpt lat="45.15538" lon="5.63451">
        <ele>1644.5999755859</ele>
        <time>2019-12-15T08:34:38.000Z</time>
      </trkpt>
      <trkpt lat="45.15537" lon="5.63451">
        <ele>1644.5999755859</ele>
        <time>2019-12-15T08:34:39.000Z</time>
      </trkpt>
      <trkpt lat="45.15532" lon="5.63451">
        <ele>1645.5999755859</ele>
        <time>2019-12-15T08:34:44.000Z</time>
      </trkpt>
      <trkpt lat="45.15525" lon="5.63452">
        <ele>1646</ele>
        <time>2019-12-15T08:34:50.000Z</time>
      </trkpt>
      <trkpt lat="45.15521" lon="5.63451">
        <ele>1646.1999511719</ele>
        <time>2019-12-15T08:34:54.000Z</time>
      </trkpt>
      <trkpt lat="45.1552" lon="5.63451">
        <ele>1646.1999511719</ele>
        <time>2019-12-15T08:34:55.000Z</time>
      </trkpt>
      <trkpt lat="45.15516" lon="5.63452">
        <ele>1646.5999755859</ele>
        <time>2019-12-15T08:34:59.000Z</time>
      </trkpt>
      <trkpt lat="45.15515" lon="5.63452">
        <ele>1646.5999755859</ele>
        <time>2019-12-15T08:35:00.000Z</time>
      </trkpt>
      <trkpt lat="45.15511" lon="5.63452">
        <ele>1647.5999755859</ele>
        <time>2019-12-15T08:35:04.000Z</time>
      </trkpt>
      <trkpt lat="45.1551" lon="5.63452">
        <ele>1647.5999755859</ele>
        <time>2019-12-15T08:35:05.000Z</time>
      </trkpt>
      <trkpt lat="45.15507" lon="5.63453">
        <ele>1648</ele>
        <time>2019-12-15T08:35:08.000Z</time>
      </trkpt>
      <trkpt lat="45.15505" lon="5.63452">
        <ele>1648.8000488281</ele>
        <time>2019-12-15T08:35:11.000Z</time>
      </trkpt>
      <trkpt lat="45.15504" lon="5.63452">
        <ele>1649.1999511719</ele>
        <time>2019-12-15T08:35:13.000Z</time>
      </trkpt>
      <trkpt lat="45.155" lon="5.63452">
        <ele>1650</ele>
        <time>2019-12-15T08:35:17.000Z</time>
      </trkpt>
      <trkpt lat="45.15497" lon="5.63452">
        <ele>1650.5999755859</ele>
        <time>2019-12-15T08:35:22.000Z</time>
      </trkpt>
      <trkpt lat="45.15494" lon="5.63452">
        <ele>1651.1999511719</ele>
        <time>2019-12-15T08:35:25.000Z</time>
      </trkpt>
      <trkpt lat="45.15493" lon="5.63452">
        <ele>1651.5999755859</ele>
        <time>2019-12-15T08:35:27.000Z</time>
      </trkpt>
      <trkpt lat="45.1549" lon="5.63454">
        <ele>1652.4000244141</ele>
        <time>2019-12-15T08:35:31.000Z</time>
      </trkpt>
      <trkpt lat="45.15489" lon="5.63454">
        <ele>1652.5999755859</ele>
        <time>2019-12-15T08:35:32.000Z</time>
      </trkpt>
      <trkpt lat="45.15487" lon="5.63455">
        <ele>1653.4000244141</ele>
        <time>2019-12-15T08:35:37.000Z</time>
      </trkpt>
      <trkpt lat="45.15484" lon="5.63457">
        <ele>1654.4000244141</ele>
        <time>2019-12-15T08:35:41.000Z</time>
      </trkpt>
      <trkpt lat="45.15483" lon="5.63457">
        <ele>1654.5999755859</ele>
        <time>2019-12-15T08:35:42.000Z</time>
      </trkpt>
      <trkpt lat="45.15481" lon="5.63458">
        <ele>1655</ele>
        <time>2019-12-15T08:35:45.000Z</time>
      </trkpt>
      <trkpt lat="45.15477" lon="5.6346">
        <ele>1655.8000488281</ele>
        <time>2019-12-15T08:35:49.000Z</time>
      </trkpt>
      <trkpt lat="45.15477" lon="5.6346">
        <ele>1656</ele>
        <time>2019-12-15T08:35:50.000Z</time>
      </trkpt>
      <trkpt lat="45.15472" lon="5.63461">
        <ele>1657</ele>
        <time>2019-12-15T08:35:55.000Z</time>
      </trkpt>
      <trkpt lat="45.15469" lon="5.63462">
        <ele>1657.8000488281</ele>
        <time>2019-12-15T08:35:59.000Z</time>
      </trkpt>
      <trkpt lat="45.15468" lon="5.63463">
        <ele>1658.1999511719</ele>
        <time>2019-12-15T08:36:01.000Z</time>
      </trkpt>
      <trkpt lat="45.15467" lon="5.63464">
        <ele>1658.5999755859</ele>
        <time>2019-12-15T08:36:04.000Z</time>
      </trkpt>
      <trkpt lat="45.15464" lon="5.63466">
        <ele>1659.1999511719</ele>
        <time>2019-12-15T08:36:07.000Z</time>
      </trkpt>
      <trkpt lat="45.15463" lon="5.63466">
        <ele>1659.5999755859</ele>
        <time>2019-12-15T08:36:09.000Z</time>
      </trkpt>
      <trkpt lat="45.15461" lon="5.63467">
        <ele>1660.1999511719</ele>
        <time>2019-12-15T08:36:12.000Z</time>
      </trkpt>
      <trkpt lat="45.15458" lon="5.63468">
        <ele>1660.8000488281</ele>
        <time>2019-12-15T08:36:15.000Z</time>
      </trkpt>
      <trkpt lat="45.15455" lon="5.6347">
        <ele>1661.1999511719</ele>
        <time>2019-12-15T08:36:20.000Z</time>
      </trkpt>
      <trkpt lat="45.15454" lon="5.6347">
        <ele>1661.4000244141</ele>
        <time>2019-12-15T08:36:21.000Z</time>
      </trkpt>
      <trkpt lat="45.15451" lon="5.63473">
        <ele>1662</ele>
        <time>2019-12-15T08:36:26.000Z</time>
      </trkpt>
      <trkpt lat="45.15448" lon="5.63474">
        <ele>1662.4000244141</ele>
        <time>2019-12-15T08:36:29.000Z</time>
      </trkpt>
      <trkpt lat="45.15446" lon="5.63476">
        <ele>1662.8000488281</ele>
        <time>2019-12-15T08:36:31.000Z</time>
      </trkpt>
      <trkpt lat="45.15442" lon="5.63479">
        <ele>1663.4000244141</ele>
        <time>2019-12-15T08:36:36.000Z</time>
      </trkpt>
      <trkpt lat="45.15436" lon="5.63482">
        <ele>1664</ele>
        <time>2019-12-15T08:36:41.000Z</time>
      </trkpt>
      <trkpt lat="45.15433" lon="5.63484">
        <ele>1664.4000244141</ele>
        <time>2019-12-15T08:36:45.000Z</time>
      </trkpt>
      <trkpt lat="45.15428" lon="5.63488">
        <ele>1665.1999511719</ele>
        <time>2019-12-15T08:36:50.000Z</time>
      </trkpt>
      <trkpt lat="45.15427" lon="5.63489">
        <ele>1665.4000244141</ele>
        <time>2019-12-15T08:36:52.000Z</time>
      </trkpt>
      <trkpt lat="45.15424" lon="5.6349">
        <ele>1665.8000488281</ele>
        <time>2019-12-15T08:36:55.000Z</time>
      </trkpt>
      <trkpt lat="45.15419" lon="5.63492">
        <ele>1666.4000244141</ele>
        <time>2019-12-15T08:37:00.000Z</time>
      </trkpt>
      <trkpt lat="45.15418" lon="5.63492">
        <ele>1666.4000244141</ele>
        <time>2019-12-15T08:37:01.000Z</time>
      </trkpt>
      <trkpt lat="45.15414" lon="5.63493">
        <ele>1666.8000488281</ele>
        <time>2019-12-15T08:37:05.000Z</time>
      </trkpt>
      <trkpt lat="45.1541" lon="5.63493">
        <ele>1667.4000244141</ele>
        <time>2019-12-15T08:37:10.000Z</time>
      </trkpt>
      <trkpt lat="45.1541" lon="5.63493">
        <ele>1667.5999755859</ele>
        <time>2019-12-15T08:37:11.000Z</time>
      </trkpt>
      <trkpt lat="45.15407" lon="5.63493">
        <ele>1668</ele>
        <time>2019-12-15T08:37:14.000Z</time>
      </trkpt>
      <trkpt lat="45.15404" lon="5.63494">
        <ele>1668.5999755859</ele>
        <time>2019-12-15T08:37:18.000Z</time>
      </trkpt>
      <trkpt lat="45.15403" lon="5.63494">
        <ele>1668.5999755859</ele>
        <time>2019-12-15T08:37:19.000Z</time>
      </trkpt>
      <trkpt lat="45.15401" lon="5.63496">
        <ele>1669.1999511719</ele>
        <time>2019-12-15T08:37:22.000Z</time>
      </trkpt>
      <trkpt lat="45.15398" lon="5.63497">
        <ele>1669.8000488281</ele>
        <time>2019-12-15T08:37:25.000Z</time>
      </trkpt>
      <trkpt lat="45.15396" lon="5.63499">
        <ele>1670.5999755859</ele>
        <time>2019-12-15T08:37:28.000Z</time>
      </trkpt>
      <trkpt lat="45.15394" lon="5.635">
        <ele>1670.8000488281</ele>
        <time>2019-12-15T08:37:30.000Z</time>
      </trkpt>
      <trkpt lat="45.15391" lon="5.63502">
        <ele>1671.1999511719</ele>
        <time>2019-12-15T08:37:33.000Z</time>
      </trkpt>
      <trkpt lat="45.15388" lon="5.63504">
        <ele>1671.5999755859</ele>
        <time>2019-12-15T08:37:37.000Z</time>
      </trkpt>
      <trkpt lat="45.15386" lon="5.63505">
        <ele>1671.8000488281</ele>
        <time>2019-12-15T08:37:39.000Z</time>
      </trkpt>
      <trkpt lat="45.15383" lon="5.63506">
        <ele>1672.1999511719</ele>
        <time>2019-12-15T08:37:42.000Z</time>
      </trkpt>
      <trkpt lat="45.1538" lon="5.63507">
        <ele>1673</ele>
        <time>2019-12-15T08:37:46.000Z</time>
      </trkpt>
      <trkpt lat="45.15379" lon="5.63508">
        <ele>1673.1999511719</ele>
        <time>2019-12-15T08:37:47.000Z</time>
      </trkpt>
      <trkpt lat="45.15376" lon="5.63511">
        <ele>1673.8000488281</ele>
        <time>2019-12-15T08:37:52.000Z</time>
      </trkpt>
      <trkpt lat="45.15374" lon="5.63511">
        <ele>1674</ele>
        <time>2019-12-15T08:37:53.000Z</time>
      </trkpt>
      <trkpt lat="45.15372" lon="5.63513">
        <ele>1674.5999755859</ele>
        <time>2019-12-15T08:37:57.000Z</time>
      </trkpt>
      <trkpt lat="45.15371" lon="5.63515">
        <ele>1675.1999511719</ele>
        <time>2019-12-15T08:38:00.000Z</time>
      </trkpt>
      <trkpt lat="45.15369" lon="5.63515">
        <ele>1675.5999755859</ele>
        <time>2019-12-15T08:38:02.000Z</time>
      </trkpt>
      <trkpt lat="45.15366" lon="5.63517">
        <ele>1676.1999511719</ele>
        <time>2019-12-15T08:38:05.000Z</time>
      </trkpt>
      <trkpt lat="45.15365" lon="5.63518">
        <ele>1676.5999755859</ele>
        <time>2019-12-15T08:38:07.000Z</time>
      </trkpt>
      <trkpt lat="45.1536" lon="5.63521">
        <ele>1677.4000244141</ele>
        <time>2019-12-15T08:38:12.000Z</time>
      </trkpt>
      <trkpt lat="45.15357" lon="5.63523">
        <ele>1678</ele>
        <time>2019-12-15T08:38:17.000Z</time>
      </trkpt>
      <trkpt lat="45.15354" lon="5.63524">
        <ele>1678.4000244141</ele>
        <time>2019-12-15T08:38:20.000Z</time>
      </trkpt>
      <trkpt lat="45.15353" lon="5.63525">
        <ele>1678.8000488281</ele>
        <time>2019-12-15T08:38:22.000Z</time>
      </trkpt>
      <trkpt lat="45.1535" lon="5.63528">
        <ele>1679.5999755859</ele>
        <time>2019-12-15T08:38:27.000Z</time>
      </trkpt>
      <trkpt lat="45.15346" lon="5.6353">
        <ele>1680.1999511719</ele>
        <time>2019-12-15T08:38:33.000Z</time>
      </trkpt>
      <trkpt lat="45.15345" lon="5.63531">
        <ele>1680.4000244141</ele>
        <time>2019-12-15T08:38:34.000Z</time>
      </trkpt>
      <trkpt lat="45.15345" lon="5.63531">
        <ele>1680.5999755859</ele>
        <time>2019-12-15T08:38:35.000Z</time>
      </trkpt>
      <trkpt lat="45.15342" lon="5.63532">
        <ele>1681.4000244141</ele>
        <time>2019-12-15T08:38:38.000Z</time>
      </trkpt>
      <trkpt lat="45.15341" lon="5.63532">
        <ele>1681.5999755859</ele>
        <time>2019-12-15T08:38:39.000Z</time>
      </trkpt>
      <trkpt lat="45.15339" lon="5.63533">
        <ele>1682.1999511719</ele>
        <time>2019-12-15T08:38:43.000Z</time>
      </trkpt>
      <trkpt lat="45.15338" lon="5.63534">
        <ele>1682.5999755859</ele>
        <time>2019-12-15T08:38:46.000Z</time>
      </trkpt>
      <trkpt lat="45.15336" lon="5.63534">
        <ele>1683.1999511719</ele>
        <time>2019-12-15T08:38:48.000Z</time>
      </trkpt>
      <trkpt lat="45.15334" lon="5.63535">
        <ele>1683.5999755859</ele>
        <time>2019-12-15T08:38:51.000Z</time>
      </trkpt>
      <trkpt lat="45.15333" lon="5.63536">
        <ele>1684</ele>
        <time>2019-12-15T08:38:53.000Z</time>
      </trkpt>
      <trkpt lat="45.15332" lon="5.63537">
        <ele>1684.8000488281</ele>
        <time>2019-12-15T08:38:56.000Z</time>
      </trkpt>
      <trkpt lat="45.15331" lon="5.63537">
        <ele>1685.1999511719</ele>
        <time>2019-12-15T08:38:58.000Z</time>
      </trkpt>
      <trkpt lat="45.15329" lon="5.63538">
        <ele>1686</ele>
        <time>2019-12-15T08:39:02.000Z</time>
      </trkpt>
      <trkpt lat="45.15329" lon="5.63538">
        <ele>1686</ele>
        <time>2019-12-15T08:39:03.000Z</time>
      </trkpt>
      <trkpt lat="45.15325" lon="5.63539">
        <ele>1687</ele>
        <time>2019-12-15T08:39:08.000Z</time>
      </trkpt>
      <trkpt lat="45.15322" lon="5.63539">
        <ele>1688</ele>
        <time>2019-12-15T08:39:13.000Z</time>
      </trkpt>
      <trkpt lat="45.15318" lon="5.63539">
        <ele>1689</ele>
        <time>2019-12-15T08:39:18.000Z</time>
      </trkpt>
      <trkpt lat="45.15318" lon="5.63539">
        <ele>1689.1999511719</ele>
        <time>2019-12-15T08:39:19.000Z</time>
      </trkpt>
      <trkpt lat="45.15316" lon="5.63538">
        <ele>1689.5999755859</ele>
        <time>2019-12-15T08:39:22.000Z</time>
      </trkpt>
      <trkpt lat="45.15314" lon="5.63538">
        <ele>1690.1999511719</ele>
        <time>2019-12-15T08:39:25.000Z</time>
      </trkpt>
      <trkpt lat="45.15312" lon="5.63537">
        <ele>1691</ele>
        <time>2019-12-15T08:39:28.000Z</time>
      </trkpt>
      <trkpt lat="45.15311" lon="5.63537">
        <ele>1691.4000244141</ele>
        <time>2019-12-15T08:39:30.000Z</time>
      </trkpt>
      <trkpt lat="45.15309" lon="5.63537">
        <ele>1691.8000488281</ele>
        <time>2019-12-15T08:39:33.000Z</time>
      </trkpt>
      <trkpt lat="45.15308" lon="5.63537">
        <ele>1692.4000244141</ele>
        <time>2019-12-15T08:39:36.000Z</time>
      </trkpt>
      <trkpt lat="45.15306" lon="5.63536">
        <ele>1693</ele>
        <time>2019-12-15T08:39:39.000Z</time>
      </trkpt>
      <trkpt lat="45.15305" lon="5.63536">
        <ele>1693.5999755859</ele>
        <time>2019-12-15T08:39:41.000Z</time>
      </trkpt>
      <trkpt lat="45.15304" lon="5.63536">
        <ele>1694.1999511719</ele>
        <time>2019-12-15T08:39:45.000Z</time>
      </trkpt>
      <trkpt lat="45.15303" lon="5.63535">
        <ele>1694.5999755859</ele>
        <time>2019-12-15T08:39:47.000Z</time>
      </trkpt>
      <trkpt lat="45.15302" lon="5.63535">
        <ele>1695.1999511719</ele>
        <time>2019-12-15T08:39:50.000Z</time>
      </trkpt>
      <trkpt lat="45.15301" lon="5.63535">
        <ele>1695.8000488281</ele>
        <time>2019-12-15T08:39:52.000Z</time>
      </trkpt>
      <trkpt lat="45.153" lon="5.63534">
        <ele>1696.4000244141</ele>
        <time>2019-12-15T08:39:54.000Z</time>
      </trkpt>
      <trkpt lat="45.15299" lon="5.63534">
        <ele>1696.8000488281</ele>
        <time>2019-12-15T08:39:56.000Z</time>
      </trkpt>
      <trkpt lat="45.15297" lon="5.63533">
        <ele>1697.8000488281</ele>
        <time>2019-12-15T08:40:00.000Z</time>
      </trkpt>
      <trkpt lat="45.15297" lon="5.63533">
        <ele>1698</ele>
        <time>2019-12-15T08:40:01.000Z</time>
      </trkpt>
      <trkpt lat="45.15294" lon="5.63533">
        <ele>1698.5999755859</ele>
        <time>2019-12-15T08:40:04.000Z</time>
      </trkpt>
      <trkpt lat="45.15293" lon="5.63532">
        <ele>1699</ele>
        <time>2019-12-15T08:40:06.000Z</time>
      </trkpt>
      <trkpt lat="45.15291" lon="5.63532">
        <ele>1699.8000488281</ele>
        <time>2019-12-15T08:40:10.000Z</time>
      </trkpt>
      <trkpt lat="45.1529" lon="5.63532">
        <ele>1700.1999511719</ele>
        <time>2019-12-15T08:40:12.000Z</time>
      </trkpt>
      <trkpt lat="45.15288" lon="5.63531">
        <ele>1701.4000244141</ele>
        <time>2019-12-15T08:40:15.000Z</time>
      </trkpt>
      <trkpt lat="45.15288" lon="5.63531">
        <ele>1701.5999755859</ele>
        <time>2019-12-15T08:40:16.000Z</time>
      </trkpt>
      <trkpt lat="45.15283" lon="5.63529">
        <ele>1702</ele>
        <time>2019-12-15T08:40:21.000Z</time>
      </trkpt>
      <trkpt lat="45.15281" lon="5.63528">
        <ele>1702.4000244141</ele>
        <time>2019-12-15T08:40:24.000Z</time>
      </trkpt>
      <trkpt lat="45.15278" lon="5.63527">
        <ele>1702.8000488281</ele>
        <time>2019-12-15T08:40:26.000Z</time>
      </trkpt>
      <trkpt lat="45.15275" lon="5.63525">
        <ele>1703.1999511719</ele>
        <time>2019-12-15T08:40:30.000Z</time>
      </trkpt>
      <trkpt lat="45.15272" lon="5.63523">
        <ele>1703.5999755859</ele>
        <time>2019-12-15T08:40:33.000Z</time>
      </trkpt>
      <trkpt lat="45.15271" lon="5.63521">
        <ele>1703.8000488281</ele>
        <time>2019-12-15T08:40:35.000Z</time>
      </trkpt>
      <trkpt lat="45.15267" lon="5.63518">
        <ele>1704.4000244141</ele>
        <time>2019-12-15T08:40:40.000Z</time>
      </trkpt>
      <trkpt lat="45.15266" lon="5.63516">
        <ele>1704.5999755859</ele>
        <time>2019-12-15T08:40:42.000Z</time>
      </trkpt>
      <trkpt lat="45.15263" lon="5.63513">
        <ele>1704.5999755859</ele>
        <time>2019-12-15T08:40:45.000Z</time>
      </trkpt>
      <trkpt lat="45.15263" lon="5.63512">
        <ele>1704.5999755859</ele>
        <time>2019-12-15T08:40:46.000Z</time>
      </trkpt>
      <trkpt lat="45.1526" lon="5.6351">
        <ele>1704.8000488281</ele>
        <time>2019-12-15T08:40:50.000Z</time>
      </trkpt>
      <trkpt lat="45.15257" lon="5.63509">
        <ele>1704.8000488281</ele>
        <time>2019-12-15T08:40:52.000Z</time>
      </trkpt>
      <trkpt lat="45.15256" lon="5.63507">
        <ele>1705</ele>
        <time>2019-12-15T08:40:54.000Z</time>
      </trkpt>
      <trkpt lat="45.15253" lon="5.63505">
        <ele>1705.1999511719</ele>
        <time>2019-12-15T08:40:57.000Z</time>
      </trkpt>
      <trkpt lat="45.15252" lon="5.63504">
        <ele>1705.4000244141</ele>
        <time>2019-12-15T08:40:59.000Z</time>
      </trkpt>
      <trkpt lat="45.15249" lon="5.63502">
        <ele>1705.8000488281</ele>
        <time>2019-12-15T08:41:02.000Z</time>
      </trkpt>
      <trkpt lat="45.15246" lon="5.63501">
        <ele>1706</ele>
        <time>2019-12-15T08:41:05.000Z</time>
      </trkpt>
      <trkpt lat="45.15242" lon="5.63498">
        <ele>1706.5999755859</ele>
        <time>2019-12-15T08:41:09.000Z</time>
      </trkpt>
      <trkpt lat="45.15241" lon="5.63497">
        <ele>1706.8000488281</ele>
        <time>2019-12-15T08:41:10.000Z</time>
      </trkpt>
      <trkpt lat="45.15238" lon="5.63495">
        <ele>1707</ele>
        <time>2019-12-15T08:41:14.000Z</time>
      </trkpt>
      <trkpt lat="45.15232" lon="5.63493">
        <ele>1707.8000488281</ele>
        <time>2019-12-15T08:41:19.000Z</time>
      </trkpt>
      <trkpt lat="45.1523" lon="5.63492">
        <ele>1708</ele>
        <time>2019-12-15T08:41:23.000Z</time>
      </trkpt>
      <trkpt lat="45.15225" lon="5.6349">
        <ele>1708.4000244141</ele>
        <time>2019-12-15T08:41:27.000Z</time>
      </trkpt>
      <trkpt lat="45.15221" lon="5.6349">
        <ele>1708.8000488281</ele>
        <time>2019-12-15T08:41:30.000Z</time>
      </trkpt>
      <trkpt lat="45.1522" lon="5.63489">
        <ele>1709</ele>
        <time>2019-12-15T08:41:31.000Z</time>
      </trkpt>
      <trkpt lat="45.15216" lon="5.63488">
        <ele>1709.5999755859</ele>
        <time>2019-12-15T08:41:36.000Z</time>
      </trkpt>
      <trkpt lat="45.15211" lon="5.63487">
        <ele>1709.8000488281</ele>
        <time>2019-12-15T08:41:41.000Z</time>
      </trkpt>
      <trkpt lat="45.15206" lon="5.63485">
        <ele>1710.4000244141</ele>
        <time>2019-12-15T08:41:46.000Z</time>
      </trkpt>
      <trkpt lat="45.15203" lon="5.63484">
        <ele>1710.8000488281</ele>
        <time>2019-12-15T08:41:50.000Z</time>
      </trkpt>
      <trkpt lat="45.15201" lon="5.63484">
        <ele>1711</ele>
        <time>2019-12-15T08:41:51.000Z</time>
      </trkpt>
      <trkpt lat="45.15197" lon="5.63483">
        <ele>1711.4000244141</ele>
        <time>2019-12-15T08:41:55.000Z</time>
      </trkpt>
      <trkpt lat="45.15193" lon="5.63482">
        <ele>1712</ele>
        <time>2019-12-15T08:42:00.000Z</time>
      </trkpt>
      <trkpt lat="45.15188" lon="5.6348">
        <ele>1712.4000244141</ele>
        <time>2019-12-15T08:42:05.000Z</time>
      </trkpt>
      <trkpt lat="45.15182" lon="5.63478">
        <ele>1713.1999511719</ele>
        <time>2019-12-15T08:42:11.000Z</time>
      </trkpt>
      <trkpt lat="45.15177" lon="5.63477">
        <ele>1714.1999511719</ele>
        <time>2019-12-15T08:42:17.000Z</time>
      </trkpt>
      <trkpt lat="45.15176" lon="5.63476">
        <ele>1714.1999511719</ele>
        <time>2019-12-15T08:42:19.000Z</time>
      </trkpt>
      <trkpt lat="45.15171" lon="5.63476">
        <ele>1714.5999755859</ele>
        <time>2019-12-15T08:42:23.000Z</time>
      </trkpt>
      <trkpt lat="45.15167" lon="5.63476">
        <ele>1715.1999511719</ele>
        <time>2019-12-15T08:42:28.000Z</time>
      </trkpt>
      <trkpt lat="45.15166" lon="5.63476">
        <ele>1715.4000244141</ele>
        <time>2019-12-15T08:42:29.000Z</time>
      </trkpt>
      <trkpt lat="45.15163" lon="5.63476">
        <ele>1715.5999755859</ele>
        <time>2019-12-15T08:42:32.000Z</time>
      </trkpt>
      <trkpt lat="45.15159" lon="5.63477">
        <ele>1716.1999511719</ele>
        <time>2019-12-15T08:42:36.000Z</time>
      </trkpt>
      <trkpt lat="45.15159" lon="5.63477">
        <ele>1716.4000244141</ele>
        <time>2019-12-15T08:42:37.000Z</time>
      </trkpt>
      <trkpt lat="45.15154" lon="5.63479">
        <ele>1717.1999511719</ele>
        <time>2019-12-15T08:42:42.000Z</time>
      </trkpt>
      <trkpt lat="45.15152" lon="5.63479">
        <ele>1717.5999755859</ele>
        <time>2019-12-15T08:42:44.000Z</time>
      </trkpt>
      <trkpt lat="45.1515" lon="5.63479">
        <ele>1717.8000488281</ele>
        <time>2019-12-15T08:42:47.000Z</time>
      </trkpt>
      <trkpt lat="45.15146" lon="5.63481">
        <ele>1718.5999755859</ele>
        <time>2019-12-15T08:42:51.000Z</time>
      </trkpt>
      <trkpt lat="45.15146" lon="5.63481">
        <ele>1718.8000488281</ele>
        <time>2019-12-15T08:42:52.000Z</time>
      </trkpt>
      <trkpt lat="45.15141" lon="5.63483">
        <ele>1719.4000244141</ele>
        <time>2019-12-15T08:42:57.000Z</time>
      </trkpt>
      <trkpt lat="45.15141" lon="5.63483">
        <ele>1719.5999755859</ele>
        <time>2019-12-15T08:42:58.000Z</time>
      </trkpt>
      <trkpt lat="45.15138" lon="5.63485">
        <ele>1719.5999755859</ele>
        <time>2019-12-15T08:43:00.000Z</time>
      </trkpt>
      <trkpt lat="45.15138" lon="5.63484">
        <ele>1719.8000488281</ele>
        <time>2019-12-15T08:43:01.000Z</time>
      </trkpt>
      <trkpt lat="45.15134" lon="5.63485">
        <ele>1720.5999755859</ele>
        <time>2019-12-15T08:43:06.000Z</time>
      </trkpt>
      <trkpt lat="45.15133" lon="5.63486">
        <ele>1720.5999755859</ele>
        <time>2019-12-15T08:43:07.000Z</time>
      </trkpt>
      <trkpt lat="45.15129" lon="5.63487">
        <ele>1721.1999511719</ele>
        <time>2019-12-15T08:43:11.000Z</time>
      </trkpt>
      <trkpt lat="45.15126" lon="5.63487">
        <ele>1721.8000488281</ele>
        <time>2019-12-15T08:43:15.000Z</time>
      </trkpt>
      <trkpt lat="45.15125" lon="5.63488">
        <ele>1722</ele>
        <time>2019-12-15T08:43:16.000Z</time>
      </trkpt>
      <trkpt lat="45.15122" lon="5.63489">
        <ele>1722.8000488281</ele>
        <time>2019-12-15T08:43:20.000Z</time>
      </trkpt>
      <trkpt lat="45.15121" lon="5.63489">
        <ele>1723.1999511719</ele>
        <time>2019-12-15T08:43:22.000Z</time>
      </trkpt>
      <trkpt lat="45.15115" lon="5.6349">
        <ele>1723.5999755859</ele>
        <time>2019-12-15T08:43:27.000Z</time>
      </trkpt>
      <trkpt lat="45.15114" lon="5.6349">
        <ele>1723.8000488281</ele>
        <time>2019-12-15T08:43:28.000Z</time>
      </trkpt>
      <trkpt lat="45.15111" lon="5.63492">
        <ele>1724.4000244141</ele>
        <time>2019-12-15T08:43:31.000Z</time>
      </trkpt>
      <trkpt lat="45.15109" lon="5.63491">
        <ele>1724.5999755859</ele>
        <time>2019-12-15T08:43:32.000Z</time>
      </trkpt>
      <trkpt lat="45.15106" lon="5.63492">
        <ele>1725</ele>
        <time>2019-12-15T08:43:35.000Z</time>
      </trkpt>
      <trkpt lat="45.15105" lon="5.63492">
        <ele>1725.1999511719</ele>
        <time>2019-12-15T08:43:36.000Z</time>
      </trkpt>
      <trkpt lat="45.15103" lon="5.63493">
        <ele>1725.4000244141</ele>
        <time>2019-12-15T08:43:38.000Z</time>
      </trkpt>
      <trkpt lat="45.151" lon="5.63493">
        <ele>1725.5999755859</ele>
        <time>2019-12-15T08:43:41.000Z</time>
      </trkpt>
      <trkpt lat="45.15097" lon="5.63493">
        <ele>1726</ele>
        <time>2019-12-15T08:43:44.000Z</time>
      </trkpt>
      <trkpt lat="45.15095" lon="5.63493">
        <ele>1726.1999511719</ele>
        <time>2019-12-15T08:43:46.000Z</time>
      </trkpt>
      <trkpt lat="45.1509" lon="5.63494">
        <ele>1726.5999755859</ele>
        <time>2019-12-15T08:43:52.000Z</time>
      </trkpt>
      <trkpt lat="45.15086" lon="5.63495">
        <ele>1727.1999511719</ele>
        <time>2019-12-15T08:43:56.000Z</time>
      </trkpt>
      <trkpt lat="45.15086" lon="5.63495">
        <ele>1727.1999511719</ele>
        <time>2019-12-15T08:43:57.000Z</time>
      </trkpt>
      <trkpt lat="45.15082" lon="5.63495">
        <ele>1727.5999755859</ele>
        <time>2019-12-15T08:44:01.000Z</time>
      </trkpt>
      <trkpt lat="45.1508" lon="5.63495">
        <ele>1728.1999511719</ele>
        <time>2019-12-15T08:44:04.000Z</time>
      </trkpt>
      <trkpt lat="45.15078" lon="5.63495">
        <ele>1728.4000244141</ele>
        <time>2019-12-15T08:44:06.000Z</time>
      </trkpt>
      <trkpt lat="45.15075" lon="5.63495">
        <ele>1729</ele>
        <time>2019-12-15T08:44:10.000Z</time>
      </trkpt>
      <trkpt lat="45.15074" lon="5.63496">
        <ele>1729.1999511719</ele>
        <time>2019-12-15T08:44:11.000Z</time>
      </trkpt>
      <trkpt lat="45.15071" lon="5.63497">
        <ele>1730.1999511719</ele>
        <time>2019-12-15T08:44:15.000Z</time>
      </trkpt>
      <trkpt lat="45.1507" lon="5.63497">
        <ele>1730.5999755859</ele>
        <time>2019-12-15T08:44:17.000Z</time>
      </trkpt>
      <trkpt lat="45.15067" lon="5.63498">
        <ele>1731.4000244141</ele>
        <time>2019-12-15T08:44:21.000Z</time>
      </trkpt>
      <trkpt lat="45.15066" lon="5.63498">
        <ele>1731.5999755859</ele>
        <time>2019-12-15T08:44:22.000Z</time>
      </trkpt>
      <trkpt lat="45.15062" lon="5.635">
        <ele>1732.4000244141</ele>
        <time>2019-12-15T08:44:27.000Z</time>
      </trkpt>
      <trkpt lat="45.15057" lon="5.63503">
        <ele>1733.1999511719</ele>
        <time>2019-12-15T08:44:32.000Z</time>
      </trkpt>
      <trkpt lat="45.15057" lon="5.63503">
        <ele>1733.5999755859</ele>
        <time>2019-12-15T08:44:34.000Z</time>
      </trkpt>
      <trkpt lat="45.15053" lon="5.63503">
        <ele>1734.4000244141</ele>
        <time>2019-12-15T08:44:38.000Z</time>
      </trkpt>
      <trkpt lat="45.15052" lon="5.63504">
        <ele>1734.5999755859</ele>
        <time>2019-12-15T08:44:39.000Z</time>
      </trkpt>
      <trkpt lat="45.15049" lon="5.63505">
        <ele>1735.1999511719</ele>
        <time>2019-12-15T08:44:43.000Z</time>
      </trkpt>
      <trkpt lat="45.15047" lon="5.63507">
        <ele>1735.5999755859</ele>
        <time>2019-12-15T08:44:45.000Z</time>
      </trkpt>
      <trkpt lat="45.15045" lon="5.63507">
        <ele>1736</ele>
        <time>2019-12-15T08:44:49.000Z</time>
      </trkpt>
      <trkpt lat="45.15044" lon="5.63507">
        <ele>1736.5999755859</ele>
        <time>2019-12-15T08:44:53.000Z</time>
      </trkpt>
      <trkpt lat="45.15044" lon="5.63508">
        <ele>1737</ele>
        <time>2019-12-15T08:44:54.000Z</time>
      </trkpt>
      <trkpt lat="45.15042" lon="5.63509">
        <ele>1737.8000488281</ele>
        <time>2019-12-15T08:44:58.000Z</time>
      </trkpt>
      <trkpt lat="45.15039" lon="5.63511">
        <ele>1739</ele>
        <time>2019-12-15T08:45:03.000Z</time>
      </trkpt>
      <trkpt lat="45.15037" lon="5.63512">
        <ele>1739.5999755859</ele>
        <time>2019-12-15T08:45:08.000Z</time>
      </trkpt>
      <trkpt lat="45.15035" lon="5.63513">
        <ele>1740.1999511719</ele>
        <time>2019-12-15T08:45:11.000Z</time>
      </trkpt>
      <trkpt lat="45.15033" lon="5.63514">
        <ele>1740.8000488281</ele>
        <time>2019-12-15T08:45:13.000Z</time>
      </trkpt>
      <trkpt lat="45.15031" lon="5.63515">
        <ele>1741.4000244141</ele>
        <time>2019-12-15T08:45:16.000Z</time>
      </trkpt>
      <trkpt lat="45.1503" lon="5.63516">
        <ele>1742</ele>
        <time>2019-12-15T08:45:19.000Z</time>
      </trkpt>
      <trkpt lat="45.15029" lon="5.63517">
        <ele>1742.4000244141</ele>
        <time>2019-12-15T08:45:21.000Z</time>
      </trkpt>
      <trkpt lat="45.15027" lon="5.63517">
        <ele>1743</ele>
        <time>2019-12-15T08:45:25.000Z</time>
      </trkpt>
      <trkpt lat="45.15026" lon="5.63518">
        <ele>1743.8000488281</ele>
        <time>2019-12-15T08:45:27.000Z</time>
      </trkpt>
      <trkpt lat="45.15025" lon="5.63519">
        <ele>1744.4000244141</ele>
        <time>2019-12-15T08:45:30.000Z</time>
      </trkpt>
      <trkpt lat="45.15024" lon="5.63518">
        <ele>1744.8000488281</ele>
        <time>2019-12-15T08:45:33.000Z</time>
      </trkpt>
      <trkpt lat="45.15022" lon="5.63518">
        <ele>1745.1999511719</ele>
        <time>2019-12-15T08:45:35.000Z</time>
      </trkpt>
      <trkpt lat="45.15019" lon="5.63519">
        <ele>1746</ele>
        <time>2019-12-15T08:45:39.000Z</time>
      </trkpt>
      <trkpt lat="45.15017" lon="5.63519">
        <ele>1746.4000244141</ele>
        <time>2019-12-15T08:45:43.000Z</time>
      </trkpt>
      <trkpt lat="45.15015" lon="5.6352">
        <ele>1747</ele>
        <time>2019-12-15T08:45:46.000Z</time>
      </trkpt>
      <trkpt lat="45.15014" lon="5.63521">
        <ele>1747.4000244141</ele>
        <time>2019-12-15T08:45:48.000Z</time>
      </trkpt>
      <trkpt lat="45.15012" lon="5.63521">
        <ele>1748.4000244141</ele>
        <time>2019-12-15T08:45:51.000Z</time>
      </trkpt>
      <trkpt lat="45.15011" lon="5.63521">
        <ele>1749</ele>
        <time>2019-12-15T08:45:54.000Z</time>
      </trkpt>
      <trkpt lat="45.1501" lon="5.63521">
        <ele>1749.4000244141</ele>
        <time>2019-12-15T08:45:56.000Z</time>
      </trkpt>
      <trkpt lat="45.15008" lon="5.63522">
        <ele>1749.8000488281</ele>
        <time>2019-12-15T08:45:59.000Z</time>
      </trkpt>
      <trkpt lat="45.15004" lon="5.63523">
        <ele>1750.4000244141</ele>
        <time>2019-12-15T08:46:02.000Z</time>
      </trkpt>
      <trkpt lat="45.15003" lon="5.63523">
        <ele>1750.8000488281</ele>
        <time>2019-12-15T08:46:04.000Z</time>
      </trkpt>
      <trkpt lat="45.15" lon="5.63524">
        <ele>1751.4000244141</ele>
        <time>2019-12-15T08:46:08.000Z</time>
      </trkpt>
      <trkpt lat="45.14999" lon="5.63524">
        <ele>1751.8000488281</ele>
        <time>2019-12-15T08:46:10.000Z</time>
      </trkpt>
      <trkpt lat="45.14996" lon="5.63526">
        <ele>1752.5999755859</ele>
        <time>2019-12-15T08:46:14.000Z</time>
      </trkpt>
      <trkpt lat="45.14995" lon="5.63526">
        <ele>1752.8000488281</ele>
        <time>2019-12-15T08:46:16.000Z</time>
      </trkpt>
      <trkpt lat="45.14989" lon="5.63528">
        <ele>1753.5999755859</ele>
        <time>2019-12-15T08:46:22.000Z</time>
      </trkpt>
      <trkpt lat="45.14988" lon="5.63529">
        <ele>1753.8000488281</ele>
        <time>2019-12-15T08:46:23.000Z</time>
      </trkpt>
      <trkpt lat="45.14985" lon="5.6353">
        <ele>1754</ele>
        <time>2019-12-15T08:46:26.000Z</time>
      </trkpt>
      <trkpt lat="45.14984" lon="5.63531">
        <ele>1754</ele>
        <time>2019-12-15T08:46:27.000Z</time>
      </trkpt>
      <trkpt lat="45.14983" lon="5.63531">
        <ele>1754</ele>
        <time>2019-12-15T08:46:28.000Z</time>
      </trkpt>
      <trkpt lat="45.1498" lon="5.63534">
        <ele>1754.4000244141</ele>
        <time>2019-12-15T08:46:32.000Z</time>
      </trkpt>
      <trkpt lat="45.14978" lon="5.63535">
        <ele>1754.8000488281</ele>
        <time>2019-12-15T08:46:35.000Z</time>
      </trkpt>
      <trkpt lat="45.14976" lon="5.63536">
        <ele>1755.1999511719</ele>
        <time>2019-12-15T08:46:38.000Z</time>
      </trkpt>
      <trkpt lat="45.14973" lon="5.63538">
        <ele>1755.8000488281</ele>
        <time>2019-12-15T08:46:41.000Z</time>
      </trkpt>
      <trkpt lat="45.14972" lon="5.63539">
        <ele>1756</ele>
        <time>2019-12-15T08:46:43.000Z</time>
      </trkpt>
      <trkpt lat="45.1497" lon="5.63542">
        <ele>1756.8000488281</ele>
        <time>2019-12-15T08:46:48.000Z</time>
      </trkpt>
      <trkpt lat="45.14967" lon="5.63548">
        <ele>1757.8000488281</ele>
        <time>2019-12-15T08:46:54.000Z</time>
      </trkpt>
      <trkpt lat="45.14964" lon="5.63551">
        <ele>1758.8000488281</ele>
        <time>2019-12-15T08:47:00.000Z</time>
      </trkpt>
      <trkpt lat="45.14964" lon="5.63552">
        <ele>1759</ele>
        <time>2019-12-15T08:47:01.000Z</time>
      </trkpt>
      <trkpt lat="45.14961" lon="5.63557">
        <ele>1760</ele>
        <time>2019-12-15T08:47:06.000Z</time>
      </trkpt>
      <trkpt lat="45.14958" lon="5.63561">
        <ele>1761.1999511719</ele>
        <time>2019-12-15T08:47:12.000Z</time>
      </trkpt>
      <trkpt lat="45.14956" lon="5.63564">
        <ele>1762.4000244141</ele>
        <time>2019-12-15T08:47:18.000Z</time>
      </trkpt>
      <trkpt lat="45.14956" lon="5.63564">
        <ele>1762.5999755859</ele>
        <time>2019-12-15T08:47:19.000Z</time>
      </trkpt>
      <trkpt lat="45.14952" lon="5.63569">
        <ele>1763.5999755859</ele>
        <time>2019-12-15T08:47:24.000Z</time>
      </trkpt>
      <trkpt lat="45.14951" lon="5.63571">
        <ele>1764.5999755859</ele>
        <time>2019-12-15T08:47:29.000Z</time>
      </trkpt>
      <trkpt lat="45.14951" lon="5.63571">
        <ele>1764.8000488281</ele>
        <time>2019-12-15T08:47:30.000Z</time>
      </trkpt>
      <trkpt lat="45.14949" lon="5.63573">
        <ele>1765.8000488281</ele>
        <time>2019-12-15T08:47:35.000Z</time>
      </trkpt>
      <trkpt lat="45.14949" lon="5.63573">
        <ele>1765.8000488281</ele>
        <time>2019-12-15T08:47:36.000Z</time>
      </trkpt>
      <trkpt lat="45.14949" lon="5.63573">
        <ele>1766.8000488281</ele>
        <time>2019-12-15T08:47:42.000Z</time>
      </trkpt>
      <trkpt lat="45.14949" lon="5.63573">
        <ele>1766.5999755859</ele>
        <time>2019-12-15T08:47:49.000Z</time>
      </trkpt>
      <trkpt lat="45.14948" lon="5.63575">
        <ele>1766.5999755859</ele>
        <time>2019-12-15T08:47:58.000Z</time>
      </trkpt>
      <trkpt lat="45.14947" lon="5.63576">
        <ele>1767.8000488281</ele>
        <time>2019-12-15T08:48:03.000Z</time>
      </trkpt>
      <trkpt lat="45.14947" lon="5.63576">
        <ele>1768</ele>
        <time>2019-12-15T08:48:04.000Z</time>
      </trkpt>
      <trkpt lat="45.14945" lon="5.63579">
        <ele>1769</ele>
        <time>2019-12-15T08:48:09.000Z</time>
      </trkpt>
      <trkpt lat="45.14944" lon="5.6358">
        <ele>1769.4000244141</ele>
        <time>2019-12-15T08:48:12.000Z</time>
      </trkpt>
      <trkpt lat="45.14943" lon="5.63581">
        <ele>1770</ele>
        <time>2019-12-15T08:48:15.000Z</time>
      </trkpt>
      <trkpt lat="45.14941" lon="5.63584">
        <ele>1770.5999755859</ele>
        <time>2019-12-15T08:48:19.000Z</time>
      </trkpt>
      <trkpt lat="45.1494" lon="5.63585">
        <ele>1771</ele>
        <time>2019-12-15T08:48:21.000Z</time>
      </trkpt>
      <trkpt lat="45.14939" lon="5.63587">
        <ele>1772</ele>
        <time>2019-12-15T08:48:25.000Z</time>
      </trkpt>
      <trkpt lat="45.14938" lon="5.63587">
        <ele>1772.1999511719</ele>
        <time>2019-12-15T08:48:26.000Z</time>
      </trkpt>
      <trkpt lat="45.14936" lon="5.6359">
        <ele>1772.8000488281</ele>
        <time>2019-12-15T08:48:30.000Z</time>
      </trkpt>
      <trkpt lat="45.14935" lon="5.63592">
        <ele>1773.1999511719</ele>
        <time>2019-12-15T08:48:32.000Z</time>
      </trkpt>
      <trkpt lat="45.14933" lon="5.63594">
        <ele>1773.8000488281</ele>
        <time>2019-12-15T08:48:35.000Z</time>
      </trkpt>
      <trkpt lat="45.14933" lon="5.63594">
        <ele>1774.4000244141</ele>
        <time>2019-12-15T08:48:38.000Z</time>
      </trkpt>
      <trkpt lat="45.14932" lon="5.63595">
        <ele>1775</ele>
        <time>2019-12-15T08:48:40.000Z</time>
      </trkpt>
      <trkpt lat="45.14931" lon="5.63597">
        <ele>1775.4000244141</ele>
        <time>2019-12-15T08:48:42.000Z</time>
      </trkpt>
      <trkpt lat="45.14928" lon="5.63598">
        <ele>1776.1999511719</ele>
        <time>2019-12-15T08:48:46.000Z</time>
      </trkpt>
      <trkpt lat="45.14928" lon="5.63599">
        <ele>1776.5999755859</ele>
        <time>2019-12-15T08:48:48.000Z</time>
      </trkpt>
      <trkpt lat="45.14925" lon="5.63602">
        <ele>1777.1999511719</ele>
        <time>2019-12-15T08:48:52.000Z</time>
      </trkpt>
      <trkpt lat="45.14924" lon="5.63604">
        <ele>1777.5999755859</ele>
        <time>2019-12-15T08:48:55.000Z</time>
      </trkpt>
      <trkpt lat="45.14923" lon="5.63604">
        <ele>1778</ele>
        <time>2019-12-15T08:48:57.000Z</time>
      </trkpt>
      <trkpt lat="45.14922" lon="5.63606">
        <ele>1778.8000488281</ele>
        <time>2019-12-15T08:49:01.000Z</time>
      </trkpt>
      <trkpt lat="45.14919" lon="5.6361">
        <ele>1779.5999755859</ele>
        <time>2019-12-15T08:49:06.000Z</time>
      </trkpt>
      <trkpt lat="45.14918" lon="5.6361">
        <ele>1779.8000488281</ele>
        <time>2019-12-15T08:49:07.000Z</time>
      </trkpt>
      <trkpt lat="45.14917" lon="5.63611">
        <ele>1780.1999511719</ele>
        <time>2019-12-15T08:49:08.000Z</time>
      </trkpt>
      <trkpt lat="45.14917" lon="5.63612">
        <ele>1780.8000488281</ele>
        <time>2019-12-15T08:49:11.000Z</time>
      </trkpt>
      <trkpt lat="45.14916" lon="5.63613">
        <ele>1781</ele>
        <time>2019-12-15T08:49:12.000Z</time>
      </trkpt>
      <trkpt lat="45.14913" lon="5.63617">
        <ele>1782</ele>
        <time>2019-12-15T08:49:17.000Z</time>
      </trkpt>
      <trkpt lat="45.14912" lon="5.63617">
        <ele>1782.1999511719</ele>
        <time>2019-12-15T08:49:18.000Z</time>
      </trkpt>
      <trkpt lat="45.1491" lon="5.6362">
        <ele>1783</ele>
        <time>2019-12-15T08:49:23.000Z</time>
      </trkpt>
      <trkpt lat="45.14908" lon="5.6362">
        <ele>1783.1999511719</ele>
        <time>2019-12-15T08:49:24.000Z</time>
      </trkpt>
      <trkpt lat="45.14904" lon="5.63623">
        <ele>1784.1999511719</ele>
        <time>2019-12-15T08:49:29.000Z</time>
      </trkpt>
      <trkpt lat="45.14904" lon="5.63623">
        <ele>1784.4000244141</ele>
        <time>2019-12-15T08:49:30.000Z</time>
      </trkpt>
      <trkpt lat="45.14903" lon="5.63625">
        <ele>1784.5999755859</ele>
        <time>2019-12-15T08:49:32.000Z</time>
      </trkpt>
      <trkpt lat="45.149" lon="5.63627">
        <ele>1785.1999511719</ele>
        <time>2019-12-15T08:49:36.000Z</time>
      </trkpt>
      <trkpt lat="45.149" lon="5.63628">
        <ele>1785.4000244141</ele>
        <time>2019-12-15T08:49:37.000Z</time>
      </trkpt>
      <trkpt lat="45.14897" lon="5.6363">
        <ele>1786.4000244141</ele>
        <time>2019-12-15T08:49:42.000Z</time>
      </trkpt>
      <trkpt lat="45.14894" lon="5.63632">
        <ele>1787</ele>
        <time>2019-12-15T08:49:47.000Z</time>
      </trkpt>
      <trkpt lat="45.14891" lon="5.63632">
        <ele>1787.4000244141</ele>
        <time>2019-12-15T08:49:50.000Z</time>
      </trkpt>
      <trkpt lat="45.14888" lon="5.63634">
        <ele>1788</ele>
        <time>2019-12-15T08:49:53.000Z</time>
      </trkpt>
      <trkpt lat="45.14885" lon="5.63636">
        <ele>1788.4000244141</ele>
        <time>2019-12-15T08:49:57.000Z</time>
      </trkpt>
      <trkpt lat="45.14884" lon="5.63636">
        <ele>1788.5999755859</ele>
        <time>2019-12-15T08:49:58.000Z</time>
      </trkpt>
      <trkpt lat="45.14879" lon="5.63639">
        <ele>1789.4000244141</ele>
        <time>2019-12-15T08:50:05.000Z</time>
      </trkpt>
      <trkpt lat="45.14877" lon="5.6364">
        <ele>1789.5999755859</ele>
        <time>2019-12-15T08:50:07.000Z</time>
      </trkpt>
      <trkpt lat="45.14875" lon="5.63641">
        <ele>1790.1999511719</ele>
        <time>2019-12-15T08:50:11.000Z</time>
      </trkpt>
      <trkpt lat="45.14871" lon="5.63644">
        <ele>1790.8000488281</ele>
        <time>2019-12-15T08:50:15.000Z</time>
      </trkpt>
      <trkpt lat="45.1487" lon="5.63644">
        <ele>1790.8000488281</ele>
        <time>2019-12-15T08:50:17.000Z</time>
      </trkpt>
      <trkpt lat="45.14864" lon="5.63648">
        <ele>1791.1999511719</ele>
        <time>2019-12-15T08:50:23.000Z</time>
      </trkpt>
      <trkpt lat="45.14859" lon="5.63652">
        <ele>1791.8000488281</ele>
        <time>2019-12-15T08:50:29.000Z</time>
      </trkpt>
      <trkpt lat="45.14859" lon="5.63652">
        <ele>1792</ele>
        <time>2019-12-15T08:50:30.000Z</time>
      </trkpt>
      <trkpt lat="45.14855" lon="5.63655">
        <ele>1792.5999755859</ele>
        <time>2019-12-15T08:50:35.000Z</time>
      </trkpt>
      <trkpt lat="45.14853" lon="5.63656">
        <ele>1793</ele>
        <time>2019-12-15T08:50:38.000Z</time>
      </trkpt>
      <trkpt lat="45.1485" lon="5.63658">
        <ele>1793.4000244141</ele>
        <time>2019-12-15T08:50:41.000Z</time>
      </trkpt>
      <trkpt lat="45.14847" lon="5.6366">
        <ele>1794</ele>
        <time>2019-12-15T08:50:45.000Z</time>
      </trkpt>
      <trkpt lat="45.14845" lon="5.63661">
        <ele>1794.4000244141</ele>
        <time>2019-12-15T08:50:47.000Z</time>
      </trkpt>
      <trkpt lat="45.14843" lon="5.63663">
        <ele>1795</ele>
        <time>2019-12-15T08:50:51.000Z</time>
      </trkpt>
      <trkpt lat="45.14841" lon="5.63664">
        <ele>1795.1999511719</ele>
        <time>2019-12-15T08:50:53.000Z</time>
      </trkpt>
      <trkpt lat="45.14836" lon="5.63668">
        <ele>1796</ele>
        <time>2019-12-15T08:50:59.000Z</time>
      </trkpt>
      <trkpt lat="45.14835" lon="5.63669">
        <ele>1796</ele>
        <time>2019-12-15T08:51:00.000Z</time>
      </trkpt>
      <trkpt lat="45.14832" lon="5.63671">
        <ele>1797.1999511719</ele>
        <time>2019-12-15T08:51:05.000Z</time>
      </trkpt>
      <trkpt lat="45.14831" lon="5.63672">
        <ele>1797.4000244141</ele>
        <time>2019-12-15T08:51:06.000Z</time>
      </trkpt>
      <trkpt lat="45.14828" lon="5.63675">
        <ele>1798.1999511719</ele>
        <time>2019-12-15T08:51:11.000Z</time>
      </trkpt>
      <trkpt lat="45.14827" lon="5.63676">
        <ele>1798.4000244141</ele>
        <time>2019-12-15T08:51:13.000Z</time>
      </trkpt>
      <trkpt lat="45.14826" lon="5.63677">
        <ele>1799.1999511719</ele>
        <time>2019-12-15T08:51:16.000Z</time>
      </trkpt>
      <trkpt lat="45.14823" lon="5.63679">
        <ele>1799.8000488281</ele>
        <time>2019-12-15T08:51:20.000Z</time>
      </trkpt>
      <trkpt lat="45.14822" lon="5.63682">
        <ele>1800.1999511719</ele>
        <time>2019-12-15T08:51:23.000Z</time>
      </trkpt>
      <trkpt lat="45.14819" lon="5.63684">
        <ele>1801</ele>
        <time>2019-12-15T08:51:26.000Z</time>
      </trkpt>
      <trkpt lat="45.14819" lon="5.63685">
        <ele>1801.4000244141</ele>
        <time>2019-12-15T08:51:27.000Z</time>
      </trkpt>
      <trkpt lat="45.14815" lon="5.63688">
        <ele>1802</ele>
        <time>2019-12-15T08:51:32.000Z</time>
      </trkpt>
      <trkpt lat="45.14814" lon="5.63691">
        <ele>1802.4000244141</ele>
        <time>2019-12-15T08:51:35.000Z</time>
      </trkpt>
      <trkpt lat="45.14813" lon="5.63692">
        <ele>1802.5999755859</ele>
        <time>2019-12-15T08:51:37.000Z</time>
      </trkpt>
      <trkpt lat="45.14812" lon="5.63695">
        <ele>1803.5999755859</ele>
        <time>2019-12-15T08:51:41.000Z</time>
      </trkpt>
      <trkpt lat="45.14811" lon="5.63698">
        <ele>1804</ele>
        <time>2019-12-15T08:51:43.000Z</time>
      </trkpt>
      <trkpt lat="45.14811" lon="5.63701">
        <ele>1804.4000244141</ele>
        <time>2019-12-15T08:51:45.000Z</time>
      </trkpt>
      <trkpt lat="45.1481" lon="5.63703">
        <ele>1804.8000488281</ele>
        <time>2019-12-15T08:51:47.000Z</time>
      </trkpt>
      <trkpt lat="45.1481" lon="5.63703">
        <ele>1805</ele>
        <time>2019-12-15T08:51:48.000Z</time>
      </trkpt>
      <trkpt lat="45.14809" lon="5.63707">
        <ele>1805.8000488281</ele>
        <time>2019-12-15T08:51:54.000Z</time>
      </trkpt>
      <trkpt lat="45.14808" lon="5.63713">
        <ele>1806.4000244141</ele>
        <time>2019-12-15T08:51:59.000Z</time>
      </trkpt>
      <trkpt lat="45.14806" lon="5.63716">
        <ele>1807</ele>
        <time>2019-12-15T08:52:03.000Z</time>
      </trkpt>
      <trkpt lat="45.14805" lon="5.63718">
        <ele>1807.4000244141</ele>
        <time>2019-12-15T08:52:05.000Z</time>
      </trkpt>
      <trkpt lat="45.14804" lon="5.63722">
        <ele>1808.1999511719</ele>
        <time>2019-12-15T08:52:09.000Z</time>
      </trkpt>
      <trkpt lat="45.14804" lon="5.63724">
        <ele>1808.5999755859</ele>
        <time>2019-12-15T08:52:11.000Z</time>
      </trkpt>
      <trkpt lat="45.14803" lon="5.63728">
        <ele>1809.1999511719</ele>
        <time>2019-12-15T08:52:15.000Z</time>
      </trkpt>
      <trkpt lat="45.14803" lon="5.63728">
        <ele>1809.4000244141</ele>
        <time>2019-12-15T08:52:16.000Z</time>
      </trkpt>
      <trkpt lat="45.14804" lon="5.63729">
        <ele>1810</ele>
        <time>2019-12-15T08:52:22.000Z</time>
      </trkpt>
      <trkpt lat="45.14808" lon="5.63733">
        <ele>1810.4000244141</ele>
        <time>2019-12-15T08:52:28.000Z</time>
      </trkpt>
      <trkpt lat="45.14815" lon="5.63735">
        <ele>1811</ele>
        <time>2019-12-15T08:52:34.000Z</time>
      </trkpt>
      <trkpt lat="45.14819" lon="5.63737">
        <ele>1811.4000244141</ele>
        <time>2019-12-15T08:52:37.000Z</time>
      </trkpt>
      <trkpt lat="45.14821" lon="5.63738">
        <ele>1812.1999511719</ele>
        <time>2019-12-15T08:52:40.000Z</time>
      </trkpt>
      <trkpt lat="45.14823" lon="5.63739">
        <ele>1812.4000244141</ele>
        <time>2019-12-15T08:52:42.000Z</time>
      </trkpt>
      <trkpt lat="45.14831" lon="5.63741">
        <ele>1813</ele>
        <time>2019-12-15T08:52:48.000Z</time>
      </trkpt>
      <trkpt lat="45.14834" lon="5.63742">
        <ele>1813.4000244141</ele>
        <time>2019-12-15T08:52:52.000Z</time>
      </trkpt>
      <trkpt lat="45.14837" lon="5.63742">
        <ele>1813.8000488281</ele>
        <time>2019-12-15T08:52:54.000Z</time>
      </trkpt>
      <trkpt lat="45.14842" lon="5.63746">
        <ele>1814.4000244141</ele>
        <time>2019-12-15T08:53:01.000Z</time>
      </trkpt>
      <trkpt lat="45.14845" lon="5.63749">
        <ele>1815.4000244141</ele>
        <time>2019-12-15T08:53:07.000Z</time>
      </trkpt>
      <trkpt lat="45.14846" lon="5.63751">
        <ele>1815.5999755859</ele>
        <time>2019-12-15T08:53:08.000Z</time>
      </trkpt>
      <trkpt lat="45.14847" lon="5.63752">
        <ele>1816.8000488281</ele>
        <time>2019-12-15T08:53:13.000Z</time>
      </trkpt>
      <trkpt lat="45.14851" lon="5.63757">
        <ele>1817.8000488281</ele>
        <time>2019-12-15T08:53:19.000Z</time>
      </trkpt>
      <trkpt lat="45.14852" lon="5.6376">
        <ele>1819</ele>
        <time>2019-12-15T08:53:24.000Z</time>
      </trkpt>
      <trkpt lat="45.14856" lon="5.63762">
        <ele>1820.1999511719</ele>
        <time>2019-12-15T08:53:29.000Z</time>
      </trkpt>
      <trkpt lat="45.14859" lon="5.63766">
        <ele>1820.5999755859</ele>
        <time>2019-12-15T08:53:34.000Z</time>
      </trkpt>
      <trkpt lat="45.1486" lon="5.63769">
        <ele>1821.1999511719</ele>
        <time>2019-12-15T08:53:38.000Z</time>
      </trkpt>
      <trkpt lat="45.14861" lon="5.6377">
        <ele>1821.4000244141</ele>
        <time>2019-12-15T08:53:39.000Z</time>
      </trkpt>
      <trkpt lat="45.14864" lon="5.63774">
        <ele>1822.1999511719</ele>
        <time>2019-12-15T08:53:44.000Z</time>
      </trkpt>
      <trkpt lat="45.14864" lon="5.63775">
        <ele>1822.1999511719</ele>
        <time>2019-12-15T08:53:45.000Z</time>
      </trkpt>
      <trkpt lat="45.14865" lon="5.63779">
        <ele>1822.8000488281</ele>
        <time>2019-12-15T08:53:50.000Z</time>
      </trkpt>
      <trkpt lat="45.14866" lon="5.63781">
        <ele>1823.4000244141</ele>
        <time>2019-12-15T08:53:52.000Z</time>
      </trkpt>
      <trkpt lat="45.14867" lon="5.63783">
        <ele>1823.8000488281</ele>
        <time>2019-12-15T08:53:56.000Z</time>
      </trkpt>
      <trkpt lat="45.14867" lon="5.63783">
        <ele>1824</ele>
        <time>2019-12-15T08:54:05.000Z</time>
      </trkpt>
      <trkpt lat="45.14865" lon="5.63787">
        <ele>1824.1999511719</ele>
        <time>2019-12-15T08:54:10.000Z</time>
      </trkpt>
      <trkpt lat="45.14864" lon="5.63789">
        <ele>1824.4000244141</ele>
        <time>2019-12-15T08:54:12.000Z</time>
      </trkpt>
      <trkpt lat="45.14863" lon="5.63792">
        <ele>1825.1999511719</ele>
        <time>2019-12-15T08:54:16.000Z</time>
      </trkpt>
      <trkpt lat="45.14862" lon="5.63794">
        <ele>1825.5999755859</ele>
        <time>2019-12-15T08:54:18.000Z</time>
      </trkpt>
      <trkpt lat="45.14861" lon="5.63797">
        <ele>1826.4000244141</ele>
        <time>2019-12-15T08:54:23.000Z</time>
      </trkpt>
      <trkpt lat="45.14859" lon="5.63799">
        <ele>1826.8000488281</ele>
        <time>2019-12-15T08:54:27.000Z</time>
      </trkpt>
      <trkpt lat="45.14858" lon="5.638">
        <ele>1826.8000488281</ele>
        <time>2019-12-15T08:54:28.000Z</time>
      </trkpt>
      <trkpt lat="45.14855" lon="5.63803">
        <ele>1827.4000244141</ele>
        <time>2019-12-15T08:54:34.000Z</time>
      </trkpt>
      <trkpt lat="45.14852" lon="5.63808">
        <ele>1827.8000488281</ele>
        <time>2019-12-15T08:54:39.000Z</time>
      </trkpt>
      <trkpt lat="45.14852" lon="5.63809">
        <ele>1828.1999511719</ele>
        <time>2019-12-15T08:54:42.000Z</time>
      </trkpt>
      <trkpt lat="45.14851" lon="5.63811">
        <ele>1828.8000488281</ele>
        <time>2019-12-15T08:54:47.000Z</time>
      </trkpt>
      <trkpt lat="45.14851" lon="5.63812">
        <ele>1829</ele>
        <time>2019-12-15T08:54:48.000Z</time>
      </trkpt>
      <trkpt lat="45.14852" lon="5.63812">
        <ele>1829.8000488281</ele>
        <time>2019-12-15T08:54:53.000Z</time>
      </trkpt>
      <trkpt lat="45.14852" lon="5.63812">
        <ele>1830</ele>
        <time>2019-12-15T08:54:54.000Z</time>
      </trkpt>
      <trkpt lat="45.14857" lon="5.63811">
        <ele>1830.8000488281</ele>
        <time>2019-12-15T08:54:58.000Z</time>
      </trkpt>
      <trkpt lat="45.14861" lon="5.6381">
        <ele>1831</ele>
        <time>2019-12-15T08:55:02.000Z</time>
      </trkpt>
      <trkpt lat="45.14862" lon="5.6381">
        <ele>1831</ele>
        <time>2019-12-15T08:55:03.000Z</time>
      </trkpt>
      <trkpt lat="45.14864" lon="5.6381">
        <ele>1831.8000488281</ele>
        <time>2019-12-15T08:55:10.000Z</time>
      </trkpt>
      <trkpt lat="45.14867" lon="5.63809">
        <ele>1832</ele>
        <time>2019-12-15T08:55:15.000Z</time>
      </trkpt>
      <trkpt lat="45.14867" lon="5.63809">
        <ele>1832</ele>
        <time>2019-12-15T08:55:16.000Z</time>
      </trkpt>
      <trkpt lat="45.1487" lon="5.6381">
        <ele>1833.1999511719</ele>
        <time>2019-12-15T08:55:20.000Z</time>
      </trkpt>
      <trkpt lat="45.14871" lon="5.63811">
        <ele>1833.5999755859</ele>
        <time>2019-12-15T08:55:23.000Z</time>
      </trkpt>
      <trkpt lat="45.14872" lon="5.63813">
        <ele>1834.4000244141</ele>
        <time>2019-12-15T08:55:27.000Z</time>
      </trkpt>
      <trkpt lat="45.14872" lon="5.63813">
        <ele>1834.4000244141</ele>
        <time>2019-12-15T08:55:28.000Z</time>
      </trkpt>
      <trkpt lat="45.14873" lon="5.63817">
        <ele>1835.4000244141</ele>
        <time>2019-12-15T08:55:33.000Z</time>
      </trkpt>
      <trkpt lat="45.14874" lon="5.63819">
        <ele>1835.8000488281</ele>
        <time>2019-12-15T08:55:35.000Z</time>
      </trkpt>
      <trkpt lat="45.14874" lon="5.6382">
        <ele>1836.4000244141</ele>
        <time>2019-12-15T08:55:38.000Z</time>
      </trkpt>
      <trkpt lat="45.14873" lon="5.63821">
        <ele>1837</ele>
        <time>2019-12-15T08:55:40.000Z</time>
      </trkpt>
      <trkpt lat="45.14873" lon="5.63822">
        <ele>1837.5999755859</ele>
        <time>2019-12-15T08:55:42.000Z</time>
      </trkpt>
      <trkpt lat="45.14871" lon="5.63825">
        <ele>1838.4000244141</ele>
        <time>2019-12-15T08:55:46.000Z</time>
      </trkpt>
      <trkpt lat="45.14871" lon="5.63826">
        <ele>1838.5999755859</ele>
        <time>2019-12-15T08:55:47.000Z</time>
      </trkpt>
      <trkpt lat="45.14869" lon="5.63831">
        <ele>1839.5999755859</ele>
        <time>2019-12-15T08:55:52.000Z</time>
      </trkpt>
      <trkpt lat="45.14868" lon="5.63834">
        <ele>1840.5999755859</ele>
        <time>2019-12-15T08:55:58.000Z</time>
      </trkpt>
      <trkpt lat="45.14868" lon="5.63835">
        <ele>1840.8000488281</ele>
        <time>2019-12-15T08:56:00.000Z</time>
      </trkpt>
      <trkpt lat="45.14868" lon="5.63838">
        <ele>1841.4000244141</ele>
        <time>2019-12-15T08:56:03.000Z</time>
      </trkpt>
      <trkpt lat="45.14867" lon="5.63839">
        <ele>1842</ele>
        <time>2019-12-15T08:56:05.000Z</time>
      </trkpt>
      <trkpt lat="45.14867" lon="5.63841">
        <ele>1842.5999755859</ele>
        <time>2019-12-15T08:56:09.000Z</time>
      </trkpt>
      <trkpt lat="45.14865" lon="5.63843">
        <ele>1843</ele>
        <time>2019-12-15T08:56:12.000Z</time>
      </trkpt>
      <trkpt lat="45.14865" lon="5.63845">
        <ele>1843.8000488281</ele>
        <time>2019-12-15T08:56:15.000Z</time>
      </trkpt>
      <trkpt lat="45.14865" lon="5.63845">
        <ele>1844</ele>
        <time>2019-12-15T08:56:16.000Z</time>
      </trkpt>
      <trkpt lat="45.14862" lon="5.63852">
        <ele>1844.8000488281</ele>
        <time>2019-12-15T08:56:21.000Z</time>
      </trkpt>
      <trkpt lat="45.14861" lon="5.63853">
        <ele>1845.1999511719</ele>
        <time>2019-12-15T08:56:23.000Z</time>
      </trkpt>
      <trkpt lat="45.14861" lon="5.63855">
        <ele>1845.5999755859</ele>
        <time>2019-12-15T08:56:26.000Z</time>
      </trkpt>
      <trkpt lat="45.1486" lon="5.63859">
        <ele>1846.1999511719</ele>
        <time>2019-12-15T08:56:32.000Z</time>
      </trkpt>
      <trkpt lat="45.1486" lon="5.63861">
        <ele>1846.1999511719</ele>
        <time>2019-12-15T08:56:33.000Z</time>
      </trkpt>
      <trkpt lat="45.14858" lon="5.63868">
        <ele>1846.8000488281</ele>
        <time>2019-12-15T08:56:38.000Z</time>
      </trkpt>
      <trkpt lat="45.14857" lon="5.63871">
        <ele>1847.4000244141</ele>
        <time>2019-12-15T08:56:40.000Z</time>
      </trkpt>
      <trkpt lat="45.14856" lon="5.63874">
        <ele>1848.1999511719</ele>
        <time>2019-12-15T08:56:44.000Z</time>
      </trkpt>
      <trkpt lat="45.14855" lon="5.63876">
        <ele>1848.4000244141</ele>
        <time>2019-12-15T08:56:46.000Z</time>
      </trkpt>
      <trkpt lat="45.14855" lon="5.63878">
        <ele>1849</ele>
        <time>2019-12-15T08:56:50.000Z</time>
      </trkpt>
      <trkpt lat="45.14853" lon="5.6388">
        <ele>1849.4000244141</ele>
        <time>2019-12-15T08:56:54.000Z</time>
      </trkpt>
      <trkpt lat="45.14851" lon="5.63883">
        <ele>1850</ele>
        <time>2019-12-15T08:56:58.000Z</time>
      </trkpt>
      <trkpt lat="45.1485" lon="5.63883">
        <ele>1850.5999755859</ele>
        <time>2019-12-15T08:57:01.000Z</time>
      </trkpt>
      <trkpt lat="45.14849" lon="5.63884">
        <ele>1851.5999755859</ele>
        <time>2019-12-15T08:57:07.000Z</time>
      </trkpt>
      <trkpt lat="45.14846" lon="5.63888">
        <ele>1852.5999755859</ele>
        <time>2019-12-15T08:57:13.000Z</time>
      </trkpt>
      <trkpt lat="45.14846" lon="5.63889">
        <ele>1852.8000488281</ele>
        <time>2019-12-15T08:57:14.000Z</time>
      </trkpt>
      <trkpt lat="45.14844" lon="5.63895">
        <ele>1853.8000488281</ele>
        <time>2019-12-15T08:57:19.000Z</time>
      </trkpt>
      <trkpt lat="45.14845" lon="5.63895">
        <ele>1854</ele>
        <time>2019-12-15T08:57:20.000Z</time>
      </trkpt>
      <trkpt lat="45.14844" lon="5.639">
        <ele>1854.8000488281</ele>
        <time>2019-12-15T08:57:24.000Z</time>
      </trkpt>
      <trkpt lat="45.14845" lon="5.63901">
        <ele>1855.1999511719</ele>
        <time>2019-12-15T08:57:26.000Z</time>
      </trkpt>
      <trkpt lat="45.14845" lon="5.63903">
        <ele>1855.8000488281</ele>
        <time>2019-12-15T08:57:29.000Z</time>
      </trkpt>
      <trkpt lat="45.14844" lon="5.63905">
        <ele>1856.1999511719</ele>
        <time>2019-12-15T08:57:32.000Z</time>
      </trkpt>
      <trkpt lat="45.1484" lon="5.63904">
        <ele>1857.4000244141</ele>
        <time>2019-12-15T08:57:37.000Z</time>
      </trkpt>
      <trkpt lat="45.14837" lon="5.63905">
        <ele>1857.8000488281</ele>
        <time>2019-12-15T08:57:43.000Z</time>
      </trkpt>
      <trkpt lat="45.14835" lon="5.63908">
        <ele>1858.4000244141</ele>
        <time>2019-12-15T08:57:47.000Z</time>
      </trkpt>
      <trkpt lat="45.14835" lon="5.6391">
        <ele>1858.8000488281</ele>
        <time>2019-12-15T08:57:49.000Z</time>
      </trkpt>
      <trkpt lat="45.14835" lon="5.63913">
        <ele>1859.5999755859</ele>
        <time>2019-12-15T08:57:51.000Z</time>
      </trkpt>
      <trkpt lat="45.14833" lon="5.63915">
        <ele>1860</ele>
        <time>2019-12-15T08:57:55.000Z</time>
      </trkpt>
      <trkpt lat="45.14831" lon="5.63915">
        <ele>1860.5999755859</ele>
        <time>2019-12-15T08:57:58.000Z</time>
      </trkpt>
      <trkpt lat="45.14829" lon="5.63914">
        <ele>1861.1999511719</ele>
        <time>2019-12-15T08:58:02.000Z</time>
      </trkpt>
      <trkpt lat="45.14826" lon="5.63913">
        <ele>1861.5999755859</ele>
        <time>2019-12-15T08:58:05.000Z</time>
      </trkpt>
      <trkpt lat="45.14824" lon="5.63911">
        <ele>1862.1999511719</ele>
        <time>2019-12-15T08:58:08.000Z</time>
      </trkpt>
      <trkpt lat="45.14822" lon="5.6391">
        <ele>1862.4000244141</ele>
        <time>2019-12-15T08:58:13.000Z</time>
      </trkpt>
      <trkpt lat="45.14821" lon="5.63909">
        <ele>1862.5999755859</ele>
        <time>2019-12-15T08:58:15.000Z</time>
      </trkpt>
      <trkpt lat="45.14819" lon="5.63911">
        <ele>1863.1999511719</ele>
        <time>2019-12-15T08:58:19.000Z</time>
      </trkpt>
      <trkpt lat="45.14817" lon="5.63913">
        <ele>1863.8000488281</ele>
        <time>2019-12-15T08:58:22.000Z</time>
      </trkpt>
      <trkpt lat="45.14815" lon="5.63912">
        <ele>1864.8000488281</ele>
        <time>2019-12-15T08:58:27.000Z</time>
      </trkpt>
      <trkpt lat="45.14813" lon="5.63911">
        <ele>1865</ele>
        <time>2019-12-15T08:58:28.000Z</time>
      </trkpt>
      <trkpt lat="45.1481" lon="5.63909">
        <ele>1865.4000244141</ele>
        <time>2019-12-15T08:58:32.000Z</time>
      </trkpt>
      <trkpt lat="45.14806" lon="5.63908">
        <ele>1865.8000488281</ele>
        <time>2019-12-15T08:58:37.000Z</time>
      </trkpt>
      <trkpt lat="45.14804" lon="5.63908">
        <ele>1866</ele>
        <time>2019-12-15T08:58:41.000Z</time>
      </trkpt>
      <trkpt lat="45.14803" lon="5.63909">
        <ele>1866.4000244141</ele>
        <time>2019-12-15T08:58:44.000Z</time>
      </trkpt>
      <trkpt lat="45.148" lon="5.63908">
        <ele>1867</ele>
        <time>2019-12-15T08:58:50.000Z</time>
      </trkpt>
      <trkpt lat="45.148" lon="5.63908">
        <ele>1868</ele>
        <time>2019-12-15T08:58:57.000Z</time>
      </trkpt>
      <trkpt lat="45.148" lon="5.63908">
        <ele>1868</ele>
        <time>2019-12-15T08:58:58.000Z</time>
      </trkpt>
      <trkpt lat="45.14799" lon="5.63912">
        <ele>1868.4000244141</ele>
        <time>2019-12-15T08:59:05.000Z</time>
      </trkpt>
      <trkpt lat="45.14799" lon="5.63913">
        <ele>1869</ele>
        <time>2019-12-15T08:59:10.000Z</time>
      </trkpt>
      <trkpt lat="45.14796" lon="5.63916">
        <ele>1870.1999511719</ele>
        <time>2019-12-15T08:59:15.000Z</time>
      </trkpt>
      <trkpt lat="45.14795" lon="5.63916">
        <ele>1870.4000244141</ele>
        <time>2019-12-15T08:59:17.000Z</time>
      </trkpt>
      <trkpt lat="45.14792" lon="5.63914">
        <ele>1871.4000244141</ele>
        <time>2019-12-15T08:59:22.000Z</time>
      </trkpt>
      <trkpt lat="45.14791" lon="5.63915">
        <ele>1871.8000488281</ele>
        <time>2019-12-15T08:59:24.000Z</time>
      </trkpt>
      <trkpt lat="45.14788" lon="5.63915">
        <ele>1872.5999755859</ele>
        <time>2019-12-15T08:59:28.000Z</time>
      </trkpt>
      <trkpt lat="45.14788" lon="5.63915">
        <ele>1873</ele>
        <time>2019-12-15T08:59:31.000Z</time>
      </trkpt>
      <trkpt lat="45.14788" lon="5.63916">
        <ele>1873.5999755859</ele>
        <time>2019-12-15T08:59:34.000Z</time>
      </trkpt>
      <trkpt lat="45.14786" lon="5.63916">
        <ele>1874</ele>
        <time>2019-12-15T08:59:37.000Z</time>
      </trkpt>
      <trkpt lat="45.14784" lon="5.63916">
        <ele>1874.8000488281</ele>
        <time>2019-12-15T08:59:41.000Z</time>
      </trkpt>
      <trkpt lat="45.14783" lon="5.63916">
        <ele>1875.1999511719</ele>
        <time>2019-12-15T08:59:43.000Z</time>
      </trkpt>
      <trkpt lat="45.14782" lon="5.63917">
        <ele>1875.8000488281</ele>
        <time>2019-12-15T08:59:46.000Z</time>
      </trkpt>
      <trkpt lat="45.1478" lon="5.63919">
        <ele>1876.1999511719</ele>
        <time>2019-12-15T08:59:49.000Z</time>
      </trkpt>
      <trkpt lat="45.14778" lon="5.6392">
        <ele>1877</ele>
        <time>2019-12-15T08:59:52.000Z</time>
      </trkpt>
      <trkpt lat="45.14776" lon="5.6392">
        <ele>1877.5999755859</ele>
        <time>2019-12-15T08:59:55.000Z</time>
      </trkpt>
      <trkpt lat="45.14774" lon="5.6392">
        <ele>1878.1999511719</ele>
        <time>2019-12-15T08:59:58.000Z</time>
      </trkpt>
      <trkpt lat="45.14771" lon="5.63921">
        <ele>1878.5999755859</ele>
        <time>2019-12-15T09:00:01.000Z</time>
      </trkpt>
      <trkpt lat="45.14769" lon="5.6392">
        <ele>1879.1999511719</ele>
        <time>2019-12-15T09:00:05.000Z</time>
      </trkpt>
      <trkpt lat="45.14767" lon="5.63919">
        <ele>1879.5999755859</ele>
        <time>2019-12-15T09:00:07.000Z</time>
      </trkpt>
      <trkpt lat="45.14767" lon="5.6392">
        <ele>1880.1999511719</ele>
        <time>2019-12-15T09:00:11.000Z</time>
      </trkpt>
      <trkpt lat="45.14766" lon="5.6392">
        <ele>1880.8000488281</ele>
        <time>2019-12-15T09:00:13.000Z</time>
      </trkpt>
      <trkpt lat="45.14765" lon="5.63921">
        <ele>1881.4000244141</ele>
        <time>2019-12-15T09:00:16.000Z</time>
      </trkpt>
      <trkpt lat="45.14764" lon="5.63921">
        <ele>1881.8000488281</ele>
        <time>2019-12-15T09:00:19.000Z</time>
      </trkpt>
      <trkpt lat="45.14764" lon="5.63921">
        <ele>1882.1999511719</ele>
        <time>2019-12-15T09:00:31.000Z</time>
      </trkpt>
      <trkpt lat="45.14762" lon="5.63921">
        <ele>1882.4000244141</ele>
        <time>2019-12-15T09:00:37.000Z</time>
      </trkpt>
      <trkpt lat="45.14758" lon="5.63919">
        <ele>1883.5999755859</ele>
        <time>2019-12-15T09:00:41.000Z</time>
      </trkpt>
      <trkpt lat="45.14758" lon="5.63919">
        <ele>1883.8000488281</ele>
        <time>2019-12-15T09:00:43.000Z</time>
      </trkpt>
      <trkpt lat="45.14754" lon="5.63918">
        <ele>1884.5999755859</ele>
        <time>2019-12-15T09:00:47.000Z</time>
      </trkpt>
      <trkpt lat="45.14754" lon="5.63919">
        <ele>1884.8000488281</ele>
        <time>2019-12-15T09:00:48.000Z</time>
      </trkpt>
      <trkpt lat="45.14749" lon="5.6392">
        <ele>1885.4000244141</ele>
        <time>2019-12-15T09:00:54.000Z</time>
      </trkpt>
      <trkpt lat="45.14746" lon="5.6392">
        <ele>1885.8000488281</ele>
        <time>2019-12-15T09:00:57.000Z</time>
      </trkpt>
      <trkpt lat="45.14743" lon="5.6392">
        <ele>1886.8000488281</ele>
        <time>2019-12-15T09:01:01.000Z</time>
      </trkpt>
      <trkpt lat="45.14742" lon="5.63922">
        <ele>1888.1999511719</ele>
        <time>2019-12-15T09:01:06.000Z</time>
      </trkpt>
      <trkpt lat="45.14742" lon="5.63923">
        <ele>1888.4000244141</ele>
        <time>2019-12-15T09:01:07.000Z</time>
      </trkpt>
      <trkpt lat="45.14743" lon="5.63927">
        <ele>1889.1999511719</ele>
        <time>2019-12-15T09:01:11.000Z</time>
      </trkpt>
      <trkpt lat="45.14745" lon="5.63928">
        <ele>1889.8000488281</ele>
        <time>2019-12-15T09:01:13.000Z</time>
      </trkpt>
      <trkpt lat="45.14747" lon="5.63932">
        <ele>1890.1999511719</ele>
        <time>2019-12-15T09:01:18.000Z</time>
      </trkpt>
      <trkpt lat="45.14748" lon="5.63934">
        <ele>1890.8000488281</ele>
        <time>2019-12-15T09:01:20.000Z</time>
      </trkpt>
      <trkpt lat="45.14749" lon="5.63934">
        <ele>1891.1999511719</ele>
        <time>2019-12-15T09:01:22.000Z</time>
      </trkpt>
      <trkpt lat="45.14751" lon="5.63935">
        <ele>1891.8000488281</ele>
        <time>2019-12-15T09:01:25.000Z</time>
      </trkpt>
      <trkpt lat="45.14752" lon="5.63937">
        <ele>1892.4000244141</ele>
        <time>2019-12-15T09:01:28.000Z</time>
      </trkpt>
      <trkpt lat="45.14752" lon="5.63938">
        <ele>1892.8000488281</ele>
        <time>2019-12-15T09:01:33.000Z</time>
      </trkpt>
      <trkpt lat="45.14752" lon="5.63939">
        <ele>1893.4000244141</ele>
        <time>2019-12-15T09:01:39.000Z</time>
      </trkpt>
      <trkpt lat="45.14752" lon="5.63939">
        <ele>1893.5999755859</ele>
        <time>2019-12-15T09:01:42.000Z</time>
      </trkpt>
      <trkpt lat="45.14752" lon="5.63939">
        <ele>1893.5999755859</ele>
        <time>2019-12-15T09:01:56.000Z</time>
      </trkpt>
      <trkpt lat="45.14754" lon="5.6394">
        <ele>1893.4000244141</ele>
        <time>2019-12-15T09:02:03.000Z</time>
      </trkpt>
      <trkpt lat="45.14757" lon="5.63943">
        <ele>1893.8000488281</ele>
        <time>2019-12-15T09:02:11.000Z</time>
      </trkpt>
      <trkpt lat="45.14758" lon="5.63945">
        <ele>1893.4000244141</ele>
        <time>2019-12-15T09:02:19.000Z</time>
      </trkpt>
      <trkpt lat="45.14758" lon="5.63945">
        <ele>1893.1999511719</ele>
        <time>2019-12-15T09:02:37.000Z</time>
      </trkpt>
      <trkpt lat="45.14758" lon="5.63945">
        <ele>1893.4000244141</ele>
        <time>2019-12-15T09:02:50.000Z</time>
      </trkpt>
      <trkpt lat="45.14758" lon="5.63944">
        <ele>1893.1999511719</ele>
        <time>2019-12-15T09:03:01.000Z</time>
      </trkpt>
      <trkpt lat="45.14758" lon="5.63944">
        <ele>1893</ele>
        <time>2019-12-15T09:03:13.000Z</time>
      </trkpt>
      <trkpt lat="45.14758" lon="5.63944">
        <ele>1893.1999511719</ele>
        <time>2019-12-15T09:03:26.000Z</time>
      </trkpt>
      <trkpt lat="45.14758" lon="5.63945">
        <ele>1893.1999511719</ele>
        <time>2019-12-15T09:03:43.000Z</time>
      </trkpt>
      <trkpt lat="45.14758" lon="5.63945">
        <ele>1893</ele>
        <time>2019-12-15T09:03:57.000Z</time>
      </trkpt>
      <trkpt lat="45.14757" lon="5.63945">
        <ele>1893</ele>
        <time>2019-12-15T09:04:02.000Z</time>
      </trkpt>
      <trkpt lat="45.14756" lon="5.63945">
        <ele>1893</ele>
        <time>2019-12-15T09:04:03.000Z</time>
      </trkpt>
      <trkpt lat="45.14755" lon="5.63944">
        <ele>1893.8000488281</ele>
        <time>2019-12-15T09:04:09.000Z</time>
      </trkpt>
      <trkpt lat="45.14755" lon="5.63944">
        <ele>1894.4000244141</ele>
        <time>2019-12-15T09:04:12.000Z</time>
      </trkpt>
      <trkpt lat="45.14755" lon="5.63944">
        <ele>1895.1999511719</ele>
        <time>2019-12-15T09:04:18.000Z</time>
      </trkpt>
      <trkpt lat="45.14755" lon="5.63944">
        <ele>1895.1999511719</ele>
        <time>2019-12-15T09:04:31.000Z</time>
      </trkpt>
      <trkpt lat="45.14755" lon="5.63944">
        <ele>1895.1999511719</ele>
        <time>2019-12-15T09:04:49.000Z</time>
      </trkpt>
      <trkpt lat="45.14754" lon="5.63945">
        <ele>1895.1999511719</ele>
        <time>2019-12-15T09:05:04.000Z</time>
      </trkpt>
      <trkpt lat="45.14754" lon="5.63945">
        <ele>1895.1999511719</ele>
        <time>2019-12-15T09:05:10.000Z</time>
      </trkpt>
      <trkpt lat="45.14754" lon="5.63945">
        <ele>1895.1999511719</ele>
        <time>2019-12-15T09:05:21.000Z</time>
      </trkpt>
      <trkpt lat="45.14754" lon="5.63944">
        <ele>1895</ele>
        <time>2019-12-15T09:05:35.000Z</time>
      </trkpt>
      <trkpt lat="45.14754" lon="5.63944">
        <ele>1895</ele>
        <time>2019-12-15T09:05:48.000Z</time>
      </trkpt>
      <trkpt lat="45.14754" lon="5.63944">
        <ele>1895.1999511719</ele>
        <time>2019-12-15T09:06:10.000Z</time>
      </trkpt>
      <trkpt lat="45.14754" lon="5.63944">
        <ele>1895</ele>
        <time>2019-12-15T09:06:24.000Z</time>
      </trkpt>
      <trkpt lat="45.14754" lon="5.63944">
        <ele>1895.1999511719</ele>
        <time>2019-12-15T09:06:34.000Z</time>
      </trkpt>
      <trkpt lat="45.14754" lon="5.63944">
        <ele>1895</ele>
        <time>2019-12-15T09:06:50.000Z</time>
      </trkpt>
      <trkpt lat="45.14754" lon="5.63944">
        <ele>1895.1999511719</ele>
        <time>2019-12-15T09:07:08.000Z</time>
      </trkpt>
      <trkpt lat="45.14754" lon="5.63944">
        <ele>1895.1999511719</ele>
        <time>2019-12-15T09:07:19.000Z</time>
      </trkpt>
      <trkpt lat="45.14754" lon="5.63944">
        <ele>1895</ele>
        <time>2019-12-15T09:07:39.000Z</time>
      </trkpt>
      <trkpt lat="45.14754" lon="5.63944">
        <ele>1894.8000488281</ele>
        <time>2019-12-15T09:08:05.000Z</time>
      </trkpt>
      <trkpt lat="45.14754" lon="5.63943">
        <ele>1894.8000488281</ele>
        <time>2019-12-15T09:08:23.000Z</time>
      </trkpt>
      <trkpt lat="45.14754" lon="5.63943">
        <ele>1895</ele>
        <time>2019-12-15T09:08:41.000Z</time>
      </trkpt>
      <trkpt lat="45.14754" lon="5.63943">
        <ele>1894.8000488281</ele>
        <time>2019-12-15T09:08:59.000Z</time>
      </trkpt>
      <trkpt lat="45.14754" lon="5.63943">
        <ele>1894.4000244141</ele>
        <time>2019-12-15T09:09:14.000Z</time>
      </trkpt>
      <trkpt lat="45.14754" lon="5.63943">
        <ele>1894.1999511719</ele>
        <time>2019-12-15T09:09:27.000Z</time>
      </trkpt>
      <trkpt lat="45.14754" lon="5.63943">
        <ele>1894.5999755859</ele>
        <time>2019-12-15T09:09:47.000Z</time>
      </trkpt>
      <trkpt lat="45.14754" lon="5.63943">
        <ele>1894.1999511719</ele>
        <time>2019-12-15T09:10:00.000Z</time>
      </trkpt>
      <trkpt lat="45.14754" lon="5.63943">
        <ele>1894.1999511719</ele>
        <time>2019-12-15T09:10:14.000Z</time>
      </trkpt>
      <trkpt lat="45.14754" lon="5.63943">
        <ele>1894.1999511719</ele>
        <time>2019-12-15T09:10:35.000Z</time>
      </trkpt>
      <trkpt lat="45.14754" lon="5.63943">
        <ele>1894</ele>
        <time>2019-12-15T09:10:52.000Z</time>
      </trkpt>
      <trkpt lat="45.14754" lon="5.63943">
        <ele>1894.1999511719</ele>
        <time>2019-12-15T09:11:05.000Z</time>
      </trkpt>
      <trkpt lat="45.14754" lon="5.63943">
        <ele>1894.1999511719</ele>
        <time>2019-12-15T09:11:20.000Z</time>
      </trkpt>
      <trkpt lat="45.14754" lon="5.63943">
        <ele>1894</ele>
        <time>2019-12-15T09:11:32.000Z</time>
      </trkpt>
      <trkpt lat="45.14754" lon="5.63943">
        <ele>1895.5999755859</ele>
        <time>2019-12-15T09:11:39.000Z</time>
      </trkpt>
      <trkpt lat="45.14754" lon="5.63943">
        <ele>1895.1999511719</ele>
        <time>2019-12-15T09:11:43.000Z</time>
      </trkpt>
      <trkpt lat="45.14754" lon="5.63943">
        <ele>1894.8000488281</ele>
        <time>2019-12-15T09:11:55.000Z</time>
      </trkpt>
      <trkpt lat="45.14754" lon="5.63943">
        <ele>1894.5999755859</ele>
        <time>2019-12-15T09:11:57.000Z</time>
      </trkpt>
      <trkpt lat="45.14754" lon="5.63943">
        <ele>1894.4000244141</ele>
        <time>2019-12-15T09:12:03.000Z</time>
      </trkpt>
      <trkpt lat="45.14754" lon="5.63943">
        <ele>1893.5999755859</ele>
        <time>2019-12-15T09:12:11.000Z</time>
      </trkpt>
      <trkpt lat="45.14754" lon="5.63943">
        <ele>1893.8000488281</ele>
        <time>2019-12-15T09:12:17.000Z</time>
      </trkpt>
      <trkpt lat="45.14754" lon="5.63943">
        <ele>1894</ele>
        <time>2019-12-15T09:12:30.000Z</time>
      </trkpt>
      <trkpt lat="45.14754" lon="5.63943">
        <ele>1894.4000244141</ele>
        <time>2019-12-15T09:12:40.000Z</time>
      </trkpt>
      <trkpt lat="45.14754" lon="5.63943">
        <ele>1894</ele>
        <time>2019-12-15T09:12:54.000Z</time>
      </trkpt>
      <trkpt lat="45.14754" lon="5.63943">
        <ele>1894</ele>
        <time>2019-12-15T09:13:12.000Z</time>
      </trkpt>
      <trkpt lat="45.14754" lon="5.63943">
        <ele>1893.8000488281</ele>
        <time>2019-12-15T09:13:32.000Z</time>
      </trkpt>
      <trkpt lat="45.14754" lon="5.63943">
        <ele>1894.1999511719</ele>
        <time>2019-12-15T09:13:48.000Z</time>
      </trkpt>
      <trkpt lat="45.14753" lon="5.63943">
        <ele>1894</ele>
        <time>2019-12-15T09:14:11.000Z</time>
      </trkpt>
      <trkpt lat="45.14753" lon="5.63943">
        <ele>1894</ele>
        <time>2019-12-15T09:14:30.000Z</time>
      </trkpt>
      <trkpt lat="45.14753" lon="5.63943">
        <ele>1893.8000488281</ele>
        <time>2019-12-15T09:14:42.000Z</time>
      </trkpt>
      <trkpt lat="45.14753" lon="5.63943">
        <ele>1894</ele>
        <time>2019-12-15T09:14:47.000Z</time>
      </trkpt>
      <trkpt lat="45.14753" lon="5.63943">
        <ele>1894</ele>
        <time>2019-12-15T09:15:03.000Z</time>
      </trkpt>
      <trkpt lat="45.14753" lon="5.63943">
        <ele>1894.4000244141</ele>
        <time>2019-12-15T09:15:13.000Z</time>
      </trkpt>
      <trkpt lat="45.14753" lon="5.63943">
        <ele>1894.1999511719</ele>
        <time>2019-12-15T09:15:30.000Z</time>
      </trkpt>
      <trkpt lat="45.14753" lon="5.63943">
        <ele>1894.4000244141</ele>
        <time>2019-12-15T09:15:43.000Z</time>
      </trkpt>
      <trkpt lat="45.14753" lon="5.63943">
        <ele>1894.8000488281</ele>
        <time>2019-12-15T09:16:00.000Z</time>
      </trkpt>
      <trkpt lat="45.14753" lon="5.63943">
        <ele>1895</ele>
        <time>2019-12-15T09:16:01.000Z</time>
      </trkpt>
      <trkpt lat="45.14754" lon="5.63943">
        <ele>1894.4000244141</ele>
        <time>2019-12-15T09:16:09.000Z</time>
      </trkpt>
      <trkpt lat="45.14754" lon="5.63943">
        <ele>1894.4000244141</ele>
        <time>2019-12-15T09:16:15.000Z</time>
      </trkpt>
      <trkpt lat="45.14755" lon="5.63944">
        <ele>1894.1999511719</ele>
        <time>2019-12-15T09:16:19.000Z</time>
      </trkpt>
      <trkpt lat="45.14756" lon="5.63944">
        <ele>1894</ele>
        <time>2019-12-15T09:16:21.000Z</time>
      </trkpt>
      <trkpt lat="45.14757" lon="5.63945">
        <ele>1893.8000488281</ele>
        <time>2019-12-15T09:16:23.000Z</time>
      </trkpt>
      <trkpt lat="45.14757" lon="5.63945">
        <ele>1893.4000244141</ele>
        <time>2019-12-15T09:16:26.000Z</time>
      </trkpt>
      <trkpt lat="45.14755" lon="5.63945">
        <ele>1893</ele>
        <time>2019-12-15T09:16:31.000Z</time>
      </trkpt>
      <trkpt lat="45.14755" lon="5.63944">
        <ele>1893</ele>
        <time>2019-12-15T09:16:32.000Z</time>
      </trkpt>
      <trkpt lat="45.14753" lon="5.6394">
        <ele>1893.1999511719</ele>
        <time>2019-12-15T09:16:35.000Z</time>
      </trkpt>
      <trkpt lat="45.14752" lon="5.63939">
        <ele>1893.4000244141</ele>
        <time>2019-12-15T09:16:37.000Z</time>
      </trkpt>
      <trkpt lat="45.14749" lon="5.63939">
        <ele>1893.5999755859</ele>
        <time>2019-12-15T09:16:43.000Z</time>
      </trkpt>
      <trkpt lat="45.14748" lon="5.63939">
        <ele>1893.8000488281</ele>
        <time>2019-12-15T09:16:51.000Z</time>
      </trkpt>
      <trkpt lat="45.14748" lon="5.63939">
        <ele>1893.8000488281</ele>
        <time>2019-12-15T09:17:08.000Z</time>
      </trkpt>
      <trkpt lat="45.1475" lon="5.63941">
        <ele>1893.8000488281</ele>
        <time>2019-12-15T09:17:11.000Z</time>
      </trkpt>
      <trkpt lat="45.14751" lon="5.63941">
        <ele>1893.5999755859</ele>
        <time>2019-12-15T09:17:13.000Z</time>
      </trkpt>
      <trkpt lat="45.14751" lon="5.63942">
        <ele>1894.5999755859</ele>
        <time>2019-12-15T09:17:21.000Z</time>
      </trkpt>
      <trkpt lat="45.14752" lon="5.63942">
        <ele>1894.4000244141</ele>
        <time>2019-12-15T09:17:33.000Z</time>
      </trkpt>
      <trkpt lat="45.14754" lon="5.63944">
        <ele>1894.1999511719</ele>
        <time>2019-12-15T09:17:40.000Z</time>
      </trkpt>
      <trkpt lat="45.14757" lon="5.63945">
        <ele>1893.5999755859</ele>
        <time>2019-12-15T09:17:46.000Z</time>
      </trkpt>
      <trkpt lat="45.14757" lon="5.63945">
        <ele>1892.8000488281</ele>
        <time>2019-12-15T09:17:58.000Z</time>
      </trkpt>
      <trkpt lat="45.14757" lon="5.63945">
        <ele>1892.5999755859</ele>
        <time>2019-12-15T09:17:59.000Z</time>
      </trkpt>
      <trkpt lat="45.14757" lon="5.63945">
        <ele>1893.5999755859</ele>
        <time>2019-12-15T09:18:12.000Z</time>
      </trkpt>
      <trkpt lat="45.14757" lon="5.63945">
        <ele>1893.8000488281</ele>
        <time>2019-12-15T09:18:13.000Z</time>
      </trkpt>
      <trkpt lat="45.14757" lon="5.63945">
        <ele>1893</ele>
        <time>2019-12-15T09:18:25.000Z</time>
      </trkpt>
      <trkpt lat="45.14757" lon="5.63945">
        <ele>1892.4000244141</ele>
        <time>2019-12-15T09:18:27.000Z</time>
      </trkpt>
      <trkpt lat="45.14757" lon="5.63945">
        <ele>1893.4000244141</ele>
        <time>2019-12-15T09:18:37.000Z</time>
      </trkpt>
      <trkpt lat="45.14757" lon="5.63945">
        <ele>1892</ele>
        <time>2019-12-15T09:18:48.000Z</time>
      </trkpt>
      <trkpt lat="45.14757" lon="5.63945">
        <ele>1894</ele>
        <time>2019-12-15T09:18:50.000Z</time>
      </trkpt>
      <trkpt lat="45.14757" lon="5.63945">
        <ele>1893</ele>
        <time>2019-12-15T09:18:58.000Z</time>
      </trkpt>
      <trkpt lat="45.14757" lon="5.63945">
        <ele>1892.8000488281</ele>
        <time>2019-12-15T09:19:03.000Z</time>
      </trkpt>
      <trkpt lat="45.14757" lon="5.63945">
        <ele>1893</ele>
        <time>2019-12-15T09:19:16.000Z</time>
      </trkpt>
      <trkpt lat="45.14757" lon="5.63945">
        <ele>1892.5999755859</ele>
        <time>2019-12-15T09:19:31.000Z</time>
      </trkpt>
      <trkpt lat="45.14757" lon="5.63945">
        <ele>1892.5999755859</ele>
        <time>2019-12-15T09:19:50.000Z</time>
      </trkpt>
      <trkpt lat="45.14757" lon="5.63945">
        <ele>1892.8000488281</ele>
        <time>2019-12-15T09:19:59.000Z</time>
      </trkpt>
      <trkpt lat="45.14757" lon="5.63945">
        <ele>1892.4000244141</ele>
        <time>2019-12-15T09:20:09.000Z</time>
      </trkpt>
      <trkpt lat="45.14757" lon="5.63945">
        <ele>1892.8000488281</ele>
        <time>2019-12-15T09:20:19.000Z</time>
      </trkpt>
      <trkpt lat="45.14757" lon="5.63945">
        <ele>1892.5999755859</ele>
        <time>2019-12-15T09:20:34.000Z</time>
      </trkpt>
      <trkpt lat="45.14757" lon="5.63945">
        <ele>1892.8000488281</ele>
        <time>2019-12-15T09:20:51.000Z</time>
      </trkpt>
      <trkpt lat="45.14757" lon="5.63945">
        <ele>1892.5999755859</ele>
        <time>2019-12-15T09:21:02.000Z</time>
      </trkpt>
      <trkpt lat="45.14757" lon="5.63945">
        <ele>1892.8000488281</ele>
        <time>2019-12-15T09:21:09.000Z</time>
      </trkpt>
      <trkpt lat="45.14757" lon="5.63945">
        <ele>1892.4000244141</ele>
        <time>2019-12-15T09:21:21.000Z</time>
      </trkpt>
      <trkpt lat="45.14757" lon="5.63945">
        <ele>1893.1999511719</ele>
        <time>2019-12-15T09:21:35.000Z</time>
      </trkpt>
      <trkpt lat="45.14757" lon="5.63945">
        <ele>1893.1999511719</ele>
        <time>2019-12-15T09:21:51.000Z</time>
      </trkpt>
      <trkpt lat="45.14757" lon="5.63946">
        <ele>1892.4000244141</ele>
        <time>2019-12-15T09:22:03.000Z</time>
      </trkpt>
      <trkpt lat="45.14757" lon="5.63946">
        <ele>1892.8000488281</ele>
        <time>2019-12-15T09:22:13.000Z</time>
      </trkpt>
      <trkpt lat="45.14757" lon="5.63946">
        <ele>1892.5999755859</ele>
        <time>2019-12-15T09:22:27.000Z</time>
      </trkpt>
      <trkpt lat="45.14757" lon="5.63945">
        <ele>1892.5999755859</ele>
        <time>2019-12-15T09:22:43.000Z</time>
      </trkpt>
      <trkpt lat="45.14757" lon="5.63945">
        <ele>1893.4000244141</ele>
        <time>2019-12-15T09:22:54.000Z</time>
      </trkpt>
      <trkpt lat="45.14757" lon="5.63945">
        <ele>1892</ele>
        <time>2019-12-15T09:23:03.000Z</time>
      </trkpt>
      <trkpt lat="45.14757" lon="5.63945">
        <ele>1892.4000244141</ele>
        <time>2019-12-15T09:23:10.000Z</time>
      </trkpt>
      <trkpt lat="45.14757" lon="5.63945">
        <ele>1893</ele>
        <time>2019-12-15T09:23:18.000Z</time>
      </trkpt>
      <trkpt lat="45.14757" lon="5.63945">
        <ele>1892.8000488281</ele>
        <time>2019-12-15T09:23:29.000Z</time>
      </trkpt>
      <trkpt lat="45.14757" lon="5.63945">
        <ele>1892.5999755859</ele>
        <time>2019-12-15T09:23:46.000Z</time>
      </trkpt>
      <trkpt lat="45.14757" lon="5.63946">
        <ele>1893.5999755859</ele>
        <time>2019-12-15T09:23:58.000Z</time>
      </trkpt>
      <trkpt lat="45.14757" lon="5.63946">
        <ele>1893.1999511719</ele>
        <time>2019-12-15T09:24:12.000Z</time>
      </trkpt>
      <trkpt lat="45.14757" lon="5.63946">
        <ele>1892.5999755859</ele>
        <time>2019-12-15T09:24:27.000Z</time>
      </trkpt>
      <trkpt lat="45.14758" lon="5.63946">
        <ele>1893</ele>
        <time>2019-12-15T09:24:46.000Z</time>
      </trkpt>
      <trkpt lat="45.14758" lon="5.63946">
        <ele>1892.8000488281</ele>
        <time>2019-12-15T09:24:53.000Z</time>
      </trkpt>
      <trkpt lat="45.14758" lon="5.63946">
        <ele>1893</ele>
        <time>2019-12-15T09:25:00.000Z</time>
      </trkpt>
      <trkpt lat="45.14758" lon="5.63946">
        <ele>1893.4000244141</ele>
        <time>2019-12-15T09:25:13.000Z</time>
      </trkpt>
      <trkpt lat="45.14758" lon="5.63946">
        <ele>1893</ele>
        <time>2019-12-15T09:25:30.000Z</time>
      </trkpt>
      <trkpt lat="45.14758" lon="5.63946">
        <ele>1893.1999511719</ele>
        <time>2019-12-15T09:25:50.000Z</time>
      </trkpt>
      <trkpt lat="45.14758" lon="5.63947">
        <ele>1893</ele>
        <time>2019-12-15T09:26:00.000Z</time>
      </trkpt>
      <trkpt lat="45.14757" lon="5.63945">
        <ele>1893.4000244141</ele>
        <time>2019-12-15T09:26:07.000Z</time>
      </trkpt>
      <trkpt lat="45.14755" lon="5.63942">
        <ele>1893.4000244141</ele>
        <time>2019-12-15T09:26:13.000Z</time>
      </trkpt>
      <trkpt lat="45.14755" lon="5.63941">
        <ele>1893.4000244141</ele>
        <time>2019-12-15T09:26:15.000Z</time>
      </trkpt>
      <trkpt lat="45.14754" lon="5.6394">
        <ele>1893</ele>
        <time>2019-12-15T09:26:23.000Z</time>
      </trkpt>
      <trkpt lat="45.14754" lon="5.6394">
        <ele>1892.8000488281</ele>
        <time>2019-12-15T09:26:35.000Z</time>
      </trkpt>
      <trkpt lat="45.14754" lon="5.6394">
        <ele>1893.8000488281</ele>
        <time>2019-12-15T09:26:48.000Z</time>
      </trkpt>
      <trkpt lat="45.14754" lon="5.6394">
        <ele>1893.1999511719</ele>
        <time>2019-12-15T09:26:56.000Z</time>
      </trkpt>
      <trkpt lat="45.14754" lon="5.6394">
        <ele>1893</ele>
        <time>2019-12-15T09:27:08.000Z</time>
      </trkpt>
      <trkpt lat="45.14754" lon="5.6394">
        <ele>1892.8000488281</ele>
        <time>2019-12-15T09:27:20.000Z</time>
      </trkpt>
      <trkpt lat="45.14752" lon="5.63938">
        <ele>1892.8000488281</ele>
        <time>2019-12-15T09:27:21.000Z</time>
      </trkpt>
      <trkpt lat="45.14748" lon="5.63934">
        <ele>1892.8000488281</ele>
        <time>2019-12-15T09:27:24.000Z</time>
      </trkpt>
      <trkpt lat="45.14745" lon="5.63929">
        <ele>1892</ele>
        <time>2019-12-15T09:27:28.000Z</time>
      </trkpt>
      <trkpt lat="45.14742" lon="5.63925">
        <ele>1891.5999755859</ele>
        <time>2019-12-15T09:27:29.000Z</time>
      </trkpt>
      <trkpt lat="45.1474" lon="5.6392">
        <ele>1890.4000244141</ele>
        <time>2019-12-15T09:27:32.000Z</time>
      </trkpt>
      <trkpt lat="45.14741" lon="5.63919">
        <ele>1890</ele>
        <time>2019-12-15T09:27:33.000Z</time>
      </trkpt>
      <trkpt lat="45.14744" lon="5.63918">
        <ele>1889.1999511719</ele>
        <time>2019-12-15T09:27:35.000Z</time>
      </trkpt>
      <trkpt lat="45.14751" lon="5.63918">
        <ele>1888.4000244141</ele>
        <time>2019-12-15T09:27:38.000Z</time>
      </trkpt>
      <trkpt lat="45.14754" lon="5.63919">
        <ele>1888</ele>
        <time>2019-12-15T09:27:39.000Z</time>
      </trkpt>
      <trkpt lat="45.14759" lon="5.6392">
        <ele>1886.5999755859</ele>
        <time>2019-12-15T09:27:42.000Z</time>
      </trkpt>
      <trkpt lat="45.14763" lon="5.63922">
        <ele>1885.4000244141</ele>
        <time>2019-12-15T09:27:44.000Z</time>
      </trkpt>
      <trkpt lat="45.14765" lon="5.63923">
        <ele>1884.1999511719</ele>
        <time>2019-12-15T09:27:46.000Z</time>
      </trkpt>
      <trkpt lat="45.14767" lon="5.63924">
        <ele>1883.5999755859</ele>
        <time>2019-12-15T09:27:47.000Z</time>
      </trkpt>
      <trkpt lat="45.14768" lon="5.63923">
        <ele>1883.1999511719</ele>
        <time>2019-12-15T09:27:48.000Z</time>
      </trkpt>
      <trkpt lat="45.14771" lon="5.63922">
        <ele>1882.5999755859</ele>
        <time>2019-12-15T09:27:50.000Z</time>
      </trkpt>
      <trkpt lat="45.14776" lon="5.6392">
        <ele>1882</ele>
        <time>2019-12-15T09:27:52.000Z</time>
      </trkpt>
      <trkpt lat="45.14779" lon="5.63922">
        <ele>1881.5999755859</ele>
        <time>2019-12-15T09:27:53.000Z</time>
      </trkpt>
      <trkpt lat="45.14784" lon="5.63926">
        <ele>1880.5999755859</ele>
        <time>2019-12-15T09:27:55.000Z</time>
      </trkpt>
      <trkpt lat="45.14786" lon="5.63926">
        <ele>1879.1999511719</ele>
        <time>2019-12-15T09:27:56.000Z</time>
      </trkpt>
      <trkpt lat="45.14786" lon="5.63926">
        <ele>1878.4000244141</ele>
        <time>2019-12-15T09:27:57.000Z</time>
      </trkpt>
      <trkpt lat="45.14786" lon="5.63927">
        <ele>1877.8000488281</ele>
        <time>2019-12-15T09:27:58.000Z</time>
      </trkpt>
      <trkpt lat="45.14786" lon="5.63927">
        <ele>1876.8000488281</ele>
        <time>2019-12-15T09:28:07.000Z</time>
      </trkpt>
      <trkpt lat="45.14786" lon="5.63927">
        <ele>1876.8000488281</ele>
        <time>2019-12-15T09:28:08.000Z</time>
      </trkpt>
      <trkpt lat="45.14794" lon="5.63929">
        <ele>1876.4000244141</ele>
        <time>2019-12-15T09:28:12.000Z</time>
      </trkpt>
      <trkpt lat="45.14796" lon="5.63931">
        <ele>1875.5999755859</ele>
        <time>2019-12-15T09:28:16.000Z</time>
      </trkpt>
      <trkpt lat="45.14797" lon="5.63928">
        <ele>1874.8000488281</ele>
        <time>2019-12-15T09:28:21.000Z</time>
      </trkpt>
      <trkpt lat="45.14796" lon="5.63924">
        <ele>1874.8000488281</ele>
        <time>2019-12-15T09:28:22.000Z</time>
      </trkpt>
      <trkpt lat="45.14792" lon="5.63916">
        <ele>1874.5999755859</ele>
        <time>2019-12-15T09:28:24.000Z</time>
      </trkpt>
      <trkpt lat="45.14792" lon="5.63916">
        <ele>1874.4000244141</ele>
        <time>2019-12-15T09:28:25.000Z</time>
      </trkpt>
      <trkpt lat="45.14794" lon="5.63913">
        <ele>1873.1999511719</ele>
        <time>2019-12-15T09:28:28.000Z</time>
      </trkpt>
      <trkpt lat="45.14795" lon="5.63914">
        <ele>1872.4000244141</ele>
        <time>2019-12-15T09:28:29.000Z</time>
      </trkpt>
      <trkpt lat="45.14796" lon="5.63914">
        <ele>1871.8000488281</ele>
        <time>2019-12-15T09:28:30.000Z</time>
      </trkpt>
      <trkpt lat="45.14796" lon="5.63914">
        <ele>1870.5999755859</ele>
        <time>2019-12-15T09:28:33.000Z</time>
      </trkpt>
      <trkpt lat="45.14796" lon="5.63914">
        <ele>1870.4000244141</ele>
        <time>2019-12-15T09:28:35.000Z</time>
      </trkpt>
      <trkpt lat="45.14797" lon="5.63912">
        <ele>1870.1999511719</ele>
        <time>2019-12-15T09:28:38.000Z</time>
      </trkpt>
      <trkpt lat="45.14796" lon="5.63909">
        <ele>1870</ele>
        <time>2019-12-15T09:28:40.000Z</time>
      </trkpt>
      <trkpt lat="45.14797" lon="5.63906">
        <ele>1869.8000488281</ele>
        <time>2019-12-15T09:28:43.000Z</time>
      </trkpt>
      <trkpt lat="45.14799" lon="5.63905">
        <ele>1868.8000488281</ele>
        <time>2019-12-15T09:28:44.000Z</time>
      </trkpt>
      <trkpt lat="45.14802" lon="5.63905">
        <ele>1867.8000488281</ele>
        <time>2019-12-15T09:28:46.000Z</time>
      </trkpt>
      <trkpt lat="45.14808" lon="5.63908">
        <ele>1867</ele>
        <time>2019-12-15T09:28:49.000Z</time>
      </trkpt>
      <trkpt lat="45.14809" lon="5.6391">
        <ele>1866.8000488281</ele>
        <time>2019-12-15T09:28:50.000Z</time>
      </trkpt>
      <trkpt lat="45.14811" lon="5.6391">
        <ele>1866.4000244141</ele>
        <time>2019-12-15T09:28:51.000Z</time>
      </trkpt>
      <trkpt lat="45.14813" lon="5.63906">
        <ele>1865.8000488281</ele>
        <time>2019-12-15T09:28:53.000Z</time>
      </trkpt>
      <trkpt lat="45.14813" lon="5.63904">
        <ele>1865.5999755859</ele>
        <time>2019-12-15T09:28:54.000Z</time>
      </trkpt>
      <trkpt lat="45.14814" lon="5.639">
        <ele>1865</ele>
        <time>2019-12-15T09:28:56.000Z</time>
      </trkpt>
      <trkpt lat="45.14816" lon="5.63897">
        <ele>1864.4000244141</ele>
        <time>2019-12-15T09:28:57.000Z</time>
      </trkpt>
      <trkpt lat="45.14818" lon="5.63896">
        <ele>1863.5999755859</ele>
        <time>2019-12-15T09:28:58.000Z</time>
      </trkpt>
      <trkpt lat="45.14819" lon="5.63895">
        <ele>1862.5999755859</ele>
        <time>2019-12-15T09:28:59.000Z</time>
      </trkpt>
      <trkpt lat="45.14822" lon="5.63899">
        <ele>1861.5999755859</ele>
        <time>2019-12-15T09:29:01.000Z</time>
      </trkpt>
      <trkpt lat="45.14822" lon="5.63901">
        <ele>1861.4000244141</ele>
        <time>2019-12-15T09:29:02.000Z</time>
      </trkpt>
      <trkpt lat="45.14822" lon="5.63901">
        <ele>1860.4000244141</ele>
        <time>2019-12-15T09:29:05.000Z</time>
      </trkpt>
      <trkpt lat="45.14824" lon="5.63902">
        <ele>1859.8000488281</ele>
        <time>2019-12-15T09:29:09.000Z</time>
      </trkpt>
      <trkpt lat="45.14826" lon="5.63904">
        <ele>1859.5999755859</ele>
        <time>2019-12-15T09:29:10.000Z</time>
      </trkpt>
      <trkpt lat="45.14834" lon="5.6391">
        <ele>1859.5999755859</ele>
        <time>2019-12-15T09:29:15.000Z</time>
      </trkpt>
      <trkpt lat="45.14835" lon="5.63911">
        <ele>1859.4000244141</ele>
        <time>2019-12-15T09:29:19.000Z</time>
      </trkpt>
      <trkpt lat="45.14835" lon="5.63911">
        <ele>1859.1999511719</ele>
        <time>2019-12-15T09:29:22.000Z</time>
      </trkpt>
      <trkpt lat="45.14841" lon="5.63914">
        <ele>1859</ele>
        <time>2019-12-15T09:29:29.000Z</time>
      </trkpt>
      <trkpt lat="45.14845" lon="5.63912">
        <ele>1859</ele>
        <time>2019-12-15T09:29:31.000Z</time>
      </trkpt>
      <trkpt lat="45.14844" lon="5.63903">
        <ele>1858.5999755859</ele>
        <time>2019-12-15T09:29:33.000Z</time>
      </trkpt>
      <trkpt lat="45.14844" lon="5.63901">
        <ele>1858.1999511719</ele>
        <time>2019-12-15T09:29:34.000Z</time>
      </trkpt>
      <trkpt lat="45.14844" lon="5.63896">
        <ele>1857.5999755859</ele>
        <time>2019-12-15T09:29:36.000Z</time>
      </trkpt>
      <trkpt lat="45.14845" lon="5.63893">
        <ele>1857</ele>
        <time>2019-12-15T09:29:37.000Z</time>
      </trkpt>
      <trkpt lat="45.14848" lon="5.63888">
        <ele>1855.5999755859</ele>
        <time>2019-12-15T09:29:39.000Z</time>
      </trkpt>
      <trkpt lat="45.14854" lon="5.63883">
        <ele>1854.4000244141</ele>
        <time>2019-12-15T09:29:41.000Z</time>
      </trkpt>
      <trkpt lat="45.14857" lon="5.63883">
        <ele>1854</ele>
        <time>2019-12-15T09:29:42.000Z</time>
      </trkpt>
      <trkpt lat="45.14865" lon="5.63887">
        <ele>1852.5999755859</ele>
        <time>2019-12-15T09:29:44.000Z</time>
      </trkpt>
      <trkpt lat="45.1487" lon="5.63889">
        <ele>1851.1999511719</ele>
        <time>2019-12-15T09:29:46.000Z</time>
      </trkpt>
      <trkpt lat="45.14871" lon="5.6389">
        <ele>1850.4000244141</ele>
        <time>2019-12-15T09:29:48.000Z</time>
      </trkpt>
      <trkpt lat="45.14872" lon="5.6389">
        <ele>1850</ele>
        <time>2019-12-15T09:29:49.000Z</time>
      </trkpt>
      <trkpt lat="45.14872" lon="5.63887">
        <ele>1849</ele>
        <time>2019-12-15T09:29:55.000Z</time>
      </trkpt>
      <trkpt lat="45.14872" lon="5.6388">
        <ele>1849</ele>
        <time>2019-12-15T09:29:57.000Z</time>
      </trkpt>
      <trkpt lat="45.14874" lon="5.63872">
        <ele>1848.8000488281</ele>
        <time>2019-12-15T09:29:59.000Z</time>
      </trkpt>
      <trkpt lat="45.14875" lon="5.63868">
        <ele>1848</ele>
        <time>2019-12-15T09:30:03.000Z</time>
      </trkpt>
      <trkpt lat="45.14878" lon="5.63853">
        <ele>1847.4000244141</ele>
        <time>2019-12-15T09:30:08.000Z</time>
      </trkpt>
      <trkpt lat="45.14881" lon="5.63842">
        <ele>1847.1999511719</ele>
        <time>2019-12-15T09:30:10.000Z</time>
      </trkpt>
      <trkpt lat="45.14883" lon="5.63839">
        <ele>1846.8000488281</ele>
        <time>2019-12-15T09:30:11.000Z</time>
      </trkpt>
      <trkpt lat="45.14885" lon="5.63837">
        <ele>1846.1999511719</ele>
        <time>2019-12-15T09:30:12.000Z</time>
      </trkpt>
      <trkpt lat="45.14887" lon="5.63834">
        <ele>1845.5999755859</ele>
        <time>2019-12-15T09:30:13.000Z</time>
      </trkpt>
      <trkpt lat="45.1489" lon="5.63831">
        <ele>1844.4000244141</ele>
        <time>2019-12-15T09:30:17.000Z</time>
      </trkpt>
      <trkpt lat="45.14891" lon="5.6383">
        <ele>1844</ele>
        <time>2019-12-15T09:30:18.000Z</time>
      </trkpt>
      <trkpt lat="45.14896" lon="5.63823">
        <ele>1843.4000244141</ele>
        <time>2019-12-15T09:30:21.000Z</time>
      </trkpt>
      <trkpt lat="45.14899" lon="5.6382">
        <ele>1843</ele>
        <time>2019-12-15T09:30:22.000Z</time>
      </trkpt>
      <trkpt lat="45.14902" lon="5.63818">
        <ele>1842.5999755859</ele>
        <time>2019-12-15T09:30:23.000Z</time>
      </trkpt>
      <trkpt lat="45.14906" lon="5.63814">
        <ele>1842.4000244141</ele>
        <time>2019-12-15T09:30:24.000Z</time>
      </trkpt>
      <trkpt lat="45.14913" lon="5.63804">
        <ele>1841.5999755859</ele>
        <time>2019-12-15T09:30:26.000Z</time>
      </trkpt>
      <trkpt lat="45.14917" lon="5.638">
        <ele>1841.1999511719</ele>
        <time>2019-12-15T09:30:27.000Z</time>
      </trkpt>
      <trkpt lat="45.14926" lon="5.6379">
        <ele>1840</ele>
        <time>2019-12-15T09:30:29.000Z</time>
      </trkpt>
      <trkpt lat="45.1493" lon="5.63788">
        <ele>1839.4000244141</ele>
        <time>2019-12-15T09:30:30.000Z</time>
      </trkpt>
      <trkpt lat="45.14933" lon="5.63785">
        <ele>1838.8000488281</ele>
        <time>2019-12-15T09:30:31.000Z</time>
      </trkpt>
      <trkpt lat="45.14939" lon="5.63778">
        <ele>1837.4000244141</ele>
        <time>2019-12-15T09:30:34.000Z</time>
      </trkpt>
      <trkpt lat="45.1494" lon="5.63778">
        <ele>1837.1999511719</ele>
        <time>2019-12-15T09:30:35.000Z</time>
      </trkpt>
      <trkpt lat="45.1494" lon="5.63778">
        <ele>1836.8000488281</ele>
        <time>2019-12-15T09:30:40.000Z</time>
      </trkpt>
      <trkpt lat="45.1494" lon="5.63778">
        <ele>1836.5999755859</ele>
        <time>2019-12-15T09:30:49.000Z</time>
      </trkpt>
      <trkpt lat="45.1494" lon="5.63778">
        <ele>1836.4000244141</ele>
        <time>2019-12-15T09:30:59.000Z</time>
      </trkpt>
      <trkpt lat="45.1494" lon="5.63778">
        <ele>1836.4000244141</ele>
        <time>2019-12-15T09:31:00.000Z</time>
      </trkpt>
      <trkpt lat="45.1494" lon="5.63778">
        <ele>1837.1999511719</ele>
        <time>2019-12-15T09:31:06.000Z</time>
      </trkpt>
      <trkpt lat="45.1494" lon="5.63778">
        <ele>1837.4000244141</ele>
        <time>2019-12-15T09:31:20.000Z</time>
      </trkpt>
      <trkpt lat="45.1494" lon="5.63778">
        <ele>1837.4000244141</ele>
        <time>2019-12-15T09:31:21.000Z</time>
      </trkpt>
      <trkpt lat="45.1494" lon="5.63778">
        <ele>1837.4000244141</ele>
        <time>2019-12-15T09:31:29.000Z</time>
      </trkpt>
      <trkpt lat="45.1494" lon="5.63778">
        <ele>1836.4000244141</ele>
        <time>2019-12-15T09:31:32.000Z</time>
      </trkpt>
      <trkpt lat="45.14939" lon="5.63776">
        <ele>1836.4000244141</ele>
        <time>2019-12-15T09:31:42.000Z</time>
      </trkpt>
      <trkpt lat="45.14932" lon="5.63776">
        <ele>1836.4000244141</ele>
        <time>2019-12-15T09:31:45.000Z</time>
      </trkpt>
      <trkpt lat="45.14926" lon="5.63781">
        <ele>1835.4000244141</ele>
        <time>2019-12-15T09:31:49.000Z</time>
      </trkpt>
      <trkpt lat="45.14926" lon="5.63781">
        <ele>1835</ele>
        <time>2019-12-15T09:31:50.000Z</time>
      </trkpt>
      <trkpt lat="45.14924" lon="5.6378">
        <ele>1834.8000488281</ele>
        <time>2019-12-15T09:31:51.000Z</time>
      </trkpt>
      <trkpt lat="45.14917" lon="5.63776">
        <ele>1834.1999511719</ele>
        <time>2019-12-15T09:31:53.000Z</time>
      </trkpt>
      <trkpt lat="45.14911" lon="5.63775">
        <ele>1834</ele>
        <time>2019-12-15T09:31:54.000Z</time>
      </trkpt>
      <trkpt lat="45.14899" lon="5.6378">
        <ele>1833.4000244141</ele>
        <time>2019-12-15T09:31:56.000Z</time>
      </trkpt>
      <trkpt lat="45.14894" lon="5.63779">
        <ele>1832.8000488281</ele>
        <time>2019-12-15T09:31:57.000Z</time>
      </trkpt>
      <trkpt lat="45.14882" lon="5.63778">
        <ele>1831</ele>
        <time>2019-12-15T09:31:59.000Z</time>
      </trkpt>
      <trkpt lat="45.14873" lon="5.63779">
        <ele>1829</ele>
        <time>2019-12-15T09:32:01.000Z</time>
      </trkpt>
      <trkpt lat="45.14868" lon="5.63779">
        <ele>1828</ele>
        <time>2019-12-15T09:32:02.000Z</time>
      </trkpt>
      <trkpt lat="45.14864" lon="5.6378">
        <ele>1827.1999511719</ele>
        <time>2019-12-15T09:32:03.000Z</time>
      </trkpt>
      <trkpt lat="45.14861" lon="5.63784">
        <ele>1826</ele>
        <time>2019-12-15T09:32:05.000Z</time>
      </trkpt>
      <trkpt lat="45.14861" lon="5.63786">
        <ele>1825.1999511719</ele>
        <time>2019-12-15T09:32:06.000Z</time>
      </trkpt>
      <trkpt lat="45.14861" lon="5.63786">
        <ele>1824.5999755859</ele>
        <time>2019-12-15T09:32:07.000Z</time>
      </trkpt>
      <trkpt lat="45.14863" lon="5.63785">
        <ele>1823.4000244141</ele>
        <time>2019-12-15T09:32:10.000Z</time>
      </trkpt>
      <trkpt lat="45.14863" lon="5.63785">
        <ele>1823.1999511719</ele>
        <time>2019-12-15T09:32:11.000Z</time>
      </trkpt>
      <trkpt lat="45.14862" lon="5.63785">
        <ele>1822.8000488281</ele>
        <time>2019-12-15T09:32:20.000Z</time>
      </trkpt>
      <trkpt lat="45.1486" lon="5.63784">
        <ele>1822.8000488281</ele>
        <time>2019-12-15T09:32:21.000Z</time>
      </trkpt>
      <trkpt lat="45.14848" lon="5.63775">
        <ele>1822.4000244141</ele>
        <time>2019-12-15T09:32:25.000Z</time>
      </trkpt>
      <trkpt lat="45.14847" lon="5.6377">
        <ele>1822</ele>
        <time>2019-12-15T09:32:26.000Z</time>
      </trkpt>
      <trkpt lat="45.14848" lon="5.63758">
        <ele>1820.8000488281</ele>
        <time>2019-12-15T09:32:28.000Z</time>
      </trkpt>
      <trkpt lat="45.14843" lon="5.63751">
        <ele>1820</ele>
        <time>2019-12-15T09:32:30.000Z</time>
      </trkpt>
      <trkpt lat="45.14841" lon="5.63752">
        <ele>1819.5999755859</ele>
        <time>2019-12-15T09:32:31.000Z</time>
      </trkpt>
      <trkpt lat="45.14837" lon="5.63755">
        <ele>1818.4000244141</ele>
        <time>2019-12-15T09:32:33.000Z</time>
      </trkpt>
      <trkpt lat="45.14836" lon="5.63752">
        <ele>1817.8000488281</ele>
        <time>2019-12-15T09:32:34.000Z</time>
      </trkpt>
      <trkpt lat="45.14835" lon="5.63749">
        <ele>1817</ele>
        <time>2019-12-15T09:32:35.000Z</time>
      </trkpt>
      <trkpt lat="45.14828" lon="5.63748">
        <ele>1815.4000244141</ele>
        <time>2019-12-15T09:32:37.000Z</time>
      </trkpt>
      <trkpt lat="45.14823" lon="5.63748">
        <ele>1814.4000244141</ele>
        <time>2019-12-15T09:32:39.000Z</time>
      </trkpt>
      <trkpt lat="45.1482" lon="5.63748">
        <ele>1813.5999755859</ele>
        <time>2019-12-15T09:32:41.000Z</time>
      </trkpt>
      <trkpt lat="45.14818" lon="5.63747">
        <ele>1813</ele>
        <time>2019-12-15T09:32:42.000Z</time>
      </trkpt>
      <trkpt lat="45.14814" lon="5.63743">
        <ele>1811.8000488281</ele>
        <time>2019-12-15T09:32:44.000Z</time>
      </trkpt>
      <trkpt lat="45.14809" lon="5.63736">
        <ele>1810.8000488281</ele>
        <time>2019-12-15T09:32:47.000Z</time>
      </trkpt>
      <trkpt lat="45.14807" lon="5.63733">
        <ele>1810.5999755859</ele>
        <time>2019-12-15T09:32:48.000Z</time>
      </trkpt>
      <trkpt lat="45.14803" lon="5.63727">
        <ele>1810</ele>
        <time>2019-12-15T09:32:51.000Z</time>
      </trkpt>
      <trkpt lat="45.14803" lon="5.63723">
        <ele>1809.1999511719</ele>
        <time>2019-12-15T09:32:53.000Z</time>
      </trkpt>
      <trkpt lat="45.14803" lon="5.63722">
        <ele>1808.1999511719</ele>
        <time>2019-12-15T09:32:55.000Z</time>
      </trkpt>
      <trkpt lat="45.14803" lon="5.63722">
        <ele>1807.1999511719</ele>
        <time>2019-12-15T09:33:03.000Z</time>
      </trkpt>
      <trkpt lat="45.14803" lon="5.63722">
        <ele>1807.1999511719</ele>
        <time>2019-12-15T09:33:05.000Z</time>
      </trkpt>
      <trkpt lat="45.14803" lon="5.63722">
        <ele>1807</ele>
        <time>2019-12-15T09:33:22.000Z</time>
      </trkpt>
      <trkpt lat="45.14803" lon="5.63722">
        <ele>1807.1999511719</ele>
        <time>2019-12-15T09:33:30.000Z</time>
      </trkpt>
      <trkpt lat="45.14803" lon="5.63722">
        <ele>1807.1999511719</ele>
        <time>2019-12-15T09:33:45.000Z</time>
      </trkpt>
      <trkpt lat="45.14803" lon="5.63721">
        <ele>1807.4000244141</ele>
        <time>2019-12-15T09:33:51.000Z</time>
      </trkpt>
      <trkpt lat="45.14804" lon="5.63715">
        <ele>1807.1999511719</ele>
        <time>2019-12-15T09:33:53.000Z</time>
      </trkpt>
      <trkpt lat="45.14808" lon="5.63707">
        <ele>1807</ele>
        <time>2019-12-15T09:33:55.000Z</time>
      </trkpt>
      <trkpt lat="45.1481" lon="5.63704">
        <ele>1806.5999755859</ele>
        <time>2019-12-15T09:33:56.000Z</time>
      </trkpt>
      <trkpt lat="45.14813" lon="5.63701">
        <ele>1806.1999511719</ele>
        <time>2019-12-15T09:33:57.000Z</time>
      </trkpt>
      <trkpt lat="45.14815" lon="5.63699">
        <ele>1805.4000244141</ele>
        <time>2019-12-15T09:33:59.000Z</time>
      </trkpt>
      <trkpt lat="45.14815" lon="5.63699">
        <ele>1805.1999511719</ele>
        <time>2019-12-15T09:34:00.000Z</time>
      </trkpt>
      <trkpt lat="45.14815" lon="5.63699">
        <ele>1804.1999511719</ele>
        <time>2019-12-15T09:34:03.000Z</time>
      </trkpt>
      <trkpt lat="45.14816" lon="5.63695">
        <ele>1803.1999511719</ele>
        <time>2019-12-15T09:34:08.000Z</time>
      </trkpt>
      <trkpt lat="45.14817" lon="5.63692">
        <ele>1803.1999511719</ele>
        <time>2019-12-15T09:34:09.000Z</time>
      </trkpt>
      <trkpt lat="45.14823" lon="5.63686">
        <ele>1802.5999755859</ele>
        <time>2019-12-15T09:34:12.000Z</time>
      </trkpt>
      <trkpt lat="45.14824" lon="5.63682">
        <ele>1801.8000488281</ele>
        <time>2019-12-15T09:34:14.000Z</time>
      </trkpt>
      <trkpt lat="45.14826" lon="5.6368">
        <ele>1801</ele>
        <time>2019-12-15T09:34:16.000Z</time>
      </trkpt>
      <trkpt lat="45.1483" lon="5.63672">
        <ele>1800.5999755859</ele>
        <time>2019-12-15T09:34:18.000Z</time>
      </trkpt>
      <trkpt lat="45.14832" lon="5.63669">
        <ele>1800.4000244141</ele>
        <time>2019-12-15T09:34:19.000Z</time>
      </trkpt>
      <trkpt lat="45.14836" lon="5.63665">
        <ele>1799.5999755859</ele>
        <time>2019-12-15T09:34:20.000Z</time>
      </trkpt>
      <trkpt lat="45.1484" lon="5.63661">
        <ele>1798.8000488281</ele>
        <time>2019-12-15T09:34:21.000Z</time>
      </trkpt>
      <trkpt lat="45.14845" lon="5.63658">
        <ele>1797.8000488281</ele>
        <time>2019-12-15T09:34:22.000Z</time>
      </trkpt>
      <trkpt lat="45.1485" lon="5.63656">
        <ele>1797</ele>
        <time>2019-12-15T09:34:23.000Z</time>
      </trkpt>
      <trkpt lat="45.14855" lon="5.63655">
        <ele>1796.1999511719</ele>
        <time>2019-12-15T09:34:24.000Z</time>
      </trkpt>
      <trkpt lat="45.14863" lon="5.63649">
        <ele>1794.8000488281</ele>
        <time>2019-12-15T09:34:26.000Z</time>
      </trkpt>
      <trkpt lat="45.14868" lon="5.63646">
        <ele>1794.1999511719</ele>
        <time>2019-12-15T09:34:27.000Z</time>
      </trkpt>
      <trkpt lat="45.14871" lon="5.63646">
        <ele>1793.5999755859</ele>
        <time>2019-12-15T09:34:28.000Z</time>
      </trkpt>
      <trkpt lat="45.14878" lon="5.63643">
        <ele>1792.1999511719</ele>
        <time>2019-12-15T09:34:30.000Z</time>
      </trkpt>
      <trkpt lat="45.14882" lon="5.63641">
        <ele>1791.5999755859</ele>
        <time>2019-12-15T09:34:31.000Z</time>
      </trkpt>
      <trkpt lat="45.14886" lon="5.6364">
        <ele>1791</ele>
        <time>2019-12-15T09:34:32.000Z</time>
      </trkpt>
      <trkpt lat="45.14892" lon="5.63638">
        <ele>1789.8000488281</ele>
        <time>2019-12-15T09:34:34.000Z</time>
      </trkpt>
      <trkpt lat="45.14897" lon="5.63632">
        <ele>1788.5999755859</ele>
        <time>2019-12-15T09:34:36.000Z</time>
      </trkpt>
      <trkpt lat="45.14904" lon="5.63624">
        <ele>1787.8000488281</ele>
        <time>2019-12-15T09:34:38.000Z</time>
      </trkpt>
      <trkpt lat="45.14909" lon="5.6362">
        <ele>1787.4000244141</ele>
        <time>2019-12-15T09:34:39.000Z</time>
      </trkpt>
      <trkpt lat="45.14917" lon="5.63617">
        <ele>1785.8000488281</ele>
        <time>2019-12-15T09:34:41.000Z</time>
      </trkpt>
      <trkpt lat="45.14923" lon="5.63615">
        <ele>1784</ele>
        <time>2019-12-15T09:34:43.000Z</time>
      </trkpt>
      <trkpt lat="45.14923" lon="5.63614">
        <ele>1783</ele>
        <time>2019-12-15T09:34:44.000Z</time>
      </trkpt>
      <trkpt lat="45.14924" lon="5.63614">
        <ele>1782.8000488281</ele>
        <time>2019-12-15T09:34:45.000Z</time>
      </trkpt>
      <trkpt lat="45.14922" lon="5.63615">
        <ele>1782.5999755859</ele>
        <time>2019-12-15T09:34:47.000Z</time>
      </trkpt>
      <trkpt lat="45.14924" lon="5.63611">
        <ele>1782.5999755859</ele>
        <time>2019-12-15T09:34:48.000Z</time>
      </trkpt>
      <trkpt lat="45.1493" lon="5.63608">
        <ele>1782</ele>
        <time>2019-12-15T09:34:51.000Z</time>
      </trkpt>
      <trkpt lat="45.14931" lon="5.63607">
        <ele>1781.4000244141</ele>
        <time>2019-12-15T09:34:52.000Z</time>
      </trkpt>
      <trkpt lat="45.14935" lon="5.636">
        <ele>1780.1999511719</ele>
        <time>2019-12-15T09:34:54.000Z</time>
      </trkpt>
      <trkpt lat="45.14937" lon="5.63599">
        <ele>1779</ele>
        <time>2019-12-15T09:34:56.000Z</time>
      </trkpt>
      <trkpt lat="45.14937" lon="5.63599">
        <ele>1778.4000244141</ele>
        <time>2019-12-15T09:34:57.000Z</time>
      </trkpt>
      <trkpt lat="45.14937" lon="5.63599">
        <ele>1777.8000488281</ele>
        <time>2019-12-15T09:34:58.000Z</time>
      </trkpt>
      <trkpt lat="45.14937" lon="5.63599">
        <ele>1776.5999755859</ele>
        <time>2019-12-15T09:35:00.000Z</time>
      </trkpt>
      <trkpt lat="45.14937" lon="5.63598">
        <ele>1775.5999755859</ele>
        <time>2019-12-15T09:35:03.000Z</time>
      </trkpt>
      <trkpt lat="45.1494" lon="5.63594">
        <ele>1775.4000244141</ele>
        <time>2019-12-15T09:35:04.000Z</time>
      </trkpt>
      <trkpt lat="45.14943" lon="5.63591">
        <ele>1775.1999511719</ele>
        <time>2019-12-15T09:35:05.000Z</time>
      </trkpt>
      <trkpt lat="45.14945" lon="5.63589">
        <ele>1773.5999755859</ele>
        <time>2019-12-15T09:35:08.000Z</time>
      </trkpt>
      <trkpt lat="45.14951" lon="5.63582">
        <ele>1772.5999755859</ele>
        <time>2019-12-15T09:35:10.000Z</time>
      </trkpt>
      <trkpt lat="45.14954" lon="5.63579">
        <ele>1772.1999511719</ele>
        <time>2019-12-15T09:35:11.000Z</time>
      </trkpt>
      <trkpt lat="45.14955" lon="5.6358">
        <ele>1771</ele>
        <time>2019-12-15T09:35:13.000Z</time>
      </trkpt>
      <trkpt lat="45.14955" lon="5.6358">
        <ele>1770</ele>
        <time>2019-12-15T09:35:15.000Z</time>
      </trkpt>
      <trkpt lat="45.14954" lon="5.63577">
        <ele>1769.4000244141</ele>
        <time>2019-12-15T09:35:16.000Z</time>
      </trkpt>
      <trkpt lat="45.14952" lon="5.63577">
        <ele>1769</ele>
        <time>2019-12-15T09:35:17.000Z</time>
      </trkpt>
      <trkpt lat="45.14951" lon="5.63577">
        <ele>1768.8000488281</ele>
        <time>2019-12-15T09:35:18.000Z</time>
      </trkpt>
      <trkpt lat="45.1495" lon="5.63576">
        <ele>1768.5999755859</ele>
        <time>2019-12-15T09:35:19.000Z</time>
      </trkpt>
      <trkpt lat="45.14951" lon="5.63573">
        <ele>1768.4000244141</ele>
        <time>2019-12-15T09:35:20.000Z</time>
      </trkpt>
      <trkpt lat="45.14956" lon="5.63567">
        <ele>1767.4000244141</ele>
        <time>2019-12-15T09:35:22.000Z</time>
      </trkpt>
      <trkpt lat="45.14958" lon="5.63565">
        <ele>1766.4000244141</ele>
        <time>2019-12-15T09:35:23.000Z</time>
      </trkpt>
      <trkpt lat="45.1496" lon="5.63564">
        <ele>1765.5999755859</ele>
        <time>2019-12-15T09:35:24.000Z</time>
      </trkpt>
      <trkpt lat="45.14963" lon="5.63564">
        <ele>1764.4000244141</ele>
        <time>2019-12-15T09:35:27.000Z</time>
      </trkpt>
      <trkpt lat="45.14961" lon="5.6356">
        <ele>1763.4000244141</ele>
        <time>2019-12-15T09:35:30.000Z</time>
      </trkpt>
      <trkpt lat="45.14961" lon="5.63558">
        <ele>1763.1999511719</ele>
        <time>2019-12-15T09:35:31.000Z</time>
      </trkpt>
      <trkpt lat="45.14963" lon="5.63556">
        <ele>1762.1999511719</ele>
        <time>2019-12-15T09:35:33.000Z</time>
      </trkpt>
      <trkpt lat="45.14965" lon="5.63555">
        <ele>1760.8000488281</ele>
        <time>2019-12-15T09:35:35.000Z</time>
      </trkpt>
      <trkpt lat="45.14968" lon="5.63556">
        <ele>1759.8000488281</ele>
        <time>2019-12-15T09:35:38.000Z</time>
      </trkpt>
      <trkpt lat="45.14969" lon="5.63549">
        <ele>1759</ele>
        <time>2019-12-15T09:35:42.000Z</time>
      </trkpt>
      <trkpt lat="45.14974" lon="5.63545">
        <ele>1758.5999755859</ele>
        <time>2019-12-15T09:35:44.000Z</time>
      </trkpt>
      <trkpt lat="45.14975" lon="5.63543">
        <ele>1758.1999511719</ele>
        <time>2019-12-15T09:35:45.000Z</time>
      </trkpt>
      <trkpt lat="45.14977" lon="5.63541">
        <ele>1757.5999755859</ele>
        <time>2019-12-15T09:35:46.000Z</time>
      </trkpt>
      <trkpt lat="45.1498" lon="5.63539">
        <ele>1757</ele>
        <time>2019-12-15T09:35:47.000Z</time>
      </trkpt>
      <trkpt lat="45.14983" lon="5.63537">
        <ele>1756.4000244141</ele>
        <time>2019-12-15T09:35:48.000Z</time>
      </trkpt>
      <trkpt lat="45.14986" lon="5.63537">
        <ele>1756</ele>
        <time>2019-12-15T09:35:49.000Z</time>
      </trkpt>
      <trkpt lat="45.14987" lon="5.63537">
        <ele>1755.5999755859</ele>
        <time>2019-12-15T09:35:50.000Z</time>
      </trkpt>
      <trkpt lat="45.14988" lon="5.63538">
        <ele>1755</ele>
        <time>2019-12-15T09:35:51.000Z</time>
      </trkpt>
      <trkpt lat="45.14988" lon="5.63538">
        <ele>1754.5999755859</ele>
        <time>2019-12-15T09:35:52.000Z</time>
      </trkpt>
      <trkpt lat="45.14989" lon="5.63539">
        <ele>1753.8000488281</ele>
        <time>2019-12-15T09:35:54.000Z</time>
      </trkpt>
      <trkpt lat="45.14991" lon="5.63537">
        <ele>1753.1999511719</ele>
        <time>2019-12-15T09:35:56.000Z</time>
      </trkpt>
      <trkpt lat="45.14993" lon="5.63534">
        <ele>1753</ele>
        <time>2019-12-15T09:35:57.000Z</time>
      </trkpt>
      <trkpt lat="45.15" lon="5.63533">
        <ele>1752.5999755859</ele>
        <time>2019-12-15T09:35:59.000Z</time>
      </trkpt>
      <trkpt lat="45.15002" lon="5.63533">
        <ele>1752.4000244141</ele>
        <time>2019-12-15T09:36:01.000Z</time>
      </trkpt>
      <trkpt lat="45.15003" lon="5.63534">
        <ele>1751.5999755859</ele>
        <time>2019-12-15T09:36:04.000Z</time>
      </trkpt>
      <trkpt lat="45.15005" lon="5.63531">
        <ele>1751.1999511719</ele>
        <time>2019-12-15T09:36:08.000Z</time>
      </trkpt>
      <trkpt lat="45.15007" lon="5.63526">
        <ele>1751.1999511719</ele>
        <time>2019-12-15T09:36:09.000Z</time>
      </trkpt>
      <trkpt lat="45.15012" lon="5.63527">
        <ele>1750.8000488281</ele>
        <time>2019-12-15T09:36:11.000Z</time>
      </trkpt>
      <trkpt lat="45.15014" lon="5.63527">
        <ele>1750.5999755859</ele>
        <time>2019-12-15T09:36:12.000Z</time>
      </trkpt>
      <trkpt lat="45.15015" lon="5.63526">
        <ele>1750.1999511719</ele>
        <time>2019-12-15T09:36:13.000Z</time>
      </trkpt>
      <trkpt lat="45.15017" lon="5.63525">
        <ele>1749.5999755859</ele>
        <time>2019-12-15T09:36:14.000Z</time>
      </trkpt>
      <trkpt lat="45.15021" lon="5.63527">
        <ele>1749</ele>
        <time>2019-12-15T09:36:15.000Z</time>
      </trkpt>
      <trkpt lat="45.15022" lon="5.63528">
        <ele>1748</ele>
        <time>2019-12-15T09:36:17.000Z</time>
      </trkpt>
      <trkpt lat="45.15022" lon="5.63528">
        <ele>1747.4000244141</ele>
        <time>2019-12-15T09:36:18.000Z</time>
      </trkpt>
      <trkpt lat="45.15022" lon="5.63528">
        <ele>1746.5999755859</ele>
        <time>2019-12-15T09:36:19.000Z</time>
      </trkpt>
      <trkpt lat="45.15022" lon="5.63528">
        <ele>1745.4000244141</ele>
        <time>2019-12-15T09:36:20.000Z</time>
      </trkpt>
      <trkpt lat="45.15023" lon="5.63528">
        <ele>1745</ele>
        <time>2019-12-15T09:36:26.000Z</time>
      </trkpt>
      <trkpt lat="45.15023" lon="5.63528">
        <ele>1745.1999511719</ele>
        <time>2019-12-15T09:36:43.000Z</time>
      </trkpt>
      <trkpt lat="45.15023" lon="5.63528">
        <ele>1745.4000244141</ele>
        <time>2019-12-15T09:36:54.000Z</time>
      </trkpt>
      <trkpt lat="45.15024" lon="5.63529">
        <ele>1745.1999511719</ele>
        <time>2019-12-15T09:37:01.000Z</time>
      </trkpt>
      <trkpt lat="45.15024" lon="5.63529">
        <ele>1744.5999755859</ele>
        <time>2019-12-15T09:37:11.000Z</time>
      </trkpt>
      <trkpt lat="45.15024" lon="5.63529">
        <ele>1744.4000244141</ele>
        <time>2019-12-15T09:37:27.000Z</time>
      </trkpt>
      <trkpt lat="45.15024" lon="5.63529">
        <ele>1744.4000244141</ele>
        <time>2019-12-15T09:37:28.000Z</time>
      </trkpt>
      <trkpt lat="45.15025" lon="5.63528">
        <ele>1744.1999511719</ele>
        <time>2019-12-15T09:37:34.000Z</time>
      </trkpt>
      <trkpt lat="45.15029" lon="5.63524">
        <ele>1744</ele>
        <time>2019-12-15T09:37:38.000Z</time>
      </trkpt>
      <trkpt lat="45.15028" lon="5.63523">
        <ele>1743.1999511719</ele>
        <time>2019-12-15T09:37:41.000Z</time>
      </trkpt>
      <trkpt lat="45.15031" lon="5.6352">
        <ele>1742.8000488281</ele>
        <time>2019-12-15T09:37:43.000Z</time>
      </trkpt>
      <trkpt lat="45.15034" lon="5.63521">
        <ele>1742</ele>
        <time>2019-12-15T09:37:45.000Z</time>
      </trkpt>
      <trkpt lat="45.15037" lon="5.63517">
        <ele>1741.1999511719</ele>
        <time>2019-12-15T09:37:47.000Z</time>
      </trkpt>
      <trkpt lat="45.1504" lon="5.63515">
        <ele>1740.8000488281</ele>
        <time>2019-12-15T09:37:48.000Z</time>
      </trkpt>
      <trkpt lat="45.15041" lon="5.63516">
        <ele>1740.4000244141</ele>
        <time>2019-12-15T09:37:49.000Z</time>
      </trkpt>
      <trkpt lat="45.15046" lon="5.6351">
        <ele>1739.1999511719</ele>
        <time>2019-12-15T09:37:52.000Z</time>
      </trkpt>
      <trkpt lat="45.15051" lon="5.63506">
        <ele>1738.5999755859</ele>
        <time>2019-12-15T09:37:53.000Z</time>
      </trkpt>
      <trkpt lat="45.15054" lon="5.63504">
        <ele>1738.1999511719</ele>
        <time>2019-12-15T09:37:54.000Z</time>
      </trkpt>
      <trkpt lat="45.15061" lon="5.63496">
        <ele>1735.8000488281</ele>
        <time>2019-12-15T09:37:57.000Z</time>
      </trkpt>
      <trkpt lat="45.15065" lon="5.63492">
        <ele>1734.4000244141</ele>
        <time>2019-12-15T09:37:59.000Z</time>
      </trkpt>
      <trkpt lat="45.15072" lon="5.63487">
        <ele>1732.4000244141</ele>
        <time>2019-12-15T09:38:01.000Z</time>
      </trkpt>
      <trkpt lat="45.15081" lon="5.63481">
        <ele>1731.4000244141</ele>
        <time>2019-12-15T09:38:03.000Z</time>
      </trkpt>
      <trkpt lat="45.15091" lon="5.63474">
        <ele>1730.1999511719</ele>
        <time>2019-12-15T09:38:05.000Z</time>
      </trkpt>
      <trkpt lat="45.15096" lon="5.63476">
        <ele>1729.4000244141</ele>
        <time>2019-12-15T09:38:06.000Z</time>
      </trkpt>
      <trkpt lat="45.151" lon="5.63476">
        <ele>1728.5999755859</ele>
        <time>2019-12-15T09:38:07.000Z</time>
      </trkpt>
      <trkpt lat="45.15108" lon="5.63477">
        <ele>1727.1999511719</ele>
        <time>2019-12-15T09:38:09.000Z</time>
      </trkpt>
      <trkpt lat="45.15111" lon="5.63478">
        <ele>1726.4000244141</ele>
        <time>2019-12-15T09:38:10.000Z</time>
      </trkpt>
      <trkpt lat="45.15115" lon="5.63478">
        <ele>1725.5999755859</ele>
        <time>2019-12-15T09:38:11.000Z</time>
      </trkpt>
      <trkpt lat="45.15123" lon="5.63476">
        <ele>1724.1999511719</ele>
        <time>2019-12-15T09:38:13.000Z</time>
      </trkpt>
      <trkpt lat="45.15128" lon="5.63475">
        <ele>1723.8000488281</ele>
        <time>2019-12-15T09:38:14.000Z</time>
      </trkpt>
      <trkpt lat="45.15133" lon="5.63474">
        <ele>1723.4000244141</ele>
        <time>2019-12-15T09:38:15.000Z</time>
      </trkpt>
      <trkpt lat="45.15138" lon="5.63472">
        <ele>1722.5999755859</ele>
        <time>2019-12-15T09:38:16.000Z</time>
      </trkpt>
      <trkpt lat="45.15144" lon="5.63473">
        <ele>1722</ele>
        <time>2019-12-15T09:38:17.000Z</time>
      </trkpt>
      <trkpt lat="45.1515" lon="5.63471">
        <ele>1721.1999511719</ele>
        <time>2019-12-15T09:38:18.000Z</time>
      </trkpt>
      <trkpt lat="45.15155" lon="5.63471">
        <ele>1720.5999755859</ele>
        <time>2019-12-15T09:38:19.000Z</time>
      </trkpt>
      <trkpt lat="45.1516" lon="5.63473">
        <ele>1720</ele>
        <time>2019-12-15T09:38:20.000Z</time>
      </trkpt>
      <trkpt lat="45.15165" lon="5.63473">
        <ele>1718.1999511719</ele>
        <time>2019-12-15T09:38:21.000Z</time>
      </trkpt>
      <trkpt lat="45.15171" lon="5.63472">
        <ele>1717.4000244141</ele>
        <time>2019-12-15T09:38:22.000Z</time>
      </trkpt>
      <trkpt lat="45.15178" lon="5.63471">
        <ele>1716.5999755859</ele>
        <time>2019-12-15T09:38:23.000Z</time>
      </trkpt>
      <trkpt lat="45.15183" lon="5.63471">
        <ele>1716</ele>
        <time>2019-12-15T09:38:24.000Z</time>
      </trkpt>
      <trkpt lat="45.15189" lon="5.63474">
        <ele>1715.1999511719</ele>
        <time>2019-12-15T09:38:25.000Z</time>
      </trkpt>
      <trkpt lat="45.15194" lon="5.63476">
        <ele>1714.1999511719</ele>
        <time>2019-12-15T09:38:26.000Z</time>
      </trkpt>
      <trkpt lat="45.15199" lon="5.63479">
        <ele>1713</ele>
        <time>2019-12-15T09:38:27.000Z</time>
      </trkpt>
      <trkpt lat="45.15207" lon="5.63482">
        <ele>1712</ele>
        <time>2019-12-15T09:38:29.000Z</time>
      </trkpt>
      <trkpt lat="45.15211" lon="5.63485">
        <ele>1710.8000488281</ele>
        <time>2019-12-15T09:38:31.000Z</time>
      </trkpt>
      <trkpt lat="45.15219" lon="5.63486">
        <ele>1709.5999755859</ele>
        <time>2019-12-15T09:38:34.000Z</time>
      </trkpt>
      <trkpt lat="45.15223" lon="5.63486">
        <ele>1709.5999755859</ele>
        <time>2019-12-15T09:38:35.000Z</time>
      </trkpt>
      <trkpt lat="45.15236" lon="5.63491">
        <ele>1708.4000244141</ele>
        <time>2019-12-15T09:38:39.000Z</time>
      </trkpt>
      <trkpt lat="45.15244" lon="5.63494">
        <ele>1707</ele>
        <time>2019-12-15T09:38:42.000Z</time>
      </trkpt>
      <trkpt lat="45.15253" lon="5.635">
        <ele>1705.4000244141</ele>
        <time>2019-12-15T09:38:45.000Z</time>
      </trkpt>
      <trkpt lat="45.15261" lon="5.6351">
        <ele>1704.1999511719</ele>
        <time>2019-12-15T09:38:48.000Z</time>
      </trkpt>
      <trkpt lat="45.15268" lon="5.6352">
        <ele>1703.5999755859</ele>
        <time>2019-12-15T09:38:51.000Z</time>
      </trkpt>
      <trkpt lat="45.15272" lon="5.63527">
        <ele>1703</ele>
        <time>2019-12-15T09:38:53.000Z</time>
      </trkpt>
      <trkpt lat="45.15279" lon="5.63535">
        <ele>1701.8000488281</ele>
        <time>2019-12-15T09:38:56.000Z</time>
      </trkpt>
      <trkpt lat="45.15282" lon="5.63538">
        <ele>1700.8000488281</ele>
        <time>2019-12-15T09:39:01.000Z</time>
      </trkpt>
      <trkpt lat="45.15282" lon="5.63538">
        <ele>1700.5999755859</ele>
        <time>2019-12-15T09:39:12.000Z</time>
      </trkpt>
      <trkpt lat="45.15282" lon="5.63538">
        <ele>1700.5999755859</ele>
        <time>2019-12-15T09:39:24.000Z</time>
      </trkpt>
      <trkpt lat="45.15281" lon="5.63538">
        <ele>1700.5999755859</ele>
        <time>2019-12-15T09:39:36.000Z</time>
      </trkpt>
      <trkpt lat="45.15281" lon="5.63538">
        <ele>1700.5999755859</ele>
        <time>2019-12-15T09:39:44.000Z</time>
      </trkpt>
      <trkpt lat="45.15281" lon="5.63538">
        <ele>1700.8000488281</ele>
        <time>2019-12-15T09:40:00.000Z</time>
      </trkpt>
      <trkpt lat="45.15281" lon="5.63538">
        <ele>1700.4000244141</ele>
        <time>2019-12-15T09:40:14.000Z</time>
      </trkpt>
      <trkpt lat="45.15282" lon="5.63539">
        <ele>1700.4000244141</ele>
        <time>2019-12-15T09:40:26.000Z</time>
      </trkpt>
      <trkpt lat="45.15285" lon="5.63543">
        <ele>1700</ele>
        <time>2019-12-15T09:40:35.000Z</time>
      </trkpt>
      <trkpt lat="45.15287" lon="5.63545">
        <ele>1700.1999511719</ele>
        <time>2019-12-15T09:40:45.000Z</time>
      </trkpt>
      <trkpt lat="45.15289" lon="5.63547">
        <ele>1699.8000488281</ele>
        <time>2019-12-15T09:40:55.000Z</time>
      </trkpt>
      <trkpt lat="45.15297" lon="5.63555">
        <ele>1699.4000244141</ele>
        <time>2019-12-15T09:41:00.000Z</time>
      </trkpt>
      <trkpt lat="45.15301" lon="5.63559">
        <ele>1698.5999755859</ele>
        <time>2019-12-15T09:41:02.000Z</time>
      </trkpt>
      <trkpt lat="45.15307" lon="5.63559">
        <ele>1697.1999511719</ele>
        <time>2019-12-15T09:41:04.000Z</time>
      </trkpt>
      <trkpt lat="45.15307" lon="5.6356">
        <ele>1696.8000488281</ele>
        <time>2019-12-15T09:41:05.000Z</time>
      </trkpt>
      <trkpt lat="45.15308" lon="5.63558">
        <ele>1696.1999511719</ele>
        <time>2019-12-15T09:41:08.000Z</time>
      </trkpt>
      <trkpt lat="45.1531" lon="5.63558">
        <ele>1695.4000244141</ele>
        <time>2019-12-15T09:41:09.000Z</time>
      </trkpt>
      <trkpt lat="45.15314" lon="5.63553">
        <ele>1694.5999755859</ele>
        <time>2019-12-15T09:41:10.000Z</time>
      </trkpt>
      <trkpt lat="45.15315" lon="5.63547">
        <ele>1693.5999755859</ele>
        <time>2019-12-15T09:41:11.000Z</time>
      </trkpt>
      <trkpt lat="45.15313" lon="5.63546">
        <ele>1693</ele>
        <time>2019-12-15T09:41:12.000Z</time>
      </trkpt>
      <trkpt lat="45.15314" lon="5.63547">
        <ele>1692.5999755859</ele>
        <time>2019-12-15T09:41:13.000Z</time>
      </trkpt>
      <trkpt lat="45.15314" lon="5.63547">
        <ele>1691.1999511719</ele>
        <time>2019-12-15T09:41:15.000Z</time>
      </trkpt>
      <trkpt lat="45.15314" lon="5.63547">
        <ele>1690</ele>
        <time>2019-12-15T09:41:18.000Z</time>
      </trkpt>
      <trkpt lat="45.15314" lon="5.63547">
        <ele>1690</ele>
        <time>2019-12-15T09:41:19.000Z</time>
      </trkpt>
      <trkpt lat="45.15317" lon="5.63545">
        <ele>1689.8000488281</ele>
        <time>2019-12-15T09:41:22.000Z</time>
      </trkpt>
      <trkpt lat="45.15319" lon="5.63546">
        <ele>1689.5999755859</ele>
        <time>2019-12-15T09:41:23.000Z</time>
      </trkpt>
      <trkpt lat="45.15325" lon="5.63545">
        <ele>1688.8000488281</ele>
        <time>2019-12-15T09:41:25.000Z</time>
      </trkpt>
      <trkpt lat="45.15327" lon="5.63547">
        <ele>1688.1999511719</ele>
        <time>2019-12-15T09:41:27.000Z</time>
      </trkpt>
      <trkpt lat="45.15329" lon="5.63549">
        <ele>1687.8000488281</ele>
        <time>2019-12-15T09:41:30.000Z</time>
      </trkpt>
      <trkpt lat="45.15332" lon="5.63546">
        <ele>1687.4000244141</ele>
        <time>2019-12-15T09:41:31.000Z</time>
      </trkpt>
      <trkpt lat="45.15333" lon="5.63542">
        <ele>1687</ele>
        <time>2019-12-15T09:41:32.000Z</time>
      </trkpt>
      <trkpt lat="45.15333" lon="5.63539">
        <ele>1686</ele>
        <time>2019-12-15T09:41:33.000Z</time>
      </trkpt>
      <trkpt lat="45.15338" lon="5.63536">
        <ele>1685.1999511719</ele>
        <time>2019-12-15T09:41:35.000Z</time>
      </trkpt>
      <trkpt lat="45.15341" lon="5.63538">
        <ele>1684.5999755859</ele>
        <time>2019-12-15T09:41:36.000Z</time>
      </trkpt>
      <trkpt lat="45.15347" lon="5.63536">
        <ele>1683.4000244141</ele>
        <time>2019-12-15T09:41:38.000Z</time>
      </trkpt>
      <trkpt lat="45.1535" lon="5.63532">
        <ele>1683</ele>
        <time>2019-12-15T09:41:39.000Z</time>
      </trkpt>
      <trkpt lat="45.15352" lon="5.63528">
        <ele>1682.5999755859</ele>
        <time>2019-12-15T09:41:40.000Z</time>
      </trkpt>
      <trkpt lat="45.15356" lon="5.63524">
        <ele>1682.1999511719</ele>
        <time>2019-12-15T09:41:41.000Z</time>
      </trkpt>
      <trkpt lat="45.15364" lon="5.63521">
        <ele>1680.5999755859</ele>
        <time>2019-12-15T09:41:43.000Z</time>
      </trkpt>
      <trkpt lat="45.15369" lon="5.63521">
        <ele>1679.8000488281</ele>
        <time>2019-12-15T09:41:44.000Z</time>
      </trkpt>
      <trkpt lat="45.15374" lon="5.63519">
        <ele>1679.1999511719</ele>
        <time>2019-12-15T09:41:45.000Z</time>
      </trkpt>
      <trkpt lat="45.15373" lon="5.63511">
        <ele>1678</ele>
        <time>2019-12-15T09:41:47.000Z</time>
      </trkpt>
      <trkpt lat="45.15372" lon="5.63504">
        <ele>1676.4000244141</ele>
        <time>2019-12-15T09:41:49.000Z</time>
      </trkpt>
      <trkpt lat="45.15373" lon="5.635">
        <ele>1674.8000488281</ele>
        <time>2019-12-15T09:41:51.000Z</time>
      </trkpt>
      <trkpt lat="45.15379" lon="5.63498">
        <ele>1673.1999511719</ele>
        <time>2019-12-15T09:41:53.000Z</time>
      </trkpt>
      <trkpt lat="45.15383" lon="5.63497">
        <ele>1672.8000488281</ele>
        <time>2019-12-15T09:41:54.000Z</time>
      </trkpt>
      <trkpt lat="45.15387" lon="5.635">
        <ele>1672</ele>
        <time>2019-12-15T09:41:56.000Z</time>
      </trkpt>
      <trkpt lat="45.15389" lon="5.63501">
        <ele>1670.8000488281</ele>
        <time>2019-12-15T09:41:57.000Z</time>
      </trkpt>
      <trkpt lat="45.15391" lon="5.63501">
        <ele>1670.1999511719</ele>
        <time>2019-12-15T09:42:00.000Z</time>
      </trkpt>
      <trkpt lat="45.15396" lon="5.63497">
        <ele>1670</ele>
        <time>2019-12-15T09:42:02.000Z</time>
      </trkpt>
      <trkpt lat="45.15402" lon="5.63496">
        <ele>1669.8000488281</ele>
        <time>2019-12-15T09:42:04.000Z</time>
      </trkpt>
      <trkpt lat="45.15406" lon="5.63497">
        <ele>1669.5999755859</ele>
        <time>2019-12-15T09:42:05.000Z</time>
      </trkpt>
      <trkpt lat="45.15418" lon="5.63495">
        <ele>1668.5999755859</ele>
        <time>2019-12-15T09:42:08.000Z</time>
      </trkpt>
      <trkpt lat="45.15422" lon="5.63493">
        <ele>1668.1999511719</ele>
        <time>2019-12-15T09:42:09.000Z</time>
      </trkpt>
      <trkpt lat="45.15433" lon="5.63482">
        <ele>1667.1999511719</ele>
        <time>2019-12-15T09:42:12.000Z</time>
      </trkpt>
      <trkpt lat="45.15436" lon="5.63477">
        <ele>1666.8000488281</ele>
        <time>2019-12-15T09:42:13.000Z</time>
      </trkpt>
      <trkpt lat="45.15444" lon="5.63472">
        <ele>1665.5999755859</ele>
        <time>2019-12-15T09:42:15.000Z</time>
      </trkpt>
      <trkpt lat="45.15448" lon="5.63472">
        <ele>1665</ele>
        <time>2019-12-15T09:42:16.000Z</time>
      </trkpt>
      <trkpt lat="45.15451" lon="5.6347">
        <ele>1664.1999511719</ele>
        <time>2019-12-15T09:42:17.000Z</time>
      </trkpt>
      <trkpt lat="45.15457" lon="5.63464">
        <ele>1662.5999755859</ele>
        <time>2019-12-15T09:42:19.000Z</time>
      </trkpt>
      <trkpt lat="45.1546" lon="5.63465">
        <ele>1662</ele>
        <time>2019-12-15T09:42:20.000Z</time>
      </trkpt>
      <trkpt lat="45.15462" lon="5.63465">
        <ele>1661</ele>
        <time>2019-12-15T09:42:21.000Z</time>
      </trkpt>
      <trkpt lat="45.15462" lon="5.63466">
        <ele>1660</ele>
        <time>2019-12-15T09:42:23.000Z</time>
      </trkpt>
      <trkpt lat="45.15462" lon="5.63466">
        <ele>1659.5999755859</ele>
        <time>2019-12-15T09:42:24.000Z</time>
      </trkpt>
      <trkpt lat="45.15464" lon="5.63466">
        <ele>1659</ele>
        <time>2019-12-15T09:42:28.000Z</time>
      </trkpt>
      <trkpt lat="45.15466" lon="5.63465">
        <ele>1658.8000488281</ele>
        <time>2019-12-15T09:42:29.000Z</time>
      </trkpt>
      <trkpt lat="45.15469" lon="5.63465">
        <ele>1658.5999755859</ele>
        <time>2019-12-15T09:42:30.000Z</time>
      </trkpt>
      <trkpt lat="45.15479" lon="5.63458">
        <ele>1657.8000488281</ele>
        <time>2019-12-15T09:42:33.000Z</time>
      </trkpt>
      <trkpt lat="45.15485" lon="5.63458">
        <ele>1656.4000244141</ele>
        <time>2019-12-15T09:42:36.000Z</time>
      </trkpt>
      <trkpt lat="45.15495" lon="5.63457">
        <ele>1655</ele>
        <time>2019-12-15T09:42:39.000Z</time>
      </trkpt>
      <trkpt lat="45.15499" lon="5.63457">
        <ele>1654</ele>
        <time>2019-12-15T09:42:40.000Z</time>
      </trkpt>
      <trkpt lat="45.15503" lon="5.6346">
        <ele>1653.1999511719</ele>
        <time>2019-12-15T09:42:41.000Z</time>
      </trkpt>
      <trkpt lat="45.15508" lon="5.63462">
        <ele>1652</ele>
        <time>2019-12-15T09:42:43.000Z</time>
      </trkpt>
      <trkpt lat="45.15508" lon="5.63462">
        <ele>1651.1999511719</ele>
        <time>2019-12-15T09:42:44.000Z</time>
      </trkpt>
      <trkpt lat="45.15508" lon="5.63462">
        <ele>1650</ele>
        <time>2019-12-15T09:42:45.000Z</time>
      </trkpt>
      <trkpt lat="45.15508" lon="5.63462">
        <ele>1649</ele>
        <time>2019-12-15T09:42:47.000Z</time>
      </trkpt>
      <trkpt lat="45.15508" lon="5.63463">
        <ele>1648.5999755859</ele>
        <time>2019-12-15T09:42:48.000Z</time>
      </trkpt>
      <trkpt lat="45.1551" lon="5.6346">
        <ele>1648.4000244141</ele>
        <time>2019-12-15T09:42:50.000Z</time>
      </trkpt>
      <trkpt lat="45.15515" lon="5.63457">
        <ele>1648.1999511719</ele>
        <time>2019-12-15T09:42:52.000Z</time>
      </trkpt>
      <trkpt lat="45.1553" lon="5.63454">
        <ele>1647.5999755859</ele>
        <time>2019-12-15T09:42:55.000Z</time>
      </trkpt>
      <trkpt lat="45.15536" lon="5.63453">
        <ele>1647</ele>
        <time>2019-12-15T09:42:56.000Z</time>
      </trkpt>
      <trkpt lat="45.1554" lon="5.63453">
        <ele>1646.4000244141</ele>
        <time>2019-12-15T09:42:57.000Z</time>
      </trkpt>
      <trkpt lat="45.15546" lon="5.63456">
        <ele>1644.8000488281</ele>
        <time>2019-12-15T09:42:59.000Z</time>
      </trkpt>
      <trkpt lat="45.15546" lon="5.63457">
        <ele>1644</ele>
        <time>2019-12-15T09:43:00.000Z</time>
      </trkpt>
      <trkpt lat="45.15546" lon="5.63457">
        <ele>1643.4000244141</ele>
        <time>2019-12-15T09:43:01.000Z</time>
      </trkpt>
      <trkpt lat="45.15546" lon="5.63457">
        <ele>1643.1999511719</ele>
        <time>2019-12-15T09:43:05.000Z</time>
      </trkpt>
      <trkpt lat="45.15546" lon="5.63457">
        <ele>1642.4000244141</ele>
        <time>2019-12-15T09:43:12.000Z</time>
      </trkpt>
      <trkpt lat="45.15546" lon="5.63457">
        <ele>1642.4000244141</ele>
        <time>2019-12-15T09:43:16.000Z</time>
      </trkpt>
      <trkpt lat="45.15549" lon="5.63457">
        <ele>1642.4000244141</ele>
        <time>2019-12-15T09:43:27.000Z</time>
      </trkpt>
      <trkpt lat="45.15549" lon="5.63458">
        <ele>1642</ele>
        <time>2019-12-15T09:43:32.000Z</time>
      </trkpt>
      <trkpt lat="45.15552" lon="5.63461">
        <ele>1641.4000244141</ele>
        <time>2019-12-15T09:43:36.000Z</time>
      </trkpt>
      <trkpt lat="45.15552" lon="5.63461">
        <ele>1641.4000244141</ele>
        <time>2019-12-15T09:43:37.000Z</time>
      </trkpt>
      <trkpt lat="45.15554" lon="5.63461">
        <ele>1641.1999511719</ele>
        <time>2019-12-15T09:43:40.000Z</time>
      </trkpt>
      <trkpt lat="45.15561" lon="5.63459">
        <ele>1641.1999511719</ele>
        <time>2019-12-15T09:43:42.000Z</time>
      </trkpt>
      <trkpt lat="45.1557" lon="5.63454">
        <ele>1640.1999511719</ele>
        <time>2019-12-15T09:43:45.000Z</time>
      </trkpt>
      <trkpt lat="45.15586" lon="5.63452">
        <ele>1638.8000488281</ele>
        <time>2019-12-15T09:43:48.000Z</time>
      </trkpt>
      <trkpt lat="45.15591" lon="5.63453">
        <ele>1638</ele>
        <time>2019-12-15T09:43:49.000Z</time>
      </trkpt>
      <trkpt lat="45.15597" lon="5.63453">
        <ele>1637.1999511719</ele>
        <time>2019-12-15T09:43:50.000Z</time>
      </trkpt>
      <trkpt lat="45.15602" lon="5.63455">
        <ele>1636.1999511719</ele>
        <time>2019-12-15T09:43:51.000Z</time>
      </trkpt>
      <trkpt lat="45.15614" lon="5.63458">
        <ele>1634.1999511719</ele>
        <time>2019-12-15T09:43:53.000Z</time>
      </trkpt>
      <trkpt lat="45.15618" lon="5.63462">
        <ele>1633.1999511719</ele>
        <time>2019-12-15T09:43:54.000Z</time>
      </trkpt>
      <trkpt lat="45.15622" lon="5.63466">
        <ele>1632.4000244141</ele>
        <time>2019-12-15T09:43:55.000Z</time>
      </trkpt>
      <trkpt lat="45.15631" lon="5.63473">
        <ele>1629.5999755859</ele>
        <time>2019-12-15T09:43:57.000Z</time>
      </trkpt>
      <trkpt lat="45.15639" lon="5.63482">
        <ele>1628.1999511719</ele>
        <time>2019-12-15T09:43:59.000Z</time>
      </trkpt>
      <trkpt lat="45.15642" lon="5.63489">
        <ele>1627.4000244141</ele>
        <time>2019-12-15T09:44:00.000Z</time>
      </trkpt>
      <trkpt lat="45.15643" lon="5.63495">
        <ele>1626.8000488281</ele>
        <time>2019-12-15T09:44:01.000Z</time>
      </trkpt>
      <trkpt lat="45.15642" lon="5.63495">
        <ele>1626</ele>
        <time>2019-12-15T09:44:02.000Z</time>
      </trkpt>
      <trkpt lat="45.15643" lon="5.63496">
        <ele>1625.1999511719</ele>
        <time>2019-12-15T09:44:03.000Z</time>
      </trkpt>
      <trkpt lat="45.15643" lon="5.63495">
        <ele>1623.8000488281</ele>
        <time>2019-12-15T09:44:05.000Z</time>
      </trkpt>
      <trkpt lat="45.15643" lon="5.63495">
        <ele>1623</ele>
        <time>2019-12-15T09:44:07.000Z</time>
      </trkpt>
      <trkpt lat="45.15642" lon="5.63495">
        <ele>1622.5999755859</ele>
        <time>2019-12-15T09:44:08.000Z</time>
      </trkpt>
      <trkpt lat="45.15642" lon="5.63497">
        <ele>1621.5999755859</ele>
        <time>2019-12-15T09:44:14.000Z</time>
      </trkpt>
      <trkpt lat="45.15642" lon="5.63497">
        <ele>1621.8000488281</ele>
        <time>2019-12-15T09:44:21.000Z</time>
      </trkpt>
      <trkpt lat="45.15642" lon="5.63496">
        <ele>1621.5999755859</ele>
        <time>2019-12-15T09:44:24.000Z</time>
      </trkpt>
      <trkpt lat="45.15641" lon="5.63493">
        <ele>1621.4000244141</ele>
        <time>2019-12-15T09:44:26.000Z</time>
      </trkpt>
      <trkpt lat="45.1564" lon="5.6349">
        <ele>1622.1999511719</ele>
        <time>2019-12-15T09:44:31.000Z</time>
      </trkpt>
      <trkpt lat="45.15639" lon="5.63488">
        <ele>1622.4000244141</ele>
        <time>2019-12-15T09:44:32.000Z</time>
      </trkpt>
      <trkpt lat="45.15639" lon="5.63488">
        <ele>1622.5999755859</ele>
        <time>2019-12-15T09:44:35.000Z</time>
      </trkpt>
      <trkpt lat="45.15639" lon="5.63488">
        <ele>1622.5999755859</ele>
        <time>2019-12-15T09:44:36.000Z</time>
      </trkpt>
      <trkpt lat="45.15639" lon="5.63488">
        <ele>1622.4000244141</ele>
        <time>2019-12-15T09:44:47.000Z</time>
      </trkpt>
      <trkpt lat="45.1564" lon="5.6349">
        <ele>1622.5999755859</ele>
        <time>2019-12-15T09:44:56.000Z</time>
      </trkpt>
      <trkpt lat="45.15641" lon="5.63493">
        <ele>1622.8000488281</ele>
        <time>2019-12-15T09:44:57.000Z</time>
      </trkpt>
      <trkpt lat="45.15639" lon="5.63506">
        <ele>1622.4000244141</ele>
        <time>2019-12-15T09:45:01.000Z</time>
      </trkpt>
      <trkpt lat="45.15639" lon="5.63506">
        <ele>1621.5999755859</ele>
        <time>2019-12-15T09:45:04.000Z</time>
      </trkpt>
      <trkpt lat="45.15639" lon="5.63506">
        <ele>1620.4000244141</ele>
        <time>2019-12-15T09:45:08.000Z</time>
      </trkpt>
      <trkpt lat="45.15637" lon="5.63508">
        <ele>1620</ele>
        <time>2019-12-15T09:45:09.000Z</time>
      </trkpt>
      <trkpt lat="45.15634" lon="5.6351">
        <ele>1620</ele>
        <time>2019-12-15T09:45:10.000Z</time>
      </trkpt>
      <trkpt lat="45.15618" lon="5.63513">
        <ele>1619.1999511719</ele>
        <time>2019-12-15T09:45:14.000Z</time>
      </trkpt>
      <trkpt lat="45.15602" lon="5.63517">
        <ele>1618</ele>
        <time>2019-12-15T09:45:17.000Z</time>
      </trkpt>
      <trkpt lat="45.15597" lon="5.63519">
        <ele>1617.1999511719</ele>
        <time>2019-12-15T09:45:18.000Z</time>
      </trkpt>
      <trkpt lat="45.15592" lon="5.6352">
        <ele>1616</ele>
        <time>2019-12-15T09:45:19.000Z</time>
      </trkpt>
      <trkpt lat="45.15587" lon="5.63523">
        <ele>1615</ele>
        <time>2019-12-15T09:45:20.000Z</time>
      </trkpt>
      <trkpt lat="45.15582" lon="5.63525">
        <ele>1614</ele>
        <time>2019-12-15T09:45:21.000Z</time>
      </trkpt>
      <trkpt lat="45.15578" lon="5.63528">
        <ele>1612.8000488281</ele>
        <time>2019-12-15T09:45:22.000Z</time>
      </trkpt>
      <trkpt lat="45.15573" lon="5.63533">
        <ele>1611.8000488281</ele>
        <time>2019-12-15T09:45:23.000Z</time>
      </trkpt>
      <trkpt lat="45.15571" lon="5.63533">
        <ele>1610.8000488281</ele>
        <time>2019-12-15T09:45:24.000Z</time>
      </trkpt>
      <trkpt lat="45.15568" lon="5.63542">
        <ele>1608.8000488281</ele>
        <time>2019-12-15T09:45:26.000Z</time>
      </trkpt>
      <trkpt lat="45.15569" lon="5.63549">
        <ele>1607.4000244141</ele>
        <time>2019-12-15T09:45:27.000Z</time>
      </trkpt>
      <trkpt lat="45.15573" lon="5.63551">
        <ele>1606</ele>
        <time>2019-12-15T09:45:28.000Z</time>
      </trkpt>
      <trkpt lat="45.15577" lon="5.63557">
        <ele>1605</ele>
        <time>2019-12-15T09:45:29.000Z</time>
      </trkpt>
      <trkpt lat="45.15581" lon="5.63563">
        <ele>1604.1999511719</ele>
        <time>2019-12-15T09:45:30.000Z</time>
      </trkpt>
      <trkpt lat="45.15586" lon="5.63569">
        <ele>1603.1999511719</ele>
        <time>2019-12-15T09:45:31.000Z</time>
      </trkpt>
      <trkpt lat="45.15591" lon="5.63575">
        <ele>1602</ele>
        <time>2019-12-15T09:45:32.000Z</time>
      </trkpt>
      <trkpt lat="45.15593" lon="5.63579">
        <ele>1600</ele>
        <time>2019-12-15T09:45:33.000Z</time>
      </trkpt>
      <trkpt lat="45.15595" lon="5.63582">
        <ele>1599.1999511719</ele>
        <time>2019-12-15T09:45:34.000Z</time>
      </trkpt>
      <trkpt lat="45.15596" lon="5.63584">
        <ele>1598.4000244141</ele>
        <time>2019-12-15T09:45:35.000Z</time>
      </trkpt>
      <trkpt lat="45.15598" lon="5.63585">
        <ele>1597</ele>
        <time>2019-12-15T09:45:37.000Z</time>
      </trkpt>
      <trkpt lat="45.15598" lon="5.63585">
        <ele>1596.5999755859</ele>
        <time>2019-12-15T09:45:38.000Z</time>
      </trkpt>
      <trkpt lat="45.15598" lon="5.63585">
        <ele>1596</ele>
        <time>2019-12-15T09:45:40.000Z</time>
      </trkpt>
      <trkpt lat="45.15598" lon="5.63585">
        <ele>1595.5999755859</ele>
        <time>2019-12-15T09:45:49.000Z</time>
      </trkpt>
      <trkpt lat="45.15598" lon="5.63586">
        <ele>1595.8000488281</ele>
        <time>2019-12-15T09:45:57.000Z</time>
      </trkpt>
      <trkpt lat="45.15598" lon="5.63586">
        <ele>1595.1999511719</ele>
        <time>2019-12-15T09:46:04.000Z</time>
      </trkpt>
      <trkpt lat="45.15598" lon="5.6359">
        <ele>1595</ele>
        <time>2019-12-15T09:46:07.000Z</time>
      </trkpt>
      <trkpt lat="45.15598" lon="5.63593">
        <ele>1594.8000488281</ele>
        <time>2019-12-15T09:46:08.000Z</time>
      </trkpt>
      <trkpt lat="45.15598" lon="5.63599">
        <ele>1594.1999511719</ele>
        <time>2019-12-15T09:46:10.000Z</time>
      </trkpt>
      <trkpt lat="45.15598" lon="5.63607">
        <ele>1593.8000488281</ele>
        <time>2019-12-15T09:46:12.000Z</time>
      </trkpt>
      <trkpt lat="45.15598" lon="5.63613">
        <ele>1593.4000244141</ele>
        <time>2019-12-15T09:46:14.000Z</time>
      </trkpt>
      <trkpt lat="45.15599" lon="5.63617">
        <ele>1593.1999511719</ele>
        <time>2019-12-15T09:46:15.000Z</time>
      </trkpt>
      <trkpt lat="45.15601" lon="5.63621">
        <ele>1592.8000488281</ele>
        <time>2019-12-15T09:46:16.000Z</time>
      </trkpt>
      <trkpt lat="45.15602" lon="5.63625">
        <ele>1592.4000244141</ele>
        <time>2019-12-15T09:46:17.000Z</time>
      </trkpt>
      <trkpt lat="45.15606" lon="5.63635">
        <ele>1591.4000244141</ele>
        <time>2019-12-15T09:46:19.000Z</time>
      </trkpt>
      <trkpt lat="45.15607" lon="5.6364">
        <ele>1590.8000488281</ele>
        <time>2019-12-15T09:46:20.000Z</time>
      </trkpt>
      <trkpt lat="45.15608" lon="5.6364">
        <ele>1589.4000244141</ele>
        <time>2019-12-15T09:46:21.000Z</time>
      </trkpt>
      <trkpt lat="45.15608" lon="5.6364">
        <ele>1588.4000244141</ele>
        <time>2019-12-15T09:46:23.000Z</time>
      </trkpt>
      <trkpt lat="45.1561" lon="5.63642">
        <ele>1588</ele>
        <time>2019-12-15T09:46:24.000Z</time>
      </trkpt>
      <trkpt lat="45.15617" lon="5.63653">
        <ele>1587.1999511719</ele>
        <time>2019-12-15T09:46:27.000Z</time>
      </trkpt>
      <trkpt lat="45.15618" lon="5.63654">
        <ele>1586.8000488281</ele>
        <time>2019-12-15T09:46:28.000Z</time>
      </trkpt>
      <trkpt lat="45.15619" lon="5.63653">
        <ele>1585.4000244141</ele>
        <time>2019-12-15T09:46:30.000Z</time>
      </trkpt>
      <trkpt lat="45.1562" lon="5.63653">
        <ele>1583.5999755859</ele>
        <time>2019-12-15T09:46:32.000Z</time>
      </trkpt>
      <trkpt lat="45.15622" lon="5.63653">
        <ele>1582.4000244141</ele>
        <time>2019-12-15T09:46:34.000Z</time>
      </trkpt>
      <trkpt lat="45.15627" lon="5.63651">
        <ele>1582</ele>
        <time>2019-12-15T09:46:35.000Z</time>
      </trkpt>
      <trkpt lat="45.15628" lon="5.63647">
        <ele>1581.5999755859</ele>
        <time>2019-12-15T09:46:36.000Z</time>
      </trkpt>
      <trkpt lat="45.15631" lon="5.63645">
        <ele>1581</ele>
        <time>2019-12-15T09:46:37.000Z</time>
      </trkpt>
      <trkpt lat="45.15635" lon="5.63646">
        <ele>1579.8000488281</ele>
        <time>2019-12-15T09:46:39.000Z</time>
      </trkpt>
      <trkpt lat="45.15637" lon="5.63646">
        <ele>1579</ele>
        <time>2019-12-15T09:46:40.000Z</time>
      </trkpt>
      <trkpt lat="45.15638" lon="5.63648">
        <ele>1578</ele>
        <time>2019-12-15T09:46:41.000Z</time>
      </trkpt>
      <trkpt lat="45.1564" lon="5.63649">
        <ele>1577.4000244141</ele>
        <time>2019-12-15T09:46:42.000Z</time>
      </trkpt>
      <trkpt lat="45.1564" lon="5.63649">
        <ele>1576.8000488281</ele>
        <time>2019-12-15T09:46:43.000Z</time>
      </trkpt>
      <trkpt lat="45.15641" lon="5.63649">
        <ele>1575.5999755859</ele>
        <time>2019-12-15T09:46:45.000Z</time>
      </trkpt>
      <trkpt lat="45.15641" lon="5.63649">
        <ele>1574.5999755859</ele>
        <time>2019-12-15T09:46:50.000Z</time>
      </trkpt>
      <trkpt lat="45.15643" lon="5.63648">
        <ele>1574.5999755859</ele>
        <time>2019-12-15T09:46:55.000Z</time>
      </trkpt>
      <trkpt lat="45.15645" lon="5.63639">
        <ele>1574.4000244141</ele>
        <time>2019-12-15T09:46:58.000Z</time>
      </trkpt>
      <trkpt lat="45.15651" lon="5.63639">
        <ele>1573.1999511719</ele>
        <time>2019-12-15T09:47:01.000Z</time>
      </trkpt>
      <trkpt lat="45.15655" lon="5.63634">
        <ele>1571.4000244141</ele>
        <time>2019-12-15T09:47:03.000Z</time>
      </trkpt>
      <trkpt lat="45.15658" lon="5.63635">
        <ele>1570.8000488281</ele>
        <time>2019-12-15T09:47:04.000Z</time>
      </trkpt>
      <trkpt lat="45.1566" lon="5.63637">
        <ele>1570.1999511719</ele>
        <time>2019-12-15T09:47:05.000Z</time>
      </trkpt>
      <trkpt lat="45.15662" lon="5.63639">
        <ele>1569.8000488281</ele>
        <time>2019-12-15T09:47:06.000Z</time>
      </trkpt>
      <trkpt lat="45.15666" lon="5.63638">
        <ele>1569</ele>
        <time>2019-12-15T09:47:07.000Z</time>
      </trkpt>
      <trkpt lat="45.15665" lon="5.63638">
        <ele>1568.1999511719</ele>
        <time>2019-12-15T09:47:08.000Z</time>
      </trkpt>
      <trkpt lat="45.15665" lon="5.63638">
        <ele>1567</ele>
        <time>2019-12-15T09:47:09.000Z</time>
      </trkpt>
      <trkpt lat="45.15665" lon="5.63639">
        <ele>1566</ele>
        <time>2019-12-15T09:47:11.000Z</time>
      </trkpt>
      <trkpt lat="45.15669" lon="5.63639">
        <ele>1564.5999755859</ele>
        <time>2019-12-15T09:47:13.000Z</time>
      </trkpt>
      <trkpt lat="45.15676" lon="5.6364">
        <ele>1563.4000244141</ele>
        <time>2019-12-15T09:47:16.000Z</time>
      </trkpt>
      <trkpt lat="45.15679" lon="5.63638">
        <ele>1563</ele>
        <time>2019-12-15T09:47:17.000Z</time>
      </trkpt>
      <trkpt lat="45.15685" lon="5.63632">
        <ele>1562</ele>
        <time>2019-12-15T09:47:19.000Z</time>
      </trkpt>
      <trkpt lat="45.15691" lon="5.63633">
        <ele>1561.4000244141</ele>
        <time>2019-12-15T09:47:21.000Z</time>
      </trkpt>
      <trkpt lat="45.15695" lon="5.63634">
        <ele>1560.8000488281</ele>
        <time>2019-12-15T09:47:22.000Z</time>
      </trkpt>
      <trkpt lat="45.15697" lon="5.63635">
        <ele>1560.1999511719</ele>
        <time>2019-12-15T09:47:23.000Z</time>
      </trkpt>
      <trkpt lat="45.15699" lon="5.63635">
        <ele>1559.8000488281</ele>
        <time>2019-12-15T09:47:24.000Z</time>
      </trkpt>
      <trkpt lat="45.15699" lon="5.63637">
        <ele>1559</ele>
        <time>2019-12-15T09:47:26.000Z</time>
      </trkpt>
      <trkpt lat="45.157" lon="5.63638">
        <ele>1558.5999755859</ele>
        <time>2019-12-15T09:47:27.000Z</time>
      </trkpt>
      <trkpt lat="45.157" lon="5.63638">
        <ele>1557.5999755859</ele>
        <time>2019-12-15T09:47:33.000Z</time>
      </trkpt>
      <trkpt lat="45.157" lon="5.63638">
        <ele>1557.5999755859</ele>
        <time>2019-12-15T09:47:38.000Z</time>
      </trkpt>
      <trkpt lat="45.157" lon="5.63638">
        <ele>1557.8000488281</ele>
        <time>2019-12-15T09:47:51.000Z</time>
      </trkpt>
      <trkpt lat="45.157" lon="5.63638">
        <ele>1557.5999755859</ele>
        <time>2019-12-15T09:48:02.000Z</time>
      </trkpt>
      <trkpt lat="45.15701" lon="5.63644">
        <ele>1557.4000244141</ele>
        <time>2019-12-15T09:48:06.000Z</time>
      </trkpt>
      <trkpt lat="45.15702" lon="5.6365">
        <ele>1557</ele>
        <time>2019-12-15T09:48:08.000Z</time>
      </trkpt>
      <trkpt lat="45.15702" lon="5.63653">
        <ele>1556.5999755859</ele>
        <time>2019-12-15T09:48:13.000Z</time>
      </trkpt>
      <trkpt lat="45.15702" lon="5.63653">
        <ele>1555.8000488281</ele>
        <time>2019-12-15T09:48:25.000Z</time>
      </trkpt>
      <trkpt lat="45.15702" lon="5.63653">
        <ele>1556</ele>
        <time>2019-12-15T09:48:34.000Z</time>
      </trkpt>
      <trkpt lat="45.15702" lon="5.63653">
        <ele>1556</ele>
        <time>2019-12-15T09:48:47.000Z</time>
      </trkpt>
      <trkpt lat="45.15705" lon="5.63662">
        <ele>1555.8000488281</ele>
        <time>2019-12-15T09:48:52.000Z</time>
      </trkpt>
      <trkpt lat="45.15705" lon="5.6367">
        <ele>1555.4000244141</ele>
        <time>2019-12-15T09:48:54.000Z</time>
      </trkpt>
      <trkpt lat="45.15706" lon="5.63671">
        <ele>1555</ele>
        <time>2019-12-15T09:48:56.000Z</time>
      </trkpt>
      <trkpt lat="45.15708" lon="5.63676">
        <ele>1554.5999755859</ele>
        <time>2019-12-15T09:48:59.000Z</time>
      </trkpt>
      <trkpt lat="45.15711" lon="5.63682">
        <ele>1554.1999511719</ele>
        <time>2019-12-15T09:49:01.000Z</time>
      </trkpt>
      <trkpt lat="45.15713" lon="5.63683">
        <ele>1553.1999511719</ele>
        <time>2019-12-15T09:49:05.000Z</time>
      </trkpt>
      <trkpt lat="45.15714" lon="5.63682">
        <ele>1553</ele>
        <time>2019-12-15T09:49:06.000Z</time>
      </trkpt>
      <trkpt lat="45.15718" lon="5.63678">
        <ele>1552.1999511719</ele>
        <time>2019-12-15T09:49:08.000Z</time>
      </trkpt>
      <trkpt lat="45.15721" lon="5.63679">
        <ele>1551.8000488281</ele>
        <time>2019-12-15T09:49:09.000Z</time>
      </trkpt>
      <trkpt lat="45.15727" lon="5.63683">
        <ele>1550.4000244141</ele>
        <time>2019-12-15T09:49:12.000Z</time>
      </trkpt>
      <trkpt lat="45.15728" lon="5.63684">
        <ele>1549.5999755859</ele>
        <time>2019-12-15T09:49:17.000Z</time>
      </trkpt>
      <trkpt lat="45.15728" lon="5.63684">
        <ele>1549.1999511719</ele>
        <time>2019-12-15T09:49:19.000Z</time>
      </trkpt>
      <trkpt lat="45.1573" lon="5.63684">
        <ele>1548.8000488281</ele>
        <time>2019-12-15T09:49:20.000Z</time>
      </trkpt>
      <trkpt lat="45.1573" lon="5.63684">
        <ele>1548.4000244141</ele>
        <time>2019-12-15T09:49:22.000Z</time>
      </trkpt>
      <trkpt lat="45.1573" lon="5.63682">
        <ele>1548</ele>
        <time>2019-12-15T09:49:25.000Z</time>
      </trkpt>
      <trkpt lat="45.15732" lon="5.63682">
        <ele>1547.4000244141</ele>
        <time>2019-12-15T09:49:27.000Z</time>
      </trkpt>
      <trkpt lat="45.15734" lon="5.63683">
        <ele>1547.1999511719</ele>
        <time>2019-12-15T09:49:28.000Z</time>
      </trkpt>
      <trkpt lat="45.15737" lon="5.63684">
        <ele>1546.8000488281</ele>
        <time>2019-12-15T09:49:29.000Z</time>
      </trkpt>
      <trkpt lat="45.15743" lon="5.6369">
        <ele>1545.8000488281</ele>
        <time>2019-12-15T09:49:32.000Z</time>
      </trkpt>
      <trkpt lat="45.15744" lon="5.63689">
        <ele>1545.1999511719</ele>
        <time>2019-12-15T09:49:33.000Z</time>
      </trkpt>
      <trkpt lat="45.15747" lon="5.63688">
        <ele>1544.5999755859</ele>
        <time>2019-12-15T09:49:36.000Z</time>
      </trkpt>
      <trkpt lat="45.15749" lon="5.63686">
        <ele>1544.4000244141</ele>
        <time>2019-12-15T09:49:37.000Z</time>
      </trkpt>
      <trkpt lat="45.15754" lon="5.63687">
        <ele>1544.4000244141</ele>
        <time>2019-12-15T09:49:38.000Z</time>
      </trkpt>
      <trkpt lat="45.15761" lon="5.63685">
        <ele>1543.1999511719</ele>
        <time>2019-12-15T09:49:40.000Z</time>
      </trkpt>
      <trkpt lat="45.15771" lon="5.63681">
        <ele>1541.8000488281</ele>
        <time>2019-12-15T09:49:42.000Z</time>
      </trkpt>
      <trkpt lat="45.15777" lon="5.63682">
        <ele>1541.1999511719</ele>
        <time>2019-12-15T09:49:43.000Z</time>
      </trkpt>
      <trkpt lat="45.15782" lon="5.63685">
        <ele>1540.5999755859</ele>
        <time>2019-12-15T09:49:44.000Z</time>
      </trkpt>
      <trkpt lat="45.15786" lon="5.63687">
        <ele>1540</ele>
        <time>2019-12-15T09:49:45.000Z</time>
      </trkpt>
      <trkpt lat="45.15788" lon="5.63688">
        <ele>1539.4000244141</ele>
        <time>2019-12-15T09:49:46.000Z</time>
      </trkpt>
      <trkpt lat="45.15793" lon="5.63689">
        <ele>1538</ele>
        <time>2019-12-15T09:49:48.000Z</time>
      </trkpt>
      <trkpt lat="45.15796" lon="5.6369">
        <ele>1537.4000244141</ele>
        <time>2019-12-15T09:49:49.000Z</time>
      </trkpt>
      <trkpt lat="45.15799" lon="5.63692">
        <ele>1536.8000488281</ele>
        <time>2019-12-15T09:49:50.000Z</time>
      </trkpt>
      <trkpt lat="45.15802" lon="5.63695">
        <ele>1535.5999755859</ele>
        <time>2019-12-15T09:49:52.000Z</time>
      </trkpt>
      <trkpt lat="45.15805" lon="5.63697">
        <ele>1534.4000244141</ele>
        <time>2019-12-15T09:49:55.000Z</time>
      </trkpt>
      <trkpt lat="45.15808" lon="5.63693">
        <ele>1533.4000244141</ele>
        <time>2019-12-15T09:49:58.000Z</time>
      </trkpt>
      <trkpt lat="45.15809" lon="5.63695">
        <ele>1533.1999511719</ele>
        <time>2019-12-15T09:49:59.000Z</time>
      </trkpt>
      <trkpt lat="45.15812" lon="5.63697">
        <ele>1531.8000488281</ele>
        <time>2019-12-15T09:50:01.000Z</time>
      </trkpt>
      <trkpt lat="45.15815" lon="5.63695">
        <ele>1530.4000244141</ele>
        <time>2019-12-15T09:50:03.000Z</time>
      </trkpt>
      <trkpt lat="45.15817" lon="5.63694">
        <ele>1530</ele>
        <time>2019-12-15T09:50:04.000Z</time>
      </trkpt>
      <trkpt lat="45.15823" lon="5.63698">
        <ele>1529.1999511719</ele>
        <time>2019-12-15T09:50:06.000Z</time>
      </trkpt>
      <trkpt lat="45.15827" lon="5.63699">
        <ele>1528.4000244141</ele>
        <time>2019-12-15T09:50:07.000Z</time>
      </trkpt>
      <trkpt lat="45.1583" lon="5.63699">
        <ele>1527.5999755859</ele>
        <time>2019-12-15T09:50:08.000Z</time>
      </trkpt>
      <trkpt lat="45.15838" lon="5.63699">
        <ele>1526.1999511719</ele>
        <time>2019-12-15T09:50:10.000Z</time>
      </trkpt>
      <trkpt lat="45.1584" lon="5.63698">
        <ele>1525.1999511719</ele>
        <time>2019-12-15T09:50:11.000Z</time>
      </trkpt>
      <trkpt lat="45.15842" lon="5.63696">
        <ele>1524.4000244141</ele>
        <time>2019-12-15T09:50:12.000Z</time>
      </trkpt>
      <trkpt lat="45.15844" lon="5.63695">
        <ele>1523.5999755859</ele>
        <time>2019-12-15T09:50:13.000Z</time>
      </trkpt>
      <trkpt lat="45.15845" lon="5.63693">
        <ele>1523.1999511719</ele>
        <time>2019-12-15T09:50:14.000Z</time>
      </trkpt>
      <trkpt lat="45.15847" lon="5.63691">
        <ele>1521.5999755859</ele>
        <time>2019-12-15T09:50:16.000Z</time>
      </trkpt>
      <trkpt lat="45.15849" lon="5.63689">
        <ele>1520.5999755859</ele>
        <time>2019-12-15T09:50:18.000Z</time>
      </trkpt>
      <trkpt lat="45.15849" lon="5.63689">
        <ele>1519.4000244141</ele>
        <time>2019-12-15T09:50:21.000Z</time>
      </trkpt>
      <trkpt lat="45.15849" lon="5.63688">
        <ele>1519.4000244141</ele>
        <time>2019-12-15T09:50:27.000Z</time>
      </trkpt>
      <trkpt lat="45.1585" lon="5.63688">
        <ele>1519.5999755859</ele>
        <time>2019-12-15T09:50:34.000Z</time>
      </trkpt>
      <trkpt lat="45.15858" lon="5.6369">
        <ele>1519.5999755859</ele>
        <time>2019-12-15T09:50:36.000Z</time>
      </trkpt>
      <trkpt lat="45.15872" lon="5.63689">
        <ele>1518.1999511719</ele>
        <time>2019-12-15T09:50:41.000Z</time>
      </trkpt>
      <trkpt lat="45.15872" lon="5.63689">
        <ele>1516.8000488281</ele>
        <time>2019-12-15T09:50:45.000Z</time>
      </trkpt>
      <trkpt lat="45.15872" lon="5.63689">
        <ele>1516.4000244141</ele>
        <time>2019-12-15T09:50:47.000Z</time>
      </trkpt>
      <trkpt lat="45.15873" lon="5.6369">
        <ele>1516.1999511719</ele>
        <time>2019-12-15T09:50:48.000Z</time>
      </trkpt>
      <trkpt lat="45.15884" lon="5.63696">
        <ele>1516</ele>
        <time>2019-12-15T09:50:51.000Z</time>
      </trkpt>
      <trkpt lat="45.1589" lon="5.63695">
        <ele>1515.8000488281</ele>
        <time>2019-12-15T09:50:53.000Z</time>
      </trkpt>
      <trkpt lat="45.15892" lon="5.63696">
        <ele>1515</ele>
        <time>2019-12-15T09:50:55.000Z</time>
      </trkpt>
      <trkpt lat="45.15894" lon="5.63698">
        <ele>1514.4000244141</ele>
        <time>2019-12-15T09:50:56.000Z</time>
      </trkpt>
      <trkpt lat="45.15898" lon="5.63701">
        <ele>1513.8000488281</ele>
        <time>2019-12-15T09:50:57.000Z</time>
      </trkpt>
      <trkpt lat="45.15902" lon="5.63702">
        <ele>1513.1999511719</ele>
        <time>2019-12-15T09:50:58.000Z</time>
      </trkpt>
      <trkpt lat="45.15913" lon="5.63704">
        <ele>1512</ele>
        <time>2019-12-15T09:51:00.000Z</time>
      </trkpt>
      <trkpt lat="45.15926" lon="5.63708">
        <ele>1511.4000244141</ele>
        <time>2019-12-15T09:51:02.000Z</time>
      </trkpt>
      <trkpt lat="45.15932" lon="5.6371">
        <ele>1511</ele>
        <time>2019-12-15T09:51:03.000Z</time>
      </trkpt>
      <trkpt lat="45.15945" lon="5.63713">
        <ele>1509.8000488281</ele>
        <time>2019-12-15T09:51:05.000Z</time>
      </trkpt>
      <trkpt lat="45.15956" lon="5.63717">
        <ele>1508</ele>
        <time>2019-12-15T09:51:07.000Z</time>
      </trkpt>
      <trkpt lat="45.15961" lon="5.63718">
        <ele>1507.1999511719</ele>
        <time>2019-12-15T09:51:08.000Z</time>
      </trkpt>
      <trkpt lat="45.15965" lon="5.63719">
        <ele>1506.8000488281</ele>
        <time>2019-12-15T09:51:09.000Z</time>
      </trkpt>
      <trkpt lat="45.15971" lon="5.63721">
        <ele>1505.8000488281</ele>
        <time>2019-12-15T09:51:11.000Z</time>
      </trkpt>
      <trkpt lat="45.15973" lon="5.63721">
        <ele>1505.1999511719</ele>
        <time>2019-12-15T09:51:12.000Z</time>
      </trkpt>
      <trkpt lat="45.15974" lon="5.63722">
        <ele>1504.5999755859</ele>
        <time>2019-12-15T09:51:14.000Z</time>
      </trkpt>
      <trkpt lat="45.15975" lon="5.63723">
        <ele>1504.1999511719</ele>
        <time>2019-12-15T09:51:17.000Z</time>
      </trkpt>
      <trkpt lat="45.15976" lon="5.63723">
        <ele>1504.4000244141</ele>
        <time>2019-12-15T09:51:22.000Z</time>
      </trkpt>
      <trkpt lat="45.15976" lon="5.63723">
        <ele>1504.5999755859</ele>
        <time>2019-12-15T09:51:28.000Z</time>
      </trkpt>
      <trkpt lat="45.15979" lon="5.63722">
        <ele>1504.5999755859</ele>
        <time>2019-12-15T09:51:36.000Z</time>
      </trkpt>
      <trkpt lat="45.15984" lon="5.63716">
        <ele>1504.8000488281</ele>
        <time>2019-12-15T09:51:43.000Z</time>
      </trkpt>
      <trkpt lat="45.15986" lon="5.63713">
        <ele>1504.8000488281</ele>
        <time>2019-12-15T09:51:46.000Z</time>
      </trkpt>
      <trkpt lat="45.15987" lon="5.63707">
        <ele>1504.8000488281</ele>
        <time>2019-12-15T09:51:49.000Z</time>
      </trkpt>
      <trkpt lat="45.15987" lon="5.63705">
        <ele>1504.8000488281</ele>
        <time>2019-12-15T09:51:50.000Z</time>
      </trkpt>
      <trkpt lat="45.15986" lon="5.637">
        <ele>1504.1999511719</ele>
        <time>2019-12-15T09:51:54.000Z</time>
      </trkpt>
      <trkpt lat="45.15986" lon="5.63699">
        <ele>1503.5999755859</ele>
        <time>2019-12-15T09:52:03.000Z</time>
      </trkpt>
      <trkpt lat="45.15986" lon="5.63699">
        <ele>1503.5999755859</ele>
        <time>2019-12-15T09:52:10.000Z</time>
      </trkpt>
      <trkpt lat="45.15986" lon="5.63699">
        <ele>1503.5999755859</ele>
        <time>2019-12-15T09:52:14.000Z</time>
      </trkpt>
      <trkpt lat="45.15985" lon="5.63696">
        <ele>1503.4000244141</ele>
        <time>2019-12-15T09:52:20.000Z</time>
      </trkpt>
      <trkpt lat="45.15985" lon="5.63688">
        <ele>1502.8000488281</ele>
        <time>2019-12-15T09:52:25.000Z</time>
      </trkpt>
      <trkpt lat="45.15984" lon="5.63683">
        <ele>1502.5999755859</ele>
        <time>2019-12-15T09:52:27.000Z</time>
      </trkpt>
      <trkpt lat="45.15985" lon="5.63677">
        <ele>1501.5999755859</ele>
        <time>2019-12-15T09:52:29.000Z</time>
      </trkpt>
      <trkpt lat="45.15985" lon="5.63674">
        <ele>1501.1999511719</ele>
        <time>2019-12-15T09:52:30.000Z</time>
      </trkpt>
      <trkpt lat="45.15985" lon="5.63667">
        <ele>1500</ele>
        <time>2019-12-15T09:52:34.000Z</time>
      </trkpt>
      <trkpt lat="45.15986" lon="5.63666">
        <ele>1499.5999755859</ele>
        <time>2019-12-15T09:52:35.000Z</time>
      </trkpt>
      <trkpt lat="45.15986" lon="5.63663">
        <ele>1499</ele>
        <time>2019-12-15T09:52:37.000Z</time>
      </trkpt>
      <trkpt lat="45.15986" lon="5.6366">
        <ele>1498.8000488281</ele>
        <time>2019-12-15T09:52:38.000Z</time>
      </trkpt>
      <trkpt lat="45.15987" lon="5.63657">
        <ele>1498.4000244141</ele>
        <time>2019-12-15T09:52:39.000Z</time>
      </trkpt>
      <trkpt lat="45.15988" lon="5.63651">
        <ele>1497.5999755859</ele>
        <time>2019-12-15T09:52:41.000Z</time>
      </trkpt>
      <trkpt lat="45.15988" lon="5.63648">
        <ele>1497</ele>
        <time>2019-12-15T09:52:42.000Z</time>
      </trkpt>
      <trkpt lat="45.15987" lon="5.63644">
        <ele>1496.5999755859</ele>
        <time>2019-12-15T09:52:43.000Z</time>
      </trkpt>
      <trkpt lat="45.15985" lon="5.6364">
        <ele>1496.1999511719</ele>
        <time>2019-12-15T09:52:44.000Z</time>
      </trkpt>
      <trkpt lat="45.15982" lon="5.63631">
        <ele>1495</ele>
        <time>2019-12-15T09:52:46.000Z</time>
      </trkpt>
      <trkpt lat="45.15982" lon="5.63626">
        <ele>1494.1999511719</ele>
        <time>2019-12-15T09:52:47.000Z</time>
      </trkpt>
      <trkpt lat="45.15981" lon="5.63622">
        <ele>1493.1999511719</ele>
        <time>2019-12-15T09:52:48.000Z</time>
      </trkpt>
      <trkpt lat="45.15979" lon="5.63618">
        <ele>1492.1999511719</ele>
        <time>2019-12-15T09:52:49.000Z</time>
      </trkpt>
      <trkpt lat="45.15976" lon="5.63607">
        <ele>1490.5999755859</ele>
        <time>2019-12-15T09:52:51.000Z</time>
      </trkpt>
      <trkpt lat="45.15974" lon="5.6359">
        <ele>1489.5999755859</ele>
        <time>2019-12-15T09:52:53.000Z</time>
      </trkpt>
      <trkpt lat="45.15976" lon="5.63582">
        <ele>1489</ele>
        <time>2019-12-15T09:52:54.000Z</time>
      </trkpt>
      <trkpt lat="45.15976" lon="5.63575">
        <ele>1488.4000244141</ele>
        <time>2019-12-15T09:52:55.000Z</time>
      </trkpt>
      <trkpt lat="45.15975" lon="5.63568">
        <ele>1487.5999755859</ele>
        <time>2019-12-15T09:52:56.000Z</time>
      </trkpt>
      <trkpt lat="45.15975" lon="5.63562">
        <ele>1486.5999755859</ele>
        <time>2019-12-15T09:52:57.000Z</time>
      </trkpt>
      <trkpt lat="45.15976" lon="5.63555">
        <ele>1485.5999755859</ele>
        <time>2019-12-15T09:52:58.000Z</time>
      </trkpt>
      <trkpt lat="45.15976" lon="5.63547">
        <ele>1484.4000244141</ele>
        <time>2019-12-15T09:52:59.000Z</time>
      </trkpt>
      <trkpt lat="45.15976" lon="5.6354">
        <ele>1483.1999511719</ele>
        <time>2019-12-15T09:53:00.000Z</time>
      </trkpt>
      <trkpt lat="45.15976" lon="5.63532">
        <ele>1482</ele>
        <time>2019-12-15T09:53:01.000Z</time>
      </trkpt>
      <trkpt lat="45.15977" lon="5.63524">
        <ele>1481</ele>
        <time>2019-12-15T09:53:02.000Z</time>
      </trkpt>
      <trkpt lat="45.15976" lon="5.63517">
        <ele>1479.8000488281</ele>
        <time>2019-12-15T09:53:03.000Z</time>
      </trkpt>
      <trkpt lat="45.15976" lon="5.63511">
        <ele>1478.5999755859</ele>
        <time>2019-12-15T09:53:04.000Z</time>
      </trkpt>
      <trkpt lat="45.15976" lon="5.63508">
        <ele>1477.5999755859</ele>
        <time>2019-12-15T09:53:05.000Z</time>
      </trkpt>
      <trkpt lat="45.15976" lon="5.63507">
        <ele>1476.5999755859</ele>
        <time>2019-12-15T09:53:06.000Z</time>
      </trkpt>
      <trkpt lat="45.15976" lon="5.63507">
        <ele>1475.5999755859</ele>
        <time>2019-12-15T09:53:07.000Z</time>
      </trkpt>
      <trkpt lat="45.15977" lon="5.63506">
        <ele>1474.1999511719</ele>
        <time>2019-12-15T09:53:08.000Z</time>
      </trkpt>
      <trkpt lat="45.15977" lon="5.63503">
        <ele>1473</ele>
        <time>2019-12-15T09:53:09.000Z</time>
      </trkpt>
      <trkpt lat="45.15978" lon="5.635">
        <ele>1471.5999755859</ele>
        <time>2019-12-15T09:53:10.000Z</time>
      </trkpt>
      <trkpt lat="45.15979" lon="5.63485">
        <ele>1470.4000244141</ele>
        <time>2019-12-15T09:53:13.000Z</time>
      </trkpt>
      <trkpt lat="45.15979" lon="5.6347">
        <ele>1468.8000488281</ele>
        <time>2019-12-15T09:53:16.000Z</time>
      </trkpt>
      <trkpt lat="45.15979" lon="5.63461">
        <ele>1467.1999511719</ele>
        <time>2019-12-15T09:53:18.000Z</time>
      </trkpt>
      <trkpt lat="45.1598" lon="5.63457">
        <ele>1466.1999511719</ele>
        <time>2019-12-15T09:53:19.000Z</time>
      </trkpt>
      <trkpt lat="45.15981" lon="5.63452">
        <ele>1465</ele>
        <time>2019-12-15T09:53:20.000Z</time>
      </trkpt>
      <trkpt lat="45.15982" lon="5.63448">
        <ele>1464</ele>
        <time>2019-12-15T09:53:21.000Z</time>
      </trkpt>
      <trkpt lat="45.15983" lon="5.63444">
        <ele>1462.8000488281</ele>
        <time>2019-12-15T09:53:22.000Z</time>
      </trkpt>
      <trkpt lat="45.15983" lon="5.6344">
        <ele>1462</ele>
        <time>2019-12-15T09:53:23.000Z</time>
      </trkpt>
      <trkpt lat="45.15982" lon="5.63437">
        <ele>1461.1999511719</ele>
        <time>2019-12-15T09:53:24.000Z</time>
      </trkpt>
      <trkpt lat="45.15983" lon="5.63433">
        <ele>1459.5999755859</ele>
        <time>2019-12-15T09:53:26.000Z</time>
      </trkpt>
      <trkpt lat="45.15983" lon="5.63433">
        <ele>1458.5999755859</ele>
        <time>2019-12-15T09:53:27.000Z</time>
      </trkpt>
      <trkpt lat="45.15983" lon="5.63433">
        <ele>1457.5999755859</ele>
        <time>2019-12-15T09:53:28.000Z</time>
      </trkpt>
      <trkpt lat="45.15983" lon="5.63433">
        <ele>1456.5999755859</ele>
        <time>2019-12-15T09:53:29.000Z</time>
      </trkpt>
      <trkpt lat="45.15985" lon="5.6343">
        <ele>1455.1999511719</ele>
        <time>2019-12-15T09:53:31.000Z</time>
      </trkpt>
      <trkpt lat="45.15986" lon="5.63427">
        <ele>1454.8000488281</ele>
        <time>2019-12-15T09:53:32.000Z</time>
      </trkpt>
      <trkpt lat="45.15985" lon="5.63421">
        <ele>1453.8000488281</ele>
        <time>2019-12-15T09:53:34.000Z</time>
      </trkpt>
      <trkpt lat="45.15989" lon="5.63416">
        <ele>1452.8000488281</ele>
        <time>2019-12-15T09:53:36.000Z</time>
      </trkpt>
      <trkpt lat="45.15991" lon="5.63412">
        <ele>1451.8000488281</ele>
        <time>2019-12-15T09:53:37.000Z</time>
      </trkpt>
      <trkpt lat="45.15994" lon="5.63408">
        <ele>1450.8000488281</ele>
        <time>2019-12-15T09:53:38.000Z</time>
      </trkpt>
      <trkpt lat="45.16" lon="5.634">
        <ele>1449.4000244141</ele>
        <time>2019-12-15T09:53:40.000Z</time>
      </trkpt>
      <trkpt lat="45.16003" lon="5.63395">
        <ele>1448.5999755859</ele>
        <time>2019-12-15T09:53:41.000Z</time>
      </trkpt>
      <trkpt lat="45.16008" lon="5.63391">
        <ele>1447.5999755859</ele>
        <time>2019-12-15T09:53:42.000Z</time>
      </trkpt>
      <trkpt lat="45.16012" lon="5.63386">
        <ele>1446.4000244141</ele>
        <time>2019-12-15T09:53:43.000Z</time>
      </trkpt>
      <trkpt lat="45.16017" lon="5.63383">
        <ele>1445</ele>
        <time>2019-12-15T09:53:44.000Z</time>
      </trkpt>
      <trkpt lat="45.16021" lon="5.63379">
        <ele>1443.8000488281</ele>
        <time>2019-12-15T09:53:45.000Z</time>
      </trkpt>
      <trkpt lat="45.16026" lon="5.63376">
        <ele>1442.8000488281</ele>
        <time>2019-12-15T09:53:46.000Z</time>
      </trkpt>
      <trkpt lat="45.16029" lon="5.63369">
        <ele>1441</ele>
        <time>2019-12-15T09:53:48.000Z</time>
      </trkpt>
      <trkpt lat="45.16028" lon="5.63368">
        <ele>1440</ele>
        <time>2019-12-15T09:53:49.000Z</time>
      </trkpt>
      <trkpt lat="45.16026" lon="5.63368">
        <ele>1439</ele>
        <time>2019-12-15T09:53:50.000Z</time>
      </trkpt>
      <trkpt lat="45.16026" lon="5.63368">
        <ele>1438</ele>
        <time>2019-12-15T09:53:51.000Z</time>
      </trkpt>
      <trkpt lat="45.16026" lon="5.63369">
        <ele>1436.4000244141</ele>
        <time>2019-12-15T09:53:53.000Z</time>
      </trkpt>
      <trkpt lat="45.16026" lon="5.6337">
        <ele>1436</ele>
        <time>2019-12-15T09:53:54.000Z</time>
      </trkpt>
      <trkpt lat="45.16026" lon="5.63372">
        <ele>1435.4000244141</ele>
        <time>2019-12-15T09:53:56.000Z</time>
      </trkpt>
      <trkpt lat="45.16026" lon="5.63372">
        <ele>1435</ele>
        <time>2019-12-15T09:54:06.000Z</time>
      </trkpt>
      <trkpt lat="45.16026" lon="5.63372">
        <ele>1435</ele>
        <time>2019-12-15T09:54:19.000Z</time>
      </trkpt>
      <trkpt lat="45.16026" lon="5.63372">
        <ele>1435</ele>
        <time>2019-12-15T09:54:25.000Z</time>
      </trkpt>
      <trkpt lat="45.16026" lon="5.63371">
        <ele>1434.8000488281</ele>
        <time>2019-12-15T09:54:27.000Z</time>
      </trkpt>
      <trkpt lat="45.1602" lon="5.63367">
        <ele>1434.8000488281</ele>
        <time>2019-12-15T09:54:29.000Z</time>
      </trkpt>
      <trkpt lat="45.16007" lon="5.63352">
        <ele>1434.4000244141</ele>
        <time>2019-12-15T09:54:32.000Z</time>
      </trkpt>
      <trkpt lat="45.16002" lon="5.63349">
        <ele>1433.8000488281</ele>
        <time>2019-12-15T09:54:33.000Z</time>
      </trkpt>
      <trkpt lat="45.15998" lon="5.63345">
        <ele>1433.1999511719</ele>
        <time>2019-12-15T09:54:34.000Z</time>
      </trkpt>
      <trkpt lat="45.15994" lon="5.63339">
        <ele>1432.5999755859</ele>
        <time>2019-12-15T09:54:35.000Z</time>
      </trkpt>
      <trkpt lat="45.15985" lon="5.63329">
        <ele>1431.4000244141</ele>
        <time>2019-12-15T09:54:37.000Z</time>
      </trkpt>
      <trkpt lat="45.1598" lon="5.63325">
        <ele>1430.4000244141</ele>
        <time>2019-12-15T09:54:38.000Z</time>
      </trkpt>
      <trkpt lat="45.15975" lon="5.63321">
        <ele>1429.1999511719</ele>
        <time>2019-12-15T09:54:39.000Z</time>
      </trkpt>
      <trkpt lat="45.1597" lon="5.63319">
        <ele>1428</ele>
        <time>2019-12-15T09:54:40.000Z</time>
      </trkpt>
      <trkpt lat="45.15965" lon="5.63317">
        <ele>1426.5999755859</ele>
        <time>2019-12-15T09:54:41.000Z</time>
      </trkpt>
      <trkpt lat="45.1596" lon="5.63316">
        <ele>1425.1999511719</ele>
        <time>2019-12-15T09:54:42.000Z</time>
      </trkpt>
      <trkpt lat="45.15954" lon="5.63316">
        <ele>1423.8000488281</ele>
        <time>2019-12-15T09:54:43.000Z</time>
      </trkpt>
      <trkpt lat="45.15948" lon="5.63315">
        <ele>1422.5999755859</ele>
        <time>2019-12-15T09:54:44.000Z</time>
      </trkpt>
      <trkpt lat="45.15942" lon="5.63314">
        <ele>1421.4000244141</ele>
        <time>2019-12-15T09:54:45.000Z</time>
      </trkpt>
      <trkpt lat="45.15937" lon="5.63312">
        <ele>1419.4000244141</ele>
        <time>2019-12-15T09:54:46.000Z</time>
      </trkpt>
      <trkpt lat="45.15932" lon="5.63311">
        <ele>1418.4000244141</ele>
        <time>2019-12-15T09:54:47.000Z</time>
      </trkpt>
      <trkpt lat="45.15927" lon="5.6331">
        <ele>1417.1999511719</ele>
        <time>2019-12-15T09:54:48.000Z</time>
      </trkpt>
      <trkpt lat="45.15922" lon="5.63307">
        <ele>1416.1999511719</ele>
        <time>2019-12-15T09:54:49.000Z</time>
      </trkpt>
      <trkpt lat="45.15912" lon="5.63302">
        <ele>1414.5999755859</ele>
        <time>2019-12-15T09:54:51.000Z</time>
      </trkpt>
      <trkpt lat="45.15906" lon="5.63298">
        <ele>1413.8000488281</ele>
        <time>2019-12-15T09:54:52.000Z</time>
      </trkpt>
      <trkpt lat="45.15901" lon="5.63294">
        <ele>1413.1999511719</ele>
        <time>2019-12-15T09:54:53.000Z</time>
      </trkpt>
      <trkpt lat="45.15898" lon="5.63291">
        <ele>1412.4000244141</ele>
        <time>2019-12-15T09:54:54.000Z</time>
      </trkpt>
      <trkpt lat="45.15896" lon="5.63286">
        <ele>1411.4000244141</ele>
        <time>2019-12-15T09:54:55.000Z</time>
      </trkpt>
      <trkpt lat="45.15894" lon="5.63281">
        <ele>1410.4000244141</ele>
        <time>2019-12-15T09:54:56.000Z</time>
      </trkpt>
      <trkpt lat="45.15892" lon="5.63277">
        <ele>1409.4000244141</ele>
        <time>2019-12-15T09:54:57.000Z</time>
      </trkpt>
      <trkpt lat="45.15891" lon="5.63274">
        <ele>1408.4000244141</ele>
        <time>2019-12-15T09:54:58.000Z</time>
      </trkpt>
      <trkpt lat="45.15891" lon="5.63273">
        <ele>1407.5999755859</ele>
        <time>2019-12-15T09:54:59.000Z</time>
      </trkpt>
      <trkpt lat="45.1589" lon="5.63272">
        <ele>1407.1999511719</ele>
        <time>2019-12-15T09:55:00.000Z</time>
      </trkpt>
      <trkpt lat="45.1589" lon="5.63272">
        <ele>1406.5999755859</ele>
        <time>2019-12-15T09:55:01.000Z</time>
      </trkpt>
      <trkpt lat="45.1589" lon="5.63272">
        <ele>1405.4000244141</ele>
        <time>2019-12-15T09:55:03.000Z</time>
      </trkpt>
      <trkpt lat="45.1589" lon="5.63272">
        <ele>1404.4000244141</ele>
        <time>2019-12-15T09:55:07.000Z</time>
      </trkpt>
      <trkpt lat="45.1589" lon="5.63272">
        <ele>1404</ele>
        <time>2019-12-15T09:55:10.000Z</time>
      </trkpt>
      <trkpt lat="45.1589" lon="5.63272">
        <ele>1403.8000488281</ele>
        <time>2019-12-15T09:55:21.000Z</time>
      </trkpt>
      <trkpt lat="45.1589" lon="5.63272">
        <ele>1404</ele>
        <time>2019-12-15T09:55:33.000Z</time>
      </trkpt>
      <trkpt lat="45.15891" lon="5.63272">
        <ele>1403.8000488281</ele>
        <time>2019-12-15T09:55:42.000Z</time>
      </trkpt>
      <trkpt lat="45.15891" lon="5.63272">
        <ele>1403.5999755859</ele>
        <time>2019-12-15T09:55:51.000Z</time>
      </trkpt>
      <trkpt lat="45.15892" lon="5.63273">
        <ele>1403.4000244141</ele>
        <time>2019-12-15T09:55:58.000Z</time>
      </trkpt>
      <trkpt lat="45.15896" lon="5.63276">
        <ele>1403.4000244141</ele>
        <time>2019-12-15T09:55:59.000Z</time>
      </trkpt>
      <trkpt lat="45.15899" lon="5.63278">
        <ele>1403.4000244141</ele>
        <time>2019-12-15T09:56:00.000Z</time>
      </trkpt>
      <trkpt lat="45.15908" lon="5.63281">
        <ele>1402.8000488281</ele>
        <time>2019-12-15T09:56:03.000Z</time>
      </trkpt>
      <trkpt lat="45.15917" lon="5.63284">
        <ele>1402.1999511719</ele>
        <time>2019-12-15T09:56:06.000Z</time>
      </trkpt>
      <trkpt lat="45.1592" lon="5.6328">
        <ele>1401.4000244141</ele>
        <time>2019-12-15T09:56:08.000Z</time>
      </trkpt>
      <trkpt lat="45.15919" lon="5.63278">
        <ele>1401</ele>
        <time>2019-12-15T09:56:09.000Z</time>
      </trkpt>
      <trkpt lat="45.15916" lon="5.63272">
        <ele>1399.8000488281</ele>
        <time>2019-12-15T09:56:12.000Z</time>
      </trkpt>
      <trkpt lat="45.15916" lon="5.63269">
        <ele>1398.8000488281</ele>
        <time>2019-12-15T09:56:14.000Z</time>
      </trkpt>
      <trkpt lat="45.15917" lon="5.63266">
        <ele>1397.1999511719</ele>
        <time>2019-12-15T09:56:16.000Z</time>
      </trkpt>
      <trkpt lat="45.15919" lon="5.63264">
        <ele>1396.5999755859</ele>
        <time>2019-12-15T09:56:17.000Z</time>
      </trkpt>
      <trkpt lat="45.15923" lon="5.63265">
        <ele>1396</ele>
        <time>2019-12-15T09:56:19.000Z</time>
      </trkpt>
      <trkpt lat="45.15925" lon="5.63266">
        <ele>1395.8000488281</ele>
        <time>2019-12-15T09:56:20.000Z</time>
      </trkpt>
      <trkpt lat="45.15929" lon="5.63269">
        <ele>1393.4000244141</ele>
        <time>2019-12-15T09:56:22.000Z</time>
      </trkpt>
      <trkpt lat="45.15928" lon="5.63269">
        <ele>1392.4000244141</ele>
        <time>2019-12-15T09:56:24.000Z</time>
      </trkpt>
      <trkpt lat="45.15926" lon="5.63264">
        <ele>1391</ele>
        <time>2019-12-15T09:56:27.000Z</time>
      </trkpt>
      <trkpt lat="45.15926" lon="5.63262">
        <ele>1390.1999511719</ele>
        <time>2019-12-15T09:56:28.000Z</time>
      </trkpt>
      <trkpt lat="45.15925" lon="5.63258">
        <ele>1389.1999511719</ele>
        <time>2019-12-15T09:56:29.000Z</time>
      </trkpt>
      <trkpt lat="45.15926" lon="5.63256">
        <ele>1388.1999511719</ele>
        <time>2019-12-15T09:56:30.000Z</time>
      </trkpt>
      <trkpt lat="45.15926" lon="5.63252">
        <ele>1387.4000244141</ele>
        <time>2019-12-15T09:56:31.000Z</time>
      </trkpt>
      <trkpt lat="45.15926" lon="5.63249">
        <ele>1386.5999755859</ele>
        <time>2019-12-15T09:56:32.000Z</time>
      </trkpt>
      <trkpt lat="45.15926" lon="5.63244">
        <ele>1385.8000488281</ele>
        <time>2019-12-15T09:56:33.000Z</time>
      </trkpt>
      <trkpt lat="45.15927" lon="5.63241">
        <ele>1384.8000488281</ele>
        <time>2019-12-15T09:56:34.000Z</time>
      </trkpt>
      <trkpt lat="45.15928" lon="5.63239">
        <ele>1383.5999755859</ele>
        <time>2019-12-15T09:56:35.000Z</time>
      </trkpt>
      <trkpt lat="45.15929" lon="5.63237">
        <ele>1382.5999755859</ele>
        <time>2019-12-15T09:56:36.000Z</time>
      </trkpt>
      <trkpt lat="45.15933" lon="5.6323">
        <ele>1381.4000244141</ele>
        <time>2019-12-15T09:56:38.000Z</time>
      </trkpt>
      <trkpt lat="45.15934" lon="5.63225">
        <ele>1380.8000488281</ele>
        <time>2019-12-15T09:56:39.000Z</time>
      </trkpt>
      <trkpt lat="45.15932" lon="5.63222">
        <ele>1380</ele>
        <time>2019-12-15T09:56:40.000Z</time>
      </trkpt>
      <trkpt lat="45.15931" lon="5.63217">
        <ele>1379</ele>
        <time>2019-12-15T09:56:42.000Z</time>
      </trkpt>
      <trkpt lat="45.15932" lon="5.63214">
        <ele>1378.5999755859</ele>
        <time>2019-12-15T09:56:43.000Z</time>
      </trkpt>
      <trkpt lat="45.15936" lon="5.63211">
        <ele>1376.5999755859</ele>
        <time>2019-12-15T09:56:45.000Z</time>
      </trkpt>
      <trkpt lat="45.15937" lon="5.63206">
        <ele>1374.4000244141</ele>
        <time>2019-12-15T09:56:46.000Z</time>
      </trkpt>
      <trkpt lat="45.15937" lon="5.63201">
        <ele>1373.4000244141</ele>
        <time>2019-12-15T09:56:47.000Z</time>
      </trkpt>
      <trkpt lat="45.15938" lon="5.63191">
        <ele>1372</ele>
        <time>2019-12-15T09:56:49.000Z</time>
      </trkpt>
      <trkpt lat="45.15938" lon="5.63184">
        <ele>1370.4000244141</ele>
        <time>2019-12-15T09:56:51.000Z</time>
      </trkpt>
      <trkpt lat="45.1594" lon="5.63184">
        <ele>1369</ele>
        <time>2019-12-15T09:56:52.000Z</time>
      </trkpt>
      <trkpt lat="45.15943" lon="5.63181">
        <ele>1368</ele>
        <time>2019-12-15T09:56:53.000Z</time>
      </trkpt>
      <trkpt lat="45.15945" lon="5.63177">
        <ele>1367.1999511719</ele>
        <time>2019-12-15T09:56:54.000Z</time>
      </trkpt>
      <trkpt lat="45.15947" lon="5.63173">
        <ele>1366.5999755859</ele>
        <time>2019-12-15T09:56:55.000Z</time>
      </trkpt>
      <trkpt lat="45.15952" lon="5.63165">
        <ele>1364.8000488281</ele>
        <time>2019-12-15T09:56:57.000Z</time>
      </trkpt>
      <trkpt lat="45.15955" lon="5.63161">
        <ele>1363.5999755859</ele>
        <time>2019-12-15T09:56:58.000Z</time>
      </trkpt>
      <trkpt lat="45.15955" lon="5.63159">
        <ele>1362.4000244141</ele>
        <time>2019-12-15T09:56:59.000Z</time>
      </trkpt>
      <trkpt lat="45.15957" lon="5.63158">
        <ele>1360.8000488281</ele>
        <time>2019-12-15T09:57:01.000Z</time>
      </trkpt>
      <trkpt lat="45.15959" lon="5.63158">
        <ele>1359.1999511719</ele>
        <time>2019-12-15T09:57:03.000Z</time>
      </trkpt>
      <trkpt lat="45.1596" lon="5.63158">
        <ele>1357.5999755859</ele>
        <time>2019-12-15T09:57:05.000Z</time>
      </trkpt>
      <trkpt lat="45.15961" lon="5.63156">
        <ele>1357</ele>
        <time>2019-12-15T09:57:08.000Z</time>
      </trkpt>
      <trkpt lat="45.15965" lon="5.63156">
        <ele>1356.5999755859</ele>
        <time>2019-12-15T09:57:11.000Z</time>
      </trkpt>
      <trkpt lat="45.15966" lon="5.63157">
        <ele>1356</ele>
        <time>2019-12-15T09:57:12.000Z</time>
      </trkpt>
      <trkpt lat="45.15968" lon="5.63156">
        <ele>1355.4000244141</ele>
        <time>2019-12-15T09:57:14.000Z</time>
      </trkpt>
      <trkpt lat="45.15969" lon="5.63154">
        <ele>1355.1999511719</ele>
        <time>2019-12-15T09:57:15.000Z</time>
      </trkpt>
      <trkpt lat="45.15971" lon="5.63152">
        <ele>1354.8000488281</ele>
        <time>2019-12-15T09:57:18.000Z</time>
      </trkpt>
      <trkpt lat="45.15973" lon="5.63151">
        <ele>1354.4000244141</ele>
        <time>2019-12-15T09:57:19.000Z</time>
      </trkpt>
      <trkpt lat="45.15975" lon="5.63151">
        <ele>1353</ele>
        <time>2019-12-15T09:57:21.000Z</time>
      </trkpt>
      <trkpt lat="45.15977" lon="5.63148">
        <ele>1351.8000488281</ele>
        <time>2019-12-15T09:57:23.000Z</time>
      </trkpt>
      <trkpt lat="45.15978" lon="5.63146">
        <ele>1351.1999511719</ele>
        <time>2019-12-15T09:57:24.000Z</time>
      </trkpt>
      <trkpt lat="45.15979" lon="5.63142">
        <ele>1350.4000244141</ele>
        <time>2019-12-15T09:57:26.000Z</time>
      </trkpt>
      <trkpt lat="45.1598" lon="5.63139">
        <ele>1349</ele>
        <time>2019-12-15T09:57:29.000Z</time>
      </trkpt>
      <trkpt lat="45.15981" lon="5.63136">
        <ele>1347.8000488281</ele>
        <time>2019-12-15T09:57:31.000Z</time>
      </trkpt>
      <trkpt lat="45.15984" lon="5.63136">
        <ele>1346.8000488281</ele>
        <time>2019-12-15T09:57:33.000Z</time>
      </trkpt>
      <trkpt lat="45.15985" lon="5.63135">
        <ele>1345.5999755859</ele>
        <time>2019-12-15T09:57:34.000Z</time>
      </trkpt>
      <trkpt lat="45.15986" lon="5.63133">
        <ele>1344.4000244141</ele>
        <time>2019-12-15T09:57:37.000Z</time>
      </trkpt>
      <trkpt lat="45.15987" lon="5.63131">
        <ele>1344.1999511719</ele>
        <time>2019-12-15T09:57:39.000Z</time>
      </trkpt>
      <trkpt lat="45.15991" lon="5.63126">
        <ele>1343</ele>
        <time>2019-12-15T09:57:42.000Z</time>
      </trkpt>
      <trkpt lat="45.15993" lon="5.63127">
        <ele>1342.4000244141</ele>
        <time>2019-12-15T09:57:43.000Z</time>
      </trkpt>
      <trkpt lat="45.15993" lon="5.63127">
        <ele>1341.5999755859</ele>
        <time>2019-12-15T09:57:44.000Z</time>
      </trkpt>
      <trkpt lat="45.15993" lon="5.63127">
        <ele>1340</ele>
        <time>2019-12-15T09:57:46.000Z</time>
      </trkpt>
      <trkpt lat="45.15994" lon="5.63125">
        <ele>1339.4000244141</ele>
        <time>2019-12-15T09:57:47.000Z</time>
      </trkpt>
      <trkpt lat="45.15995" lon="5.63123">
        <ele>1338.8000488281</ele>
        <time>2019-12-15T09:57:48.000Z</time>
      </trkpt>
      <trkpt lat="45.15996" lon="5.6312">
        <ele>1337.8000488281</ele>
        <time>2019-12-15T09:57:50.000Z</time>
      </trkpt>
      <trkpt lat="45.15997" lon="5.63119">
        <ele>1337.4000244141</ele>
        <time>2019-12-15T09:57:51.000Z</time>
      </trkpt>
      <trkpt lat="45.15997" lon="5.63118">
        <ele>1335.8000488281</ele>
        <time>2019-12-15T09:57:53.000Z</time>
      </trkpt>
      <trkpt lat="45.15998" lon="5.63118">
        <ele>1334.8000488281</ele>
        <time>2019-12-15T09:57:55.000Z</time>
      </trkpt>
      <trkpt lat="45.15999" lon="5.63119">
        <ele>1334.1999511719</ele>
        <time>2019-12-15T09:57:56.000Z</time>
      </trkpt>
      <trkpt lat="45.15999" lon="5.63119">
        <ele>1333.4000244141</ele>
        <time>2019-12-15T09:57:58.000Z</time>
      </trkpt>
      <trkpt lat="45.16001" lon="5.63116">
        <ele>1332.8000488281</ele>
        <time>2019-12-15T09:58:04.000Z</time>
      </trkpt>
      <trkpt lat="45.16001" lon="5.63116">
        <ele>1332.1999511719</ele>
        <time>2019-12-15T09:58:07.000Z</time>
      </trkpt>
      <trkpt lat="45.16006" lon="5.6311">
        <ele>1331.1999511719</ele>
        <time>2019-12-15T09:58:10.000Z</time>
      </trkpt>
      <trkpt lat="45.1601" lon="5.63103">
        <ele>1330.1999511719</ele>
        <time>2019-12-15T09:58:13.000Z</time>
      </trkpt>
      <trkpt lat="45.1601" lon="5.63101">
        <ele>1329.8000488281</ele>
        <time>2019-12-15T09:58:14.000Z</time>
      </trkpt>
      <trkpt lat="45.1601" lon="5.63099">
        <ele>1329.1999511719</ele>
        <time>2019-12-15T09:58:16.000Z</time>
      </trkpt>
      <trkpt lat="45.16012" lon="5.63094">
        <ele>1328</ele>
        <time>2019-12-15T09:58:18.000Z</time>
      </trkpt>
      <trkpt lat="45.16014" lon="5.63088">
        <ele>1326.5999755859</ele>
        <time>2019-12-15T09:58:20.000Z</time>
      </trkpt>
      <trkpt lat="45.16014" lon="5.63086">
        <ele>1325.4000244141</ele>
        <time>2019-12-15T09:58:22.000Z</time>
      </trkpt>
      <trkpt lat="45.16017" lon="5.63084">
        <ele>1324.4000244141</ele>
        <time>2019-12-15T09:58:24.000Z</time>
      </trkpt>
      <trkpt lat="45.16019" lon="5.63085">
        <ele>1324</ele>
        <time>2019-12-15T09:58:25.000Z</time>
      </trkpt>
      <trkpt lat="45.16024" lon="5.63088">
        <ele>1322.8000488281</ele>
        <time>2019-12-15T09:58:28.000Z</time>
      </trkpt>
      <trkpt lat="45.16027" lon="5.63085">
        <ele>1322</ele>
        <time>2019-12-15T09:58:30.000Z</time>
      </trkpt>
      <trkpt lat="45.16028" lon="5.63083">
        <ele>1321.5999755859</ele>
        <time>2019-12-15T09:58:31.000Z</time>
      </trkpt>
      <trkpt lat="45.16028" lon="5.63077">
        <ele>1320.1999511719</ele>
        <time>2019-12-15T09:58:33.000Z</time>
      </trkpt>
      <trkpt lat="45.16028" lon="5.63073">
        <ele>1318.4000244141</ele>
        <time>2019-12-15T09:58:35.000Z</time>
      </trkpt>
      <trkpt lat="45.16028" lon="5.63071">
        <ele>1317.4000244141</ele>
        <time>2019-12-15T09:58:36.000Z</time>
      </trkpt>
      <trkpt lat="45.16029" lon="5.63068">
        <ele>1315.5999755859</ele>
        <time>2019-12-15T09:58:38.000Z</time>
      </trkpt>
      <trkpt lat="45.16031" lon="5.63063">
        <ele>1314.4000244141</ele>
        <time>2019-12-15T09:58:41.000Z</time>
      </trkpt>
      <trkpt lat="45.16034" lon="5.63059">
        <ele>1313.1999511719</ele>
        <time>2019-12-15T09:58:43.000Z</time>
      </trkpt>
      <trkpt lat="45.16037" lon="5.63058">
        <ele>1311.5999755859</ele>
        <time>2019-12-15T09:58:45.000Z</time>
      </trkpt>
      <trkpt lat="45.16038" lon="5.63057">
        <ele>1310.1999511719</ele>
        <time>2019-12-15T09:58:46.000Z</time>
      </trkpt>
      <trkpt lat="45.16039" lon="5.63055">
        <ele>1308.4000244141</ele>
        <time>2019-12-15T09:58:48.000Z</time>
      </trkpt>
      <trkpt lat="45.1604" lon="5.63053">
        <ele>1307.5999755859</ele>
        <time>2019-12-15T09:58:49.000Z</time>
      </trkpt>
      <trkpt lat="45.16042" lon="5.63053">
        <ele>1307</ele>
        <time>2019-12-15T09:58:50.000Z</time>
      </trkpt>
      <trkpt lat="45.16046" lon="5.63049">
        <ele>1305.4000244141</ele>
        <time>2019-12-15T09:58:52.000Z</time>
      </trkpt>
      <trkpt lat="45.16048" lon="5.63044">
        <ele>1304.5999755859</ele>
        <time>2019-12-15T09:58:53.000Z</time>
      </trkpt>
      <trkpt lat="45.1605" lon="5.63041">
        <ele>1304</ele>
        <time>2019-12-15T09:58:54.000Z</time>
      </trkpt>
      <trkpt lat="45.16052" lon="5.6304">
        <ele>1303.5999755859</ele>
        <time>2019-12-15T09:58:55.000Z</time>
      </trkpt>
      <trkpt lat="45.16056" lon="5.63042">
        <ele>1303</ele>
        <time>2019-12-15T09:58:56.000Z</time>
      </trkpt>
      <trkpt lat="45.16062" lon="5.63045">
        <ele>1301.1999511719</ele>
        <time>2019-12-15T09:58:58.000Z</time>
      </trkpt>
      <trkpt lat="45.16066" lon="5.63047">
        <ele>1299.4000244141</ele>
        <time>2019-12-15T09:59:00.000Z</time>
      </trkpt>
      <trkpt lat="45.16069" lon="5.63047">
        <ele>1298.4000244141</ele>
        <time>2019-12-15T09:59:02.000Z</time>
      </trkpt>
      <trkpt lat="45.16071" lon="5.63046">
        <ele>1298</ele>
        <time>2019-12-15T09:59:03.000Z</time>
      </trkpt>
      <trkpt lat="45.16073" lon="5.63045">
        <ele>1297.5999755859</ele>
        <time>2019-12-15T09:59:04.000Z</time>
      </trkpt>
      <trkpt lat="45.16075" lon="5.63042">
        <ele>1297.1999511719</ele>
        <time>2019-12-15T09:59:05.000Z</time>
      </trkpt>
      <trkpt lat="45.1608" lon="5.63041">
        <ele>1296.1999511719</ele>
        <time>2019-12-15T09:59:07.000Z</time>
      </trkpt>
      <trkpt lat="45.16083" lon="5.6304">
        <ele>1295.4000244141</ele>
        <time>2019-12-15T09:59:08.000Z</time>
      </trkpt>
      <trkpt lat="45.16088" lon="5.63033">
        <ele>1292.8000488281</ele>
        <time>2019-12-15T09:59:10.000Z</time>
      </trkpt>
      <trkpt lat="45.16088" lon="5.63029">
        <ele>1292</ele>
        <time>2019-12-15T09:59:11.000Z</time>
      </trkpt>
      <trkpt lat="45.16087" lon="5.63026">
        <ele>1291.1999511719</ele>
        <time>2019-12-15T09:59:12.000Z</time>
      </trkpt>
      <trkpt lat="45.16086" lon="5.63022">
        <ele>1289.5999755859</ele>
        <time>2019-12-15T09:59:14.000Z</time>
      </trkpt>
      <trkpt lat="45.16086" lon="5.63017">
        <ele>1287.8000488281</ele>
        <time>2019-12-15T09:59:16.000Z</time>
      </trkpt>
      <trkpt lat="45.16086" lon="5.6301">
        <ele>1286.5999755859</ele>
        <time>2019-12-15T09:59:19.000Z</time>
      </trkpt>
      <trkpt lat="45.16089" lon="5.62997">
        <ele>1286.4000244141</ele>
        <time>2019-12-15T09:59:27.000Z</time>
      </trkpt>
      <trkpt lat="45.16091" lon="5.62991">
        <ele>1285.5999755859</ele>
        <time>2019-12-15T09:59:31.000Z</time>
      </trkpt>
      <trkpt lat="45.16095" lon="5.63001">
        <ele>1284.5999755859</ele>
        <time>2019-12-15T09:59:33.000Z</time>
      </trkpt>
      <trkpt lat="45.16096" lon="5.63006">
        <ele>1283.8000488281</ele>
        <time>2019-12-15T09:59:34.000Z</time>
      </trkpt>
      <trkpt lat="45.16096" lon="5.63012">
        <ele>1283.4000244141</ele>
        <time>2019-12-15T09:59:39.000Z</time>
      </trkpt>
      <trkpt lat="45.16096" lon="5.63014">
        <ele>1283.4000244141</ele>
        <time>2019-12-15T09:59:42.000Z</time>
      </trkpt>
      <trkpt lat="45.16098" lon="5.63013">
        <ele>1282.8000488281</ele>
        <time>2019-12-15T09:59:44.000Z</time>
      </trkpt>
      <trkpt lat="45.16099" lon="5.63017">
        <ele>1281.8000488281</ele>
        <time>2019-12-15T09:59:46.000Z</time>
      </trkpt>
      <trkpt lat="45.16097" lon="5.63018">
        <ele>1281.4000244141</ele>
        <time>2019-12-15T09:59:47.000Z</time>
      </trkpt>
      <trkpt lat="45.16097" lon="5.63018">
        <ele>1280.8000488281</ele>
        <time>2019-12-15T09:59:48.000Z</time>
      </trkpt>
      <trkpt lat="45.16098" lon="5.63018">
        <ele>1280.4000244141</ele>
        <time>2019-12-15T09:59:49.000Z</time>
      </trkpt>
      <trkpt lat="45.16098" lon="5.63016">
        <ele>1279.5999755859</ele>
        <time>2019-12-15T09:59:51.000Z</time>
      </trkpt>
      <trkpt lat="45.16097" lon="5.63016">
        <ele>1279.4000244141</ele>
        <time>2019-12-15T09:59:52.000Z</time>
      </trkpt>
      <trkpt lat="45.16095" lon="5.63011">
        <ele>1278.5999755859</ele>
        <time>2019-12-15T09:59:54.000Z</time>
      </trkpt>
      <trkpt lat="45.16095" lon="5.63001">
        <ele>1277.4000244141</ele>
        <time>2019-12-15T09:59:56.000Z</time>
      </trkpt>
      <trkpt lat="45.16098" lon="5.62994">
        <ele>1276.1999511719</ele>
        <time>2019-12-15T09:59:58.000Z</time>
      </trkpt>
      <trkpt lat="45.16102" lon="5.62994">
        <ele>1275.5999755859</ele>
        <time>2019-12-15T09:59:59.000Z</time>
      </trkpt>
      <trkpt lat="45.16105" lon="5.62996">
        <ele>1274.8000488281</ele>
        <time>2019-12-15T10:00:00.000Z</time>
      </trkpt>
      <trkpt lat="45.16113" lon="5.62993">
        <ele>1273</ele>
        <time>2019-12-15T10:00:02.000Z</time>
      </trkpt>
      <trkpt lat="45.16116" lon="5.62992">
        <ele>1272</ele>
        <time>2019-12-15T10:00:03.000Z</time>
      </trkpt>
      <trkpt lat="45.16119" lon="5.6299">
        <ele>1271</ele>
        <time>2019-12-15T10:00:04.000Z</time>
      </trkpt>
      <trkpt lat="45.16123" lon="5.62989">
        <ele>1270</ele>
        <time>2019-12-15T10:00:05.000Z</time>
      </trkpt>
      <trkpt lat="45.16128" lon="5.6299">
        <ele>1268.8000488281</ele>
        <time>2019-12-15T10:00:06.000Z</time>
      </trkpt>
      <trkpt lat="45.16132" lon="5.62993">
        <ele>1267.8000488281</ele>
        <time>2019-12-15T10:00:07.000Z</time>
      </trkpt>
      <trkpt lat="45.1614" lon="5.62995">
        <ele>1265.8000488281</ele>
        <time>2019-12-15T10:00:09.000Z</time>
      </trkpt>
      <trkpt lat="45.16148" lon="5.62996">
        <ele>1264.1999511719</ele>
        <time>2019-12-15T10:00:11.000Z</time>
      </trkpt>
      <trkpt lat="45.16152" lon="5.62995">
        <ele>1263.5999755859</ele>
        <time>2019-12-15T10:00:12.000Z</time>
      </trkpt>
      <trkpt lat="45.16156" lon="5.62994">
        <ele>1263</ele>
        <time>2019-12-15T10:00:13.000Z</time>
      </trkpt>
      <trkpt lat="45.16163" lon="5.62994">
        <ele>1261.8000488281</ele>
        <time>2019-12-15T10:00:15.000Z</time>
      </trkpt>
      <trkpt lat="45.16174" lon="5.62991">
        <ele>1260.5999755859</ele>
        <time>2019-12-15T10:00:18.000Z</time>
      </trkpt>
      <trkpt lat="45.16184" lon="5.62988">
        <ele>1260.4000244141</ele>
        <time>2019-12-15T10:00:21.000Z</time>
      </trkpt>
      <trkpt lat="45.16179" lon="5.62998">
        <ele>1260.4000244141</ele>
        <time>2019-12-15T10:00:24.000Z</time>
      </trkpt>
      <trkpt lat="45.16174" lon="5.63005">
        <ele>1260.1999511719</ele>
        <time>2019-12-15T10:00:33.000Z</time>
      </trkpt>
      <trkpt lat="45.16149" lon="5.63018">
        <ele>1260.4000244141</ele>
        <time>2019-12-15T10:00:40.000Z</time>
      </trkpt>
      <trkpt lat="45.16149" lon="5.63018">
        <ele>1260.4000244141</ele>
        <time>2019-12-15T10:00:49.000Z</time>
      </trkpt>
      <trkpt lat="45.16147" lon="5.63023">
        <ele>1260.1999511719</ele>
        <time>2019-12-15T10:01:01.000Z</time>
      </trkpt>
      <trkpt lat="45.16149" lon="5.63028">
        <ele>1260.5999755859</ele>
        <time>2019-12-15T10:01:07.000Z</time>
      </trkpt>
      <trkpt lat="45.16147" lon="5.63033">
        <ele>1260.4000244141</ele>
        <time>2019-12-15T10:01:18.000Z</time>
      </trkpt>
      <trkpt lat="45.16147" lon="5.63033">
        <ele>1260.5999755859</ele>
        <time>2019-12-15T10:01:30.000Z</time>
      </trkpt>
      <trkpt lat="45.16147" lon="5.63033">
        <ele>1260.4000244141</ele>
        <time>2019-12-15T10:01:43.000Z</time>
      </trkpt>
      <trkpt lat="45.16151" lon="5.63031">
        <ele>1260.4000244141</ele>
        <time>2019-12-15T10:01:50.000Z</time>
      </trkpt>
      <trkpt lat="45.16151" lon="5.63031">
        <ele>1260.4000244141</ele>
        <time>2019-12-15T10:02:00.000Z</time>
      </trkpt>
      <trkpt lat="45.1616" lon="5.63023">
        <ele>1260.1999511719</ele>
        <time>2019-12-15T10:02:05.000Z</time>
      </trkpt>
      <trkpt lat="45.16163" lon="5.63022">
        <ele>1260</ele>
        <time>2019-12-15T10:02:06.000Z</time>
      </trkpt>
      <trkpt lat="45.16169" lon="5.63005">
        <ele>1259.4000244141</ele>
        <time>2019-12-15T10:02:08.000Z</time>
      </trkpt>
      <trkpt lat="45.16172" lon="5.63001">
        <ele>1259.1999511719</ele>
        <time>2019-12-15T10:02:09.000Z</time>
      </trkpt>
      <trkpt lat="45.16175" lon="5.62997">
        <ele>1258.8000488281</ele>
        <time>2019-12-15T10:02:10.000Z</time>
      </trkpt>
      <trkpt lat="45.16178" lon="5.62992">
        <ele>1258.1999511719</ele>
        <time>2019-12-15T10:02:11.000Z</time>
      </trkpt>
      <trkpt lat="45.16182" lon="5.62989">
        <ele>1257.4000244141</ele>
        <time>2019-12-15T10:02:12.000Z</time>
      </trkpt>
      <trkpt lat="45.16186" lon="5.62987">
        <ele>1256.4000244141</ele>
        <time>2019-12-15T10:02:13.000Z</time>
      </trkpt>
      <trkpt lat="45.1619" lon="5.62985">
        <ele>1255.4000244141</ele>
        <time>2019-12-15T10:02:14.000Z</time>
      </trkpt>
      <trkpt lat="45.16194" lon="5.62983">
        <ele>1254.4000244141</ele>
        <time>2019-12-15T10:02:15.000Z</time>
      </trkpt>
      <trkpt lat="45.16197" lon="5.62978">
        <ele>1253.1999511719</ele>
        <time>2019-12-15T10:02:16.000Z</time>
      </trkpt>
      <trkpt lat="45.162" lon="5.62973">
        <ele>1252.1999511719</ele>
        <time>2019-12-15T10:02:17.000Z</time>
      </trkpt>
      <trkpt lat="45.16205" lon="5.62965">
        <ele>1250.5999755859</ele>
        <time>2019-12-15T10:02:19.000Z</time>
      </trkpt>
      <trkpt lat="45.1621" lon="5.62957">
        <ele>1248.5999755859</ele>
        <time>2019-12-15T10:02:21.000Z</time>
      </trkpt>
      <trkpt lat="45.16214" lon="5.62952">
        <ele>1247</ele>
        <time>2019-12-15T10:02:22.000Z</time>
      </trkpt>
      <trkpt lat="45.16218" lon="5.62943">
        <ele>1245.4000244141</ele>
        <time>2019-12-15T10:02:24.000Z</time>
      </trkpt>
      <trkpt lat="45.16225" lon="5.62933">
        <ele>1243.1999511719</ele>
        <time>2019-12-15T10:02:26.000Z</time>
      </trkpt>
      <trkpt lat="45.16229" lon="5.62927">
        <ele>1241.8000488281</ele>
        <time>2019-12-15T10:02:27.000Z</time>
      </trkpt>
      <trkpt lat="45.16233" lon="5.62922">
        <ele>1240.4000244141</ele>
        <time>2019-12-15T10:02:28.000Z</time>
      </trkpt>
      <trkpt lat="45.16237" lon="5.62918">
        <ele>1239</ele>
        <time>2019-12-15T10:02:29.000Z</time>
      </trkpt>
      <trkpt lat="45.16241" lon="5.62915">
        <ele>1237.4000244141</ele>
        <time>2019-12-15T10:02:30.000Z</time>
      </trkpt>
      <trkpt lat="45.16246" lon="5.62913">
        <ele>1236</ele>
        <time>2019-12-15T10:02:31.000Z</time>
      </trkpt>
      <trkpt lat="45.1625" lon="5.62909">
        <ele>1234.5999755859</ele>
        <time>2019-12-15T10:02:32.000Z</time>
      </trkpt>
      <trkpt lat="45.16254" lon="5.62905">
        <ele>1233.4000244141</ele>
        <time>2019-12-15T10:02:33.000Z</time>
      </trkpt>
      <trkpt lat="45.16259" lon="5.629">
        <ele>1232</ele>
        <time>2019-12-15T10:02:34.000Z</time>
      </trkpt>
      <trkpt lat="45.16265" lon="5.62897">
        <ele>1231</ele>
        <time>2019-12-15T10:02:35.000Z</time>
      </trkpt>
      <trkpt lat="45.16269" lon="5.62892">
        <ele>1229.8000488281</ele>
        <time>2019-12-15T10:02:36.000Z</time>
      </trkpt>
      <trkpt lat="45.1627" lon="5.62885">
        <ele>1228.8000488281</ele>
        <time>2019-12-15T10:02:37.000Z</time>
      </trkpt>
      <trkpt lat="45.16272" lon="5.62878">
        <ele>1227.5999755859</ele>
        <time>2019-12-15T10:02:38.000Z</time>
      </trkpt>
      <trkpt lat="45.16273" lon="5.6287">
        <ele>1226.4000244141</ele>
        <time>2019-12-15T10:02:39.000Z</time>
      </trkpt>
      <trkpt lat="45.16275" lon="5.62863">
        <ele>1225.1999511719</ele>
        <time>2019-12-15T10:02:40.000Z</time>
      </trkpt>
      <trkpt lat="45.16276" lon="5.62855">
        <ele>1223.8000488281</ele>
        <time>2019-12-15T10:02:41.000Z</time>
      </trkpt>
      <trkpt lat="45.16275" lon="5.62848">
        <ele>1222</ele>
        <time>2019-12-15T10:02:42.000Z</time>
      </trkpt>
      <trkpt lat="45.16274" lon="5.62843">
        <ele>1220.4000244141</ele>
        <time>2019-12-15T10:02:43.000Z</time>
      </trkpt>
      <trkpt lat="45.16274" lon="5.62836">
        <ele>1218.8000488281</ele>
        <time>2019-12-15T10:02:44.000Z</time>
      </trkpt>
      <trkpt lat="45.16274" lon="5.62829">
        <ele>1217.1999511719</ele>
        <time>2019-12-15T10:02:45.000Z</time>
      </trkpt>
      <trkpt lat="45.16274" lon="5.62824">
        <ele>1213.8000488281</ele>
        <time>2019-12-15T10:02:46.000Z</time>
      </trkpt>
      <trkpt lat="45.16273" lon="5.62818">
        <ele>1212.1999511719</ele>
        <time>2019-12-15T10:02:47.000Z</time>
      </trkpt>
      <trkpt lat="45.16272" lon="5.62813">
        <ele>1210.5999755859</ele>
        <time>2019-12-15T10:02:48.000Z</time>
      </trkpt>
      <trkpt lat="45.16275" lon="5.62804">
        <ele>1208.8000488281</ele>
        <time>2019-12-15T10:02:49.000Z</time>
      </trkpt>
      <trkpt lat="45.16279" lon="5.62794">
        <ele>1206.8000488281</ele>
        <time>2019-12-15T10:02:50.000Z</time>
      </trkpt>
      <trkpt lat="45.16283" lon="5.62783">
        <ele>1205</ele>
        <time>2019-12-15T10:02:51.000Z</time>
      </trkpt>
      <trkpt lat="45.16286" lon="5.62775">
        <ele>1203.1999511719</ele>
        <time>2019-12-15T10:02:52.000Z</time>
      </trkpt>
      <trkpt lat="45.16288" lon="5.62765">
        <ele>1201.1999511719</ele>
        <time>2019-12-15T10:02:53.000Z</time>
      </trkpt>
      <trkpt lat="45.16291" lon="5.62756">
        <ele>1199.1999511719</ele>
        <time>2019-12-15T10:02:54.000Z</time>
      </trkpt>
      <trkpt lat="45.16295" lon="5.62748">
        <ele>1197.1999511719</ele>
        <time>2019-12-15T10:02:55.000Z</time>
      </trkpt>
      <trkpt lat="45.16298" lon="5.6274">
        <ele>1195.1999511719</ele>
        <time>2019-12-15T10:02:56.000Z</time>
      </trkpt>
      <trkpt lat="45.16301" lon="5.62731">
        <ele>1193.5999755859</ele>
        <time>2019-12-15T10:02:57.000Z</time>
      </trkpt>
      <trkpt lat="45.16305" lon="5.62725">
        <ele>1191.8000488281</ele>
        <time>2019-12-15T10:02:58.000Z</time>
      </trkpt>
      <trkpt lat="45.16309" lon="5.62717">
        <ele>1190.1999511719</ele>
        <time>2019-12-15T10:02:59.000Z</time>
      </trkpt>
      <trkpt lat="45.16314" lon="5.62709">
        <ele>1188.5999755859</ele>
        <time>2019-12-15T10:03:00.000Z</time>
      </trkpt>
      <trkpt lat="45.16317" lon="5.627">
        <ele>1187</ele>
        <time>2019-12-15T10:03:01.000Z</time>
      </trkpt>
      <trkpt lat="45.1632" lon="5.62691">
        <ele>1185.4000244141</ele>
        <time>2019-12-15T10:03:02.000Z</time>
      </trkpt>
      <trkpt lat="45.16322" lon="5.62683">
        <ele>1183.8000488281</ele>
        <time>2019-12-15T10:03:03.000Z</time>
      </trkpt>
      <trkpt lat="45.16324" lon="5.62676">
        <ele>1182.4000244141</ele>
        <time>2019-12-15T10:03:04.000Z</time>
      </trkpt>
      <trkpt lat="45.1633" lon="5.62675">
        <ele>1180.8000488281</ele>
        <time>2019-12-15T10:03:05.000Z</time>
      </trkpt>
      <trkpt lat="45.16334" lon="5.62671">
        <ele>1179.1999511719</ele>
        <time>2019-12-15T10:03:06.000Z</time>
      </trkpt>
      <trkpt lat="45.16339" lon="5.62667">
        <ele>1177.8000488281</ele>
        <time>2019-12-15T10:03:07.000Z</time>
      </trkpt>
      <trkpt lat="45.16343" lon="5.62663">
        <ele>1176.4000244141</ele>
        <time>2019-12-15T10:03:08.000Z</time>
      </trkpt>
      <trkpt lat="45.16347" lon="5.62659">
        <ele>1175.1999511719</ele>
        <time>2019-12-15T10:03:09.000Z</time>
      </trkpt>
      <trkpt lat="45.16353" lon="5.62658">
        <ele>1173.1999511719</ele>
        <time>2019-12-15T10:03:10.000Z</time>
      </trkpt>
      <trkpt lat="45.16359" lon="5.62655">
        <ele>1172.1999511719</ele>
        <time>2019-12-15T10:03:11.000Z</time>
      </trkpt>
      <trkpt lat="45.16363" lon="5.62649">
        <ele>1171.1999511719</ele>
        <time>2019-12-15T10:03:12.000Z</time>
      </trkpt>
      <trkpt lat="45.16372" lon="5.62642">
        <ele>1169.1999511719</ele>
        <time>2019-12-15T10:03:14.000Z</time>
      </trkpt>
      <trkpt lat="45.16376" lon="5.62638">
        <ele>1168.1999511719</ele>
        <time>2019-12-15T10:03:15.000Z</time>
      </trkpt>
      <trkpt lat="45.1638" lon="5.62633">
        <ele>1167.1999511719</ele>
        <time>2019-12-15T10:03:16.000Z</time>
      </trkpt>
      <trkpt lat="45.16382" lon="5.6263">
        <ele>1166.1999511719</ele>
        <time>2019-12-15T10:03:17.000Z</time>
      </trkpt>
      <trkpt lat="45.1639" lon="5.6263">
        <ele>1164.4000244141</ele>
        <time>2019-12-15T10:03:19.000Z</time>
      </trkpt>
      <trkpt lat="45.16396" lon="5.62629">
        <ele>1163</ele>
        <time>2019-12-15T10:03:21.000Z</time>
      </trkpt>
      <trkpt lat="45.16391" lon="5.62632">
        <ele>1161.8000488281</ele>
        <time>2019-12-15T10:03:23.000Z</time>
      </trkpt>
      <trkpt lat="45.16388" lon="5.62634">
        <ele>1160.8000488281</ele>
        <time>2019-12-15T10:03:28.000Z</time>
      </trkpt>
      <trkpt lat="45.16388" lon="5.62634">
        <ele>1160.8000488281</ele>
        <time>2019-12-15T10:03:30.000Z</time>
      </trkpt>
      <trkpt lat="45.16388" lon="5.62634">
        <ele>1160.5999755859</ele>
        <time>2019-12-15T10:03:40.000Z</time>
      </trkpt>
      <trkpt lat="45.16388" lon="5.62634">
        <ele>1160.4000244141</ele>
        <time>2019-12-15T10:03:51.000Z</time>
      </trkpt>
      <trkpt lat="45.16388" lon="5.62634">
        <ele>1160.5999755859</ele>
        <time>2019-12-15T10:04:02.000Z</time>
      </trkpt>
      <trkpt lat="45.16388" lon="5.62635">
        <ele>1160.4000244141</ele>
        <time>2019-12-15T10:04:15.000Z</time>
      </trkpt>
      <trkpt lat="45.16388" lon="5.62635">
        <ele>1160.4000244141</ele>
        <time>2019-12-15T10:04:24.000Z</time>
      </trkpt>
      <trkpt lat="45.16388" lon="5.62635">
        <ele>1160.5999755859</ele>
        <time>2019-12-15T10:04:35.000Z</time>
      </trkpt>
      <trkpt lat="45.16389" lon="5.62636">
        <ele>1160.1999511719</ele>
        <time>2019-12-15T10:04:50.000Z</time>
      </trkpt>
      <trkpt lat="45.16389" lon="5.62636">
        <ele>1160.1999511719</ele>
        <time>2019-12-15T10:05:07.000Z</time>
      </trkpt>
      <trkpt lat="45.16389" lon="5.62636">
        <ele>1160.4000244141</ele>
        <time>2019-12-15T10:05:19.000Z</time>
      </trkpt>
      <trkpt lat="45.16388" lon="5.62637">
        <ele>1160.1999511719</ele>
        <time>2019-12-15T10:05:29.000Z</time>
      </trkpt>
      <trkpt lat="45.16388" lon="5.62637">
        <ele>1160.4000244141</ele>
        <time>2019-12-15T10:05:45.000Z</time>
      </trkpt>
      <trkpt lat="45.16388" lon="5.62637">
        <ele>1160.1999511719</ele>
        <time>2019-12-15T10:05:59.000Z</time>
      </trkpt>
      <trkpt lat="45.16388" lon="5.62638">
        <ele>1160.1999511719</ele>
        <time>2019-12-15T10:06:11.000Z</time>
      </trkpt>
      <trkpt lat="45.16388" lon="5.62638">
        <ele>1160.1999511719</ele>
        <time>2019-12-15T10:06:25.000Z</time>
      </trkpt>
      <trkpt lat="45.16388" lon="5.62638">
        <ele>1160</ele>
        <time>2019-12-15T10:06:35.000Z</time>
      </trkpt>
      <trkpt lat="45.16388" lon="5.62639">
        <ele>1160.1999511719</ele>
        <time>2019-12-15T10:06:49.000Z</time>
      </trkpt>
      <trkpt lat="45.16388" lon="5.62639">
        <ele>1160.1999511719</ele>
        <time>2019-12-15T10:06:58.000Z</time>
      </trkpt>
      <trkpt lat="45.16388" lon="5.62639">
        <ele>1160</ele>
        <time>2019-12-15T10:07:12.000Z</time>
      </trkpt>
      <trkpt lat="45.16387" lon="5.62641">
        <ele>1160.1999511719</ele>
        <time>2019-12-15T10:07:27.000Z</time>
      </trkpt>
      <trkpt lat="45.16387" lon="5.62641">
        <ele>1160</ele>
        <time>2019-12-15T10:07:39.000Z</time>
      </trkpt>
      <trkpt lat="45.16387" lon="5.62641">
        <ele>1160.1999511719</ele>
        <time>2019-12-15T10:07:49.000Z</time>
      </trkpt>
      <trkpt lat="45.16387" lon="5.62641">
        <ele>1159.8000488281</ele>
        <time>2019-12-15T10:07:57.000Z</time>
      </trkpt>
      <trkpt lat="45.16387" lon="5.62641">
        <ele>1159.4000244141</ele>
        <time>2019-12-15T10:08:01.000Z</time>
      </trkpt>
      <trkpt lat="45.16388" lon="5.62641">
        <ele>1160</ele>
        <time>2019-12-15T10:08:10.000Z</time>
      </trkpt>
      <trkpt lat="45.16388" lon="5.62641">
        <ele>1160.4000244141</ele>
        <time>2019-12-15T10:08:17.000Z</time>
      </trkpt>
      <trkpt lat="45.16388" lon="5.62641">
        <ele>1160.1999511719</ele>
        <time>2019-12-15T10:08:21.000Z</time>
      </trkpt>
      <trkpt lat="45.16388" lon="5.62641">
        <ele>1160.5999755859</ele>
        <time>2019-12-15T10:08:31.000Z</time>
      </trkpt>
      <trkpt lat="45.16387" lon="5.62642">
        <ele>1160.4000244141</ele>
        <time>2019-12-15T10:08:45.000Z</time>
      </trkpt>
      <trkpt lat="45.16386" lon="5.62642">
        <ele>1160.5999755859</ele>
        <time>2019-12-15T10:08:53.000Z</time>
      </trkpt>
      <trkpt lat="45.16386" lon="5.62642">
        <ele>1160.1999511719</ele>
        <time>2019-12-15T10:09:08.000Z</time>
      </trkpt>
      <trkpt lat="45.16386" lon="5.62643">
        <ele>1161</ele>
        <time>2019-12-15T10:09:13.000Z</time>
      </trkpt>
      <trkpt lat="45.16386" lon="5.62643">
        <ele>1161</ele>
        <time>2019-12-15T10:09:15.000Z</time>
      </trkpt>
      <trkpt lat="45.16385" lon="5.62644">
        <ele>1160.4000244141</ele>
        <time>2019-12-15T10:09:31.000Z</time>
      </trkpt>
      <trkpt lat="45.16385" lon="5.62645">
        <ele>1160.1999511719</ele>
        <time>2019-12-15T10:09:39.000Z</time>
      </trkpt>
      <trkpt lat="45.16384" lon="5.62646">
        <ele>1160.1999511719</ele>
        <time>2019-12-15T10:09:49.000Z</time>
      </trkpt>
      <trkpt lat="45.16384" lon="5.62646">
        <ele>1160.4000244141</ele>
        <time>2019-12-15T10:10:02.000Z</time>
      </trkpt>
      <trkpt lat="45.16384" lon="5.62646">
        <ele>1160.5999755859</ele>
        <time>2019-12-15T10:10:11.000Z</time>
      </trkpt>
      <trkpt lat="45.16384" lon="5.62646">
        <ele>1160.5999755859</ele>
        <time>2019-12-15T10:10:24.000Z</time>
      </trkpt>
      <trkpt lat="45.16384" lon="5.62647">
        <ele>1160.4000244141</ele>
        <time>2019-12-15T10:10:38.000Z</time>
      </trkpt>
      <trkpt lat="45.16384" lon="5.62647">
        <ele>1160.4000244141</ele>
        <time>2019-12-15T10:10:47.000Z</time>
      </trkpt>
      <trkpt lat="45.16384" lon="5.62648">
        <ele>1160.4000244141</ele>
        <time>2019-12-15T10:10:49.000Z</time>
      </trkpt>
      <trkpt lat="45.16381" lon="5.62651">
        <ele>1160.5999755859</ele>
        <time>2019-12-15T10:10:52.000Z</time>
      </trkpt>
      <trkpt lat="45.16377" lon="5.62658">
        <ele>1160.8000488281</ele>
        <time>2019-12-15T10:10:57.000Z</time>
      </trkpt>
      <trkpt lat="45.16375" lon="5.62664">
        <ele>1161.4000244141</ele>
        <time>2019-12-15T10:11:02.000Z</time>
      </trkpt>
      <trkpt lat="45.16375" lon="5.62665">
        <ele>1161.5999755859</ele>
        <time>2019-12-15T10:11:03.000Z</time>
      </trkpt>
      <trkpt lat="45.16374" lon="5.62671">
        <ele>1162</ele>
        <time>2019-12-15T10:11:07.000Z</time>
      </trkpt>
      <trkpt lat="45.16373" lon="5.62678">
        <ele>1162.5999755859</ele>
        <time>2019-12-15T10:11:12.000Z</time>
      </trkpt>
      <trkpt lat="45.16371" lon="5.62687">
        <ele>1163</ele>
        <time>2019-12-15T10:11:18.000Z</time>
      </trkpt>
      <trkpt lat="45.16369" lon="5.62694">
        <ele>1163.5999755859</ele>
        <time>2019-12-15T10:11:24.000Z</time>
      </trkpt>
      <trkpt lat="45.16369" lon="5.62698">
        <ele>1164</ele>
        <time>2019-12-15T10:11:28.000Z</time>
      </trkpt>
      <trkpt lat="45.16368" lon="5.62706">
        <ele>1164.5999755859</ele>
        <time>2019-12-15T10:11:34.000Z</time>
      </trkpt>
      <trkpt lat="45.16367" lon="5.62707">
        <ele>1164.8000488281</ele>
        <time>2019-12-15T10:11:35.000Z</time>
      </trkpt>
      <trkpt lat="45.16367" lon="5.6271">
        <ele>1165.5999755859</ele>
        <time>2019-12-15T10:11:39.000Z</time>
      </trkpt>
      <trkpt lat="45.16367" lon="5.62714">
        <ele>1166</ele>
        <time>2019-12-15T10:11:42.000Z</time>
      </trkpt>
      <trkpt lat="45.16366" lon="5.62715">
        <ele>1166.5999755859</ele>
        <time>2019-12-15T10:11:44.000Z</time>
      </trkpt>
      <trkpt lat="45.16366" lon="5.62716">
        <ele>1167.1999511719</ele>
        <time>2019-12-15T10:11:46.000Z</time>
      </trkpt>
      <trkpt lat="45.16364" lon="5.6272">
        <ele>1167.8000488281</ele>
        <time>2019-12-15T10:11:49.000Z</time>
      </trkpt>
      <trkpt lat="45.16363" lon="5.62722">
        <ele>1168.4000244141</ele>
        <time>2019-12-15T10:11:51.000Z</time>
      </trkpt>
      <trkpt lat="45.16362" lon="5.62726">
        <ele>1169</ele>
        <time>2019-12-15T10:11:54.000Z</time>
      </trkpt>
      <trkpt lat="45.16361" lon="5.62728">
        <ele>1169.4000244141</ele>
        <time>2019-12-15T10:11:56.000Z</time>
      </trkpt>
      <trkpt lat="45.1636" lon="5.6273">
        <ele>1169.8000488281</ele>
        <time>2019-12-15T10:11:58.000Z</time>
      </trkpt>
      <trkpt lat="45.16359" lon="5.62733">
        <ele>1170.4000244141</ele>
        <time>2019-12-15T10:12:00.000Z</time>
      </trkpt>
      <trkpt lat="45.16358" lon="5.62736">
        <ele>1171</ele>
        <time>2019-12-15T10:12:03.000Z</time>
      </trkpt>
      <trkpt lat="45.16357" lon="5.62738">
        <ele>1171.4000244141</ele>
        <time>2019-12-15T10:12:05.000Z</time>
      </trkpt>
      <trkpt lat="45.16355" lon="5.6274">
        <ele>1172.1999511719</ele>
        <time>2019-12-15T10:12:09.000Z</time>
      </trkpt>
      <trkpt lat="45.16355" lon="5.6274">
        <ele>1172.5999755859</ele>
        <time>2019-12-15T10:12:11.000Z</time>
      </trkpt>
      <trkpt lat="45.16353" lon="5.62743">
        <ele>1173</ele>
        <time>2019-12-15T10:12:17.000Z</time>
      </trkpt>
      <trkpt lat="45.1635" lon="5.62747">
        <ele>1173.5999755859</ele>
        <time>2019-12-15T10:12:22.000Z</time>
      </trkpt>
      <trkpt lat="45.16348" lon="5.62749">
        <ele>1174.8000488281</ele>
        <time>2019-12-15T10:12:27.000Z</time>
      </trkpt>
      <trkpt lat="45.16348" lon="5.6275">
        <ele>1175</ele>
        <time>2019-12-15T10:12:28.000Z</time>
      </trkpt>
      <trkpt lat="45.16345" lon="5.62754">
        <ele>1176</ele>
        <time>2019-12-15T10:12:35.000Z</time>
      </trkpt>
      <trkpt lat="45.16343" lon="5.62756">
        <ele>1176.1999511719</ele>
        <time>2019-12-15T10:12:36.000Z</time>
      </trkpt>
      <trkpt lat="45.16341" lon="5.62759">
        <ele>1177.1999511719</ele>
        <time>2019-12-15T10:12:40.000Z</time>
      </trkpt>
      <trkpt lat="45.16341" lon="5.62759">
        <ele>1177.1999511719</ele>
        <time>2019-12-15T10:12:41.000Z</time>
      </trkpt>
      <trkpt lat="45.16336" lon="5.62764">
        <ele>1178.4000244141</ele>
        <time>2019-12-15T10:12:47.000Z</time>
      </trkpt>
      <trkpt lat="45.16334" lon="5.62766">
        <ele>1179.1999511719</ele>
        <time>2019-12-15T10:12:51.000Z</time>
      </trkpt>
      <trkpt lat="45.16332" lon="5.62767">
        <ele>1179.4000244141</ele>
        <time>2019-12-15T10:12:53.000Z</time>
      </trkpt>
      <trkpt lat="45.1633" lon="5.62769">
        <ele>1180</ele>
        <time>2019-12-15T10:12:56.000Z</time>
      </trkpt>
      <trkpt lat="45.16328" lon="5.62771">
        <ele>1180.8000488281</ele>
        <time>2019-12-15T10:12:59.000Z</time>
      </trkpt>
      <trkpt lat="45.16327" lon="5.62773">
        <ele>1181.1999511719</ele>
        <time>2019-12-15T10:13:01.000Z</time>
      </trkpt>
      <trkpt lat="45.16324" lon="5.62774">
        <ele>1181.8000488281</ele>
        <time>2019-12-15T10:13:04.000Z</time>
      </trkpt>
      <trkpt lat="45.1632" lon="5.62776">
        <ele>1182.8000488281</ele>
        <time>2019-12-15T10:13:09.000Z</time>
      </trkpt>
      <trkpt lat="45.16318" lon="5.62778">
        <ele>1184</ele>
        <time>2019-12-15T10:13:14.000Z</time>
      </trkpt>
      <trkpt lat="45.16317" lon="5.62779">
        <ele>1184.1999511719</ele>
        <time>2019-12-15T10:13:17.000Z</time>
      </trkpt>
      <trkpt lat="45.16314" lon="5.62781">
        <ele>1185</ele>
        <time>2019-12-15T10:13:22.000Z</time>
      </trkpt>
      <trkpt lat="45.16311" lon="5.62783">
        <ele>1185.4000244141</ele>
        <time>2019-12-15T10:13:27.000Z</time>
      </trkpt>
      <trkpt lat="45.16307" lon="5.62786">
        <ele>1185.5999755859</ele>
        <time>2019-12-15T10:13:32.000Z</time>
      </trkpt>
      <trkpt lat="45.16305" lon="5.62787">
        <ele>1186</ele>
        <time>2019-12-15T10:13:35.000Z</time>
      </trkpt>
      <trkpt lat="45.16304" lon="5.62788">
        <ele>1186.4000244141</ele>
        <time>2019-12-15T10:13:37.000Z</time>
      </trkpt>
      <trkpt lat="45.163" lon="5.62795">
        <ele>1187.1999511719</ele>
        <time>2019-12-15T10:13:43.000Z</time>
      </trkpt>
      <trkpt lat="45.16299" lon="5.62796">
        <ele>1187.1999511719</ele>
        <time>2019-12-15T10:13:44.000Z</time>
      </trkpt>
      <trkpt lat="45.16295" lon="5.62796">
        <ele>1188</ele>
        <time>2019-12-15T10:13:48.000Z</time>
      </trkpt>
      <trkpt lat="45.16294" lon="5.62796">
        <ele>1188.1999511719</ele>
        <time>2019-12-15T10:13:49.000Z</time>
      </trkpt>
      <trkpt lat="45.1629" lon="5.62799">
        <ele>1189.1999511719</ele>
        <time>2019-12-15T10:13:55.000Z</time>
      </trkpt>
      <trkpt lat="45.16289" lon="5.62799">
        <ele>1189.1999511719</ele>
        <time>2019-12-15T10:13:56.000Z</time>
      </trkpt>
      <trkpt lat="45.16288" lon="5.62799">
        <ele>1189.4000244141</ele>
        <time>2019-12-15T10:13:57.000Z</time>
      </trkpt>
      <trkpt lat="45.16286" lon="5.628">
        <ele>1190</ele>
        <time>2019-12-15T10:14:00.000Z</time>
      </trkpt>
      <trkpt lat="45.16284" lon="5.62802">
        <ele>1190.4000244141</ele>
        <time>2019-12-15T10:14:03.000Z</time>
      </trkpt>
      <trkpt lat="45.16281" lon="5.62804">
        <ele>1191</ele>
        <time>2019-12-15T10:14:06.000Z</time>
      </trkpt>
      <trkpt lat="45.1628" lon="5.62804">
        <ele>1191.4000244141</ele>
        <time>2019-12-15T10:14:08.000Z</time>
      </trkpt>
      <trkpt lat="45.16278" lon="5.62806">
        <ele>1192.1999511719</ele>
        <time>2019-12-15T10:14:12.000Z</time>
      </trkpt>
      <trkpt lat="45.16278" lon="5.62806">
        <ele>1192.4000244141</ele>
        <time>2019-12-15T10:14:13.000Z</time>
      </trkpt>
      <trkpt lat="45.16275" lon="5.62809">
        <ele>1193</ele>
        <time>2019-12-15T10:14:17.000Z</time>
      </trkpt>
      <trkpt lat="45.16271" lon="5.62811">
        <ele>1193.4000244141</ele>
        <time>2019-12-15T10:14:21.000Z</time>
      </trkpt>
      <trkpt lat="45.1627" lon="5.62811">
        <ele>1193.8000488281</ele>
        <time>2019-12-15T10:14:22.000Z</time>
      </trkpt>
      <trkpt lat="45.16268" lon="5.62813">
        <ele>1194.5999755859</ele>
        <time>2019-12-15T10:14:24.000Z</time>
      </trkpt>
      <trkpt lat="45.16266" lon="5.62814">
        <ele>1195.1999511719</ele>
        <time>2019-12-15T10:14:28.000Z</time>
      </trkpt>
      <trkpt lat="45.16262" lon="5.62816">
        <ele>1195.8000488281</ele>
        <time>2019-12-15T10:14:32.000Z</time>
      </trkpt>
      <trkpt lat="45.1626" lon="5.62818">
        <ele>1196</ele>
        <time>2019-12-15T10:14:34.000Z</time>
      </trkpt>
      <trkpt lat="45.16256" lon="5.6282">
        <ele>1196.5999755859</ele>
        <time>2019-12-15T10:14:41.000Z</time>
      </trkpt>
      <trkpt lat="45.16255" lon="5.62821">
        <ele>1196.8000488281</ele>
        <time>2019-12-15T10:14:42.000Z</time>
      </trkpt>
      <trkpt lat="45.16252" lon="5.62824">
        <ele>1197.5999755859</ele>
        <time>2019-12-15T10:14:47.000Z</time>
      </trkpt>
      <trkpt lat="45.16252" lon="5.62824">
        <ele>1198.1999511719</ele>
        <time>2019-12-15T10:14:48.000Z</time>
      </trkpt>
      <trkpt lat="45.16248" lon="5.62826">
        <ele>1199</ele>
        <time>2019-12-15T10:14:52.000Z</time>
      </trkpt>
      <trkpt lat="45.16246" lon="5.62828">
        <ele>1199.4000244141</ele>
        <time>2019-12-15T10:14:55.000Z</time>
      </trkpt>
      <trkpt lat="45.16244" lon="5.62828">
        <ele>1199.5999755859</ele>
        <time>2019-12-15T10:14:56.000Z</time>
      </trkpt>
      <trkpt lat="45.16243" lon="5.62829">
        <ele>1200.4000244141</ele>
        <time>2019-12-15T10:15:00.000Z</time>
      </trkpt>
      <trkpt lat="45.16243" lon="5.62829">
        <ele>1200.8000488281</ele>
        <time>2019-12-15T10:15:01.000Z</time>
      </trkpt>
      <trkpt lat="45.16241" lon="5.62831">
        <ele>1200.8000488281</ele>
        <time>2019-12-15T10:15:08.000Z</time>
      </trkpt>
      <trkpt lat="45.16237" lon="5.62833">
        <ele>1201.1999511719</ele>
        <time>2019-12-15T10:15:12.000Z</time>
      </trkpt>
      <trkpt lat="45.16237" lon="5.62833">
        <ele>1201.5999755859</ele>
        <time>2019-12-15T10:15:13.000Z</time>
      </trkpt>
      <trkpt lat="45.16235" lon="5.62834">
        <ele>1202.1999511719</ele>
        <time>2019-12-15T10:15:16.000Z</time>
      </trkpt>
      <trkpt lat="45.16231" lon="5.62836">
        <ele>1202.8000488281</ele>
        <time>2019-12-15T10:15:20.000Z</time>
      </trkpt>
      <trkpt lat="45.16229" lon="5.62836">
        <ele>1203</ele>
        <time>2019-12-15T10:15:22.000Z</time>
      </trkpt>
      <trkpt lat="45.16225" lon="5.62838">
        <ele>1203.8000488281</ele>
        <time>2019-12-15T10:15:27.000Z</time>
      </trkpt>
      <trkpt lat="45.16219" lon="5.62841">
        <ele>1204.8000488281</ele>
        <time>2019-12-15T10:15:33.000Z</time>
      </trkpt>
      <trkpt lat="45.16215" lon="5.62841">
        <ele>1206</ele>
        <time>2019-12-15T10:15:39.000Z</time>
      </trkpt>
      <trkpt lat="45.16212" lon="5.62842">
        <ele>1207</ele>
        <time>2019-12-15T10:15:45.000Z</time>
      </trkpt>
      <trkpt lat="45.16211" lon="5.62842">
        <ele>1207.4000244141</ele>
        <time>2019-12-15T10:15:46.000Z</time>
      </trkpt>
      <trkpt lat="45.16207" lon="5.62843">
        <ele>1208.4000244141</ele>
        <time>2019-12-15T10:15:51.000Z</time>
      </trkpt>
      <trkpt lat="45.16206" lon="5.62843">
        <ele>1208.5999755859</ele>
        <time>2019-12-15T10:15:52.000Z</time>
      </trkpt>
      <trkpt lat="45.16202" lon="5.62845">
        <ele>1209.8000488281</ele>
        <time>2019-12-15T10:15:56.000Z</time>
      </trkpt>
      <trkpt lat="45.16201" lon="5.62845">
        <ele>1210</ele>
        <time>2019-12-15T10:15:57.000Z</time>
      </trkpt>
      <trkpt lat="45.162" lon="5.62846">
        <ele>1210.8000488281</ele>
        <time>2019-12-15T10:16:00.000Z</time>
      </trkpt>
      <trkpt lat="45.16197" lon="5.62846">
        <ele>1211.4000244141</ele>
        <time>2019-12-15T10:16:03.000Z</time>
      </trkpt>
      <trkpt lat="45.16195" lon="5.62848">
        <ele>1211.8000488281</ele>
        <time>2019-12-15T10:16:06.000Z</time>
      </trkpt>
      <trkpt lat="45.16193" lon="5.62848">
        <ele>1212.1999511719</ele>
        <time>2019-12-15T10:16:08.000Z</time>
      </trkpt>
      <trkpt lat="45.1619" lon="5.62848">
        <ele>1213</ele>
        <time>2019-12-15T10:16:11.000Z</time>
      </trkpt>
      <trkpt lat="45.16189" lon="5.62847">
        <ele>1213.4000244141</ele>
        <time>2019-12-15T10:16:13.000Z</time>
      </trkpt>
      <trkpt lat="45.16188" lon="5.62847">
        <ele>1214.1999511719</ele>
        <time>2019-12-15T10:16:16.000Z</time>
      </trkpt>
      <trkpt lat="45.16186" lon="5.62847">
        <ele>1215</ele>
        <time>2019-12-15T10:16:19.000Z</time>
      </trkpt>
      <trkpt lat="45.16185" lon="5.62847">
        <ele>1215.4000244141</ele>
        <time>2019-12-15T10:16:21.000Z</time>
      </trkpt>
      <trkpt lat="45.16182" lon="5.62846">
        <ele>1216.5999755859</ele>
        <time>2019-12-15T10:16:27.000Z</time>
      </trkpt>
      <trkpt lat="45.1618" lon="5.62845">
        <ele>1217.5999755859</ele>
        <time>2019-12-15T10:16:31.000Z</time>
      </trkpt>
      <trkpt lat="45.16181" lon="5.62846">
        <ele>1218.5999755859</ele>
        <time>2019-12-15T10:16:35.000Z</time>
      </trkpt>
      <trkpt lat="45.16181" lon="5.62847">
        <ele>1218.8000488281</ele>
        <time>2019-12-15T10:16:36.000Z</time>
      </trkpt>
      <trkpt lat="45.16179" lon="5.6285">
        <ele>1220</ele>
        <time>2019-12-15T10:16:41.000Z</time>
      </trkpt>
      <trkpt lat="45.16177" lon="5.62852">
        <ele>1220.4000244141</ele>
        <time>2019-12-15T10:16:44.000Z</time>
      </trkpt>
      <trkpt lat="45.16176" lon="5.62856">
        <ele>1221</ele>
        <time>2019-12-15T10:16:48.000Z</time>
      </trkpt>
      <trkpt lat="45.16176" lon="5.6286">
        <ele>1222</ele>
        <time>2019-12-15T10:16:52.000Z</time>
      </trkpt>
      <trkpt lat="45.16175" lon="5.62861">
        <ele>1222.4000244141</ele>
        <time>2019-12-15T10:16:53.000Z</time>
      </trkpt>
      <trkpt lat="45.16174" lon="5.62863">
        <ele>1223.4000244141</ele>
        <time>2019-12-15T10:16:57.000Z</time>
      </trkpt>
      <trkpt lat="45.16171" lon="5.62868">
        <ele>1224.4000244141</ele>
        <time>2019-12-15T10:17:02.000Z</time>
      </trkpt>
      <trkpt lat="45.16168" lon="5.62873">
        <ele>1225.4000244141</ele>
        <time>2019-12-15T10:17:08.000Z</time>
      </trkpt>
      <trkpt lat="45.16168" lon="5.62873">
        <ele>1226</ele>
        <time>2019-12-15T10:17:10.000Z</time>
      </trkpt>
      <trkpt lat="45.16168" lon="5.62873">
        <ele>1226.8000488281</ele>
        <time>2019-12-15T10:17:13.000Z</time>
      </trkpt>
      <trkpt lat="45.16168" lon="5.62873">
        <ele>1226.5999755859</ele>
        <time>2019-12-15T10:17:26.000Z</time>
      </trkpt>
      <trkpt lat="45.16166" lon="5.62878">
        <ele>1227</ele>
        <time>2019-12-15T10:17:33.000Z</time>
      </trkpt>
      <trkpt lat="45.16164" lon="5.62882">
        <ele>1227.8000488281</ele>
        <time>2019-12-15T10:17:37.000Z</time>
      </trkpt>
      <trkpt lat="45.16162" lon="5.62886">
        <ele>1228.5999755859</ele>
        <time>2019-12-15T10:17:41.000Z</time>
      </trkpt>
      <trkpt lat="45.16162" lon="5.62888">
        <ele>1229</ele>
        <time>2019-12-15T10:17:43.000Z</time>
      </trkpt>
      <trkpt lat="45.16163" lon="5.62891">
        <ele>1230</ele>
        <time>2019-12-15T10:17:47.000Z</time>
      </trkpt>
      <trkpt lat="45.16162" lon="5.62896">
        <ele>1231</ele>
        <time>2019-12-15T10:17:52.000Z</time>
      </trkpt>
      <trkpt lat="45.16163" lon="5.629">
        <ele>1232</ele>
        <time>2019-12-15T10:17:58.000Z</time>
      </trkpt>
      <trkpt lat="45.16163" lon="5.62902">
        <ele>1232.1999511719</ele>
        <time>2019-12-15T10:17:59.000Z</time>
      </trkpt>
      <trkpt lat="45.16162" lon="5.62905">
        <ele>1233.1999511719</ele>
        <time>2019-12-15T10:18:03.000Z</time>
      </trkpt>
      <trkpt lat="45.16162" lon="5.62905">
        <ele>1233.4000244141</ele>
        <time>2019-12-15T10:18:04.000Z</time>
      </trkpt>
      <trkpt lat="45.16159" lon="5.62908">
        <ele>1234.4000244141</ele>
        <time>2019-12-15T10:18:07.000Z</time>
      </trkpt>
      <trkpt lat="45.16157" lon="5.62908">
        <ele>1234.8000488281</ele>
        <time>2019-12-15T10:18:08.000Z</time>
      </trkpt>
      <trkpt lat="45.16155" lon="5.6291">
        <ele>1235.5999755859</ele>
        <time>2019-12-15T10:18:12.000Z</time>
      </trkpt>
      <trkpt lat="45.16154" lon="5.62911">
        <ele>1235.8000488281</ele>
        <time>2019-12-15T10:18:13.000Z</time>
      </trkpt>
      <trkpt lat="45.16151" lon="5.62913">
        <ele>1236</ele>
        <time>2019-12-15T10:18:15.000Z</time>
      </trkpt>
      <trkpt lat="45.16148" lon="5.62914">
        <ele>1236.8000488281</ele>
        <time>2019-12-15T10:18:19.000Z</time>
      </trkpt>
      <trkpt lat="45.16144" lon="5.62915">
        <ele>1238</ele>
        <time>2019-12-15T10:18:25.000Z</time>
      </trkpt>
      <trkpt lat="45.16141" lon="5.62916">
        <ele>1239</ele>
        <time>2019-12-15T10:18:30.000Z</time>
      </trkpt>
      <trkpt lat="45.16138" lon="5.62917">
        <ele>1239.8000488281</ele>
        <time>2019-12-15T10:18:34.000Z</time>
      </trkpt>
      <trkpt lat="45.16138" lon="5.62917">
        <ele>1240.1999511719</ele>
        <time>2019-12-15T10:18:35.000Z</time>
      </trkpt>
      <trkpt lat="45.16136" lon="5.62918">
        <ele>1240.8000488281</ele>
        <time>2019-12-15T10:18:39.000Z</time>
      </trkpt>
      <trkpt lat="45.16132" lon="5.62919">
        <ele>1241.1999511719</ele>
        <time>2019-12-15T10:18:42.000Z</time>
      </trkpt>
      <trkpt lat="45.16132" lon="5.62919">
        <ele>1241.4000244141</ele>
        <time>2019-12-15T10:18:43.000Z</time>
      </trkpt>
      <trkpt lat="45.1613" lon="5.62919">
        <ele>1242.1999511719</ele>
        <time>2019-12-15T10:18:47.000Z</time>
      </trkpt>
      <trkpt lat="45.1613" lon="5.6292">
        <ele>1242.4000244141</ele>
        <time>2019-12-15T10:18:48.000Z</time>
      </trkpt>
      <trkpt lat="45.16128" lon="5.62922">
        <ele>1243.4000244141</ele>
        <time>2019-12-15T10:18:52.000Z</time>
      </trkpt>
      <trkpt lat="45.16124" lon="5.62923">
        <ele>1244.1999511719</ele>
        <time>2019-12-15T10:18:57.000Z</time>
      </trkpt>
      <trkpt lat="45.16123" lon="5.62923">
        <ele>1244.5999755859</ele>
        <time>2019-12-15T10:18:58.000Z</time>
      </trkpt>
      <trkpt lat="45.1612" lon="5.62923">
        <ele>1245.5999755859</ele>
        <time>2019-12-15T10:19:04.000Z</time>
      </trkpt>
      <trkpt lat="45.16119" lon="5.62923">
        <ele>1246</ele>
        <time>2019-12-15T10:19:06.000Z</time>
      </trkpt>
      <trkpt lat="45.16118" lon="5.62925">
        <ele>1246.8000488281</ele>
        <time>2019-12-15T10:19:10.000Z</time>
      </trkpt>
      <trkpt lat="45.16118" lon="5.62931">
        <ele>1248</ele>
        <time>2019-12-15T10:19:13.000Z</time>
      </trkpt>
      <trkpt lat="45.16117" lon="5.62933">
        <ele>1248.4000244141</ele>
        <time>2019-12-15T10:19:15.000Z</time>
      </trkpt>
      <trkpt lat="45.16118" lon="5.62938">
        <ele>1249</ele>
        <time>2019-12-15T10:19:18.000Z</time>
      </trkpt>
      <trkpt lat="45.16119" lon="5.62939">
        <ele>1249.1999511719</ele>
        <time>2019-12-15T10:19:20.000Z</time>
      </trkpt>
      <trkpt lat="45.16119" lon="5.62944">
        <ele>1249.5999755859</ele>
        <time>2019-12-15T10:19:27.000Z</time>
      </trkpt>
      <trkpt lat="45.16121" lon="5.62947">
        <ele>1250</ele>
        <time>2019-12-15T10:19:30.000Z</time>
      </trkpt>
      <trkpt lat="45.16121" lon="5.62949">
        <ele>1250.1999511719</ele>
        <time>2019-12-15T10:19:32.000Z</time>
      </trkpt>
      <trkpt lat="45.16124" lon="5.62953">
        <ele>1251</ele>
        <time>2019-12-15T10:19:37.000Z</time>
      </trkpt>
      <trkpt lat="45.16124" lon="5.62954">
        <ele>1251</ele>
        <time>2019-12-15T10:19:38.000Z</time>
      </trkpt>
      <trkpt lat="45.16124" lon="5.62957">
        <ele>1251.4000244141</ele>
        <time>2019-12-15T10:19:43.000Z</time>
      </trkpt>
      <trkpt lat="45.16126" lon="5.62962">
        <ele>1252</ele>
        <time>2019-12-15T10:19:48.000Z</time>
      </trkpt>
      <trkpt lat="45.16127" lon="5.62963">
        <ele>1252.1999511719</ele>
        <time>2019-12-15T10:19:49.000Z</time>
      </trkpt>
      <trkpt lat="45.16128" lon="5.62967">
        <ele>1253.1999511719</ele>
        <time>2019-12-15T10:19:54.000Z</time>
      </trkpt>
      <trkpt lat="45.1613" lon="5.62973">
        <ele>1254</ele>
        <time>2019-12-15T10:20:00.000Z</time>
      </trkpt>
      <trkpt lat="45.1613" lon="5.62973">
        <ele>1254.4000244141</ele>
        <time>2019-12-15T10:20:01.000Z</time>
      </trkpt>
      <trkpt lat="45.16131" lon="5.62975">
        <ele>1255</ele>
        <time>2019-12-15T10:20:05.000Z</time>
      </trkpt>
      <trkpt lat="45.16132" lon="5.62976">
        <ele>1255.4000244141</ele>
        <time>2019-12-15T10:20:07.000Z</time>
      </trkpt>
      <trkpt lat="45.16132" lon="5.62977">
        <ele>1256.5999755859</ele>
        <time>2019-12-15T10:20:11.000Z</time>
      </trkpt>
      <trkpt lat="45.16133" lon="5.62984">
        <ele>1257.4000244141</ele>
        <time>2019-12-15T10:20:16.000Z</time>
      </trkpt>
      <trkpt lat="45.16133" lon="5.62984">
        <ele>1257.5999755859</ele>
        <time>2019-12-15T10:20:17.000Z</time>
      </trkpt>
      <trkpt lat="45.16134" lon="5.62987">
        <ele>1258.1999511719</ele>
        <time>2019-12-15T10:20:20.000Z</time>
      </trkpt>
      <trkpt lat="45.16134" lon="5.62987">
        <ele>1258.5999755859</ele>
        <time>2019-12-15T10:20:22.000Z</time>
      </trkpt>
      <trkpt lat="45.16134" lon="5.62988">
        <ele>1259.8000488281</ele>
        <time>2019-12-15T10:20:26.000Z</time>
      </trkpt>
      <trkpt lat="45.16133" lon="5.62989">
        <ele>1260.1999511719</ele>
        <time>2019-12-15T10:20:39.000Z</time>
      </trkpt>
      <trkpt lat="45.16133" lon="5.62992">
        <ele>1260.1999511719</ele>
        <time>2019-12-15T10:20:45.000Z</time>
      </trkpt>
      <trkpt lat="45.16132" lon="5.62999">
        <ele>1259.8000488281</ele>
        <time>2019-12-15T10:20:49.000Z</time>
      </trkpt>
      <trkpt lat="45.16133" lon="5.63">
        <ele>1259.8000488281</ele>
        <time>2019-12-15T10:20:51.000Z</time>
      </trkpt>
      <trkpt lat="45.16132" lon="5.63004">
        <ele>1260.8000488281</ele>
        <time>2019-12-15T10:20:57.000Z</time>
      </trkpt>
      <trkpt lat="45.16131" lon="5.63006">
        <ele>1261</ele>
        <time>2019-12-15T10:20:58.000Z</time>
      </trkpt>
      <trkpt lat="45.16129" lon="5.63008">
        <ele>1261.8000488281</ele>
        <time>2019-12-15T10:21:02.000Z</time>
      </trkpt>
      <trkpt lat="45.16128" lon="5.63009">
        <ele>1262.1999511719</ele>
        <time>2019-12-15T10:21:03.000Z</time>
      </trkpt>
      <trkpt lat="45.16127" lon="5.6301">
        <ele>1262.8000488281</ele>
        <time>2019-12-15T10:21:07.000Z</time>
      </trkpt>
      <trkpt lat="45.16125" lon="5.63011">
        <ele>1263.1999511719</ele>
        <time>2019-12-15T10:21:09.000Z</time>
      </trkpt>
      <trkpt lat="45.16124" lon="5.63011">
        <ele>1263.4000244141</ele>
        <time>2019-12-15T10:21:11.000Z</time>
      </trkpt>
      <trkpt lat="45.16122" lon="5.63011">
        <ele>1264.1999511719</ele>
        <time>2019-12-15T10:21:14.000Z</time>
      </trkpt>
      <trkpt lat="45.1612" lon="5.63012">
        <ele>1264.5999755859</ele>
        <time>2019-12-15T10:21:16.000Z</time>
      </trkpt>
      <trkpt lat="45.16118" lon="5.63011">
        <ele>1265.1999511719</ele>
        <time>2019-12-15T10:21:20.000Z</time>
      </trkpt>
      <trkpt lat="45.16113" lon="5.63011">
        <ele>1266</ele>
        <time>2019-12-15T10:21:25.000Z</time>
      </trkpt>
      <trkpt lat="45.16112" lon="5.63011">
        <ele>1266.1999511719</ele>
        <time>2019-12-15T10:21:26.000Z</time>
      </trkpt>
      <trkpt lat="45.16108" lon="5.63011">
        <ele>1266.5999755859</ele>
        <time>2019-12-15T10:21:29.000Z</time>
      </trkpt>
      <trkpt lat="45.16108" lon="5.63011">
        <ele>1266.8000488281</ele>
        <time>2019-12-15T10:21:30.000Z</time>
      </trkpt>
      <trkpt lat="45.16105" lon="5.63012">
        <ele>1267.1999511719</ele>
        <time>2019-12-15T10:21:32.000Z</time>
      </trkpt>
      <trkpt lat="45.16105" lon="5.63012">
        <ele>1267.8000488281</ele>
        <time>2019-12-15T10:21:35.000Z</time>
      </trkpt>
      <trkpt lat="45.16104" lon="5.63012">
        <ele>1268.4000244141</ele>
        <time>2019-12-15T10:21:37.000Z</time>
      </trkpt>
      <trkpt lat="45.16102" lon="5.63012">
        <ele>1269</ele>
        <time>2019-12-15T10:21:40.000Z</time>
      </trkpt>
      <trkpt lat="45.161" lon="5.63012">
        <ele>1269.4000244141</ele>
        <time>2019-12-15T10:21:43.000Z</time>
      </trkpt>
      <trkpt lat="45.16099" lon="5.63012">
        <ele>1270</ele>
        <time>2019-12-15T10:21:45.000Z</time>
      </trkpt>
      <trkpt lat="45.16096" lon="5.63011">
        <ele>1270.5999755859</ele>
        <time>2019-12-15T10:21:48.000Z</time>
      </trkpt>
      <trkpt lat="45.16095" lon="5.6301">
        <ele>1271</ele>
        <time>2019-12-15T10:21:50.000Z</time>
      </trkpt>
      <trkpt lat="45.16091" lon="5.63009">
        <ele>1271.5999755859</ele>
        <time>2019-12-15T10:21:54.000Z</time>
      </trkpt>
      <trkpt lat="45.16091" lon="5.63008">
        <ele>1272</ele>
        <time>2019-12-15T10:21:55.000Z</time>
      </trkpt>
      <trkpt lat="45.16088" lon="5.63008">
        <ele>1272.8000488281</ele>
        <time>2019-12-15T10:22:00.000Z</time>
      </trkpt>
      <trkpt lat="45.16088" lon="5.63008">
        <ele>1273.8000488281</ele>
        <time>2019-12-15T10:22:08.000Z</time>
      </trkpt>
      <trkpt lat="45.16088" lon="5.63008">
        <ele>1274</ele>
        <time>2019-12-15T10:22:14.000Z</time>
      </trkpt>
      <trkpt lat="45.16085" lon="5.63008">
        <ele>1274.5999755859</ele>
        <time>2019-12-15T10:22:21.000Z</time>
      </trkpt>
      <trkpt lat="45.16084" lon="5.63011">
        <ele>1275.1999511719</ele>
        <time>2019-12-15T10:22:25.000Z</time>
      </trkpt>
      <trkpt lat="45.16084" lon="5.63013">
        <ele>1275.8000488281</ele>
        <time>2019-12-15T10:22:27.000Z</time>
      </trkpt>
      <trkpt lat="45.16084" lon="5.63014">
        <ele>1276.1999511719</ele>
        <time>2019-12-15T10:22:29.000Z</time>
      </trkpt>
      <trkpt lat="45.16083" lon="5.63019">
        <ele>1277</ele>
        <time>2019-12-15T10:22:33.000Z</time>
      </trkpt>
      <trkpt lat="45.16082" lon="5.63021">
        <ele>1277.4000244141</ele>
        <time>2019-12-15T10:22:35.000Z</time>
      </trkpt>
      <trkpt lat="45.16082" lon="5.63024">
        <ele>1277.5999755859</ele>
        <time>2019-12-15T10:22:36.000Z</time>
      </trkpt>
      <trkpt lat="45.16082" lon="5.63025">
        <ele>1278</ele>
        <time>2019-12-15T10:22:38.000Z</time>
      </trkpt>
      <trkpt lat="45.16082" lon="5.63027">
        <ele>1278.4000244141</ele>
        <time>2019-12-15T10:22:40.000Z</time>
      </trkpt>
      <trkpt lat="45.16083" lon="5.63031">
        <ele>1279.5999755859</ele>
        <time>2019-12-15T10:22:45.000Z</time>
      </trkpt>
      <trkpt lat="45.16081" lon="5.63033">
        <ele>1280.5999755859</ele>
        <time>2019-12-15T10:22:49.000Z</time>
      </trkpt>
      <trkpt lat="45.16079" lon="5.63033">
        <ele>1280.8000488281</ele>
        <time>2019-12-15T10:22:50.000Z</time>
      </trkpt>
      <trkpt lat="45.16079" lon="5.63034">
        <ele>1281</ele>
        <time>2019-12-15T10:22:51.000Z</time>
      </trkpt>
      <trkpt lat="45.16076" lon="5.63034">
        <ele>1281.8000488281</ele>
        <time>2019-12-15T10:22:55.000Z</time>
      </trkpt>
      <trkpt lat="45.16074" lon="5.63034">
        <ele>1282</ele>
        <time>2019-12-15T10:22:56.000Z</time>
      </trkpt>
      <trkpt lat="45.1607" lon="5.63034">
        <ele>1282.8000488281</ele>
        <time>2019-12-15T10:23:00.000Z</time>
      </trkpt>
      <trkpt lat="45.16069" lon="5.63033">
        <ele>1283</ele>
        <time>2019-12-15T10:23:01.000Z</time>
      </trkpt>
      <trkpt lat="45.16067" lon="5.63033">
        <ele>1283.8000488281</ele>
        <time>2019-12-15T10:23:04.000Z</time>
      </trkpt>
      <trkpt lat="45.16066" lon="5.63032">
        <ele>1284.4000244141</ele>
        <time>2019-12-15T10:23:06.000Z</time>
      </trkpt>
      <trkpt lat="45.16064" lon="5.63031">
        <ele>1284.8000488281</ele>
        <time>2019-12-15T10:23:08.000Z</time>
      </trkpt>
      <trkpt lat="45.16063" lon="5.63031">
        <ele>1285.5999755859</ele>
        <time>2019-12-15T10:23:11.000Z</time>
      </trkpt>
      <trkpt lat="45.16062" lon="5.63031">
        <ele>1286</ele>
        <time>2019-12-15T10:23:13.000Z</time>
      </trkpt>
      <trkpt lat="45.16059" lon="5.6303">
        <ele>1286.8000488281</ele>
        <time>2019-12-15T10:23:16.000Z</time>
      </trkpt>
      <trkpt lat="45.16058" lon="5.6303">
        <ele>1287.4000244141</ele>
        <time>2019-12-15T10:23:18.000Z</time>
      </trkpt>
      <trkpt lat="45.16056" lon="5.6303">
        <ele>1288.1999511719</ele>
        <time>2019-12-15T10:23:21.000Z</time>
      </trkpt>
      <trkpt lat="45.16055" lon="5.63029">
        <ele>1288.4000244141</ele>
        <time>2019-12-15T10:23:23.000Z</time>
      </trkpt>
      <trkpt lat="45.16053" lon="5.63028">
        <ele>1289</ele>
        <time>2019-12-15T10:23:26.000Z</time>
      </trkpt>
      <trkpt lat="45.16052" lon="5.63029">
        <ele>1289.5999755859</ele>
        <time>2019-12-15T10:23:29.000Z</time>
      </trkpt>
      <trkpt lat="45.16051" lon="5.6303">
        <ele>1290</ele>
        <time>2019-12-15T10:23:31.000Z</time>
      </trkpt>
      <trkpt lat="45.16051" lon="5.63033">
        <ele>1290.5999755859</ele>
        <time>2019-12-15T10:23:34.000Z</time>
      </trkpt>
      <trkpt lat="45.16051" lon="5.63033">
        <ele>1292</ele>
        <time>2019-12-15T10:23:37.000Z</time>
      </trkpt>
      <trkpt lat="45.16052" lon="5.6304">
        <ele>1293</ele>
        <time>2019-12-15T10:23:43.000Z</time>
      </trkpt>
      <trkpt lat="45.16051" lon="5.63044">
        <ele>1293.8000488281</ele>
        <time>2019-12-15T10:23:50.000Z</time>
      </trkpt>
      <trkpt lat="45.16051" lon="5.63044">
        <ele>1294</ele>
        <time>2019-12-15T10:23:51.000Z</time>
      </trkpt>
      <trkpt lat="45.16051" lon="5.63045">
        <ele>1294.5999755859</ele>
        <time>2019-12-15T10:24:00.000Z</time>
      </trkpt>
      <trkpt lat="45.1605" lon="5.63049">
        <ele>1295</ele>
        <time>2019-12-15T10:24:03.000Z</time>
      </trkpt>
      <trkpt lat="45.16051" lon="5.63049">
        <ele>1295</ele>
        <time>2019-12-15T10:24:04.000Z</time>
      </trkpt>
      <trkpt lat="45.1605" lon="5.63052">
        <ele>1295.1999511719</ele>
        <time>2019-12-15T10:24:06.000Z</time>
      </trkpt>
      <trkpt lat="45.1605" lon="5.63056">
        <ele>1296.4000244141</ele>
        <time>2019-12-15T10:24:10.000Z</time>
      </trkpt>
      <trkpt lat="45.1605" lon="5.63057">
        <ele>1296.5999755859</ele>
        <time>2019-12-15T10:24:11.000Z</time>
      </trkpt>
      <trkpt lat="45.16049" lon="5.63058">
        <ele>1297.4000244141</ele>
        <time>2019-12-15T10:24:13.000Z</time>
      </trkpt>
      <trkpt lat="45.16048" lon="5.63059">
        <ele>1298.1999511719</ele>
        <time>2019-12-15T10:24:16.000Z</time>
      </trkpt>
      <trkpt lat="45.16046" lon="5.6306">
        <ele>1298.5999755859</ele>
        <time>2019-12-15T10:24:18.000Z</time>
      </trkpt>
      <trkpt lat="45.16043" lon="5.6306">
        <ele>1299.5999755859</ele>
        <time>2019-12-15T10:24:21.000Z</time>
      </trkpt>
      <trkpt lat="45.16042" lon="5.6306">
        <ele>1299.8000488281</ele>
        <time>2019-12-15T10:24:22.000Z</time>
      </trkpt>
      <trkpt lat="45.16038" lon="5.6306">
        <ele>1300.4000244141</ele>
        <time>2019-12-15T10:24:26.000Z</time>
      </trkpt>
      <trkpt lat="45.16037" lon="5.6306">
        <ele>1300.8000488281</ele>
        <time>2019-12-15T10:24:29.000Z</time>
      </trkpt>
      <trkpt lat="45.16037" lon="5.6306">
        <ele>1301</ele>
        <time>2019-12-15T10:24:30.000Z</time>
      </trkpt>
      <trkpt lat="45.16033" lon="5.6306">
        <ele>1302</ele>
        <time>2019-12-15T10:24:35.000Z</time>
      </trkpt>
      <trkpt lat="45.16031" lon="5.63059">
        <ele>1303</ele>
        <time>2019-12-15T10:24:40.000Z</time>
      </trkpt>
      <trkpt lat="45.16031" lon="5.63059">
        <ele>1303.5999755859</ele>
        <time>2019-12-15T10:24:42.000Z</time>
      </trkpt>
      <trkpt lat="45.1603" lon="5.63059">
        <ele>1304.1999511719</ele>
        <time>2019-12-15T10:24:44.000Z</time>
      </trkpt>
      <trkpt lat="45.16031" lon="5.63061">
        <ele>1305.4000244141</ele>
        <time>2019-12-15T10:24:49.000Z</time>
      </trkpt>
      <trkpt lat="45.16031" lon="5.63062">
        <ele>1305.8000488281</ele>
        <time>2019-12-15T10:24:51.000Z</time>
      </trkpt>
      <trkpt lat="45.16031" lon="5.63065">
        <ele>1306.4000244141</ele>
        <time>2019-12-15T10:24:54.000Z</time>
      </trkpt>
      <trkpt lat="45.16031" lon="5.63067">
        <ele>1306.8000488281</ele>
        <time>2019-12-15T10:24:56.000Z</time>
      </trkpt>
      <trkpt lat="45.16029" lon="5.63071">
        <ele>1307.5999755859</ele>
        <time>2019-12-15T10:25:01.000Z</time>
      </trkpt>
      <trkpt lat="45.16029" lon="5.63071">
        <ele>1307.8000488281</ele>
        <time>2019-12-15T10:25:02.000Z</time>
      </trkpt>
      <trkpt lat="45.16026" lon="5.63072">
        <ele>1308.5999755859</ele>
        <time>2019-12-15T10:25:06.000Z</time>
      </trkpt>
      <trkpt lat="45.16025" lon="5.63072">
        <ele>1309</ele>
        <time>2019-12-15T10:25:07.000Z</time>
      </trkpt>
      <trkpt lat="45.16024" lon="5.63073">
        <ele>1309.8000488281</ele>
        <time>2019-12-15T10:25:10.000Z</time>
      </trkpt>
      <trkpt lat="45.16022" lon="5.63073">
        <ele>1310.1999511719</ele>
        <time>2019-12-15T10:25:12.000Z</time>
      </trkpt>
      <trkpt lat="45.16021" lon="5.63073">
        <ele>1311</ele>
        <time>2019-12-15T10:25:14.000Z</time>
      </trkpt>
      <trkpt lat="45.1602" lon="5.63073">
        <ele>1312</ele>
        <time>2019-12-15T10:25:19.000Z</time>
      </trkpt>
      <trkpt lat="45.16018" lon="5.63075">
        <ele>1313.1999511719</ele>
        <time>2019-12-15T10:25:25.000Z</time>
      </trkpt>
      <trkpt lat="45.16018" lon="5.6308">
        <ele>1314.1999511719</ele>
        <time>2019-12-15T10:25:29.000Z</time>
      </trkpt>
      <trkpt lat="45.16016" lon="5.63086">
        <ele>1315</ele>
        <time>2019-12-15T10:25:34.000Z</time>
      </trkpt>
      <trkpt lat="45.16016" lon="5.63088">
        <ele>1315.1999511719</ele>
        <time>2019-12-15T10:25:35.000Z</time>
      </trkpt>
      <trkpt lat="45.16015" lon="5.63089">
        <ele>1316.1999511719</ele>
        <time>2019-12-15T10:25:39.000Z</time>
      </trkpt>
      <trkpt lat="45.16015" lon="5.63089">
        <ele>1316.4000244141</ele>
        <time>2019-12-15T10:25:40.000Z</time>
      </trkpt>
      <trkpt lat="45.16011" lon="5.63091">
        <ele>1317.5999755859</ele>
        <time>2019-12-15T10:25:44.000Z</time>
      </trkpt>
      <trkpt lat="45.1601" lon="5.63091">
        <ele>1317.8000488281</ele>
        <time>2019-12-15T10:25:45.000Z</time>
      </trkpt>
      <trkpt lat="45.16007" lon="5.6309">
        <ele>1318.5999755859</ele>
        <time>2019-12-15T10:25:48.000Z</time>
      </trkpt>
      <trkpt lat="45.16006" lon="5.6309">
        <ele>1319</ele>
        <time>2019-12-15T10:25:50.000Z</time>
      </trkpt>
      <trkpt lat="45.16004" lon="5.6309">
        <ele>1319.8000488281</ele>
        <time>2019-12-15T10:25:54.000Z</time>
      </trkpt>
      <trkpt lat="45.16003" lon="5.6309">
        <ele>1320</ele>
        <time>2019-12-15T10:25:55.000Z</time>
      </trkpt>
      <trkpt lat="45.16001" lon="5.63094">
        <ele>1321</ele>
        <time>2019-12-15T10:26:00.000Z</time>
      </trkpt>
      <trkpt lat="45.16002" lon="5.63095">
        <ele>1321.5999755859</ele>
        <time>2019-12-15T10:26:01.000Z</time>
      </trkpt>
      <trkpt lat="45.16003" lon="5.63098">
        <ele>1322.1999511719</ele>
        <time>2019-12-15T10:26:03.000Z</time>
      </trkpt>
      <trkpt lat="45.16004" lon="5.63103">
        <ele>1322.8000488281</ele>
        <time>2019-12-15T10:26:07.000Z</time>
      </trkpt>
      <trkpt lat="45.16005" lon="5.63107">
        <ele>1323.4000244141</ele>
        <time>2019-12-15T10:26:11.000Z</time>
      </trkpt>
      <trkpt lat="45.16005" lon="5.63108">
        <ele>1323.4000244141</ele>
        <time>2019-12-15T10:26:12.000Z</time>
      </trkpt>
      <trkpt lat="45.16003" lon="5.63109">
        <ele>1324.5999755859</ele>
        <time>2019-12-15T10:26:17.000Z</time>
      </trkpt>
      <trkpt lat="45.16001" lon="5.63111">
        <ele>1325.5999755859</ele>
        <time>2019-12-15T10:26:20.000Z</time>
      </trkpt>
      <trkpt lat="45.16001" lon="5.63111">
        <ele>1326</ele>
        <time>2019-12-15T10:26:22.000Z</time>
      </trkpt>
      <trkpt lat="45.15998" lon="5.6311">
        <ele>1326.8000488281</ele>
        <time>2019-12-15T10:26:26.000Z</time>
      </trkpt>
      <trkpt lat="45.15997" lon="5.6311">
        <ele>1327</ele>
        <time>2019-12-15T10:26:28.000Z</time>
      </trkpt>
      <trkpt lat="45.15994" lon="5.6311">
        <ele>1327.8000488281</ele>
        <time>2019-12-15T10:26:31.000Z</time>
      </trkpt>
      <trkpt lat="45.15991" lon="5.63112">
        <ele>1328.8000488281</ele>
        <time>2019-12-15T10:26:36.000Z</time>
      </trkpt>
      <trkpt lat="45.1599" lon="5.63117">
        <ele>1330</ele>
        <time>2019-12-15T10:26:42.000Z</time>
      </trkpt>
      <trkpt lat="45.15988" lon="5.63119">
        <ele>1331.1999511719</ele>
        <time>2019-12-15T10:26:46.000Z</time>
      </trkpt>
      <trkpt lat="45.15986" lon="5.6312">
        <ele>1331.4000244141</ele>
        <time>2019-12-15T10:26:47.000Z</time>
      </trkpt>
      <trkpt lat="45.15986" lon="5.6312">
        <ele>1332.1999511719</ele>
        <time>2019-12-15T10:26:50.000Z</time>
      </trkpt>
      <trkpt lat="45.15986" lon="5.6312">
        <ele>1332.5999755859</ele>
        <time>2019-12-15T10:26:51.000Z</time>
      </trkpt>
      <trkpt lat="45.15983" lon="5.6312">
        <ele>1333.4000244141</ele>
        <time>2019-12-15T10:26:54.000Z</time>
      </trkpt>
      <trkpt lat="45.15983" lon="5.6312">
        <ele>1333.5999755859</ele>
        <time>2019-12-15T10:26:55.000Z</time>
      </trkpt>
      <trkpt lat="45.15982" lon="5.6312">
        <ele>1334.4000244141</ele>
        <time>2019-12-15T10:26:58.000Z</time>
      </trkpt>
      <trkpt lat="45.1598" lon="5.63121">
        <ele>1335</ele>
        <time>2019-12-15T10:27:01.000Z</time>
      </trkpt>
      <trkpt lat="45.1598" lon="5.63121">
        <ele>1335.8000488281</ele>
        <time>2019-12-15T10:27:04.000Z</time>
      </trkpt>
      <trkpt lat="45.1598" lon="5.63121">
        <ele>1336.8000488281</ele>
        <time>2019-12-15T10:27:08.000Z</time>
      </trkpt>
      <trkpt lat="45.15977" lon="5.63122">
        <ele>1337.8000488281</ele>
        <time>2019-12-15T10:27:13.000Z</time>
      </trkpt>
      <trkpt lat="45.15977" lon="5.63123">
        <ele>1338</ele>
        <time>2019-12-15T10:27:14.000Z</time>
      </trkpt>
      <trkpt lat="45.15978" lon="5.63129">
        <ele>1339</ele>
        <time>2019-12-15T10:27:19.000Z</time>
      </trkpt>
      <trkpt lat="45.15978" lon="5.63131">
        <ele>1339.4000244141</ele>
        <time>2019-12-15T10:27:21.000Z</time>
      </trkpt>
      <trkpt lat="45.15977" lon="5.63135">
        <ele>1340.1999511719</ele>
        <time>2019-12-15T10:27:27.000Z</time>
      </trkpt>
      <trkpt lat="45.15977" lon="5.63137">
        <ele>1340.1999511719</ele>
        <time>2019-12-15T10:27:28.000Z</time>
      </trkpt>
      <trkpt lat="45.15976" lon="5.63141">
        <ele>1341</ele>
        <time>2019-12-15T10:27:33.000Z</time>
      </trkpt>
      <trkpt lat="45.15976" lon="5.63141">
        <ele>1341.1999511719</ele>
        <time>2019-12-15T10:27:34.000Z</time>
      </trkpt>
      <trkpt lat="45.15975" lon="5.63144">
        <ele>1342.4000244141</ele>
        <time>2019-12-15T10:27:39.000Z</time>
      </trkpt>
      <trkpt lat="45.15973" lon="5.63144">
        <ele>1342.8000488281</ele>
        <time>2019-12-15T10:27:40.000Z</time>
      </trkpt>
      <trkpt lat="45.15971" lon="5.63143">
        <ele>1343.4000244141</ele>
        <time>2019-12-15T10:27:44.000Z</time>
      </trkpt>
      <trkpt lat="45.1597" lon="5.63143">
        <ele>1343.4000244141</ele>
        <time>2019-12-15T10:27:45.000Z</time>
      </trkpt>
      <trkpt lat="45.15968" lon="5.63142">
        <ele>1344.5999755859</ele>
        <time>2019-12-15T10:27:50.000Z</time>
      </trkpt>
      <trkpt lat="45.15965" lon="5.63143">
        <ele>1345.5999755859</ele>
        <time>2019-12-15T10:27:56.000Z</time>
      </trkpt>
      <trkpt lat="45.15964" lon="5.63145">
        <ele>1346.8000488281</ele>
        <time>2019-12-15T10:28:01.000Z</time>
      </trkpt>
      <trkpt lat="45.15964" lon="5.63146">
        <ele>1347.4000244141</ele>
        <time>2019-12-15T10:28:02.000Z</time>
      </trkpt>
      <trkpt lat="45.15965" lon="5.63149">
        <ele>1348</ele>
        <time>2019-12-15T10:28:04.000Z</time>
      </trkpt>
      <trkpt lat="45.15964" lon="5.63153">
        <ele>1348.5999755859</ele>
        <time>2019-12-15T10:28:09.000Z</time>
      </trkpt>
      <trkpt lat="45.15963" lon="5.63154">
        <ele>1349.1999511719</ele>
        <time>2019-12-15T10:28:12.000Z</time>
      </trkpt>
      <trkpt lat="45.15962" lon="5.63155">
        <ele>1349.5999755859</ele>
        <time>2019-12-15T10:28:14.000Z</time>
      </trkpt>
      <trkpt lat="45.15961" lon="5.63156">
        <ele>1350.4000244141</ele>
        <time>2019-12-15T10:28:17.000Z</time>
      </trkpt>
      <trkpt lat="45.15961" lon="5.63156">
        <ele>1350.8000488281</ele>
        <time>2019-12-15T10:28:19.000Z</time>
      </trkpt>
      <trkpt lat="45.15958" lon="5.63157">
        <ele>1351.5999755859</ele>
        <time>2019-12-15T10:28:23.000Z</time>
      </trkpt>
      <trkpt lat="45.15957" lon="5.63157">
        <ele>1351.8000488281</ele>
        <time>2019-12-15T10:28:24.000Z</time>
      </trkpt>
      <trkpt lat="45.15955" lon="5.63156">
        <ele>1352.5999755859</ele>
        <time>2019-12-15T10:28:29.000Z</time>
      </trkpt>
      <trkpt lat="45.15953" lon="5.63158">
        <ele>1353.8000488281</ele>
        <time>2019-12-15T10:28:34.000Z</time>
      </trkpt>
      <trkpt lat="45.15954" lon="5.63164">
        <ele>1354.8000488281</ele>
        <time>2019-12-15T10:28:39.000Z</time>
      </trkpt>
      <trkpt lat="45.15954" lon="5.6317">
        <ele>1356</ele>
        <time>2019-12-15T10:28:44.000Z</time>
      </trkpt>
      <trkpt lat="45.15954" lon="5.63171">
        <ele>1356.1999511719</ele>
        <time>2019-12-15T10:28:45.000Z</time>
      </trkpt>
      <trkpt lat="45.15956" lon="5.63177">
        <ele>1356.8000488281</ele>
        <time>2019-12-15T10:28:49.000Z</time>
      </trkpt>
      <trkpt lat="45.15956" lon="5.63177">
        <ele>1357</ele>
        <time>2019-12-15T10:28:50.000Z</time>
      </trkpt>
      <trkpt lat="45.15957" lon="5.63182">
        <ele>1358</ele>
        <time>2019-12-15T10:28:56.000Z</time>
      </trkpt>
      <trkpt lat="45.15957" lon="5.63182">
        <ele>1358.1999511719</ele>
        <time>2019-12-15T10:28:57.000Z</time>
      </trkpt>
      <trkpt lat="45.15956" lon="5.63183">
        <ele>1359.4000244141</ele>
        <time>2019-12-15T10:29:02.000Z</time>
      </trkpt>
      <trkpt lat="45.15956" lon="5.63183">
        <ele>1359.5999755859</ele>
        <time>2019-12-15T10:29:03.000Z</time>
      </trkpt>
      <trkpt lat="45.15956" lon="5.63183">
        <ele>1360.4000244141</ele>
        <time>2019-12-15T10:29:06.000Z</time>
      </trkpt>
      <trkpt lat="45.15954" lon="5.63184">
        <ele>1360.5999755859</ele>
        <time>2019-12-15T10:29:12.000Z</time>
      </trkpt>
      <trkpt lat="45.15951" lon="5.63187">
        <ele>1360.8000488281</ele>
        <time>2019-12-15T10:29:16.000Z</time>
      </trkpt>
      <trkpt lat="45.1595" lon="5.63188">
        <ele>1361.4000244141</ele>
        <time>2019-12-15T10:29:19.000Z</time>
      </trkpt>
      <trkpt lat="45.1595" lon="5.63188">
        <ele>1361.5999755859</ele>
        <time>2019-12-15T10:29:20.000Z</time>
      </trkpt>
      <trkpt lat="45.15947" lon="5.63189">
        <ele>1362.4000244141</ele>
        <time>2019-12-15T10:29:24.000Z</time>
      </trkpt>
      <trkpt lat="45.15946" lon="5.63189">
        <ele>1362.5999755859</ele>
        <time>2019-12-15T10:29:25.000Z</time>
      </trkpt>
      <trkpt lat="45.15944" lon="5.63191">
        <ele>1363.5999755859</ele>
        <time>2019-12-15T10:29:29.000Z</time>
      </trkpt>
      <trkpt lat="45.15942" lon="5.63192">
        <ele>1364.5999755859</ele>
        <time>2019-12-15T10:29:33.000Z</time>
      </trkpt>
      <trkpt lat="45.1594" lon="5.63193">
        <ele>1364.8000488281</ele>
        <time>2019-12-15T10:29:34.000Z</time>
      </trkpt>
      <trkpt lat="45.15941" lon="5.63194">
        <ele>1366</ele>
        <time>2019-12-15T10:29:38.000Z</time>
      </trkpt>
      <trkpt lat="45.15941" lon="5.63197">
        <ele>1366</ele>
        <time>2019-12-15T10:29:39.000Z</time>
      </trkpt>
      <trkpt lat="45.15942" lon="5.63199">
        <ele>1367</ele>
        <time>2019-12-15T10:29:42.000Z</time>
      </trkpt>
      <trkpt lat="45.15942" lon="5.632">
        <ele>1367.1999511719</ele>
        <time>2019-12-15T10:29:43.000Z</time>
      </trkpt>
      <trkpt lat="45.15942" lon="5.63202">
        <ele>1368</ele>
        <time>2019-12-15T10:29:47.000Z</time>
      </trkpt>
      <trkpt lat="45.15941" lon="5.63203">
        <ele>1368</ele>
        <time>2019-12-15T10:29:48.000Z</time>
      </trkpt>
      <trkpt lat="45.15939" lon="5.63205">
        <ele>1369.1999511719</ele>
        <time>2019-12-15T10:29:52.000Z</time>
      </trkpt>
      <trkpt lat="45.15938" lon="5.63205">
        <ele>1369.4000244141</ele>
        <time>2019-12-15T10:29:53.000Z</time>
      </trkpt>
      <trkpt lat="45.15935" lon="5.63205">
        <ele>1370.4000244141</ele>
        <time>2019-12-15T10:29:58.000Z</time>
      </trkpt>
      <trkpt lat="45.15935" lon="5.63208">
        <ele>1371.5999755859</ele>
        <time>2019-12-15T10:30:02.000Z</time>
      </trkpt>
      <trkpt lat="45.15935" lon="5.63209">
        <ele>1371.8000488281</ele>
        <time>2019-12-15T10:30:03.000Z</time>
      </trkpt>
      <trkpt lat="45.15937" lon="5.63214">
        <ele>1372.5999755859</ele>
        <time>2019-12-15T10:30:09.000Z</time>
      </trkpt>
      <trkpt lat="45.15937" lon="5.63214">
        <ele>1372.8000488281</ele>
        <time>2019-12-15T10:30:10.000Z</time>
      </trkpt>
      <trkpt lat="45.15937" lon="5.63217">
        <ele>1373.4000244141</ele>
        <time>2019-12-15T10:30:14.000Z</time>
      </trkpt>
      <trkpt lat="45.15938" lon="5.63219">
        <ele>1374</ele>
        <time>2019-12-15T10:30:17.000Z</time>
      </trkpt>
      <trkpt lat="45.15938" lon="5.63222">
        <ele>1374.4000244141</ele>
        <time>2019-12-15T10:30:20.000Z</time>
      </trkpt>
      <trkpt lat="45.15937" lon="5.63224">
        <ele>1375</ele>
        <time>2019-12-15T10:30:24.000Z</time>
      </trkpt>
      <trkpt lat="45.15936" lon="5.63225">
        <ele>1375.1999511719</ele>
        <time>2019-12-15T10:30:25.000Z</time>
      </trkpt>
      <trkpt lat="45.15935" lon="5.63225">
        <ele>1376.1999511719</ele>
        <time>2019-12-15T10:30:27.000Z</time>
      </trkpt>
      <trkpt lat="45.15932" lon="5.63225">
        <ele>1376.5999755859</ele>
        <time>2019-12-15T10:30:29.000Z</time>
      </trkpt>
      <trkpt lat="45.1593" lon="5.63225">
        <ele>1377.1999511719</ele>
        <time>2019-12-15T10:30:33.000Z</time>
      </trkpt>
      <trkpt lat="45.15927" lon="5.63225">
        <ele>1377.8000488281</ele>
        <time>2019-12-15T10:30:37.000Z</time>
      </trkpt>
      <trkpt lat="45.15924" lon="5.63224">
        <ele>1378.1999511719</ele>
        <time>2019-12-15T10:30:39.000Z</time>
      </trkpt>
      <trkpt lat="45.15924" lon="5.63224">
        <ele>1378.4000244141</ele>
        <time>2019-12-15T10:30:40.000Z</time>
      </trkpt>
      <trkpt lat="45.15923" lon="5.63224">
        <ele>1378.8000488281</ele>
        <time>2019-12-15T10:30:42.000Z</time>
      </trkpt>
      <trkpt lat="45.15921" lon="5.63224">
        <ele>1379.4000244141</ele>
        <time>2019-12-15T10:30:45.000Z</time>
      </trkpt>
      <trkpt lat="45.15921" lon="5.63224">
        <ele>1380</ele>
        <time>2019-12-15T10:30:47.000Z</time>
      </trkpt>
      <trkpt lat="45.1592" lon="5.63224">
        <ele>1380.4000244141</ele>
        <time>2019-12-15T10:30:49.000Z</time>
      </trkpt>
      <trkpt lat="45.15919" lon="5.63225">
        <ele>1381.4000244141</ele>
        <time>2019-12-15T10:30:53.000Z</time>
      </trkpt>
      <trkpt lat="45.15919" lon="5.63226">
        <ele>1381.5999755859</ele>
        <time>2019-12-15T10:30:54.000Z</time>
      </trkpt>
      <trkpt lat="45.1592" lon="5.63231">
        <ele>1382.5999755859</ele>
        <time>2019-12-15T10:31:00.000Z</time>
      </trkpt>
      <trkpt lat="45.1592" lon="5.63234">
        <ele>1383.8000488281</ele>
        <time>2019-12-15T10:31:05.000Z</time>
      </trkpt>
      <trkpt lat="45.15919" lon="5.63241">
        <ele>1385</ele>
        <time>2019-12-15T10:31:11.000Z</time>
      </trkpt>
      <trkpt lat="45.15921" lon="5.63248">
        <ele>1386.1999511719</ele>
        <time>2019-12-15T10:31:16.000Z</time>
      </trkpt>
      <trkpt lat="45.15922" lon="5.63252">
        <ele>1387.4000244141</ele>
        <time>2019-12-15T10:31:21.000Z</time>
      </trkpt>
      <trkpt lat="45.15921" lon="5.63254">
        <ele>1388.1999511719</ele>
        <time>2019-12-15T10:31:26.000Z</time>
      </trkpt>
      <trkpt lat="45.15919" lon="5.63256">
        <ele>1388.4000244141</ele>
        <time>2019-12-15T10:31:27.000Z</time>
      </trkpt>
      <trkpt lat="45.15918" lon="5.63256">
        <ele>1389</ele>
        <time>2019-12-15T10:31:30.000Z</time>
      </trkpt>
      <trkpt lat="45.15916" lon="5.63256">
        <ele>1389.5999755859</ele>
        <time>2019-12-15T10:31:32.000Z</time>
      </trkpt>
      <trkpt lat="45.15914" lon="5.63256">
        <ele>1390.4000244141</ele>
        <time>2019-12-15T10:31:36.000Z</time>
      </trkpt>
      <trkpt lat="45.15913" lon="5.63256">
        <ele>1390.5999755859</ele>
        <time>2019-12-15T10:31:37.000Z</time>
      </trkpt>
      <trkpt lat="45.15913" lon="5.63256">
        <ele>1391.1999511719</ele>
        <time>2019-12-15T10:31:40.000Z</time>
      </trkpt>
      <trkpt lat="45.1591" lon="5.63256">
        <ele>1391.8000488281</ele>
        <time>2019-12-15T10:31:42.000Z</time>
      </trkpt>
      <trkpt lat="45.15908" lon="5.63256">
        <ele>1392.5999755859</ele>
        <time>2019-12-15T10:31:45.000Z</time>
      </trkpt>
      <trkpt lat="45.15908" lon="5.63256">
        <ele>1393</ele>
        <time>2019-12-15T10:31:46.000Z</time>
      </trkpt>
      <trkpt lat="45.15907" lon="5.63256">
        <ele>1394</ele>
        <time>2019-12-15T10:31:51.000Z</time>
      </trkpt>
      <trkpt lat="45.15907" lon="5.63257">
        <ele>1394.1999511719</ele>
        <time>2019-12-15T10:31:53.000Z</time>
      </trkpt>
      <trkpt lat="45.15908" lon="5.63259">
        <ele>1394.4000244141</ele>
        <time>2019-12-15T10:31:57.000Z</time>
      </trkpt>
      <trkpt lat="45.15908" lon="5.63261">
        <ele>1395</ele>
        <time>2019-12-15T10:32:00.000Z</time>
      </trkpt>
      <trkpt lat="45.15908" lon="5.63261">
        <ele>1395.5999755859</ele>
        <time>2019-12-15T10:32:02.000Z</time>
      </trkpt>
      <trkpt lat="45.15909" lon="5.63263">
        <ele>1396.1999511719</ele>
        <time>2019-12-15T10:32:06.000Z</time>
      </trkpt>
      <trkpt lat="45.1591" lon="5.63265">
        <ele>1397</ele>
        <time>2019-12-15T10:32:09.000Z</time>
      </trkpt>
      <trkpt lat="45.15911" lon="5.63266">
        <ele>1397.1999511719</ele>
        <time>2019-12-15T10:32:11.000Z</time>
      </trkpt>
      <trkpt lat="45.15913" lon="5.6327">
        <ele>1397.5999755859</ele>
        <time>2019-12-15T10:32:15.000Z</time>
      </trkpt>
      <trkpt lat="45.15915" lon="5.63273">
        <ele>1398.1999511719</ele>
        <time>2019-12-15T10:32:19.000Z</time>
      </trkpt>
      <trkpt lat="45.15916" lon="5.63275">
        <ele>1398.4000244141</ele>
        <time>2019-12-15T10:32:21.000Z</time>
      </trkpt>
      <trkpt lat="45.15917" lon="5.63277">
        <ele>1398.8000488281</ele>
        <time>2019-12-15T10:32:23.000Z</time>
      </trkpt>
      <trkpt lat="45.15917" lon="5.63277">
        <ele>1398.8000488281</ele>
        <time>2019-12-15T10:32:24.000Z</time>
      </trkpt>
      <trkpt lat="45.15917" lon="5.63277">
        <ele>1399.4000244141</ele>
        <time>2019-12-15T10:32:26.000Z</time>
      </trkpt>
      <trkpt lat="45.15916" lon="5.63279">
        <ele>1400</ele>
        <time>2019-12-15T10:32:30.000Z</time>
      </trkpt>
      <trkpt lat="45.15915" lon="5.63279">
        <ele>1400.5999755859</ele>
        <time>2019-12-15T10:32:32.000Z</time>
      </trkpt>
      <trkpt lat="45.15912" lon="5.6328">
        <ele>1401</ele>
        <time>2019-12-15T10:32:35.000Z</time>
      </trkpt>
      <trkpt lat="45.15907" lon="5.6328">
        <ele>1401.1999511719</ele>
        <time>2019-12-15T10:32:40.000Z</time>
      </trkpt>
      <trkpt lat="45.15905" lon="5.6328">
        <ele>1401.8000488281</ele>
        <time>2019-12-15T10:32:43.000Z</time>
      </trkpt>
      <trkpt lat="45.15904" lon="5.6328">
        <ele>1402.1999511719</ele>
        <time>2019-12-15T10:32:45.000Z</time>
      </trkpt>
      <trkpt lat="45.15903" lon="5.63281">
        <ele>1402.8000488281</ele>
        <time>2019-12-15T10:32:49.000Z</time>
      </trkpt>
      <trkpt lat="45.15904" lon="5.63284">
        <ele>1404</ele>
        <time>2019-12-15T10:32:53.000Z</time>
      </trkpt>
      <trkpt lat="45.15904" lon="5.63284">
        <ele>1404.1999511719</ele>
        <time>2019-12-15T10:32:54.000Z</time>
      </trkpt>
      <trkpt lat="45.15907" lon="5.63288">
        <ele>1404.8000488281</ele>
        <time>2019-12-15T10:33:00.000Z</time>
      </trkpt>
      <trkpt lat="45.15908" lon="5.63288">
        <ele>1405</ele>
        <time>2019-12-15T10:33:02.000Z</time>
      </trkpt>
      <trkpt lat="45.15908" lon="5.6329">
        <ele>1405.4000244141</ele>
        <time>2019-12-15T10:33:04.000Z</time>
      </trkpt>
      <trkpt lat="45.1591" lon="5.63294">
        <ele>1406</ele>
        <time>2019-12-15T10:33:09.000Z</time>
      </trkpt>
      <trkpt lat="45.15911" lon="5.63294">
        <ele>1406</ele>
        <time>2019-12-15T10:33:10.000Z</time>
      </trkpt>
      <trkpt lat="45.15915" lon="5.63298">
        <ele>1406.8000488281</ele>
        <time>2019-12-15T10:33:14.000Z</time>
      </trkpt>
      <trkpt lat="45.15914" lon="5.63298">
        <ele>1407.1999511719</ele>
        <time>2019-12-15T10:33:16.000Z</time>
      </trkpt>
      <trkpt lat="45.15915" lon="5.63299">
        <ele>1407.4000244141</ele>
        <time>2019-12-15T10:33:18.000Z</time>
      </trkpt>
      <trkpt lat="45.15915" lon="5.63299">
        <ele>1408.1999511719</ele>
        <time>2019-12-15T10:33:23.000Z</time>
      </trkpt>
      <trkpt lat="45.15915" lon="5.63299">
        <ele>1408.4000244141</ele>
        <time>2019-12-15T10:33:29.000Z</time>
      </trkpt>
      <trkpt lat="45.15915" lon="5.63299">
        <ele>1408.1999511719</ele>
        <time>2019-12-15T10:33:42.000Z</time>
      </trkpt>
      <trkpt lat="45.15917" lon="5.633">
        <ele>1408.1999511719</ele>
        <time>2019-12-15T10:33:54.000Z</time>
      </trkpt>
      <trkpt lat="45.15922" lon="5.63302">
        <ele>1409</ele>
        <time>2019-12-15T10:34:00.000Z</time>
      </trkpt>
      <trkpt lat="45.15922" lon="5.63302">
        <ele>1409.1999511719</ele>
        <time>2019-12-15T10:34:01.000Z</time>
      </trkpt>
      <trkpt lat="45.15926" lon="5.63306">
        <ele>1410</ele>
        <time>2019-12-15T10:34:05.000Z</time>
      </trkpt>
      <trkpt lat="45.15928" lon="5.63307">
        <ele>1410.4000244141</ele>
        <time>2019-12-15T10:34:07.000Z</time>
      </trkpt>
      <trkpt lat="45.1593" lon="5.63311">
        <ele>1410.8000488281</ele>
        <time>2019-12-15T10:34:10.000Z</time>
      </trkpt>
      <trkpt lat="45.15932" lon="5.63313">
        <ele>1411.4000244141</ele>
        <time>2019-12-15T10:34:12.000Z</time>
      </trkpt>
      <trkpt lat="45.15936" lon="5.63315">
        <ele>1411.8000488281</ele>
        <time>2019-12-15T10:34:15.000Z</time>
      </trkpt>
      <trkpt lat="45.1594" lon="5.63318">
        <ele>1412.1999511719</ele>
        <time>2019-12-15T10:34:18.000Z</time>
      </trkpt>
      <trkpt lat="45.15941" lon="5.63319">
        <ele>1412.4000244141</ele>
        <time>2019-12-15T10:34:20.000Z</time>
      </trkpt>
      <trkpt lat="45.15941" lon="5.6332">
        <ele>1412.4000244141</ele>
        <time>2019-12-15T10:34:21.000Z</time>
      </trkpt>
      <trkpt lat="45.15947" lon="5.63324">
        <ele>1413.1999511719</ele>
        <time>2019-12-15T10:34:26.000Z</time>
      </trkpt>
      <trkpt lat="45.15949" lon="5.63324">
        <ele>1413.5999755859</ele>
        <time>2019-12-15T10:34:28.000Z</time>
      </trkpt>
      <trkpt lat="45.15951" lon="5.63325">
        <ele>1414</ele>
        <time>2019-12-15T10:34:31.000Z</time>
      </trkpt>
      <trkpt lat="45.15955" lon="5.63327">
        <ele>1414.4000244141</ele>
        <time>2019-12-15T10:34:36.000Z</time>
      </trkpt>
      <trkpt lat="45.15957" lon="5.63328">
        <ele>1414.5999755859</ele>
        <time>2019-12-15T10:34:38.000Z</time>
      </trkpt>
      <trkpt lat="45.15959" lon="5.63328">
        <ele>1415.1999511719</ele>
        <time>2019-12-15T10:34:42.000Z</time>
      </trkpt>
      <trkpt lat="45.15962" lon="5.63329">
        <ele>1415.5999755859</ele>
        <time>2019-12-15T10:34:44.000Z</time>
      </trkpt>
      <trkpt lat="45.15965" lon="5.6333">
        <ele>1416.1999511719</ele>
        <time>2019-12-15T10:34:47.000Z</time>
      </trkpt>
      <trkpt lat="45.15967" lon="5.6333">
        <ele>1416.8000488281</ele>
        <time>2019-12-15T10:34:51.000Z</time>
      </trkpt>
      <trkpt lat="45.15967" lon="5.6333">
        <ele>1417.1999511719</ele>
        <time>2019-12-15T10:34:52.000Z</time>
      </trkpt>
      <trkpt lat="45.1597" lon="5.63331">
        <ele>1418</ele>
        <time>2019-12-15T10:34:56.000Z</time>
      </trkpt>
      <trkpt lat="45.15972" lon="5.63332">
        <ele>1418.1999511719</ele>
        <time>2019-12-15T10:34:57.000Z</time>
      </trkpt>
      <trkpt lat="45.15978" lon="5.63336">
        <ele>1419</ele>
        <time>2019-12-15T10:35:03.000Z</time>
      </trkpt>
      <trkpt lat="45.1598" lon="5.63337">
        <ele>1419.4000244141</ele>
        <time>2019-12-15T10:35:05.000Z</time>
      </trkpt>
      <trkpt lat="45.15981" lon="5.63338">
        <ele>1420</ele>
        <time>2019-12-15T10:35:09.000Z</time>
      </trkpt>
      <trkpt lat="45.15982" lon="5.63338">
        <ele>1420.4000244141</ele>
        <time>2019-12-15T10:35:11.000Z</time>
      </trkpt>
      <trkpt lat="45.15985" lon="5.63339">
        <ele>1421.1999511719</ele>
        <time>2019-12-15T10:35:15.000Z</time>
      </trkpt>
      <trkpt lat="45.15986" lon="5.63341">
        <ele>1421.5999755859</ele>
        <time>2019-12-15T10:35:18.000Z</time>
      </trkpt>
      <trkpt lat="45.15989" lon="5.63342">
        <ele>1422.1999511719</ele>
        <time>2019-12-15T10:35:22.000Z</time>
      </trkpt>
      <trkpt lat="45.1599" lon="5.63343">
        <ele>1422.8000488281</ele>
        <time>2019-12-15T10:35:25.000Z</time>
      </trkpt>
      <trkpt lat="45.15993" lon="5.63345">
        <ele>1423.4000244141</ele>
        <time>2019-12-15T10:35:29.000Z</time>
      </trkpt>
      <trkpt lat="45.15993" lon="5.63345">
        <ele>1423.5999755859</ele>
        <time>2019-12-15T10:35:30.000Z</time>
      </trkpt>
      <trkpt lat="45.15996" lon="5.63346">
        <ele>1424.4000244141</ele>
        <time>2019-12-15T10:35:35.000Z</time>
      </trkpt>
      <trkpt lat="45.15998" lon="5.63348">
        <ele>1424.8000488281</ele>
        <time>2019-12-15T10:35:37.000Z</time>
      </trkpt>
      <trkpt lat="45.16" lon="5.63349">
        <ele>1425.4000244141</ele>
        <time>2019-12-15T10:35:40.000Z</time>
      </trkpt>
      <trkpt lat="45.16003" lon="5.6335">
        <ele>1426</ele>
        <time>2019-12-15T10:35:43.000Z</time>
      </trkpt>
      <trkpt lat="45.16005" lon="5.63349">
        <ele>1426.5999755859</ele>
        <time>2019-12-15T10:35:47.000Z</time>
      </trkpt>
      <trkpt lat="45.16007" lon="5.63349">
        <ele>1427.1999511719</ele>
        <time>2019-12-15T10:35:50.000Z</time>
      </trkpt>
      <trkpt lat="45.16009" lon="5.63352">
        <ele>1427.5999755859</ele>
        <time>2019-12-15T10:35:52.000Z</time>
      </trkpt>
      <trkpt lat="45.1601" lon="5.63353">
        <ele>1428.1999511719</ele>
        <time>2019-12-15T10:35:56.000Z</time>
      </trkpt>
      <trkpt lat="45.16011" lon="5.63355">
        <ele>1428.8000488281</ele>
        <time>2019-12-15T10:35:59.000Z</time>
      </trkpt>
      <trkpt lat="45.16011" lon="5.63356">
        <ele>1429.1999511719</ele>
        <time>2019-12-15T10:36:01.000Z</time>
      </trkpt>
      <trkpt lat="45.16012" lon="5.63356">
        <ele>1429.8000488281</ele>
        <time>2019-12-15T10:36:03.000Z</time>
      </trkpt>
      <trkpt lat="45.16013" lon="5.63359">
        <ele>1430.5999755859</ele>
        <time>2019-12-15T10:36:06.000Z</time>
      </trkpt>
      <trkpt lat="45.16014" lon="5.63361">
        <ele>1431</ele>
        <time>2019-12-15T10:36:08.000Z</time>
      </trkpt>
      <trkpt lat="45.16015" lon="5.63363">
        <ele>1431.4000244141</ele>
        <time>2019-12-15T10:36:10.000Z</time>
      </trkpt>
      <trkpt lat="45.16016" lon="5.63364">
        <ele>1432.1999511719</ele>
        <time>2019-12-15T10:36:14.000Z</time>
      </trkpt>
      <trkpt lat="45.16016" lon="5.63365">
        <ele>1432.1999511719</ele>
        <time>2019-12-15T10:36:15.000Z</time>
      </trkpt>
      <trkpt lat="45.16017" lon="5.63371">
        <ele>1433.1999511719</ele>
        <time>2019-12-15T10:36:20.000Z</time>
      </trkpt>
      <trkpt lat="45.16017" lon="5.63371">
        <ele>1433.5999755859</ele>
        <time>2019-12-15T10:36:21.000Z</time>
      </trkpt>
      <trkpt lat="45.16016" lon="5.63376">
        <ele>1434.4000244141</ele>
        <time>2019-12-15T10:36:25.000Z</time>
      </trkpt>
      <trkpt lat="45.16016" lon="5.63377">
        <ele>1434.8000488281</ele>
        <time>2019-12-15T10:36:27.000Z</time>
      </trkpt>
      <trkpt lat="45.16015" lon="5.63379">
        <ele>1435.5999755859</ele>
        <time>2019-12-15T10:36:30.000Z</time>
      </trkpt>
      <trkpt lat="45.16013" lon="5.63381">
        <ele>1436</ele>
        <time>2019-12-15T10:36:33.000Z</time>
      </trkpt>
      <trkpt lat="45.1601" lon="5.63383">
        <ele>1436.4000244141</ele>
        <time>2019-12-15T10:36:38.000Z</time>
      </trkpt>
      <trkpt lat="45.1601" lon="5.63384">
        <ele>1436.5999755859</ele>
        <time>2019-12-15T10:36:39.000Z</time>
      </trkpt>
      <trkpt lat="45.16006" lon="5.63387">
        <ele>1437.1999511719</ele>
        <time>2019-12-15T10:36:44.000Z</time>
      </trkpt>
      <trkpt lat="45.16003" lon="5.63389">
        <ele>1437.5999755859</ele>
        <time>2019-12-15T10:36:47.000Z</time>
      </trkpt>
      <trkpt lat="45.16002" lon="5.6339">
        <ele>1437.5999755859</ele>
        <time>2019-12-15T10:36:48.000Z</time>
      </trkpt>
      <trkpt lat="45.15999" lon="5.63391">
        <ele>1438.1999511719</ele>
        <time>2019-12-15T10:36:50.000Z</time>
      </trkpt>
      <trkpt lat="45.15997" lon="5.63392">
        <ele>1438.8000488281</ele>
        <time>2019-12-15T10:36:53.000Z</time>
      </trkpt>
      <trkpt lat="45.15996" lon="5.63392">
        <ele>1439.4000244141</ele>
        <time>2019-12-15T10:36:55.000Z</time>
      </trkpt>
      <trkpt lat="45.15993" lon="5.63394">
        <ele>1440</ele>
        <time>2019-12-15T10:36:58.000Z</time>
      </trkpt>
      <trkpt lat="45.15992" lon="5.63394">
        <ele>1440.4000244141</ele>
        <time>2019-12-15T10:37:00.000Z</time>
      </trkpt>
      <trkpt lat="45.1599" lon="5.63396">
        <ele>1440.8000488281</ele>
        <time>2019-12-15T10:37:04.000Z</time>
      </trkpt>
      <trkpt lat="45.15987" lon="5.63398">
        <ele>1441.1999511719</ele>
        <time>2019-12-15T10:37:05.000Z</time>
      </trkpt>
      <trkpt lat="45.15986" lon="5.634">
        <ele>1441.8000488281</ele>
        <time>2019-12-15T10:37:08.000Z</time>
      </trkpt>
      <trkpt lat="45.15985" lon="5.63401">
        <ele>1442.1999511719</ele>
        <time>2019-12-15T10:37:10.000Z</time>
      </trkpt>
      <trkpt lat="45.15983" lon="5.63404">
        <ele>1443.1999511719</ele>
        <time>2019-12-15T10:37:13.000Z</time>
      </trkpt>
      <trkpt lat="45.15981" lon="5.63405">
        <ele>1444.4000244141</ele>
        <time>2019-12-15T10:37:16.000Z</time>
      </trkpt>
      <trkpt lat="45.15979" lon="5.63408">
        <ele>1445.4000244141</ele>
        <time>2019-12-15T10:37:20.000Z</time>
      </trkpt>
      <trkpt lat="45.15979" lon="5.63408">
        <ele>1446</ele>
        <time>2019-12-15T10:37:22.000Z</time>
      </trkpt>
      <trkpt lat="45.15978" lon="5.63411">
        <ele>1446.4000244141</ele>
        <time>2019-12-15T10:37:26.000Z</time>
      </trkpt>
      <trkpt lat="45.15978" lon="5.63413">
        <ele>1447.5999755859</ele>
        <time>2019-12-15T10:37:29.000Z</time>
      </trkpt>
      <trkpt lat="45.15978" lon="5.63417">
        <ele>1448.5999755859</ele>
        <time>2019-12-15T10:37:33.000Z</time>
      </trkpt>
      <trkpt lat="45.15978" lon="5.6342">
        <ele>1449.5999755859</ele>
        <time>2019-12-15T10:37:36.000Z</time>
      </trkpt>
      <trkpt lat="45.15977" lon="5.6342">
        <ele>1449.8000488281</ele>
        <time>2019-12-15T10:37:37.000Z</time>
      </trkpt>
      <trkpt lat="45.15976" lon="5.63423">
        <ele>1451</ele>
        <time>2019-12-15T10:37:40.000Z</time>
      </trkpt>
      <trkpt lat="45.15975" lon="5.63426">
        <ele>1451.5999755859</ele>
        <time>2019-12-15T10:37:44.000Z</time>
      </trkpt>
      <trkpt lat="45.15974" lon="5.63428">
        <ele>1452</ele>
        <time>2019-12-15T10:37:47.000Z</time>
      </trkpt>
      <trkpt lat="45.15973" lon="5.6343">
        <ele>1452.8000488281</ele>
        <time>2019-12-15T10:37:50.000Z</time>
      </trkpt>
      <trkpt lat="45.15973" lon="5.63431">
        <ele>1453</ele>
        <time>2019-12-15T10:37:51.000Z</time>
      </trkpt>
      <trkpt lat="45.15972" lon="5.63435">
        <ele>1454.1999511719</ele>
        <time>2019-12-15T10:37:55.000Z</time>
      </trkpt>
      <trkpt lat="45.15971" lon="5.63436">
        <ele>1454.4000244141</ele>
        <time>2019-12-15T10:37:56.000Z</time>
      </trkpt>
      <trkpt lat="45.15972" lon="5.63441">
        <ele>1455.1999511719</ele>
        <time>2019-12-15T10:38:00.000Z</time>
      </trkpt>
      <trkpt lat="45.15971" lon="5.63441">
        <ele>1455.4000244141</ele>
        <time>2019-12-15T10:38:01.000Z</time>
      </trkpt>
      <trkpt lat="45.1597" lon="5.63444">
        <ele>1456.1999511719</ele>
        <time>2019-12-15T10:38:04.000Z</time>
      </trkpt>
      <trkpt lat="45.15971" lon="5.63445">
        <ele>1456.5999755859</ele>
        <time>2019-12-15T10:38:08.000Z</time>
      </trkpt>
      <trkpt lat="45.15971" lon="5.63445">
        <ele>1457.4000244141</ele>
        <time>2019-12-15T10:38:13.000Z</time>
      </trkpt>
      <trkpt lat="45.15971" lon="5.63449">
        <ele>1457.5999755859</ele>
        <time>2019-12-15T10:38:17.000Z</time>
      </trkpt>
      <trkpt lat="45.1597" lon="5.63456">
        <ele>1458.4000244141</ele>
        <time>2019-12-15T10:38:23.000Z</time>
      </trkpt>
      <trkpt lat="45.1597" lon="5.63458">
        <ele>1458.8000488281</ele>
        <time>2019-12-15T10:38:24.000Z</time>
      </trkpt>
      <trkpt lat="45.1597" lon="5.63461">
        <ele>1460</ele>
        <time>2019-12-15T10:38:27.000Z</time>
      </trkpt>
      <trkpt lat="45.1597" lon="5.63463">
        <ele>1460.8000488281</ele>
        <time>2019-12-15T10:38:29.000Z</time>
      </trkpt>
      <trkpt lat="45.15969" lon="5.63464">
        <ele>1461.1999511719</ele>
        <time>2019-12-15T10:38:30.000Z</time>
      </trkpt>
      <trkpt lat="45.15969" lon="5.6347">
        <ele>1462.1999511719</ele>
        <time>2019-12-15T10:38:36.000Z</time>
      </trkpt>
      <trkpt lat="45.15968" lon="5.63477">
        <ele>1463.5999755859</ele>
        <time>2019-12-15T10:38:40.000Z</time>
      </trkpt>
      <trkpt lat="45.15968" lon="5.6348">
        <ele>1464.1999511719</ele>
        <time>2019-12-15T10:38:42.000Z</time>
      </trkpt>
      <trkpt lat="45.15968" lon="5.63482">
        <ele>1464.5999755859</ele>
        <time>2019-12-15T10:38:44.000Z</time>
      </trkpt>
      <trkpt lat="45.15968" lon="5.63487">
        <ele>1465.5999755859</ele>
        <time>2019-12-15T10:38:48.000Z</time>
      </trkpt>
      <trkpt lat="45.15969" lon="5.63489">
        <ele>1466</ele>
        <time>2019-12-15T10:38:49.000Z</time>
      </trkpt>
      <trkpt lat="45.15969" lon="5.63495">
        <ele>1467.1999511719</ele>
        <time>2019-12-15T10:38:53.000Z</time>
      </trkpt>
      <trkpt lat="45.15969" lon="5.63497">
        <ele>1467.8000488281</ele>
        <time>2019-12-15T10:38:55.000Z</time>
      </trkpt>
      <trkpt lat="45.1597" lon="5.635">
        <ele>1468.4000244141</ele>
        <time>2019-12-15T10:38:58.000Z</time>
      </trkpt>
      <trkpt lat="45.1597" lon="5.63505">
        <ele>1469.1999511719</ele>
        <time>2019-12-15T10:39:01.000Z</time>
      </trkpt>
      <trkpt lat="45.1597" lon="5.63506">
        <ele>1469.4000244141</ele>
        <time>2019-12-15T10:39:02.000Z</time>
      </trkpt>
      <trkpt lat="45.1597" lon="5.63512">
        <ele>1470.1999511719</ele>
        <time>2019-12-15T10:39:05.000Z</time>
      </trkpt>
      <trkpt lat="45.15969" lon="5.63512">
        <ele>1470.4000244141</ele>
        <time>2019-12-15T10:39:06.000Z</time>
      </trkpt>
      <trkpt lat="45.15969" lon="5.63515">
        <ele>1470.8000488281</ele>
        <time>2019-12-15T10:39:07.000Z</time>
      </trkpt>
      <trkpt lat="45.1597" lon="5.63521">
        <ele>1471.5999755859</ele>
        <time>2019-12-15T10:39:11.000Z</time>
      </trkpt>
      <trkpt lat="45.1597" lon="5.63527">
        <ele>1472.5999755859</ele>
        <time>2019-12-15T10:39:15.000Z</time>
      </trkpt>
      <trkpt lat="45.1597" lon="5.63528">
        <ele>1472.8000488281</ele>
        <time>2019-12-15T10:39:16.000Z</time>
      </trkpt>
      <trkpt lat="45.15971" lon="5.63531">
        <ele>1473.5999755859</ele>
        <time>2019-12-15T10:39:19.000Z</time>
      </trkpt>
      <trkpt lat="45.15971" lon="5.63532">
        <ele>1473.8000488281</ele>
        <time>2019-12-15T10:39:20.000Z</time>
      </trkpt>
      <trkpt lat="45.15973" lon="5.6354">
        <ele>1475</ele>
        <time>2019-12-15T10:39:26.000Z</time>
      </trkpt>
      <trkpt lat="45.15973" lon="5.63547">
        <ele>1476</ele>
        <time>2019-12-15T10:39:31.000Z</time>
      </trkpt>
      <trkpt lat="45.15973" lon="5.63549">
        <ele>1476.1999511719</ele>
        <time>2019-12-15T10:39:32.000Z</time>
      </trkpt>
      <trkpt lat="45.15974" lon="5.63556">
        <ele>1477.1999511719</ele>
        <time>2019-12-15T10:39:36.000Z</time>
      </trkpt>
      <trkpt lat="45.15975" lon="5.63563">
        <ele>1478.4000244141</ele>
        <time>2019-12-15T10:39:41.000Z</time>
      </trkpt>
      <trkpt lat="45.15974" lon="5.63571">
        <ele>1479.5999755859</ele>
        <time>2019-12-15T10:39:46.000Z</time>
      </trkpt>
      <trkpt lat="45.15976" lon="5.63577">
        <ele>1480.8000488281</ele>
        <time>2019-12-15T10:39:51.000Z</time>
      </trkpt>
      <trkpt lat="45.15977" lon="5.63581">
        <ele>1482</ele>
        <time>2019-12-15T10:39:56.000Z</time>
      </trkpt>
      <trkpt lat="45.15977" lon="5.63582">
        <ele>1482.4000244141</ele>
        <time>2019-12-15T10:39:58.000Z</time>
      </trkpt>
      <trkpt lat="45.15978" lon="5.63584">
        <ele>1483.4000244141</ele>
        <time>2019-12-15T10:40:02.000Z</time>
      </trkpt>
      <trkpt lat="45.15978" lon="5.63586">
        <ele>1483.5999755859</ele>
        <time>2019-12-15T10:40:03.000Z</time>
      </trkpt>
      <trkpt lat="45.15978" lon="5.63591">
        <ele>1484.4000244141</ele>
        <time>2019-12-15T10:40:06.000Z</time>
      </trkpt>
      <trkpt lat="45.15977" lon="5.63595">
        <ele>1485</ele>
        <time>2019-12-15T10:40:08.000Z</time>
      </trkpt>
      <trkpt lat="45.15977" lon="5.63598">
        <ele>1485.4000244141</ele>
        <time>2019-12-15T10:40:10.000Z</time>
      </trkpt>
      <trkpt lat="45.15978" lon="5.63604">
        <ele>1486.4000244141</ele>
        <time>2019-12-15T10:40:14.000Z</time>
      </trkpt>
      <trkpt lat="45.15977" lon="5.63606">
        <ele>1486.5999755859</ele>
        <time>2019-12-15T10:40:15.000Z</time>
      </trkpt>
      <trkpt lat="45.15977" lon="5.63612">
        <ele>1487.8000488281</ele>
        <time>2019-12-15T10:40:19.000Z</time>
      </trkpt>
      <trkpt lat="45.15977" lon="5.63617">
        <ele>1488.8000488281</ele>
        <time>2019-12-15T10:40:23.000Z</time>
      </trkpt>
      <trkpt lat="45.15978" lon="5.63619">
        <ele>1489</ele>
        <time>2019-12-15T10:40:24.000Z</time>
      </trkpt>
      <trkpt lat="45.15978" lon="5.63623">
        <ele>1489.8000488281</ele>
        <time>2019-12-15T10:40:28.000Z</time>
      </trkpt>
      <trkpt lat="45.15978" lon="5.63625">
        <ele>1490.1999511719</ele>
        <time>2019-12-15T10:40:29.000Z</time>
      </trkpt>
      <trkpt lat="45.15977" lon="5.63629">
        <ele>1491</ele>
        <time>2019-12-15T10:40:32.000Z</time>
      </trkpt>
      <trkpt lat="45.15978" lon="5.63633">
        <ele>1491.5999755859</ele>
        <time>2019-12-15T10:40:35.000Z</time>
      </trkpt>
      <trkpt lat="45.15979" lon="5.63636">
        <ele>1492</ele>
        <time>2019-12-15T10:40:37.000Z</time>
      </trkpt>
      <trkpt lat="45.15981" lon="5.63639">
        <ele>1493</ele>
        <time>2019-12-15T10:40:40.000Z</time>
      </trkpt>
      <trkpt lat="45.15982" lon="5.6364">
        <ele>1493.1999511719</ele>
        <time>2019-12-15T10:40:41.000Z</time>
      </trkpt>
      <trkpt lat="45.15983" lon="5.63645">
        <ele>1494.4000244141</ele>
        <time>2019-12-15T10:40:45.000Z</time>
      </trkpt>
      <trkpt lat="45.15983" lon="5.63654">
        <ele>1495.5999755859</ele>
        <time>2019-12-15T10:40:50.000Z</time>
      </trkpt>
      <trkpt lat="45.15982" lon="5.63657">
        <ele>1496.1999511719</ele>
        <time>2019-12-15T10:40:52.000Z</time>
      </trkpt>
      <trkpt lat="45.15982" lon="5.63659">
        <ele>1496.8000488281</ele>
        <time>2019-12-15T10:40:54.000Z</time>
      </trkpt>
      <trkpt lat="45.15982" lon="5.63661">
        <ele>1497.1999511719</ele>
        <time>2019-12-15T10:40:55.000Z</time>
      </trkpt>
      <trkpt lat="45.15982" lon="5.63664">
        <ele>1497.4000244141</ele>
        <time>2019-12-15T10:40:57.000Z</time>
      </trkpt>
      <trkpt lat="45.15983" lon="5.63667">
        <ele>1498</ele>
        <time>2019-12-15T10:40:59.000Z</time>
      </trkpt>
      <trkpt lat="45.15983" lon="5.6367">
        <ele>1499.1999511719</ele>
        <time>2019-12-15T10:41:03.000Z</time>
      </trkpt>
      <trkpt lat="45.15984" lon="5.63678">
        <ele>1500.1999511719</ele>
        <time>2019-12-15T10:41:08.000Z</time>
      </trkpt>
      <trkpt lat="45.15985" lon="5.63686">
        <ele>1501.4000244141</ele>
        <time>2019-12-15T10:41:13.000Z</time>
      </trkpt>
      <trkpt lat="45.15986" lon="5.63692">
        <ele>1502.4000244141</ele>
        <time>2019-12-15T10:41:17.000Z</time>
      </trkpt>
      <trkpt lat="45.15986" lon="5.63693">
        <ele>1502.5999755859</ele>
        <time>2019-12-15T10:41:18.000Z</time>
      </trkpt>
      <trkpt lat="45.1599" lon="5.637">
        <ele>1503.5999755859</ele>
        <time>2019-12-15T10:41:23.000Z</time>
      </trkpt>
      <trkpt lat="45.1599" lon="5.63704">
        <ele>1504.1999511719</ele>
        <time>2019-12-15T10:41:26.000Z</time>
      </trkpt>
      <trkpt lat="45.1599" lon="5.63709">
        <ele>1504.5999755859</ele>
        <time>2019-12-15T10:41:29.000Z</time>
      </trkpt>
      <trkpt lat="45.15989" lon="5.6371">
        <ele>1504.5999755859</ele>
        <time>2019-12-15T10:41:30.000Z</time>
      </trkpt>
      <trkpt lat="45.15988" lon="5.63715">
        <ele>1505.4000244141</ele>
        <time>2019-12-15T10:41:34.000Z</time>
      </trkpt>
      <trkpt lat="45.15986" lon="5.63717">
        <ele>1505.5999755859</ele>
        <time>2019-12-15T10:41:36.000Z</time>
      </trkpt>
      <trkpt lat="45.15984" lon="5.63719">
        <ele>1505.5999755859</ele>
        <time>2019-12-15T10:41:38.000Z</time>
      </trkpt>
      <trkpt lat="45.15983" lon="5.6372">
        <ele>1505.5999755859</ele>
        <time>2019-12-15T10:41:39.000Z</time>
      </trkpt>
      <trkpt lat="45.15982" lon="5.63722">
        <ele>1505.5999755859</ele>
        <time>2019-12-15T10:41:44.000Z</time>
      </trkpt>
      <trkpt lat="45.15982" lon="5.63722">
        <ele>1505.5999755859</ele>
        <time>2019-12-15T10:41:56.000Z</time>
      </trkpt>
      <trkpt lat="45.15982" lon="5.63722">
        <ele>1505.4000244141</ele>
        <time>2019-12-15T10:42:07.000Z</time>
      </trkpt>
      <trkpt lat="45.15982" lon="5.63722">
        <ele>1505.1999511719</ele>
        <time>2019-12-15T10:42:15.000Z</time>
      </trkpt>
      <trkpt lat="45.15982" lon="5.63722">
        <ele>1505.4000244141</ele>
        <time>2019-12-15T10:42:23.000Z</time>
      </trkpt>
      <trkpt lat="45.15982" lon="5.63722">
        <ele>1505.4000244141</ele>
        <time>2019-12-15T10:42:28.000Z</time>
      </trkpt>
      <trkpt lat="45.15982" lon="5.63723">
        <ele>1505.5999755859</ele>
        <time>2019-12-15T10:42:37.000Z</time>
      </trkpt>
      <trkpt lat="45.15981" lon="5.63723">
        <ele>1505.5999755859</ele>
        <time>2019-12-15T10:42:43.000Z</time>
      </trkpt>
      <trkpt lat="45.15982" lon="5.63724">
        <ele>1505.5999755859</ele>
        <time>2019-12-15T10:42:48.000Z</time>
      </trkpt>
      <trkpt lat="45.15982" lon="5.63724">
        <ele>1505.8000488281</ele>
        <time>2019-12-15T10:42:58.000Z</time>
      </trkpt>
      <trkpt lat="45.15982" lon="5.63724">
        <ele>1505.5999755859</ele>
        <time>2019-12-15T10:43:06.000Z</time>
      </trkpt>
      <trkpt lat="45.15982" lon="5.63724">
        <ele>1505.8000488281</ele>
        <time>2019-12-15T10:43:17.000Z</time>
      </trkpt>
      <trkpt lat="45.15982" lon="5.63724">
        <ele>1505.1999511719</ele>
        <time>2019-12-15T10:43:32.000Z</time>
      </trkpt>
      <trkpt lat="45.15982" lon="5.63725">
        <ele>1505.4000244141</ele>
        <time>2019-12-15T10:43:35.000Z</time>
      </trkpt>
      <trkpt lat="45.15982" lon="5.63725">
        <ele>1505.8000488281</ele>
        <time>2019-12-15T10:43:37.000Z</time>
      </trkpt>
      <trkpt lat="45.15982" lon="5.63725">
        <ele>1506</ele>
        <time>2019-12-15T10:43:39.000Z</time>
      </trkpt>
      <trkpt lat="45.15982" lon="5.63725">
        <ele>1505.8000488281</ele>
        <time>2019-12-15T10:43:52.000Z</time>
      </trkpt>
      <trkpt lat="45.15982" lon="5.63725">
        <ele>1505.5999755859</ele>
        <time>2019-12-15T10:44:04.000Z</time>
      </trkpt>
      <trkpt lat="45.15982" lon="5.63725">
        <ele>1505.8000488281</ele>
        <time>2019-12-15T10:44:23.000Z</time>
      </trkpt>
      <trkpt lat="45.15982" lon="5.63725">
        <ele>1505.8000488281</ele>
        <time>2019-12-15T10:44:37.000Z</time>
      </trkpt>
      <trkpt lat="45.15982" lon="5.63725">
        <ele>1505.4000244141</ele>
        <time>2019-12-15T10:44:46.000Z</time>
      </trkpt>
      <trkpt lat="45.15982" lon="5.63725">
        <ele>1505.5999755859</ele>
        <time>2019-12-15T10:44:57.000Z</time>
      </trkpt>
      <trkpt lat="45.15982" lon="5.63725">
        <ele>1505.8000488281</ele>
        <time>2019-12-15T10:45:08.000Z</time>
      </trkpt>
      <trkpt lat="45.15982" lon="5.63725">
        <ele>1505.8000488281</ele>
        <time>2019-12-15T10:45:21.000Z</time>
      </trkpt>
      <trkpt lat="45.15982" lon="5.63725">
        <ele>1505.8000488281</ele>
        <time>2019-12-15T10:45:33.000Z</time>
      </trkpt>
      <trkpt lat="45.15982" lon="5.63725">
        <ele>1505.8000488281</ele>
        <time>2019-12-15T10:45:46.000Z</time>
      </trkpt>
      <trkpt lat="45.15982" lon="5.63725">
        <ele>1505.8000488281</ele>
        <time>2019-12-15T10:45:57.000Z</time>
      </trkpt>
      <trkpt lat="45.15982" lon="5.63725">
        <ele>1506.4000244141</ele>
        <time>2019-12-15T10:46:05.000Z</time>
      </trkpt>
      <trkpt lat="45.15982" lon="5.63725">
        <ele>1505.4000244141</ele>
        <time>2019-12-15T10:46:20.000Z</time>
      </trkpt>
      <trkpt lat="45.15982" lon="5.63725">
        <ele>1505.5999755859</ele>
        <time>2019-12-15T10:46:31.000Z</time>
      </trkpt>
      <trkpt lat="45.15982" lon="5.63725">
        <ele>1506</ele>
        <time>2019-12-15T10:46:43.000Z</time>
      </trkpt>
      <trkpt lat="45.15982" lon="5.63725">
        <ele>1506</ele>
        <time>2019-12-15T10:46:57.000Z</time>
      </trkpt>
      <trkpt lat="45.15982" lon="5.63725">
        <ele>1505.8000488281</ele>
        <time>2019-12-15T10:47:11.000Z</time>
      </trkpt>
      <trkpt lat="45.15982" lon="5.63725">
        <ele>1505.5999755859</ele>
        <time>2019-12-15T10:47:25.000Z</time>
      </trkpt>
      <trkpt lat="45.15982" lon="5.63725">
        <ele>1505.5999755859</ele>
        <time>2019-12-15T10:47:35.000Z</time>
      </trkpt>
      <trkpt lat="45.15982" lon="5.63725">
        <ele>1506.4000244141</ele>
        <time>2019-12-15T10:47:43.000Z</time>
      </trkpt>
      <trkpt lat="45.15982" lon="5.63725">
        <ele>1506.4000244141</ele>
        <time>2019-12-15T10:47:57.000Z</time>
      </trkpt>
      <trkpt lat="45.15982" lon="5.63724">
        <ele>1505.4000244141</ele>
        <time>2019-12-15T10:48:11.000Z</time>
      </trkpt>
      <trkpt lat="45.15986" lon="5.6372">
        <ele>1506</ele>
        <time>2019-12-15T10:48:17.000Z</time>
      </trkpt>
      <trkpt lat="45.15988" lon="5.63717">
        <ele>1505</ele>
        <time>2019-12-15T10:48:24.000Z</time>
      </trkpt>
      <trkpt lat="45.15989" lon="5.63715">
        <ele>1505.4000244141</ele>
        <time>2019-12-15T10:48:28.000Z</time>
      </trkpt>
      <trkpt lat="45.1599" lon="5.6371">
        <ele>1505.8000488281</ele>
        <time>2019-12-15T10:48:30.000Z</time>
      </trkpt>
      <trkpt lat="45.15988" lon="5.63697">
        <ele>1505.5999755859</ele>
        <time>2019-12-15T10:48:34.000Z</time>
      </trkpt>
      <trkpt lat="45.15986" lon="5.63688">
        <ele>1504.5999755859</ele>
        <time>2019-12-15T10:48:37.000Z</time>
      </trkpt>
      <trkpt lat="45.15986" lon="5.63679">
        <ele>1504</ele>
        <time>2019-12-15T10:48:39.000Z</time>
      </trkpt>
      <trkpt lat="45.15986" lon="5.63667">
        <ele>1503</ele>
        <time>2019-12-15T10:48:42.000Z</time>
      </trkpt>
      <trkpt lat="45.15986" lon="5.63663">
        <ele>1502.5999755859</ele>
        <time>2019-12-15T10:48:43.000Z</time>
      </trkpt>
      <trkpt lat="45.15986" lon="5.63658">
        <ele>1502</ele>
        <time>2019-12-15T10:48:44.000Z</time>
      </trkpt>
      <trkpt lat="45.15987" lon="5.63653">
        <ele>1501.4000244141</ele>
        <time>2019-12-15T10:48:45.000Z</time>
      </trkpt>
      <trkpt lat="45.15985" lon="5.63648">
        <ele>1500.8000488281</ele>
        <time>2019-12-15T10:48:46.000Z</time>
      </trkpt>
      <trkpt lat="45.15981" lon="5.63642">
        <ele>1499.4000244141</ele>
        <time>2019-12-15T10:48:48.000Z</time>
      </trkpt>
      <trkpt lat="45.15981" lon="5.6364">
        <ele>1498.8000488281</ele>
        <time>2019-12-15T10:48:49.000Z</time>
      </trkpt>
      <trkpt lat="45.15981" lon="5.63638">
        <ele>1498</ele>
        <time>2019-12-15T10:48:50.000Z</time>
      </trkpt>
      <trkpt lat="45.15981" lon="5.63638">
        <ele>1496.4000244141</ele>
        <time>2019-12-15T10:48:51.000Z</time>
      </trkpt>
      <trkpt lat="45.1598" lon="5.63638">
        <ele>1495.1999511719</ele>
        <time>2019-12-15T10:48:53.000Z</time>
      </trkpt>
      <trkpt lat="45.1598" lon="5.63638">
        <ele>1494</ele>
        <time>2019-12-15T10:48:58.000Z</time>
      </trkpt>
      <trkpt lat="45.15981" lon="5.63631">
        <ele>1494</ele>
        <time>2019-12-15T10:49:03.000Z</time>
      </trkpt>
      <trkpt lat="45.15981" lon="5.63627">
        <ele>1493.8000488281</ele>
        <time>2019-12-15T10:49:04.000Z</time>
      </trkpt>
      <trkpt lat="45.15981" lon="5.63617">
        <ele>1493.5999755859</ele>
        <time>2019-12-15T10:49:06.000Z</time>
      </trkpt>
      <trkpt lat="45.15981" lon="5.636">
        <ele>1492.8000488281</ele>
        <time>2019-12-15T10:49:09.000Z</time>
      </trkpt>
      <trkpt lat="45.15981" lon="5.63586">
        <ele>1491.4000244141</ele>
        <time>2019-12-15T10:49:11.000Z</time>
      </trkpt>
      <trkpt lat="45.15981" lon="5.63578">
        <ele>1490.8000488281</ele>
        <time>2019-12-15T10:49:12.000Z</time>
      </trkpt>
      <trkpt lat="45.1598" lon="5.63569">
        <ele>1489.8000488281</ele>
        <time>2019-12-15T10:49:13.000Z</time>
      </trkpt>
      <trkpt lat="45.15979" lon="5.63561">
        <ele>1488.8000488281</ele>
        <time>2019-12-15T10:49:14.000Z</time>
      </trkpt>
      <trkpt lat="45.15979" lon="5.63552">
        <ele>1486.4000244141</ele>
        <time>2019-12-15T10:49:15.000Z</time>
      </trkpt>
      <trkpt lat="45.15978" lon="5.63543">
        <ele>1485.4000244141</ele>
        <time>2019-12-15T10:49:16.000Z</time>
      </trkpt>
      <trkpt lat="45.15978" lon="5.63534">
        <ele>1484.4000244141</ele>
        <time>2019-12-15T10:49:17.000Z</time>
      </trkpt>
      <trkpt lat="45.15977" lon="5.63526">
        <ele>1483.1999511719</ele>
        <time>2019-12-15T10:49:18.000Z</time>
      </trkpt>
      <trkpt lat="45.15977" lon="5.63518">
        <ele>1482</ele>
        <time>2019-12-15T10:49:19.000Z</time>
      </trkpt>
      <trkpt lat="45.15976" lon="5.63511">
        <ele>1480.8000488281</ele>
        <time>2019-12-15T10:49:20.000Z</time>
      </trkpt>
      <trkpt lat="45.15976" lon="5.63504">
        <ele>1479.4000244141</ele>
        <time>2019-12-15T10:49:21.000Z</time>
      </trkpt>
      <trkpt lat="45.15975" lon="5.63497">
        <ele>1478.1999511719</ele>
        <time>2019-12-15T10:49:22.000Z</time>
      </trkpt>
      <trkpt lat="45.15975" lon="5.6349">
        <ele>1476.8000488281</ele>
        <time>2019-12-15T10:49:23.000Z</time>
      </trkpt>
      <trkpt lat="45.15976" lon="5.63483">
        <ele>1475.4000244141</ele>
        <time>2019-12-15T10:49:24.000Z</time>
      </trkpt>
      <trkpt lat="45.15976" lon="5.63476">
        <ele>1474.1999511719</ele>
        <time>2019-12-15T10:49:25.000Z</time>
      </trkpt>
      <trkpt lat="45.15977" lon="5.63469">
        <ele>1472.8000488281</ele>
        <time>2019-12-15T10:49:26.000Z</time>
      </trkpt>
      <trkpt lat="45.15978" lon="5.63462">
        <ele>1471.5999755859</ele>
        <time>2019-12-15T10:49:27.000Z</time>
      </trkpt>
      <trkpt lat="45.1598" lon="5.63455">
        <ele>1470.4000244141</ele>
        <time>2019-12-15T10:49:28.000Z</time>
      </trkpt>
      <trkpt lat="45.15981" lon="5.63448">
        <ele>1469.1999511719</ele>
        <time>2019-12-15T10:49:29.000Z</time>
      </trkpt>
      <trkpt lat="45.1598" lon="5.63442">
        <ele>1467.8000488281</ele>
        <time>2019-12-15T10:49:30.000Z</time>
      </trkpt>
      <trkpt lat="45.1598" lon="5.63436">
        <ele>1466.1999511719</ele>
        <time>2019-12-15T10:49:31.000Z</time>
      </trkpt>
      <trkpt lat="45.1598" lon="5.63429">
        <ele>1464.5999755859</ele>
        <time>2019-12-15T10:49:32.000Z</time>
      </trkpt>
      <trkpt lat="45.15981" lon="5.63425">
        <ele>1463.1999511719</ele>
        <time>2019-12-15T10:49:33.000Z</time>
      </trkpt>
      <trkpt lat="45.15983" lon="5.63423">
        <ele>1462</ele>
        <time>2019-12-15T10:49:34.000Z</time>
      </trkpt>
      <trkpt lat="45.15984" lon="5.63421">
        <ele>1460.5999755859</ele>
        <time>2019-12-15T10:49:35.000Z</time>
      </trkpt>
      <trkpt lat="45.15984" lon="5.6342">
        <ele>1459</ele>
        <time>2019-12-15T10:49:36.000Z</time>
      </trkpt>
      <trkpt lat="45.15984" lon="5.63418">
        <ele>1457.4000244141</ele>
        <time>2019-12-15T10:49:37.000Z</time>
      </trkpt>
      <trkpt lat="45.15985" lon="5.63415">
        <ele>1456</ele>
        <time>2019-12-15T10:49:38.000Z</time>
      </trkpt>
      <trkpt lat="45.15986" lon="5.63412">
        <ele>1454.1999511719</ele>
        <time>2019-12-15T10:49:39.000Z</time>
      </trkpt>
      <trkpt lat="45.15991" lon="5.63401">
        <ele>1452.5999755859</ele>
        <time>2019-12-15T10:49:41.000Z</time>
      </trkpt>
      <trkpt lat="45.16" lon="5.6339">
        <ele>1450.5999755859</ele>
        <time>2019-12-15T10:49:43.000Z</time>
      </trkpt>
      <trkpt lat="45.16004" lon="5.63385">
        <ele>1449.1999511719</ele>
        <time>2019-12-15T10:49:44.000Z</time>
      </trkpt>
      <trkpt lat="45.1601" lon="5.63381">
        <ele>1447.5999755859</ele>
        <time>2019-12-15T10:49:45.000Z</time>
      </trkpt>
      <trkpt lat="45.16014" lon="5.63377">
        <ele>1446</ele>
        <time>2019-12-15T10:49:46.000Z</time>
      </trkpt>
      <trkpt lat="45.16017" lon="5.63374">
        <ele>1444.4000244141</ele>
        <time>2019-12-15T10:49:47.000Z</time>
      </trkpt>
      <trkpt lat="45.16019" lon="5.63372">
        <ele>1442.5999755859</ele>
        <time>2019-12-15T10:49:48.000Z</time>
      </trkpt>
      <trkpt lat="45.1602" lon="5.6337">
        <ele>1441.1999511719</ele>
        <time>2019-12-15T10:49:49.000Z</time>
      </trkpt>
      <trkpt lat="45.16018" lon="5.63366">
        <ele>1439.8000488281</ele>
        <time>2019-12-15T10:49:50.000Z</time>
      </trkpt>
      <trkpt lat="45.16015" lon="5.63362">
        <ele>1438.5999755859</ele>
        <time>2019-12-15T10:49:51.000Z</time>
      </trkpt>
      <trkpt lat="45.1601" lon="5.63357">
        <ele>1437.1999511719</ele>
        <time>2019-12-15T10:49:52.000Z</time>
      </trkpt>
      <trkpt lat="45.16004" lon="5.63354">
        <ele>1436</ele>
        <time>2019-12-15T10:49:53.000Z</time>
      </trkpt>
      <trkpt lat="45.15999" lon="5.63352">
        <ele>1435</ele>
        <time>2019-12-15T10:49:54.000Z</time>
      </trkpt>
      <trkpt lat="45.15996" lon="5.63347">
        <ele>1433.8000488281</ele>
        <time>2019-12-15T10:49:55.000Z</time>
      </trkpt>
      <trkpt lat="45.15992" lon="5.63343">
        <ele>1432.5999755859</ele>
        <time>2019-12-15T10:49:56.000Z</time>
      </trkpt>
      <trkpt lat="45.15988" lon="5.63341">
        <ele>1431.1999511719</ele>
        <time>2019-12-15T10:49:57.000Z</time>
      </trkpt>
      <trkpt lat="45.15985" lon="5.63339">
        <ele>1429.5999755859</ele>
        <time>2019-12-15T10:49:58.000Z</time>
      </trkpt>
      <trkpt lat="45.15981" lon="5.63338">
        <ele>1428.1999511719</ele>
        <time>2019-12-15T10:49:59.000Z</time>
      </trkpt>
      <trkpt lat="45.15976" lon="5.63335">
        <ele>1427</ele>
        <time>2019-12-15T10:50:00.000Z</time>
      </trkpt>
      <trkpt lat="45.15972" lon="5.63333">
        <ele>1425.8000488281</ele>
        <time>2019-12-15T10:50:01.000Z</time>
      </trkpt>
      <trkpt lat="45.15967" lon="5.63331">
        <ele>1424.5999755859</ele>
        <time>2019-12-15T10:50:02.000Z</time>
      </trkpt>
      <trkpt lat="45.15962" lon="5.6333">
        <ele>1422.5999755859</ele>
        <time>2019-12-15T10:50:03.000Z</time>
      </trkpt>
      <trkpt lat="45.15951" lon="5.63328">
        <ele>1421</ele>
        <time>2019-12-15T10:50:05.000Z</time>
      </trkpt>
      <trkpt lat="45.15946" lon="5.63327">
        <ele>1420</ele>
        <time>2019-12-15T10:50:06.000Z</time>
      </trkpt>
      <trkpt lat="45.15941" lon="5.63326">
        <ele>1418.8000488281</ele>
        <time>2019-12-15T10:50:07.000Z</time>
      </trkpt>
      <trkpt lat="45.15937" lon="5.63324">
        <ele>1417.8000488281</ele>
        <time>2019-12-15T10:50:08.000Z</time>
      </trkpt>
      <trkpt lat="45.15932" lon="5.63324">
        <ele>1416.8000488281</ele>
        <time>2019-12-15T10:50:09.000Z</time>
      </trkpt>
      <trkpt lat="45.15928" lon="5.63323">
        <ele>1416</ele>
        <time>2019-12-15T10:50:10.000Z</time>
      </trkpt>
      <trkpt lat="45.15923" lon="5.63321">
        <ele>1414.4000244141</ele>
        <time>2019-12-15T10:50:12.000Z</time>
      </trkpt>
      <trkpt lat="45.15918" lon="5.63315">
        <ele>1412.8000488281</ele>
        <time>2019-12-15T10:50:14.000Z</time>
      </trkpt>
      <trkpt lat="45.15914" lon="5.63313">
        <ele>1412</ele>
        <time>2019-12-15T10:50:15.000Z</time>
      </trkpt>
      <trkpt lat="45.15912" lon="5.63311">
        <ele>1411.5999755859</ele>
        <time>2019-12-15T10:50:16.000Z</time>
      </trkpt>
      <trkpt lat="45.15909" lon="5.63305">
        <ele>1410.4000244141</ele>
        <time>2019-12-15T10:50:18.000Z</time>
      </trkpt>
      <trkpt lat="45.15909" lon="5.633">
        <ele>1409.5999755859</ele>
        <time>2019-12-15T10:50:19.000Z</time>
      </trkpt>
      <trkpt lat="45.15909" lon="5.63295">
        <ele>1409</ele>
        <time>2019-12-15T10:50:20.000Z</time>
      </trkpt>
      <trkpt lat="45.1591" lon="5.6329">
        <ele>1407.8000488281</ele>
        <time>2019-12-15T10:50:22.000Z</time>
      </trkpt>
      <trkpt lat="45.15909" lon="5.63289">
        <ele>1406.1999511719</ele>
        <time>2019-12-15T10:50:24.000Z</time>
      </trkpt>
      <trkpt lat="45.15909" lon="5.63289">
        <ele>1405</ele>
        <time>2019-12-15T10:50:27.000Z</time>
      </trkpt>
      <trkpt lat="45.15908" lon="5.63288">
        <ele>1404.5999755859</ele>
        <time>2019-12-15T10:50:30.000Z</time>
      </trkpt>
      <trkpt lat="45.15908" lon="5.63288">
        <ele>1404.4000244141</ele>
        <time>2019-12-15T10:50:42.000Z</time>
      </trkpt>
      <trkpt lat="45.1591" lon="5.63287">
        <ele>1404.1999511719</ele>
        <time>2019-12-15T10:50:54.000Z</time>
      </trkpt>
      <trkpt lat="45.15911" lon="5.63287">
        <ele>1404.1999511719</ele>
        <time>2019-12-15T10:50:55.000Z</time>
      </trkpt>
      <trkpt lat="45.15917" lon="5.63288">
        <ele>1404</ele>
        <time>2019-12-15T10:50:57.000Z</time>
      </trkpt>
      <trkpt lat="45.15919" lon="5.63285">
        <ele>1403.4000244141</ele>
        <time>2019-12-15T10:50:59.000Z</time>
      </trkpt>
      <trkpt lat="45.15918" lon="5.63279">
        <ele>1402.5999755859</ele>
        <time>2019-12-15T10:51:01.000Z</time>
      </trkpt>
      <trkpt lat="45.15919" lon="5.63277">
        <ele>1401.8000488281</ele>
        <time>2019-12-15T10:51:03.000Z</time>
      </trkpt>
      <trkpt lat="45.1592" lon="5.63277">
        <ele>1401.1999511719</ele>
        <time>2019-12-15T10:51:04.000Z</time>
      </trkpt>
      <trkpt lat="45.15923" lon="5.63274">
        <ele>1399.5999755859</ele>
        <time>2019-12-15T10:51:06.000Z</time>
      </trkpt>
      <trkpt lat="45.15924" lon="5.63269">
        <ele>1398.8000488281</ele>
        <time>2019-12-15T10:51:07.000Z</time>
      </trkpt>
      <trkpt lat="45.15926" lon="5.63265">
        <ele>1398.1999511719</ele>
        <time>2019-12-15T10:51:08.000Z</time>
      </trkpt>
      <trkpt lat="45.15929" lon="5.63258">
        <ele>1397.4000244141</ele>
        <time>2019-12-15T10:51:10.000Z</time>
      </trkpt>
      <trkpt lat="45.15928" lon="5.63256">
        <ele>1397</ele>
        <time>2019-12-15T10:51:11.000Z</time>
      </trkpt>
      <trkpt lat="45.15928" lon="5.63252">
        <ele>1395</ele>
        <time>2019-12-15T10:51:13.000Z</time>
      </trkpt>
      <trkpt lat="45.15931" lon="5.63244">
        <ele>1392.1999511719</ele>
        <time>2019-12-15T10:51:15.000Z</time>
      </trkpt>
      <trkpt lat="45.1593" lon="5.6324">
        <ele>1391.1999511719</ele>
        <time>2019-12-15T10:51:16.000Z</time>
      </trkpt>
      <trkpt lat="45.15928" lon="5.63233">
        <ele>1389.4000244141</ele>
        <time>2019-12-15T10:51:18.000Z</time>
      </trkpt>
      <trkpt lat="45.15928" lon="5.63229">
        <ele>1388.4000244141</ele>
        <time>2019-12-15T10:51:19.000Z</time>
      </trkpt>
      <trkpt lat="45.15929" lon="5.63227">
        <ele>1387.4000244141</ele>
        <time>2019-12-15T10:51:20.000Z</time>
      </trkpt>
      <trkpt lat="45.15931" lon="5.63226">
        <ele>1386.4000244141</ele>
        <time>2019-12-15T10:51:21.000Z</time>
      </trkpt>
      <trkpt lat="45.15933" lon="5.63226">
        <ele>1385.4000244141</ele>
        <time>2019-12-15T10:51:22.000Z</time>
      </trkpt>
      <trkpt lat="45.15936" lon="5.63227">
        <ele>1384.4000244141</ele>
        <time>2019-12-15T10:51:23.000Z</time>
      </trkpt>
      <trkpt lat="45.15938" lon="5.63226">
        <ele>1383.5999755859</ele>
        <time>2019-12-15T10:51:24.000Z</time>
      </trkpt>
      <trkpt lat="45.15937" lon="5.63222">
        <ele>1382.4000244141</ele>
        <time>2019-12-15T10:51:26.000Z</time>
      </trkpt>
      <trkpt lat="45.15937" lon="5.63217">
        <ele>1381.1999511719</ele>
        <time>2019-12-15T10:51:28.000Z</time>
      </trkpt>
      <trkpt lat="45.15938" lon="5.63208">
        <ele>1379.8000488281</ele>
        <time>2019-12-15T10:51:30.000Z</time>
      </trkpt>
      <trkpt lat="45.15939" lon="5.63204">
        <ele>1378.8000488281</ele>
        <time>2019-12-15T10:51:31.000Z</time>
      </trkpt>
      <trkpt lat="45.15943" lon="5.632">
        <ele>1377</ele>
        <time>2019-12-15T10:51:33.000Z</time>
      </trkpt>
      <trkpt lat="45.15945" lon="5.63193">
        <ele>1375.4000244141</ele>
        <time>2019-12-15T10:51:35.000Z</time>
      </trkpt>
      <trkpt lat="45.15946" lon="5.6319">
        <ele>1374.1999511719</ele>
        <time>2019-12-15T10:51:36.000Z</time>
      </trkpt>
      <trkpt lat="45.1595" lon="5.63189">
        <ele>1372.4000244141</ele>
        <time>2019-12-15T10:51:38.000Z</time>
      </trkpt>
      <trkpt lat="45.15951" lon="5.6319">
        <ele>1370.1999511719</ele>
        <time>2019-12-15T10:51:39.000Z</time>
      </trkpt>
      <trkpt lat="45.15951" lon="5.63191">
        <ele>1368.8000488281</ele>
        <time>2019-12-15T10:51:40.000Z</time>
      </trkpt>
      <trkpt lat="45.15952" lon="5.63193">
        <ele>1367.1999511719</ele>
        <time>2019-12-15T10:51:42.000Z</time>
      </trkpt>
      <trkpt lat="45.15953" lon="5.63195">
        <ele>1366.4000244141</ele>
        <time>2019-12-15T10:51:44.000Z</time>
      </trkpt>
      <trkpt lat="45.15954" lon="5.63193">
        <ele>1366</ele>
        <time>2019-12-15T10:51:45.000Z</time>
      </trkpt>
      <trkpt lat="45.15957" lon="5.63185">
        <ele>1364.8000488281</ele>
        <time>2019-12-15T10:51:49.000Z</time>
      </trkpt>
      <trkpt lat="45.15957" lon="5.63177">
        <ele>1363.5999755859</ele>
        <time>2019-12-15T10:51:51.000Z</time>
      </trkpt>
      <trkpt lat="45.15956" lon="5.63173">
        <ele>1362.8000488281</ele>
        <time>2019-12-15T10:51:52.000Z</time>
      </trkpt>
      <trkpt lat="45.15955" lon="5.63171">
        <ele>1362</ele>
        <time>2019-12-15T10:51:53.000Z</time>
      </trkpt>
      <trkpt lat="45.15954" lon="5.63167">
        <ele>1360.1999511719</ele>
        <time>2019-12-15T10:51:55.000Z</time>
      </trkpt>
      <trkpt lat="45.15954" lon="5.63167">
        <ele>1358.1999511719</ele>
        <time>2019-12-15T10:51:57.000Z</time>
      </trkpt>
      <trkpt lat="45.15954" lon="5.63167">
        <ele>1357.1999511719</ele>
        <time>2019-12-15T10:51:58.000Z</time>
      </trkpt>
      <trkpt lat="45.15955" lon="5.63168">
        <ele>1355.8000488281</ele>
        <time>2019-12-15T10:52:00.000Z</time>
      </trkpt>
      <trkpt lat="45.15955" lon="5.63167">
        <ele>1355.5999755859</ele>
        <time>2019-12-15T10:52:01.000Z</time>
      </trkpt>
      <trkpt lat="45.15961" lon="5.63162">
        <ele>1354.5999755859</ele>
        <time>2019-12-15T10:52:04.000Z</time>
      </trkpt>
      <trkpt lat="45.15962" lon="5.63156">
        <ele>1353.4000244141</ele>
        <time>2019-12-15T10:52:06.000Z</time>
      </trkpt>
      <trkpt lat="45.15963" lon="5.63154">
        <ele>1353</ele>
        <time>2019-12-15T10:52:07.000Z</time>
      </trkpt>
      <trkpt lat="45.15964" lon="5.6315">
        <ele>1351.5999755859</ele>
        <time>2019-12-15T10:52:09.000Z</time>
      </trkpt>
      <trkpt lat="45.15964" lon="5.63149">
        <ele>1350.5999755859</ele>
        <time>2019-12-15T10:52:10.000Z</time>
      </trkpt>
      <trkpt lat="45.15964" lon="5.63148">
        <ele>1349.4000244141</ele>
        <time>2019-12-15T10:52:11.000Z</time>
      </trkpt>
      <trkpt lat="45.15964" lon="5.63147">
        <ele>1347.5999755859</ele>
        <time>2019-12-15T10:52:13.000Z</time>
      </trkpt>
      <trkpt lat="45.15965" lon="5.63146">
        <ele>1346.1999511719</ele>
        <time>2019-12-15T10:52:15.000Z</time>
      </trkpt>
      <trkpt lat="45.15969" lon="5.63142">
        <ele>1345.1999511719</ele>
        <time>2019-12-15T10:52:17.000Z</time>
      </trkpt>
      <trkpt lat="45.1597" lon="5.63139">
        <ele>1344.8000488281</ele>
        <time>2019-12-15T10:52:18.000Z</time>
      </trkpt>
      <trkpt lat="45.15971" lon="5.63139">
        <ele>1344.1999511719</ele>
        <time>2019-12-15T10:52:19.000Z</time>
      </trkpt>
      <trkpt lat="45.15972" lon="5.63138">
        <ele>1343.8000488281</ele>
        <time>2019-12-15T10:52:20.000Z</time>
      </trkpt>
      <trkpt lat="45.15977" lon="5.63136">
        <ele>1342.1999511719</ele>
        <time>2019-12-15T10:52:22.000Z</time>
      </trkpt>
      <trkpt lat="45.15978" lon="5.63134">
        <ele>1341</ele>
        <time>2019-12-15T10:52:23.000Z</time>
      </trkpt>
      <trkpt lat="45.15979" lon="5.63131">
        <ele>1340</ele>
        <time>2019-12-15T10:52:24.000Z</time>
      </trkpt>
      <trkpt lat="45.15984" lon="5.63128">
        <ele>1338.5999755859</ele>
        <time>2019-12-15T10:52:26.000Z</time>
      </trkpt>
      <trkpt lat="45.15985" lon="5.63127">
        <ele>1337</ele>
        <time>2019-12-15T10:52:27.000Z</time>
      </trkpt>
      <trkpt lat="45.15988" lon="5.63122">
        <ele>1335.4000244141</ele>
        <time>2019-12-15T10:52:29.000Z</time>
      </trkpt>
      <trkpt lat="45.1599" lon="5.6312">
        <ele>1334.5999755859</ele>
        <time>2019-12-15T10:52:30.000Z</time>
      </trkpt>
      <trkpt lat="45.15992" lon="5.63117">
        <ele>1333.8000488281</ele>
        <time>2019-12-15T10:52:31.000Z</time>
      </trkpt>
      <trkpt lat="45.15995" lon="5.63113">
        <ele>1331.8000488281</ele>
        <time>2019-12-15T10:52:33.000Z</time>
      </trkpt>
      <trkpt lat="45.15997" lon="5.63112">
        <ele>1330.8000488281</ele>
        <time>2019-12-15T10:52:34.000Z</time>
      </trkpt>
      <trkpt lat="45.16" lon="5.63111">
        <ele>1329.8000488281</ele>
        <time>2019-12-15T10:52:35.000Z</time>
      </trkpt>
      <trkpt lat="45.16001" lon="5.63109">
        <ele>1328.8000488281</ele>
        <time>2019-12-15T10:52:36.000Z</time>
      </trkpt>
      <trkpt lat="45.16002" lon="5.63107">
        <ele>1327.8000488281</ele>
        <time>2019-12-15T10:52:37.000Z</time>
      </trkpt>
      <trkpt lat="45.16002" lon="5.63102">
        <ele>1326</ele>
        <time>2019-12-15T10:52:39.000Z</time>
      </trkpt>
      <trkpt lat="45.16004" lon="5.63101">
        <ele>1325.1999511719</ele>
        <time>2019-12-15T10:52:40.000Z</time>
      </trkpt>
      <trkpt lat="45.16006" lon="5.631">
        <ele>1324.1999511719</ele>
        <time>2019-12-15T10:52:41.000Z</time>
      </trkpt>
      <trkpt lat="45.16008" lon="5.63096">
        <ele>1322.5999755859</ele>
        <time>2019-12-15T10:52:43.000Z</time>
      </trkpt>
      <trkpt lat="45.16008" lon="5.63094">
        <ele>1321.8000488281</ele>
        <time>2019-12-15T10:52:44.000Z</time>
      </trkpt>
      <trkpt lat="45.16008" lon="5.63091">
        <ele>1321</ele>
        <time>2019-12-15T10:52:45.000Z</time>
      </trkpt>
      <trkpt lat="45.1601" lon="5.63089">
        <ele>1320.1999511719</ele>
        <time>2019-12-15T10:52:46.000Z</time>
      </trkpt>
      <trkpt lat="45.16011" lon="5.63089">
        <ele>1319.1999511719</ele>
        <time>2019-12-15T10:52:47.000Z</time>
      </trkpt>
      <trkpt lat="45.16012" lon="5.63089">
        <ele>1318</ele>
        <time>2019-12-15T10:52:48.000Z</time>
      </trkpt>
      <trkpt lat="45.16013" lon="5.6309">
        <ele>1317</ele>
        <time>2019-12-15T10:52:49.000Z</time>
      </trkpt>
      <trkpt lat="45.16014" lon="5.63089">
        <ele>1316</ele>
        <time>2019-12-15T10:52:50.000Z</time>
      </trkpt>
      <trkpt lat="45.16015" lon="5.63088">
        <ele>1315</ele>
        <time>2019-12-15T10:52:51.000Z</time>
      </trkpt>
      <trkpt lat="45.16015" lon="5.63086">
        <ele>1314.8000488281</ele>
        <time>2019-12-15T10:52:52.000Z</time>
      </trkpt>
      <trkpt lat="45.16018" lon="5.63082">
        <ele>1313.5999755859</ele>
        <time>2019-12-15T10:52:54.000Z</time>
      </trkpt>
      <trkpt lat="45.1602" lon="5.63083">
        <ele>1312.8000488281</ele>
        <time>2019-12-15T10:52:55.000Z</time>
      </trkpt>
      <trkpt lat="45.16021" lon="5.63084">
        <ele>1311.8000488281</ele>
        <time>2019-12-15T10:52:56.000Z</time>
      </trkpt>
      <trkpt lat="45.16022" lon="5.63085">
        <ele>1310.1999511719</ele>
        <time>2019-12-15T10:52:58.000Z</time>
      </trkpt>
      <trkpt lat="45.16024" lon="5.63082">
        <ele>1309</ele>
        <time>2019-12-15T10:53:00.000Z</time>
      </trkpt>
      <trkpt lat="45.16027" lon="5.63077">
        <ele>1308</ele>
        <time>2019-12-15T10:53:03.000Z</time>
      </trkpt>
      <trkpt lat="45.1603" lon="5.63071">
        <ele>1307</ele>
        <time>2019-12-15T10:53:05.000Z</time>
      </trkpt>
      <trkpt lat="45.16031" lon="5.63067">
        <ele>1306.1999511719</ele>
        <time>2019-12-15T10:53:06.000Z</time>
      </trkpt>
      <trkpt lat="45.16034" lon="5.63064">
        <ele>1305.1999511719</ele>
        <time>2019-12-15T10:53:07.000Z</time>
      </trkpt>
      <trkpt lat="45.16037" lon="5.63065">
        <ele>1304.5999755859</ele>
        <time>2019-12-15T10:53:08.000Z</time>
      </trkpt>
      <trkpt lat="45.1604" lon="5.63065">
        <ele>1303.8000488281</ele>
        <time>2019-12-15T10:53:09.000Z</time>
      </trkpt>
      <trkpt lat="45.16043" lon="5.63065">
        <ele>1302.8000488281</ele>
        <time>2019-12-15T10:53:10.000Z</time>
      </trkpt>
      <trkpt lat="45.16046" lon="5.63062">
        <ele>1301.5999755859</ele>
        <time>2019-12-15T10:53:11.000Z</time>
      </trkpt>
      <trkpt lat="45.16046" lon="5.63052">
        <ele>1300</ele>
        <time>2019-12-15T10:53:13.000Z</time>
      </trkpt>
      <trkpt lat="45.16052" lon="5.63048">
        <ele>1298.8000488281</ele>
        <time>2019-12-15T10:53:15.000Z</time>
      </trkpt>
      <trkpt lat="45.16056" lon="5.63049">
        <ele>1297.4000244141</ele>
        <time>2019-12-15T10:53:16.000Z</time>
      </trkpt>
      <trkpt lat="45.16059" lon="5.63048">
        <ele>1296.1999511719</ele>
        <time>2019-12-15T10:53:17.000Z</time>
      </trkpt>
      <trkpt lat="45.16062" lon="5.63043">
        <ele>1295.1999511719</ele>
        <time>2019-12-15T10:53:18.000Z</time>
      </trkpt>
      <trkpt lat="45.16061" lon="5.63039">
        <ele>1294.1999511719</ele>
        <time>2019-12-15T10:53:19.000Z</time>
      </trkpt>
      <trkpt lat="45.16061" lon="5.63036">
        <ele>1293.1999511719</ele>
        <time>2019-12-15T10:53:20.000Z</time>
      </trkpt>
      <trkpt lat="45.16061" lon="5.63034">
        <ele>1292.1999511719</ele>
        <time>2019-12-15T10:53:21.000Z</time>
      </trkpt>
      <trkpt lat="45.1606" lon="5.63033">
        <ele>1291.1999511719</ele>
        <time>2019-12-15T10:53:22.000Z</time>
      </trkpt>
      <trkpt lat="45.16061" lon="5.63032">
        <ele>1289.5999755859</ele>
        <time>2019-12-15T10:53:24.000Z</time>
      </trkpt>
      <trkpt lat="45.16061" lon="5.63032">
        <ele>1288.5999755859</ele>
        <time>2019-12-15T10:53:26.000Z</time>
      </trkpt>
      <trkpt lat="45.16061" lon="5.63032">
        <ele>1288.1999511719</ele>
        <time>2019-12-15T10:53:27.000Z</time>
      </trkpt>
      <trkpt lat="45.16062" lon="5.63029">
        <ele>1287.8000488281</ele>
        <time>2019-12-15T10:53:29.000Z</time>
      </trkpt>
      <trkpt lat="45.16064" lon="5.63028">
        <ele>1287.8000488281</ele>
        <time>2019-12-15T10:53:30.000Z</time>
      </trkpt>
      <trkpt lat="45.16069" lon="5.63021">
        <ele>1287.5999755859</ele>
        <time>2019-12-15T10:53:32.000Z</time>
      </trkpt>
      <trkpt lat="45.16072" lon="5.63012">
        <ele>1286.8000488281</ele>
        <time>2019-12-15T10:53:34.000Z</time>
      </trkpt>
      <trkpt lat="45.16077" lon="5.63014">
        <ele>1285.8000488281</ele>
        <time>2019-12-15T10:53:36.000Z</time>
      </trkpt>
      <trkpt lat="45.1608" lon="5.63017">
        <ele>1284.8000488281</ele>
        <time>2019-12-15T10:53:37.000Z</time>
      </trkpt>
      <trkpt lat="45.16082" lon="5.63019">
        <ele>1283.8000488281</ele>
        <time>2019-12-15T10:53:38.000Z</time>
      </trkpt>
      <trkpt lat="45.16085" lon="5.63017">
        <ele>1282.5999755859</ele>
        <time>2019-12-15T10:53:39.000Z</time>
      </trkpt>
      <trkpt lat="45.16088" lon="5.63015">
        <ele>1280.8000488281</ele>
        <time>2019-12-15T10:53:40.000Z</time>
      </trkpt>
      <trkpt lat="45.16091" lon="5.63008">
        <ele>1279</ele>
        <time>2019-12-15T10:53:42.000Z</time>
      </trkpt>
      <trkpt lat="45.16095" lon="5.63006">
        <ele>1278</ele>
        <time>2019-12-15T10:53:43.000Z</time>
      </trkpt>
      <trkpt lat="45.16099" lon="5.63004">
        <ele>1276.8000488281</ele>
        <time>2019-12-15T10:53:44.000Z</time>
      </trkpt>
      <trkpt lat="45.16103" lon="5.63003">
        <ele>1275.5999755859</ele>
        <time>2019-12-15T10:53:45.000Z</time>
      </trkpt>
      <trkpt lat="45.16108" lon="5.63005">
        <ele>1274.4000244141</ele>
        <time>2019-12-15T10:53:46.000Z</time>
      </trkpt>
      <trkpt lat="45.16113" lon="5.63006">
        <ele>1273.1999511719</ele>
        <time>2019-12-15T10:53:47.000Z</time>
      </trkpt>
      <trkpt lat="45.16118" lon="5.63008">
        <ele>1272</ele>
        <time>2019-12-15T10:53:48.000Z</time>
      </trkpt>
      <trkpt lat="45.16123" lon="5.6301">
        <ele>1270.8000488281</ele>
        <time>2019-12-15T10:53:49.000Z</time>
      </trkpt>
      <trkpt lat="45.16127" lon="5.63013">
        <ele>1269.8000488281</ele>
        <time>2019-12-15T10:53:50.000Z</time>
      </trkpt>
      <trkpt lat="45.16133" lon="5.63017">
        <ele>1267.8000488281</ele>
        <time>2019-12-15T10:53:52.000Z</time>
      </trkpt>
      <trkpt lat="45.16138" lon="5.63017">
        <ele>1266.4000244141</ele>
        <time>2019-12-15T10:53:54.000Z</time>
      </trkpt>
      <trkpt lat="45.16148" lon="5.63014">
        <ele>1265.8000488281</ele>
        <time>2019-12-15T10:53:56.000Z</time>
      </trkpt>
      <trkpt lat="45.16152" lon="5.63011">
        <ele>1265.4000244141</ele>
        <time>2019-12-15T10:53:57.000Z</time>
      </trkpt>
      <trkpt lat="45.16159" lon="5.6301">
        <ele>1264.1999511719</ele>
        <time>2019-12-15T10:53:59.000Z</time>
      </trkpt>
      <trkpt lat="45.16161" lon="5.63011">
        <ele>1263.5999755859</ele>
        <time>2019-12-15T10:54:00.000Z</time>
      </trkpt>
      <trkpt lat="45.16164" lon="5.63012">
        <ele>1263</ele>
        <time>2019-12-15T10:54:01.000Z</time>
      </trkpt>
      <trkpt lat="45.16171" lon="5.63012">
        <ele>1262</ele>
        <time>2019-12-15T10:54:04.000Z</time>
      </trkpt>
      <trkpt lat="45.16178" lon="5.63008">
        <ele>1261.4000244141</ele>
        <time>2019-12-15T10:54:06.000Z</time>
      </trkpt>
      <trkpt lat="45.16179" lon="5.63004">
        <ele>1260.8000488281</ele>
        <time>2019-12-15T10:54:07.000Z</time>
      </trkpt>
      <trkpt lat="45.1618" lon="5.62992">
        <ele>1259.4000244141</ele>
        <time>2019-12-15T10:54:09.000Z</time>
      </trkpt>
      <trkpt lat="45.16183" lon="5.62987">
        <ele>1258.4000244141</ele>
        <time>2019-12-15T10:54:10.000Z</time>
      </trkpt>
      <trkpt lat="45.16185" lon="5.62982">
        <ele>1257.1999511719</ele>
        <time>2019-12-15T10:54:11.000Z</time>
      </trkpt>
      <trkpt lat="45.16187" lon="5.62979">
        <ele>1255.8000488281</ele>
        <time>2019-12-15T10:54:12.000Z</time>
      </trkpt>
      <trkpt lat="45.16192" lon="5.6298">
        <ele>1254.5999755859</ele>
        <time>2019-12-15T10:54:13.000Z</time>
      </trkpt>
      <trkpt lat="45.16197" lon="5.62977">
        <ele>1253.4000244141</ele>
        <time>2019-12-15T10:54:14.000Z</time>
      </trkpt>
      <trkpt lat="45.16199" lon="5.62971">
        <ele>1251.8000488281</ele>
        <time>2019-12-15T10:54:16.000Z</time>
      </trkpt>
      <trkpt lat="45.16194" lon="5.62969">
        <ele>1250.4000244141</ele>
        <time>2019-12-15T10:54:18.000Z</time>
      </trkpt>
      <trkpt lat="45.16192" lon="5.62968">
        <ele>1248.5999755859</ele>
        <time>2019-12-15T10:54:20.000Z</time>
      </trkpt>
      <trkpt lat="45.16192" lon="5.62968">
        <ele>1247.5999755859</ele>
        <time>2019-12-15T10:54:21.000Z</time>
      </trkpt>
      <trkpt lat="45.16192" lon="5.62968">
        <ele>1246.8000488281</ele>
        <time>2019-12-15T10:54:22.000Z</time>
      </trkpt>
      <trkpt lat="45.16192" lon="5.62968">
        <ele>1245.8000488281</ele>
        <time>2019-12-15T10:54:25.000Z</time>
      </trkpt>
      <trkpt lat="45.16193" lon="5.62967">
        <ele>1245.5999755859</ele>
        <time>2019-12-15T10:54:29.000Z</time>
      </trkpt>
      <trkpt lat="45.16199" lon="5.62957">
        <ele>1245.4000244141</ele>
        <time>2019-12-15T10:54:32.000Z</time>
      </trkpt>
      <trkpt lat="45.16202" lon="5.62955">
        <ele>1245.1999511719</ele>
        <time>2019-12-15T10:54:33.000Z</time>
      </trkpt>
      <trkpt lat="45.16206" lon="5.62954">
        <ele>1244.8000488281</ele>
        <time>2019-12-15T10:54:34.000Z</time>
      </trkpt>
      <trkpt lat="45.16209" lon="5.6295">
        <ele>1244.4000244141</ele>
        <time>2019-12-15T10:54:35.000Z</time>
      </trkpt>
      <trkpt lat="45.16213" lon="5.62944">
        <ele>1243.8000488281</ele>
        <time>2019-12-15T10:54:36.000Z</time>
      </trkpt>
      <trkpt lat="45.16224" lon="5.62943">
        <ele>1242.4000244141</ele>
        <time>2019-12-15T10:54:38.000Z</time>
      </trkpt>
      <trkpt lat="45.16233" lon="5.62935">
        <ele>1240.1999511719</ele>
        <time>2019-12-15T10:54:40.000Z</time>
      </trkpt>
      <trkpt lat="45.16238" lon="5.62932">
        <ele>1239.1999511719</ele>
        <time>2019-12-15T10:54:41.000Z</time>
      </trkpt>
      <trkpt lat="45.16241" lon="5.62925">
        <ele>1238</ele>
        <time>2019-12-15T10:54:42.000Z</time>
      </trkpt>
      <trkpt lat="45.16245" lon="5.62918">
        <ele>1236.8000488281</ele>
        <time>2019-12-15T10:54:43.000Z</time>
      </trkpt>
      <trkpt lat="45.1625" lon="5.62912">
        <ele>1235.4000244141</ele>
        <time>2019-12-15T10:54:44.000Z</time>
      </trkpt>
      <trkpt lat="45.16252" lon="5.62904">
        <ele>1234.1999511719</ele>
        <time>2019-12-15T10:54:45.000Z</time>
      </trkpt>
      <trkpt lat="45.16256" lon="5.62895">
        <ele>1232.8000488281</ele>
        <time>2019-12-15T10:54:46.000Z</time>
      </trkpt>
      <trkpt lat="45.16259" lon="5.62888">
        <ele>1231.4000244141</ele>
        <time>2019-12-15T10:54:47.000Z</time>
      </trkpt>
      <trkpt lat="45.16261" lon="5.62882">
        <ele>1230</ele>
        <time>2019-12-15T10:54:48.000Z</time>
      </trkpt>
      <trkpt lat="45.16264" lon="5.62877">
        <ele>1228.4000244141</ele>
        <time>2019-12-15T10:54:49.000Z</time>
      </trkpt>
      <trkpt lat="45.1627" lon="5.62876">
        <ele>1226.5999755859</ele>
        <time>2019-12-15T10:54:50.000Z</time>
      </trkpt>
      <trkpt lat="45.16274" lon="5.6287">
        <ele>1224.5999755859</ele>
        <time>2019-12-15T10:54:51.000Z</time>
      </trkpt>
      <trkpt lat="45.16277" lon="5.62862">
        <ele>1221.5999755859</ele>
        <time>2019-12-15T10:54:52.000Z</time>
      </trkpt>
      <trkpt lat="45.16283" lon="5.62856">
        <ele>1220</ele>
        <time>2019-12-15T10:54:53.000Z</time>
      </trkpt>
      <trkpt lat="45.16285" lon="5.62848">
        <ele>1218.4000244141</ele>
        <time>2019-12-15T10:54:54.000Z</time>
      </trkpt>
      <trkpt lat="45.16287" lon="5.62838">
        <ele>1216.8000488281</ele>
        <time>2019-12-15T10:54:55.000Z</time>
      </trkpt>
      <trkpt lat="45.1629" lon="5.62828">
        <ele>1215</ele>
        <time>2019-12-15T10:54:56.000Z</time>
      </trkpt>
      <trkpt lat="45.16296" lon="5.6282">
        <ele>1213</ele>
        <time>2019-12-15T10:54:57.000Z</time>
      </trkpt>
      <trkpt lat="45.16299" lon="5.62811">
        <ele>1211</ele>
        <time>2019-12-15T10:54:58.000Z</time>
      </trkpt>
      <trkpt lat="45.16299" lon="5.62802">
        <ele>1208.5999755859</ele>
        <time>2019-12-15T10:54:59.000Z</time>
      </trkpt>
      <trkpt lat="45.163" lon="5.62793">
        <ele>1206.4000244141</ele>
        <time>2019-12-15T10:55:00.000Z</time>
      </trkpt>
      <trkpt lat="45.16303" lon="5.62783">
        <ele>1204.1999511719</ele>
        <time>2019-12-15T10:55:01.000Z</time>
      </trkpt>
      <trkpt lat="45.16305" lon="5.62774">
        <ele>1202</ele>
        <time>2019-12-15T10:55:02.000Z</time>
      </trkpt>
      <trkpt lat="45.16302" lon="5.62767">
        <ele>1199.5999755859</ele>
        <time>2019-12-15T10:55:03.000Z</time>
      </trkpt>
      <trkpt lat="45.16298" lon="5.62758">
        <ele>1197.4000244141</ele>
        <time>2019-12-15T10:55:04.000Z</time>
      </trkpt>
      <trkpt lat="45.16295" lon="5.62748">
        <ele>1195.5999755859</ele>
        <time>2019-12-15T10:55:05.000Z</time>
      </trkpt>
      <trkpt lat="45.16292" lon="5.62736">
        <ele>1193.8000488281</ele>
        <time>2019-12-15T10:55:06.000Z</time>
      </trkpt>
      <trkpt lat="45.1629" lon="5.62726">
        <ele>1192.1999511719</ele>
        <time>2019-12-15T10:55:07.000Z</time>
      </trkpt>
      <trkpt lat="45.16291" lon="5.62718">
        <ele>1190.5999755859</ele>
        <time>2019-12-15T10:55:08.000Z</time>
      </trkpt>
      <trkpt lat="45.16296" lon="5.62715">
        <ele>1188.8000488281</ele>
        <time>2019-12-15T10:55:09.000Z</time>
      </trkpt>
      <trkpt lat="45.16301" lon="5.62712">
        <ele>1187.1999511719</ele>
        <time>2019-12-15T10:55:10.000Z</time>
      </trkpt>
      <trkpt lat="45.16305" lon="5.62708">
        <ele>1185.8000488281</ele>
        <time>2019-12-15T10:55:11.000Z</time>
      </trkpt>
      <trkpt lat="45.16309" lon="5.62702">
        <ele>1184.5999755859</ele>
        <time>2019-12-15T10:55:12.000Z</time>
      </trkpt>
      <trkpt lat="45.16312" lon="5.62696">
        <ele>1183.4000244141</ele>
        <time>2019-12-15T10:55:13.000Z</time>
      </trkpt>
      <trkpt lat="45.16317" lon="5.62692">
        <ele>1182.4000244141</ele>
        <time>2019-12-15T10:55:14.000Z</time>
      </trkpt>
      <trkpt lat="45.16321" lon="5.62686">
        <ele>1181.1999511719</ele>
        <time>2019-12-15T10:55:15.000Z</time>
      </trkpt>
      <trkpt lat="45.16323" lon="5.6268">
        <ele>1179</ele>
        <time>2019-12-15T10:55:16.000Z</time>
      </trkpt>
      <trkpt lat="45.16326" lon="5.62672">
        <ele>1177.8000488281</ele>
        <time>2019-12-15T10:55:17.000Z</time>
      </trkpt>
      <trkpt lat="45.1633" lon="5.62664">
        <ele>1176.8000488281</ele>
        <time>2019-12-15T10:55:18.000Z</time>
      </trkpt>
      <trkpt lat="45.16338" lon="5.62654">
        <ele>1174.8000488281</ele>
        <time>2019-12-15T10:55:20.000Z</time>
      </trkpt>
      <trkpt lat="45.16344" lon="5.62652">
        <ele>1173.5999755859</ele>
        <time>2019-12-15T10:55:21.000Z</time>
      </trkpt>
      <trkpt lat="45.1635" lon="5.62649">
        <ele>1172.5999755859</ele>
        <time>2019-12-15T10:55:22.000Z</time>
      </trkpt>
      <trkpt lat="45.16356" lon="5.62645">
        <ele>1171.4000244141</ele>
        <time>2019-12-15T10:55:23.000Z</time>
      </trkpt>
      <trkpt lat="45.16362" lon="5.62642">
        <ele>1170.4000244141</ele>
        <time>2019-12-15T10:55:24.000Z</time>
      </trkpt>
      <trkpt lat="45.16366" lon="5.62638">
        <ele>1169.5999755859</ele>
        <time>2019-12-15T10:55:25.000Z</time>
      </trkpt>
      <trkpt lat="45.16372" lon="5.62635">
        <ele>1168.5999755859</ele>
        <time>2019-12-15T10:55:26.000Z</time>
      </trkpt>
      <trkpt lat="45.16376" lon="5.62635">
        <ele>1167.4000244141</ele>
        <time>2019-12-15T10:55:27.000Z</time>
      </trkpt>
      <trkpt lat="45.1638" lon="5.62637">
        <ele>1166.4000244141</ele>
        <time>2019-12-15T10:55:28.000Z</time>
      </trkpt>
      <trkpt lat="45.16381" lon="5.62639">
        <ele>1165.4000244141</ele>
        <time>2019-12-15T10:55:29.000Z</time>
      </trkpt>
      <trkpt lat="45.16381" lon="5.62639">
        <ele>1164.5999755859</ele>
        <time>2019-12-15T10:55:30.000Z</time>
      </trkpt>
      <trkpt lat="45.16381" lon="5.62639">
        <ele>1164</ele>
        <time>2019-12-15T10:55:31.000Z</time>
      </trkpt>
      <trkpt lat="45.16381" lon="5.62639">
        <ele>1163</ele>
        <time>2019-12-15T10:55:37.000Z</time>
      </trkpt>
      <trkpt lat="45.16381" lon="5.62639">
        <ele>1163</ele>
        <time>2019-12-15T10:55:38.000Z</time>
      </trkpt>
      <trkpt lat="45.16381" lon="5.62639">
        <ele>1162.5999755859</ele>
        <time>2019-12-15T10:55:49.000Z</time>
      </trkpt>
      <trkpt lat="45.16381" lon="5.62639">
        <ele>1162.8000488281</ele>
        <time>2019-12-15T10:55:58.000Z</time>
      </trkpt>
      <trkpt lat="45.16382" lon="5.6264">
        <ele>1162.8000488281</ele>
        <time>2019-12-15T10:56:10.000Z</time>
      </trkpt>
      <trkpt lat="45.16382" lon="5.6264">
        <ele>1162.8000488281</ele>
        <time>2019-12-15T10:56:19.000Z</time>
      </trkpt>
      <trkpt lat="45.16382" lon="5.6264">
        <ele>1162.8000488281</ele>
        <time>2019-12-15T10:56:22.000Z</time>
      </trkpt>
      <trkpt lat="45.16382" lon="5.6264">
        <ele>1162.8000488281</ele>
        <time>2019-12-15T10:56:32.000Z</time>
      </trkpt>
      <trkpt lat="45.16382" lon="5.6264">
        <ele>1162.8000488281</ele>
        <time>2019-12-15T10:56:47.000Z</time>
      </trkpt>
      <trkpt lat="45.16382" lon="5.6264">
        <ele>1163</ele>
        <time>2019-12-15T10:56:56.000Z</time>
      </trkpt>
      <trkpt lat="45.16382" lon="5.6264">
        <ele>1162.8000488281</ele>
        <time>2019-12-15T10:57:09.000Z</time>
      </trkpt>
      <trkpt lat="45.16382" lon="5.6264">
        <ele>1163</ele>
        <time>2019-12-15T10:57:20.000Z</time>
      </trkpt>
      <trkpt lat="45.16384" lon="5.62641">
        <ele>1162.1999511719</ele>
        <time>2019-12-15T10:57:32.000Z</time>
      </trkpt>
      <trkpt lat="45.16384" lon="5.62641">
        <ele>1161.8000488281</ele>
        <time>2019-12-15T10:57:33.000Z</time>
      </trkpt>
      <trkpt lat="45.16384" lon="5.62641">
        <ele>1163.5999755859</ele>
        <time>2019-12-15T10:57:39.000Z</time>
      </trkpt>
      <trkpt lat="45.16384" lon="5.62641">
        <ele>1164.1999511719</ele>
        <time>2019-12-15T10:57:41.000Z</time>
      </trkpt>
      <trkpt lat="45.16384" lon="5.62643">
        <ele>1163</ele>
        <time>2019-12-15T10:57:48.000Z</time>
      </trkpt>
      <trkpt lat="45.16384" lon="5.62643">
        <ele>1163.1999511719</ele>
        <time>2019-12-15T10:57:58.000Z</time>
      </trkpt>
      <trkpt lat="45.16384" lon="5.62643">
        <ele>1163.4000244141</ele>
        <time>2019-12-15T10:58:12.000Z</time>
      </trkpt>
      <trkpt lat="45.16384" lon="5.62645">
        <ele>1163.5999755859</ele>
        <time>2019-12-15T10:58:18.000Z</time>
      </trkpt>
      <trkpt lat="45.16384" lon="5.62649">
        <ele>1163.5999755859</ele>
        <time>2019-12-15T10:58:20.000Z</time>
      </trkpt>
      <trkpt lat="45.16383" lon="5.62663">
        <ele>1163.8000488281</ele>
        <time>2019-12-15T10:58:25.000Z</time>
      </trkpt>
      <trkpt lat="45.16383" lon="5.62675">
        <ele>1164.5999755859</ele>
        <time>2019-12-15T10:58:30.000Z</time>
      </trkpt>
      <trkpt lat="45.16383" lon="5.62677">
        <ele>1164.5999755859</ele>
        <time>2019-12-15T10:58:31.000Z</time>
      </trkpt>
      <trkpt lat="45.16383" lon="5.62686">
        <ele>1165</ele>
        <time>2019-12-15T10:58:35.000Z</time>
      </trkpt>
      <trkpt lat="45.16382" lon="5.62695">
        <ele>1165.5999755859</ele>
        <time>2019-12-15T10:58:40.000Z</time>
      </trkpt>
      <trkpt lat="45.16382" lon="5.62704">
        <ele>1166.1999511719</ele>
        <time>2019-12-15T10:58:45.000Z</time>
      </trkpt>
      <trkpt lat="45.16382" lon="5.62712">
        <ele>1166.4000244141</ele>
        <time>2019-12-15T10:58:49.000Z</time>
      </trkpt>
      <trkpt lat="45.16382" lon="5.62714">
        <ele>1166.8000488281</ele>
        <time>2019-12-15T10:58:51.000Z</time>
      </trkpt>
      <trkpt lat="45.16383" lon="5.62716">
        <ele>1167.1999511719</ele>
        <time>2019-12-15T10:58:52.000Z</time>
      </trkpt>
      <trkpt lat="45.16383" lon="5.62717">
        <ele>1167.5999755859</ele>
        <time>2019-12-15T10:58:53.000Z</time>
      </trkpt>
      <trkpt lat="45.16383" lon="5.62718">
        <ele>1167.8000488281</ele>
        <time>2019-12-15T10:58:54.000Z</time>
      </trkpt>
      <trkpt lat="45.16383" lon="5.62724">
        <ele>1168.8000488281</ele>
        <time>2019-12-15T10:58:57.000Z</time>
      </trkpt>
      <trkpt lat="45.16383" lon="5.62724">
        <ele>1169</ele>
        <time>2019-12-15T10:58:58.000Z</time>
      </trkpt>
      <trkpt lat="45.16383" lon="5.62728">
        <ele>1169.8000488281</ele>
        <time>2019-12-15T10:59:01.000Z</time>
      </trkpt>
      <trkpt lat="45.16383" lon="5.62731">
        <ele>1170.4000244141</ele>
        <time>2019-12-15T10:59:03.000Z</time>
      </trkpt>
      <trkpt lat="45.16383" lon="5.62734">
        <ele>1171.1999511719</ele>
        <time>2019-12-15T10:59:06.000Z</time>
      </trkpt>
      <trkpt lat="45.16383" lon="5.62736">
        <ele>1171.4000244141</ele>
        <time>2019-12-15T10:59:07.000Z</time>
      </trkpt>
      <trkpt lat="45.16382" lon="5.6274">
        <ele>1172.4000244141</ele>
        <time>2019-12-15T10:59:11.000Z</time>
      </trkpt>
      <trkpt lat="45.16382" lon="5.62741">
        <ele>1172.5999755859</ele>
        <time>2019-12-15T10:59:12.000Z</time>
      </trkpt>
      <trkpt lat="45.16382" lon="5.62747">
        <ele>1173.5999755859</ele>
        <time>2019-12-15T10:59:16.000Z</time>
      </trkpt>
      <trkpt lat="45.16382" lon="5.62749">
        <ele>1173.8000488281</ele>
        <time>2019-12-15T10:59:17.000Z</time>
      </trkpt>
      <trkpt lat="45.16381" lon="5.62753">
        <ele>1174.5999755859</ele>
        <time>2019-12-15T10:59:21.000Z</time>
      </trkpt>
      <trkpt lat="45.16381" lon="5.62755">
        <ele>1174.8000488281</ele>
        <time>2019-12-15T10:59:22.000Z</time>
      </trkpt>
      <trkpt lat="45.16381" lon="5.62761">
        <ele>1175.8000488281</ele>
        <time>2019-12-15T10:59:26.000Z</time>
      </trkpt>
      <trkpt lat="45.16381" lon="5.62762">
        <ele>1176</ele>
        <time>2019-12-15T10:59:27.000Z</time>
      </trkpt>
      <trkpt lat="45.16381" lon="5.62769">
        <ele>1177</ele>
        <time>2019-12-15T10:59:32.000Z</time>
      </trkpt>
      <trkpt lat="45.16381" lon="5.62774">
        <ele>1177.8000488281</ele>
        <time>2019-12-15T10:59:37.000Z</time>
      </trkpt>
      <trkpt lat="45.16381" lon="5.62775">
        <ele>1178</ele>
        <time>2019-12-15T10:59:38.000Z</time>
      </trkpt>
      <trkpt lat="45.16381" lon="5.62779">
        <ele>1179</ele>
        <time>2019-12-15T10:59:42.000Z</time>
      </trkpt>
      <trkpt lat="45.16381" lon="5.6278">
        <ele>1179.1999511719</ele>
        <time>2019-12-15T10:59:43.000Z</time>
      </trkpt>
      <trkpt lat="45.16381" lon="5.62784">
        <ele>1179.8000488281</ele>
        <time>2019-12-15T10:59:46.000Z</time>
      </trkpt>
      <trkpt lat="45.16381" lon="5.62787">
        <ele>1180.4000244141</ele>
        <time>2019-12-15T10:59:49.000Z</time>
      </trkpt>
      <trkpt lat="45.16381" lon="5.62791">
        <ele>1180.8000488281</ele>
        <time>2019-12-15T10:59:52.000Z</time>
      </trkpt>
      <trkpt lat="45.16381" lon="5.62797">
        <ele>1181.4000244141</ele>
        <time>2019-12-15T10:59:56.000Z</time>
      </trkpt>
      <trkpt lat="45.16381" lon="5.62798">
        <ele>1181.5999755859</ele>
        <time>2019-12-15T10:59:57.000Z</time>
      </trkpt>
      <trkpt lat="45.16382" lon="5.62804">
        <ele>1182.1999511719</ele>
        <time>2019-12-15T11:00:02.000Z</time>
      </trkpt>
      <trkpt lat="45.16383" lon="5.62806">
        <ele>1182.4000244141</ele>
        <time>2019-12-15T11:00:03.000Z</time>
      </trkpt>
      <trkpt lat="45.16383" lon="5.6281">
        <ele>1183</ele>
        <time>2019-12-15T11:00:06.000Z</time>
      </trkpt>
      <trkpt lat="45.16384" lon="5.62813">
        <ele>1183.5999755859</ele>
        <time>2019-12-15T11:00:09.000Z</time>
      </trkpt>
      <trkpt lat="45.16384" lon="5.62815">
        <ele>1183.8000488281</ele>
        <time>2019-12-15T11:00:10.000Z</time>
      </trkpt>
      <trkpt lat="45.16385" lon="5.62821">
        <ele>1184.5999755859</ele>
        <time>2019-12-15T11:00:15.000Z</time>
      </trkpt>
      <trkpt lat="45.16385" lon="5.62829">
        <ele>1185.4000244141</ele>
        <time>2019-12-15T11:00:21.000Z</time>
      </trkpt>
      <trkpt lat="45.16385" lon="5.62831">
        <ele>1185.8000488281</ele>
        <time>2019-12-15T11:00:23.000Z</time>
      </trkpt>
      <trkpt lat="45.16385" lon="5.62833">
        <ele>1186.1999511719</ele>
        <time>2019-12-15T11:00:25.000Z</time>
      </trkpt>
      <trkpt lat="45.16385" lon="5.62834">
        <ele>1186.4000244141</ele>
        <time>2019-12-15T11:00:26.000Z</time>
      </trkpt>
      <trkpt lat="45.16385" lon="5.62836">
        <ele>1187</ele>
        <time>2019-12-15T11:00:28.000Z</time>
      </trkpt>
      <trkpt lat="45.16386" lon="5.62838">
        <ele>1187.1999511719</ele>
        <time>2019-12-15T11:00:29.000Z</time>
      </trkpt>
      <trkpt lat="45.16386" lon="5.62842">
        <ele>1188</ele>
        <time>2019-12-15T11:00:34.000Z</time>
      </trkpt>
      <trkpt lat="45.16385" lon="5.62844">
        <ele>1188</ele>
        <time>2019-12-15T11:00:35.000Z</time>
      </trkpt>
      <trkpt lat="45.16386" lon="5.62847">
        <ele>1188.5999755859</ele>
        <time>2019-12-15T11:00:39.000Z</time>
      </trkpt>
      <trkpt lat="45.16387" lon="5.62849">
        <ele>1189</ele>
        <time>2019-12-15T11:00:41.000Z</time>
      </trkpt>
      <trkpt lat="45.16387" lon="5.6285">
        <ele>1189.4000244141</ele>
        <time>2019-12-15T11:00:43.000Z</time>
      </trkpt>
      <trkpt lat="45.16388" lon="5.62855">
        <ele>1190.1999511719</ele>
        <time>2019-12-15T11:00:47.000Z</time>
      </trkpt>
      <trkpt lat="45.16388" lon="5.62855">
        <ele>1190.4000244141</ele>
        <time>2019-12-15T11:00:48.000Z</time>
      </trkpt>
      <trkpt lat="45.1639" lon="5.6286">
        <ele>1191.1999511719</ele>
        <time>2019-12-15T11:00:52.000Z</time>
      </trkpt>
      <trkpt lat="45.1639" lon="5.6286">
        <ele>1191.5999755859</ele>
        <time>2019-12-15T11:00:53.000Z</time>
      </trkpt>
      <trkpt lat="45.16392" lon="5.62865">
        <ele>1192.4000244141</ele>
        <time>2019-12-15T11:00:57.000Z</time>
      </trkpt>
      <trkpt lat="45.16392" lon="5.62867">
        <ele>1192.5999755859</ele>
        <time>2019-12-15T11:00:58.000Z</time>
      </trkpt>
      <trkpt lat="45.16393" lon="5.62869">
        <ele>1193.5999755859</ele>
        <time>2019-12-15T11:01:02.000Z</time>
      </trkpt>
      <trkpt lat="45.16394" lon="5.62877">
        <ele>1194.5999755859</ele>
        <time>2019-12-15T11:01:07.000Z</time>
      </trkpt>
      <trkpt lat="45.16395" lon="5.62877">
        <ele>1194.8000488281</ele>
        <time>2019-12-15T11:01:08.000Z</time>
      </trkpt>
      <trkpt lat="45.16395" lon="5.62879">
        <ele>1194.8000488281</ele>
        <time>2019-12-15T11:01:09.000Z</time>
      </trkpt>
      <trkpt lat="45.16396" lon="5.6288">
        <ele>1195.1999511719</ele>
        <time>2019-12-15T11:01:11.000Z</time>
      </trkpt>
      <trkpt lat="45.16396" lon="5.62883">
        <ele>1196</ele>
        <time>2019-12-15T11:01:14.000Z</time>
      </trkpt>
      <trkpt lat="45.16397" lon="5.62886">
        <ele>1196.4000244141</ele>
        <time>2019-12-15T11:01:16.000Z</time>
      </trkpt>
      <trkpt lat="45.16398" lon="5.6289">
        <ele>1197.1999511719</ele>
        <time>2019-12-15T11:01:19.000Z</time>
      </trkpt>
      <trkpt lat="45.16398" lon="5.62893">
        <ele>1197.5999755859</ele>
        <time>2019-12-15T11:01:21.000Z</time>
      </trkpt>
      <trkpt lat="45.16399" lon="5.62896">
        <ele>1198.1999511719</ele>
        <time>2019-12-15T11:01:24.000Z</time>
      </trkpt>
      <trkpt lat="45.164" lon="5.629">
        <ele>1198.8000488281</ele>
        <time>2019-12-15T11:01:27.000Z</time>
      </trkpt>
      <trkpt lat="45.16401" lon="5.62903">
        <ele>1199.1999511719</ele>
        <time>2019-12-15T11:01:29.000Z</time>
      </trkpt>
      <trkpt lat="45.16402" lon="5.62907">
        <ele>1199.5999755859</ele>
        <time>2019-12-15T11:01:31.000Z</time>
      </trkpt>
      <trkpt lat="45.16403" lon="5.6291">
        <ele>1200.1999511719</ele>
        <time>2019-12-15T11:01:34.000Z</time>
      </trkpt>
      <trkpt lat="45.16404" lon="5.62912">
        <ele>1200.8000488281</ele>
        <time>2019-12-15T11:01:36.000Z</time>
      </trkpt>
      <trkpt lat="45.16406" lon="5.62914">
        <ele>1201.4000244141</ele>
        <time>2019-12-15T11:01:39.000Z</time>
      </trkpt>
      <trkpt lat="45.16406" lon="5.62915">
        <ele>1201.4000244141</ele>
        <time>2019-12-15T11:01:40.000Z</time>
      </trkpt>
      <trkpt lat="45.16407" lon="5.62919">
        <ele>1202.4000244141</ele>
        <time>2019-12-15T11:01:44.000Z</time>
      </trkpt>
      <trkpt lat="45.16408" lon="5.62924">
        <ele>1202.8000488281</ele>
        <time>2019-12-15T11:01:48.000Z</time>
      </trkpt>
      <trkpt lat="45.16409" lon="5.62928">
        <ele>1203.4000244141</ele>
        <time>2019-12-15T11:01:51.000Z</time>
      </trkpt>
      <trkpt lat="45.16409" lon="5.62929">
        <ele>1203.8000488281</ele>
        <time>2019-12-15T11:01:52.000Z</time>
      </trkpt>
      <trkpt lat="45.1641" lon="5.62933">
        <ele>1204.5999755859</ele>
        <time>2019-12-15T11:01:57.000Z</time>
      </trkpt>
      <trkpt lat="45.16411" lon="5.62934">
        <ele>1204.8000488281</ele>
        <time>2019-12-15T11:01:58.000Z</time>
      </trkpt>
      <trkpt lat="45.16411" lon="5.62935">
        <ele>1205</ele>
        <time>2019-12-15T11:01:59.000Z</time>
      </trkpt>
      <trkpt lat="45.16413" lon="5.62938">
        <ele>1205.8000488281</ele>
        <time>2019-12-15T11:02:03.000Z</time>
      </trkpt>
      <trkpt lat="45.16415" lon="5.62944">
        <ele>1206.8000488281</ele>
        <time>2019-12-15T11:02:08.000Z</time>
      </trkpt>
      <trkpt lat="45.16415" lon="5.62944">
        <ele>1206.8000488281</ele>
        <time>2019-12-15T11:02:09.000Z</time>
      </trkpt>
      <trkpt lat="45.16416" lon="5.62948">
        <ele>1207.1999511719</ele>
        <time>2019-12-15T11:02:12.000Z</time>
      </trkpt>
      <trkpt lat="45.16419" lon="5.62955">
        <ele>1207.8000488281</ele>
        <time>2019-12-15T11:02:18.000Z</time>
      </trkpt>
      <trkpt lat="45.16419" lon="5.62957">
        <ele>1208</ele>
        <time>2019-12-15T11:02:19.000Z</time>
      </trkpt>
      <trkpt lat="45.16421" lon="5.62963">
        <ele>1208.8000488281</ele>
        <time>2019-12-15T11:02:24.000Z</time>
      </trkpt>
      <trkpt lat="45.16421" lon="5.62963">
        <ele>1209</ele>
        <time>2019-12-15T11:02:25.000Z</time>
      </trkpt>
      <trkpt lat="45.16424" lon="5.62967">
        <ele>1210</ele>
        <time>2019-12-15T11:02:30.000Z</time>
      </trkpt>
      <trkpt lat="45.16425" lon="5.62968">
        <ele>1210.1999511719</ele>
        <time>2019-12-15T11:02:31.000Z</time>
      </trkpt>
      <trkpt lat="45.16427" lon="5.62969">
        <ele>1210.4000244141</ele>
        <time>2019-12-15T11:02:32.000Z</time>
      </trkpt>
      <trkpt lat="45.16427" lon="5.62969">
        <ele>1210.5999755859</ele>
        <time>2019-12-15T11:02:34.000Z</time>
      </trkpt>
      <trkpt lat="45.16428" lon="5.6297">
        <ele>1210.8000488281</ele>
        <time>2019-12-15T11:02:35.000Z</time>
      </trkpt>
      <trkpt lat="45.16429" lon="5.62972">
        <ele>1211.1999511719</ele>
        <time>2019-12-15T11:02:37.000Z</time>
      </trkpt>
      <trkpt lat="45.16429" lon="5.62973">
        <ele>1211.4000244141</ele>
        <time>2019-12-15T11:02:38.000Z</time>
      </trkpt>
      <trkpt lat="45.16433" lon="5.62977">
        <ele>1211.8000488281</ele>
        <time>2019-12-15T11:02:42.000Z</time>
      </trkpt>
      <trkpt lat="45.16435" lon="5.62981">
        <ele>1212.1999511719</ele>
        <time>2019-12-15T11:02:45.000Z</time>
      </trkpt>
      <trkpt lat="45.16436" lon="5.62982">
        <ele>1212.5999755859</ele>
        <time>2019-12-15T11:02:47.000Z</time>
      </trkpt>
      <trkpt lat="45.16439" lon="5.62988">
        <ele>1213.1999511719</ele>
        <time>2019-12-15T11:02:52.000Z</time>
      </trkpt>
      <trkpt lat="45.1644" lon="5.62991">
        <ele>1213.4000244141</ele>
        <time>2019-12-15T11:02:53.000Z</time>
      </trkpt>
      <trkpt lat="45.16442" lon="5.62994">
        <ele>1213.8000488281</ele>
        <time>2019-12-15T11:02:56.000Z</time>
      </trkpt>
      <trkpt lat="45.16443" lon="5.62994">
        <ele>1213.8000488281</ele>
        <time>2019-12-15T11:02:57.000Z</time>
      </trkpt>
      <trkpt lat="45.16446" lon="5.62996">
        <ele>1213.8000488281</ele>
        <time>2019-12-15T11:03:00.000Z</time>
      </trkpt>
      <trkpt lat="45.16451" lon="5.62998">
        <ele>1213.8000488281</ele>
        <time>2019-12-15T11:03:04.000Z</time>
      </trkpt>
      <trkpt lat="45.16456" lon="5.62999">
        <ele>1214</ele>
        <time>2019-12-15T11:03:08.000Z</time>
      </trkpt>
      <trkpt lat="45.1646" lon="5.63">
        <ele>1214.1999511719</ele>
        <time>2019-12-15T11:03:12.000Z</time>
      </trkpt>
      <trkpt lat="45.16462" lon="5.63">
        <ele>1214.1999511719</ele>
        <time>2019-12-15T11:03:13.000Z</time>
      </trkpt>
      <trkpt lat="45.16467" lon="5.62998">
        <ele>1214.1999511719</ele>
        <time>2019-12-15T11:03:17.000Z</time>
      </trkpt>
      <trkpt lat="45.16476" lon="5.62995">
        <ele>1214</ele>
        <time>2019-12-15T11:03:23.000Z</time>
      </trkpt>
      <trkpt lat="45.16481" lon="5.62992">
        <ele>1214</ele>
        <time>2019-12-15T11:03:28.000Z</time>
      </trkpt>
      <trkpt lat="45.16491" lon="5.62987">
        <ele>1214</ele>
        <time>2019-12-15T11:03:34.000Z</time>
      </trkpt>
      <trkpt lat="45.16498" lon="5.62982">
        <ele>1213.5999755859</ele>
        <time>2019-12-15T11:03:40.000Z</time>
      </trkpt>
      <trkpt lat="45.16504" lon="5.62976">
        <ele>1213.4000244141</ele>
        <time>2019-12-15T11:03:45.000Z</time>
      </trkpt>
      <trkpt lat="45.1651" lon="5.62972">
        <ele>1213.4000244141</ele>
        <time>2019-12-15T11:03:50.000Z</time>
      </trkpt>
      <trkpt lat="45.16515" lon="5.62967">
        <ele>1213.5999755859</ele>
        <time>2019-12-15T11:03:56.000Z</time>
      </trkpt>
      <trkpt lat="45.16518" lon="5.62962">
        <ele>1213.8000488281</ele>
        <time>2019-12-15T11:04:01.000Z</time>
      </trkpt>
      <trkpt lat="45.16521" lon="5.62962">
        <ele>1214.1999511719</ele>
        <time>2019-12-15T11:04:07.000Z</time>
      </trkpt>
      <trkpt lat="45.16521" lon="5.62962">
        <ele>1214.4000244141</ele>
        <time>2019-12-15T11:04:09.000Z</time>
      </trkpt>
      <trkpt lat="45.16521" lon="5.62962">
        <ele>1214.4000244141</ele>
        <time>2019-12-15T11:04:19.000Z</time>
      </trkpt>
      <trkpt lat="45.16521" lon="5.62962">
        <ele>1214.4000244141</ele>
        <time>2019-12-15T11:04:31.000Z</time>
      </trkpt>
      <trkpt lat="45.16521" lon="5.62961">
        <ele>1214.1999511719</ele>
        <time>2019-12-15T11:04:36.000Z</time>
      </trkpt>
      <trkpt lat="45.16521" lon="5.62961">
        <ele>1214.4000244141</ele>
        <time>2019-12-15T11:04:46.000Z</time>
      </trkpt>
    </trkseg>
  </trk>
</gpx>